<?xml version="1.0" encoding="UTF-8" standalone="no" ?>
<gpx xmlns="http://www.topografix.com/GPX/1/1" xmlns:xsi="http://www.w3.org/2001/XMLSchema-instance" xsi:schemaLocation="http://www.topografix.com/GPX/1/1 http://www.topografix.com/GPX/1/1/gpx.xsd" version="1.1" creator="VisuGPX - https://www.visugpx.com">
  <metadata>
    <name>ooppsss i did it again</name>
    <desc><![CDATA[c\'est pas exactement le tour de paris, mais en km c\'est pareil :)
oufff 4h38 de roller :)]]></desc>
  </metadata>
  <trk>
    <name><![CDATA[ooppsss i did it again_1]]></name>
    <trkseg>
      <trkpt lat="48.90911" lon="2.38854">
        <ele>43</ele>
        <time>2014-02-23T14:27:54Z</time>
      </trkpt>
      <trkpt lat="48.90912" lon="2.38785">
        <ele>43</ele>
        <time>2014-02-23T14:28:08Z</time>
      </trkpt>
      <trkpt lat="48.90908" lon="2.38768">
        <ele>61</ele>
        <time>2014-02-23T14:28:22Z</time>
      </trkpt>
      <trkpt lat="48.90913" lon="2.38767">
        <ele>62</ele>
        <time>2014-02-23T14:28:24Z</time>
      </trkpt>
      <trkpt lat="48.90911" lon="2.38775">
        <ele>44</ele>
        <time>2014-02-23T14:28:54Z</time>
      </trkpt>
      <trkpt lat="48.90904" lon="2.38785">
        <ele>49</ele>
        <time>2014-02-23T14:29:05Z</time>
      </trkpt>
      <trkpt lat="48.90899" lon="2.38786">
        <ele>50</ele>
        <time>2014-02-23T14:29:13Z</time>
      </trkpt>
      <trkpt lat="48.90894" lon="2.38789">
        <ele>47</ele>
        <time>2014-02-23T14:30:32Z</time>
      </trkpt>
      <trkpt lat="48.90891" lon="2.38782">
        <ele>38</ele>
        <time>2014-02-23T14:30:34Z</time>
      </trkpt>
      <trkpt lat="48.90887" lon="2.38774">
        <ele>41</ele>
        <time>2014-02-23T14:30:36Z</time>
      </trkpt>
      <trkpt lat="48.90884" lon="2.38767">
        <ele>41</ele>
        <time>2014-02-23T14:30:38Z</time>
      </trkpt>
      <trkpt lat="48.90872" lon="2.38746">
        <ele>42</ele>
        <time>2014-02-23T14:30:48Z</time>
      </trkpt>
      <trkpt lat="48.90869" lon="2.38742">
        <ele>40</ele>
        <time>2014-02-23T14:30:52Z</time>
      </trkpt>
      <trkpt lat="48.90871" lon="2.38734">
        <ele>44</ele>
        <time>2014-02-23T14:31:04Z</time>
      </trkpt>
      <trkpt lat="48.90876" lon="2.38728">
        <ele>51</ele>
        <time>2014-02-23T14:31:07Z</time>
      </trkpt>
      <trkpt lat="48.90882" lon="2.3872">
        <ele>50</ele>
        <time>2014-02-23T14:31:09Z</time>
      </trkpt>
      <trkpt lat="48.90889" lon="2.38714">
        <ele>47</ele>
        <time>2014-02-23T14:31:11Z</time>
      </trkpt>
      <trkpt lat="48.90895" lon="2.38708">
        <ele>42</ele>
        <time>2014-02-23T14:31:13Z</time>
      </trkpt>
      <trkpt lat="48.90933" lon="2.38678">
        <ele>44</ele>
        <time>2014-02-23T14:31:23Z</time>
      </trkpt>
      <trkpt lat="48.90938" lon="2.38667">
        <ele>40</ele>
        <time>2014-02-23T14:31:25Z</time>
      </trkpt>
      <trkpt lat="48.90943" lon="2.38658">
        <ele>42</ele>
        <time>2014-02-23T14:31:27Z</time>
      </trkpt>
      <trkpt lat="48.9095" lon="2.38653">
        <ele>44</ele>
        <time>2014-02-23T14:31:29Z</time>
      </trkpt>
      <trkpt lat="48.90957" lon="2.38647">
        <ele>45</ele>
        <time>2014-02-23T14:31:31Z</time>
      </trkpt>
      <trkpt lat="48.90965" lon="2.38644">
        <ele>39</ele>
        <time>2014-02-23T14:31:33Z</time>
      </trkpt>
      <trkpt lat="48.90972" lon="2.38638">
        <ele>47</ele>
        <time>2014-02-23T14:31:35Z</time>
      </trkpt>
      <trkpt lat="48.90977" lon="2.38632">
        <ele>43</ele>
        <time>2014-02-23T14:31:37Z</time>
      </trkpt>
      <trkpt lat="48.90991" lon="2.38618">
        <ele>40</ele>
        <time>2014-02-23T14:31:42Z</time>
      </trkpt>
      <trkpt lat="48.90998" lon="2.38614">
        <ele>40</ele>
        <time>2014-02-23T14:31:44Z</time>
      </trkpt>
      <trkpt lat="48.91006" lon="2.38612">
        <ele>44</ele>
        <time>2014-02-23T14:31:46Z</time>
      </trkpt>
      <trkpt lat="48.91013" lon="2.38606">
        <ele>44</ele>
        <time>2014-02-23T14:31:48Z</time>
      </trkpt>
      <trkpt lat="48.91016" lon="2.38594">
        <ele>43</ele>
        <time>2014-02-23T14:31:50Z</time>
      </trkpt>
      <trkpt lat="48.91022" lon="2.38589">
        <ele>40</ele>
        <time>2014-02-23T14:31:52Z</time>
      </trkpt>
      <trkpt lat="48.91026" lon="2.38582">
        <ele>43</ele>
        <time>2014-02-23T14:31:54Z</time>
      </trkpt>
      <trkpt lat="48.91035" lon="2.38571">
        <ele>39</ele>
        <time>2014-02-23T14:31:57Z</time>
      </trkpt>
      <trkpt lat="48.91047" lon="2.38558">
        <ele>35</ele>
        <time>2014-02-23T14:32:01Z</time>
      </trkpt>
      <trkpt lat="48.91055" lon="2.38547">
        <ele>35</ele>
        <time>2014-02-23T14:32:04Z</time>
      </trkpt>
      <trkpt lat="48.91054" lon="2.38538">
        <ele>33</ele>
        <time>2014-02-23T14:32:06Z</time>
      </trkpt>
      <trkpt lat="48.91055" lon="2.38521">
        <ele>37</ele>
        <time>2014-02-23T14:32:12Z</time>
      </trkpt>
      <trkpt lat="48.91058" lon="2.38512">
        <ele>43</ele>
        <time>2014-02-23T14:32:15Z</time>
      </trkpt>
      <trkpt lat="48.91054" lon="2.38505">
        <ele>41</ele>
        <time>2014-02-23T14:32:17Z</time>
      </trkpt>
      <trkpt lat="48.91049" lon="2.38501">
        <ele>39</ele>
        <time>2014-02-23T14:32:20Z</time>
      </trkpt>
      <trkpt lat="48.91045" lon="2.38495">
        <ele>40</ele>
        <time>2014-02-23T14:32:24Z</time>
      </trkpt>
      <trkpt lat="48.91046" lon="2.38485">
        <ele>39</ele>
        <time>2014-02-23T14:32:29Z</time>
      </trkpt>
      <trkpt lat="48.91045" lon="2.38475">
        <ele>34</ele>
        <time>2014-02-23T14:32:33Z</time>
      </trkpt>
      <trkpt lat="48.91048" lon="2.38466">
        <ele>33</ele>
        <time>2014-02-23T14:32:35Z</time>
      </trkpt>
      <trkpt lat="48.91049" lon="2.38455">
        <ele>31</ele>
        <time>2014-02-23T14:32:37Z</time>
      </trkpt>
      <trkpt lat="48.91051" lon="2.38445">
        <ele>27</ele>
        <time>2014-02-23T14:32:39Z</time>
      </trkpt>
      <trkpt lat="48.91053" lon="2.38426">
        <ele>35</ele>
        <time>2014-02-23T14:32:44Z</time>
      </trkpt>
      <trkpt lat="48.91055" lon="2.38402">
        <ele>36</ele>
        <time>2014-02-23T14:32:49Z</time>
      </trkpt>
      <trkpt lat="48.91057" lon="2.38392">
        <ele>34</ele>
        <time>2014-02-23T14:32:51Z</time>
      </trkpt>
      <trkpt lat="48.91058" lon="2.38382">
        <ele>37</ele>
        <time>2014-02-23T14:32:53Z</time>
      </trkpt>
      <trkpt lat="48.91058" lon="2.38373">
        <ele>38</ele>
        <time>2014-02-23T14:32:55Z</time>
      </trkpt>
      <trkpt lat="48.9106" lon="2.38364">
        <ele>35</ele>
        <time>2014-02-23T14:32:57Z</time>
      </trkpt>
      <trkpt lat="48.91061" lon="2.38353">
        <ele>37</ele>
        <time>2014-02-23T14:32:59Z</time>
      </trkpt>
      <trkpt lat="48.91065" lon="2.38329">
        <ele>38</ele>
        <time>2014-02-23T14:33:04Z</time>
      </trkpt>
      <trkpt lat="48.91071" lon="2.38297">
        <ele>39</ele>
        <time>2014-02-23T14:33:10Z</time>
      </trkpt>
      <trkpt lat="48.91072" lon="2.38281">
        <ele>41</ele>
        <time>2014-02-23T14:33:13Z</time>
      </trkpt>
      <trkpt lat="48.91072" lon="2.38252">
        <ele>32</ele>
        <time>2014-02-23T14:33:20Z</time>
      </trkpt>
      <trkpt lat="48.91075" lon="2.38243">
        <ele>32</ele>
        <time>2014-02-23T14:33:23Z</time>
      </trkpt>
      <trkpt lat="48.91078" lon="2.38231">
        <ele>35</ele>
        <time>2014-02-23T14:33:26Z</time>
      </trkpt>
      <trkpt lat="48.91084" lon="2.382">
        <ele>31</ele>
        <time>2014-02-23T14:33:32Z</time>
      </trkpt>
      <trkpt lat="48.91087" lon="2.3819">
        <ele>32</ele>
        <time>2014-02-23T14:33:34Z</time>
      </trkpt>
      <trkpt lat="48.91091" lon="2.38169">
        <ele>33</ele>
        <time>2014-02-23T14:33:38Z</time>
      </trkpt>
      <trkpt lat="48.91096" lon="2.38138">
        <ele>34</ele>
        <time>2014-02-23T14:33:44Z</time>
      </trkpt>
      <trkpt lat="48.91097" lon="2.38127">
        <ele>33</ele>
        <time>2014-02-23T14:33:46Z</time>
      </trkpt>
      <trkpt lat="48.91098" lon="2.38116">
        <ele>33</ele>
        <time>2014-02-23T14:33:48Z</time>
      </trkpt>
      <trkpt lat="48.911" lon="2.38105">
        <ele>37</ele>
        <time>2014-02-23T14:33:50Z</time>
      </trkpt>
      <trkpt lat="48.91103" lon="2.3809">
        <ele>41</ele>
        <time>2014-02-23T14:33:53Z</time>
      </trkpt>
      <trkpt lat="48.91108" lon="2.3806">
        <ele>46</ele>
        <time>2014-02-23T14:33:59Z</time>
      </trkpt>
      <trkpt lat="48.9111" lon="2.38052">
        <ele>43</ele>
        <time>2014-02-23T14:34:01Z</time>
      </trkpt>
      <trkpt lat="48.91111" lon="2.38044">
        <ele>38</ele>
        <time>2014-02-23T14:34:04Z</time>
      </trkpt>
      <trkpt lat="48.91119" lon="2.37985">
        <ele>32</ele>
        <time>2014-02-23T14:34:19Z</time>
      </trkpt>
      <trkpt lat="48.91125" lon="2.37975">
        <ele>34</ele>
        <time>2014-02-23T14:34:21Z</time>
      </trkpt>
      <trkpt lat="48.91129" lon="2.37961">
        <ele>38</ele>
        <time>2014-02-23T14:34:24Z</time>
      </trkpt>
      <trkpt lat="48.91127" lon="2.3795">
        <ele>39</ele>
        <time>2014-02-23T14:34:26Z</time>
      </trkpt>
      <trkpt lat="48.9112" lon="2.37944">
        <ele>36</ele>
        <time>2014-02-23T14:34:28Z</time>
      </trkpt>
      <trkpt lat="48.91112" lon="2.37939">
        <ele>39</ele>
        <time>2014-02-23T14:34:30Z</time>
      </trkpt>
      <trkpt lat="48.91092" lon="2.37929">
        <ele>41</ele>
        <time>2014-02-23T14:34:35Z</time>
      </trkpt>
      <trkpt lat="48.91084" lon="2.37929">
        <ele>44</ele>
        <time>2014-02-23T14:34:37Z</time>
      </trkpt>
      <trkpt lat="48.91077" lon="2.37926">
        <ele>46</ele>
        <time>2014-02-23T14:34:39Z</time>
      </trkpt>
      <trkpt lat="48.91072" lon="2.37926">
        <ele>48</ele>
        <time>2014-02-23T14:34:41Z</time>
      </trkpt>
      <trkpt lat="48.91065" lon="2.37925">
        <ele>50</ele>
        <time>2014-02-23T14:34:43Z</time>
      </trkpt>
      <trkpt lat="48.91057" lon="2.37918">
        <ele>49</ele>
        <time>2014-02-23T14:34:45Z</time>
      </trkpt>
      <trkpt lat="48.91039" lon="2.37905">
        <ele>52</ele>
        <time>2014-02-23T14:34:52Z</time>
      </trkpt>
      <trkpt lat="48.91025" lon="2.37896">
        <ele>49</ele>
        <time>2014-02-23T14:34:57Z</time>
      </trkpt>
      <trkpt lat="48.9102" lon="2.37892">
        <ele>50</ele>
        <time>2014-02-23T14:34:59Z</time>
      </trkpt>
      <trkpt lat="48.91014" lon="2.37889">
        <ele>51</ele>
        <time>2014-02-23T14:35:01Z</time>
      </trkpt>
      <trkpt lat="48.9101" lon="2.37884">
        <ele>51</ele>
        <time>2014-02-23T14:35:03Z</time>
      </trkpt>
      <trkpt lat="48.91005" lon="2.37881">
        <ele>49</ele>
        <time>2014-02-23T14:35:06Z</time>
      </trkpt>
      <trkpt lat="48.90998" lon="2.37882">
        <ele>52</ele>
        <time>2014-02-23T14:35:10Z</time>
      </trkpt>
      <trkpt lat="48.90993" lon="2.37883">
        <ele>41</ele>
        <time>2014-02-23T14:35:16Z</time>
      </trkpt>
      <trkpt lat="48.90989" lon="2.37876">
        <ele>34</ele>
        <time>2014-02-23T14:35:21Z</time>
      </trkpt>
      <trkpt lat="48.90987" lon="2.37868">
        <ele>37</ele>
        <time>2014-02-23T14:35:24Z</time>
      </trkpt>
      <trkpt lat="48.90982" lon="2.3786">
        <ele>36</ele>
        <time>2014-02-23T14:35:29Z</time>
      </trkpt>
      <trkpt lat="48.90978" lon="2.37855">
        <ele>40</ele>
        <time>2014-02-23T14:35:31Z</time>
      </trkpt>
      <trkpt lat="48.9096" lon="2.3784">
        <ele>44</ele>
        <time>2014-02-23T14:35:38Z</time>
      </trkpt>
      <trkpt lat="48.90952" lon="2.37836">
        <ele>43</ele>
        <time>2014-02-23T14:35:40Z</time>
      </trkpt>
      <trkpt lat="48.9094" lon="2.37826">
        <ele>51</ele>
        <time>2014-02-23T14:35:45Z</time>
      </trkpt>
      <trkpt lat="48.90931" lon="2.37822">
        <ele>48</ele>
        <time>2014-02-23T14:35:47Z</time>
      </trkpt>
      <trkpt lat="48.90894" lon="2.37802">
        <ele>47</ele>
        <time>2014-02-23T14:36:09Z</time>
      </trkpt>
      <trkpt lat="48.90887" lon="2.37797">
        <ele>44</ele>
        <time>2014-02-23T14:36:13Z</time>
      </trkpt>
      <trkpt lat="48.90881" lon="2.37791">
        <ele>49</ele>
        <time>2014-02-23T14:36:16Z</time>
      </trkpt>
      <trkpt lat="48.90874" lon="2.37788">
        <ele>42</ele>
        <time>2014-02-23T14:36:19Z</time>
      </trkpt>
      <trkpt lat="48.90868" lon="2.37786">
        <ele>40</ele>
        <time>2014-02-23T14:36:21Z</time>
      </trkpt>
      <trkpt lat="48.90863" lon="2.37785">
        <ele>42</ele>
        <time>2014-02-23T14:36:23Z</time>
      </trkpt>
      <trkpt lat="48.90858" lon="2.37782">
        <ele>41</ele>
        <time>2014-02-23T14:36:25Z</time>
      </trkpt>
      <trkpt lat="48.90853" lon="2.37777">
        <ele>40</ele>
        <time>2014-02-23T14:36:27Z</time>
      </trkpt>
      <trkpt lat="48.90846" lon="2.37771">
        <ele>43</ele>
        <time>2014-02-23T14:36:38Z</time>
      </trkpt>
      <trkpt lat="48.90836" lon="2.37763">
        <ele>40</ele>
        <time>2014-02-23T14:36:46Z</time>
      </trkpt>
      <trkpt lat="48.90832" lon="2.37758">
        <ele>45</ele>
        <time>2014-02-23T14:36:49Z</time>
      </trkpt>
      <trkpt lat="48.90815" lon="2.3774">
        <ele>50</ele>
        <time>2014-02-23T14:36:59Z</time>
      </trkpt>
      <trkpt lat="48.9081" lon="2.37735">
        <ele>46</ele>
        <time>2014-02-23T14:37:04Z</time>
      </trkpt>
      <trkpt lat="48.90808" lon="2.37733">
        <ele>47</ele>
        <time>2014-02-23T14:37:07Z</time>
      </trkpt>
      <trkpt lat="48.90805" lon="2.37734">
        <ele>40</ele>
        <time>2014-02-23T14:37:14Z</time>
      </trkpt>
      <trkpt lat="48.908" lon="2.3773">
        <ele>36</ele>
        <time>2014-02-23T14:37:16Z</time>
      </trkpt>
      <trkpt lat="48.90783" lon="2.37715">
        <ele>36</ele>
        <time>2014-02-23T14:37:21Z</time>
      </trkpt>
      <trkpt lat="48.90776" lon="2.37707">
        <ele>43</ele>
        <time>2014-02-23T14:37:23Z</time>
      </trkpt>
      <trkpt lat="48.9077" lon="2.37698">
        <ele>45</ele>
        <time>2014-02-23T14:37:25Z</time>
      </trkpt>
      <trkpt lat="48.90764" lon="2.37687">
        <ele>42</ele>
        <time>2014-02-23T14:37:27Z</time>
      </trkpt>
      <trkpt lat="48.90758" lon="2.3768">
        <ele>40</ele>
        <time>2014-02-23T14:37:29Z</time>
      </trkpt>
      <trkpt lat="48.9074" lon="2.37654">
        <ele>45</ele>
        <time>2014-02-23T14:37:39Z</time>
      </trkpt>
      <trkpt lat="48.90738" lon="2.3765">
        <ele>41</ele>
        <time>2014-02-23T14:37:41Z</time>
      </trkpt>
      <trkpt lat="48.90736" lon="2.37646">
        <ele>41</ele>
        <time>2014-02-23T14:37:43Z</time>
      </trkpt>
      <trkpt lat="48.90733" lon="2.37643">
        <ele>44</ele>
        <time>2014-02-23T14:37:45Z</time>
      </trkpt>
      <trkpt lat="48.9073" lon="2.37638">
        <ele>44</ele>
        <time>2014-02-23T14:37:48Z</time>
      </trkpt>
      <trkpt lat="48.90728" lon="2.37631">
        <ele>43</ele>
        <time>2014-02-23T14:37:52Z</time>
      </trkpt>
      <trkpt lat="48.90725" lon="2.37625">
        <ele>48</ele>
        <time>2014-02-23T14:37:54Z</time>
      </trkpt>
      <trkpt lat="48.9072" lon="2.37618">
        <ele>47</ele>
        <time>2014-02-23T14:37:57Z</time>
      </trkpt>
      <trkpt lat="48.90708" lon="2.37603">
        <ele>47</ele>
        <time>2014-02-23T14:38:06Z</time>
      </trkpt>
      <trkpt lat="48.90693" lon="2.37584">
        <ele>43</ele>
        <time>2014-02-23T14:38:16Z</time>
      </trkpt>
      <trkpt lat="48.90687" lon="2.37579">
        <ele>50</ele>
        <time>2014-02-23T14:38:18Z</time>
      </trkpt>
      <trkpt lat="48.90681" lon="2.37575">
        <ele>47</ele>
        <time>2014-02-23T14:38:21Z</time>
      </trkpt>
      <trkpt lat="48.90676" lon="2.37567">
        <ele>48</ele>
        <time>2014-02-23T14:38:24Z</time>
      </trkpt>
      <trkpt lat="48.90669" lon="2.37562">
        <ele>43</ele>
        <time>2014-02-23T14:38:26Z</time>
      </trkpt>
      <trkpt lat="48.90665" lon="2.37556">
        <ele>43</ele>
        <time>2014-02-23T14:38:28Z</time>
      </trkpt>
      <trkpt lat="48.90659" lon="2.37552">
        <ele>39</ele>
        <time>2014-02-23T14:38:31Z</time>
      </trkpt>
      <trkpt lat="48.90655" lon="2.37547">
        <ele>42</ele>
        <time>2014-02-23T14:38:33Z</time>
      </trkpt>
      <trkpt lat="48.9065" lon="2.37542">
        <ele>47</ele>
        <time>2014-02-23T14:38:35Z</time>
      </trkpt>
      <trkpt lat="48.90639" lon="2.37534">
        <ele>51</ele>
        <time>2014-02-23T14:38:38Z</time>
      </trkpt>
      <trkpt lat="48.90634" lon="2.37527">
        <ele>47</ele>
        <time>2014-02-23T14:38:40Z</time>
      </trkpt>
      <trkpt lat="48.90629" lon="2.3752">
        <ele>45</ele>
        <time>2014-02-23T14:38:42Z</time>
      </trkpt>
      <trkpt lat="48.90613" lon="2.37501">
        <ele>38</ele>
        <time>2014-02-23T14:38:48Z</time>
      </trkpt>
      <trkpt lat="48.90607" lon="2.37496">
        <ele>36</ele>
        <time>2014-02-23T14:38:51Z</time>
      </trkpt>
      <trkpt lat="48.90602" lon="2.37489">
        <ele>36</ele>
        <time>2014-02-23T14:38:53Z</time>
      </trkpt>
      <trkpt lat="48.90594" lon="2.37489">
        <ele>51</ele>
        <time>2014-02-23T14:39:17Z</time>
      </trkpt>
      <trkpt lat="48.90593" lon="2.375">
        <ele>50</ele>
        <time>2014-02-23T14:39:19Z</time>
      </trkpt>
      <trkpt lat="48.90592" lon="2.37508">
        <ele>50</ele>
        <time>2014-02-23T14:39:23Z</time>
      </trkpt>
      <trkpt lat="48.90586" lon="2.37503">
        <ele>68</ele>
        <time>2014-02-23T14:39:41Z</time>
      </trkpt>
      <trkpt lat="48.90582" lon="2.37495">
        <ele>62</ele>
        <time>2014-02-23T14:39:42Z</time>
      </trkpt>
      <trkpt lat="48.9057" lon="2.37473">
        <ele>47</ele>
        <time>2014-02-23T14:39:47Z</time>
      </trkpt>
      <trkpt lat="48.90558" lon="2.37456">
        <ele>49</ele>
        <time>2014-02-23T14:39:51Z</time>
      </trkpt>
      <trkpt lat="48.9055" lon="2.37442">
        <ele>44</ele>
        <time>2014-02-23T14:39:54Z</time>
      </trkpt>
      <trkpt lat="48.90523" lon="2.37398">
        <ele>35</ele>
        <time>2014-02-23T14:40:02Z</time>
      </trkpt>
      <trkpt lat="48.90519" lon="2.37393">
        <ele>37</ele>
        <time>2014-02-23T14:40:03Z</time>
      </trkpt>
      <trkpt lat="48.90488" lon="2.37352">
        <ele>41</ele>
        <time>2014-02-23T14:40:12Z</time>
      </trkpt>
      <trkpt lat="48.90484" lon="2.37348">
        <ele>40</ele>
        <time>2014-02-23T14:40:13Z</time>
      </trkpt>
      <trkpt lat="48.90451" lon="2.37311">
        <ele>34</ele>
        <time>2014-02-23T14:40:23Z</time>
      </trkpt>
      <trkpt lat="48.90446" lon="2.37304">
        <ele>32</ele>
        <time>2014-02-23T14:40:25Z</time>
      </trkpt>
      <trkpt lat="48.90441" lon="2.37297">
        <ele>34</ele>
        <time>2014-02-23T14:40:27Z</time>
      </trkpt>
      <trkpt lat="48.90437" lon="2.37294">
        <ele>44</ele>
        <time>2014-02-23T14:40:34Z</time>
      </trkpt>
      <trkpt lat="48.90434" lon="2.37304">
        <ele>75</ele>
        <time>2014-02-23T14:40:59Z</time>
      </trkpt>
      <trkpt lat="48.90433" lon="2.37312">
        <ele>75</ele>
        <time>2014-02-23T14:41:01Z</time>
      </trkpt>
      <trkpt lat="48.90433" lon="2.37324">
        <ele>81</ele>
        <time>2014-02-23T14:41:03Z</time>
      </trkpt>
      <trkpt lat="48.90433" lon="2.37334">
        <ele>77</ele>
        <time>2014-02-23T14:41:05Z</time>
      </trkpt>
      <trkpt lat="48.90431" lon="2.37342">
        <ele>70</ele>
        <time>2014-02-23T14:41:07Z</time>
      </trkpt>
      <trkpt lat="48.90425" lon="2.37358">
        <ele>54</ele>
        <time>2014-02-23T14:41:11Z</time>
      </trkpt>
      <trkpt lat="48.90414" lon="2.37388">
        <ele>47</ele>
        <time>2014-02-23T14:41:18Z</time>
      </trkpt>
      <trkpt lat="48.90411" lon="2.374">
        <ele>45</ele>
        <time>2014-02-23T14:41:20Z</time>
      </trkpt>
      <trkpt lat="48.90388" lon="2.37496">
        <ele>42</ele>
        <time>2014-02-23T14:41:39Z</time>
      </trkpt>
      <trkpt lat="48.90389" lon="2.37505">
        <ele>41</ele>
        <time>2014-02-23T14:41:42Z</time>
      </trkpt>
      <trkpt lat="48.90386" lon="2.37512">
        <ele>40</ele>
        <time>2014-02-23T14:41:46Z</time>
      </trkpt>
      <trkpt lat="48.90379" lon="2.37509">
        <ele>38</ele>
        <time>2014-02-23T14:41:49Z</time>
      </trkpt>
      <trkpt lat="48.90374" lon="2.37504">
        <ele>41</ele>
        <time>2014-02-23T14:41:51Z</time>
      </trkpt>
      <trkpt lat="48.90355" lon="2.37485">
        <ele>35</ele>
        <time>2014-02-23T14:41:57Z</time>
      </trkpt>
      <trkpt lat="48.90346" lon="2.37474">
        <ele>36</ele>
        <time>2014-02-23T14:42:00Z</time>
      </trkpt>
      <trkpt lat="48.90328" lon="2.37456">
        <ele>34</ele>
        <time>2014-02-23T14:42:06Z</time>
      </trkpt>
      <trkpt lat="48.9031" lon="2.37438">
        <ele>35</ele>
        <time>2014-02-23T14:42:12Z</time>
      </trkpt>
      <trkpt lat="48.90301" lon="2.37431">
        <ele>39</ele>
        <time>2014-02-23T14:42:15Z</time>
      </trkpt>
      <trkpt lat="48.90284" lon="2.37416">
        <ele>39</ele>
        <time>2014-02-23T14:42:21Z</time>
      </trkpt>
      <trkpt lat="48.90277" lon="2.37409">
        <ele>39</ele>
        <time>2014-02-23T14:42:23Z</time>
      </trkpt>
      <trkpt lat="48.90264" lon="2.37392">
        <ele>40</ele>
        <time>2014-02-23T14:42:27Z</time>
      </trkpt>
      <trkpt lat="48.90249" lon="2.37374">
        <ele>47</ele>
        <time>2014-02-23T14:42:32Z</time>
      </trkpt>
      <trkpt lat="48.90244" lon="2.37368">
        <ele>42</ele>
        <time>2014-02-23T14:42:34Z</time>
      </trkpt>
      <trkpt lat="48.90228" lon="2.37353">
        <ele>42</ele>
        <time>2014-02-23T14:42:39Z</time>
      </trkpt>
      <trkpt lat="48.90223" lon="2.37346">
        <ele>42</ele>
        <time>2014-02-23T14:42:41Z</time>
      </trkpt>
      <trkpt lat="48.90191" lon="2.37305">
        <ele>37</ele>
        <time>2014-02-23T14:42:51Z</time>
      </trkpt>
      <trkpt lat="48.90186" lon="2.37297">
        <ele>36</ele>
        <time>2014-02-23T14:42:53Z</time>
      </trkpt>
      <trkpt lat="48.90172" lon="2.37275">
        <ele>38</ele>
        <time>2014-02-23T14:42:59Z</time>
      </trkpt>
      <trkpt lat="48.90167" lon="2.37268">
        <ele>37</ele>
        <time>2014-02-23T14:43:01Z</time>
      </trkpt>
      <trkpt lat="48.90137" lon="2.37224">
        <ele>42</ele>
        <time>2014-02-23T14:43:11Z</time>
      </trkpt>
      <trkpt lat="48.90133" lon="2.37219">
        <ele>43</ele>
        <time>2014-02-23T14:43:13Z</time>
      </trkpt>
      <trkpt lat="48.90127" lon="2.37216">
        <ele>44</ele>
        <time>2014-02-23T14:43:15Z</time>
      </trkpt>
      <trkpt lat="48.90117" lon="2.37207">
        <ele>45</ele>
        <time>2014-02-23T14:43:19Z</time>
      </trkpt>
      <trkpt lat="48.90113" lon="2.37201">
        <ele>43</ele>
        <time>2014-02-23T14:43:21Z</time>
      </trkpt>
      <trkpt lat="48.90109" lon="2.37196">
        <ele>42</ele>
        <time>2014-02-23T14:43:24Z</time>
      </trkpt>
      <trkpt lat="48.90105" lon="2.37187">
        <ele>45</ele>
        <time>2014-02-23T14:43:28Z</time>
      </trkpt>
      <trkpt lat="48.90101" lon="2.37181">
        <ele>51</ele>
        <time>2014-02-23T14:43:30Z</time>
      </trkpt>
      <trkpt lat="48.90095" lon="2.37174">
        <ele>49</ele>
        <time>2014-02-23T14:43:33Z</time>
      </trkpt>
      <trkpt lat="48.9009" lon="2.37172">
        <ele>48</ele>
        <time>2014-02-23T14:43:35Z</time>
      </trkpt>
      <trkpt lat="48.90084" lon="2.37172">
        <ele>44</ele>
        <time>2014-02-23T14:43:37Z</time>
      </trkpt>
      <trkpt lat="48.90081" lon="2.37172">
        <ele>41</ele>
        <time>2014-02-23T14:43:38Z</time>
      </trkpt>
      <trkpt lat="48.90075" lon="2.37171">
        <ele>44</ele>
        <time>2014-02-23T14:43:40Z</time>
      </trkpt>
      <trkpt lat="48.90069" lon="2.37171">
        <ele>48</ele>
        <time>2014-02-23T14:43:42Z</time>
      </trkpt>
      <trkpt lat="48.90057" lon="2.37171">
        <ele>44</ele>
        <time>2014-02-23T14:43:48Z</time>
      </trkpt>
      <trkpt lat="48.90052" lon="2.3717">
        <ele>42</ele>
        <time>2014-02-23T14:43:52Z</time>
      </trkpt>
      <trkpt lat="48.90046" lon="2.37169">
        <ele>38</ele>
        <time>2014-02-23T14:43:58Z</time>
      </trkpt>
      <trkpt lat="48.9004" lon="2.37166">
        <ele>35</ele>
        <time>2014-02-23T14:44:04Z</time>
      </trkpt>
      <trkpt lat="48.90025" lon="2.37156">
        <ele>38</ele>
        <time>2014-02-23T14:44:11Z</time>
      </trkpt>
      <trkpt lat="48.9002" lon="2.37148">
        <ele>37</ele>
        <time>2014-02-23T14:44:14Z</time>
      </trkpt>
      <trkpt lat="48.90007" lon="2.37127">
        <ele>34</ele>
        <time>2014-02-23T14:44:23Z</time>
      </trkpt>
      <trkpt lat="48.90001" lon="2.37126">
        <ele>37</ele>
        <time>2014-02-23T14:44:26Z</time>
      </trkpt>
      <trkpt lat="48.89982" lon="2.37124">
        <ele>36</ele>
        <time>2014-02-23T14:44:33Z</time>
      </trkpt>
      <trkpt lat="48.89967" lon="2.37124">
        <ele>36</ele>
        <time>2014-02-23T14:44:39Z</time>
      </trkpt>
      <trkpt lat="48.89961" lon="2.37125">
        <ele>40</ele>
        <time>2014-02-23T14:44:42Z</time>
      </trkpt>
      <trkpt lat="48.89947" lon="2.37125">
        <ele>37</ele>
        <time>2014-02-23T14:44:49Z</time>
      </trkpt>
      <trkpt lat="48.89908" lon="2.37126">
        <ele>31</ele>
        <time>2014-02-23T14:45:03Z</time>
      </trkpt>
      <trkpt lat="48.89903" lon="2.37121">
        <ele>39</ele>
        <time>2014-02-23T14:45:06Z</time>
      </trkpt>
      <trkpt lat="48.899" lon="2.37115">
        <ele>50</ele>
        <time>2014-02-23T14:45:10Z</time>
      </trkpt>
      <trkpt lat="48.89895" lon="2.37106">
        <ele>47</ele>
        <time>2014-02-23T14:45:13Z</time>
      </trkpt>
      <trkpt lat="48.89892" lon="2.37098">
        <ele>46</ele>
        <time>2014-02-23T14:45:16Z</time>
      </trkpt>
      <trkpt lat="48.89891" lon="2.37089">
        <ele>48</ele>
        <time>2014-02-23T14:45:19Z</time>
      </trkpt>
      <trkpt lat="48.89891" lon="2.37077">
        <ele>50</ele>
        <time>2014-02-23T14:45:23Z</time>
      </trkpt>
      <trkpt lat="48.89891" lon="2.37069">
        <ele>44</ele>
        <time>2014-02-23T14:45:27Z</time>
      </trkpt>
      <trkpt lat="48.89894" lon="2.37063">
        <ele>39</ele>
        <time>2014-02-23T14:45:30Z</time>
      </trkpt>
      <trkpt lat="48.89895" lon="2.37055">
        <ele>36</ele>
        <time>2014-02-23T14:45:32Z</time>
      </trkpt>
      <trkpt lat="48.89894" lon="2.37039">
        <ele>45</ele>
        <time>2014-02-23T14:45:36Z</time>
      </trkpt>
      <trkpt lat="48.8989" lon="2.37029">
        <ele>47</ele>
        <time>2014-02-23T14:45:39Z</time>
      </trkpt>
      <trkpt lat="48.89883" lon="2.37016">
        <ele>46</ele>
        <time>2014-02-23T14:45:53Z</time>
      </trkpt>
      <trkpt lat="48.89876" lon="2.37008">
        <ele>46</ele>
        <time>2014-02-23T14:45:58Z</time>
      </trkpt>
      <trkpt lat="48.8987" lon="2.37002">
        <ele>46</ele>
        <time>2014-02-23T14:46:02Z</time>
      </trkpt>
      <trkpt lat="48.89867" lon="2.36997">
        <ele>44</ele>
        <time>2014-02-23T14:46:04Z</time>
      </trkpt>
      <trkpt lat="48.89866" lon="2.36987">
        <ele>45</ele>
        <time>2014-02-23T14:46:07Z</time>
      </trkpt>
      <trkpt lat="48.89863" lon="2.36978">
        <ele>42</ele>
        <time>2014-02-23T14:46:10Z</time>
      </trkpt>
      <trkpt lat="48.89861" lon="2.36967">
        <ele>38</ele>
        <time>2014-02-23T14:46:13Z</time>
      </trkpt>
      <trkpt lat="48.8986" lon="2.36956">
        <ele>44</ele>
        <time>2014-02-23T14:46:16Z</time>
      </trkpt>
      <trkpt lat="48.8986" lon="2.36947">
        <ele>47</ele>
        <time>2014-02-23T14:46:18Z</time>
      </trkpt>
      <trkpt lat="48.89862" lon="2.36917">
        <ele>50</ele>
        <time>2014-02-23T14:46:24Z</time>
      </trkpt>
      <trkpt lat="48.89862" lon="2.36906">
        <ele>50</ele>
        <time>2014-02-23T14:46:26Z</time>
      </trkpt>
      <trkpt lat="48.89862" lon="2.36895">
        <ele>44</ele>
        <time>2014-02-23T14:46:28Z</time>
      </trkpt>
      <trkpt lat="48.89863" lon="2.36881">
        <ele>44</ele>
        <time>2014-02-23T14:46:30Z</time>
      </trkpt>
      <trkpt lat="48.89866" lon="2.36869">
        <ele>42</ele>
        <time>2014-02-23T14:46:32Z</time>
      </trkpt>
      <trkpt lat="48.89867" lon="2.36858">
        <ele>38</ele>
        <time>2014-02-23T14:46:34Z</time>
      </trkpt>
      <trkpt lat="48.89864" lon="2.36846">
        <ele>36</ele>
        <time>2014-02-23T14:46:36Z</time>
      </trkpt>
      <trkpt lat="48.89861" lon="2.3682">
        <ele>36</ele>
        <time>2014-02-23T14:46:40Z</time>
      </trkpt>
      <trkpt lat="48.89862" lon="2.36808">
        <ele>39</ele>
        <time>2014-02-23T14:46:42Z</time>
      </trkpt>
      <trkpt lat="48.89862" lon="2.36787">
        <ele>36</ele>
        <time>2014-02-23T14:46:45Z</time>
      </trkpt>
      <trkpt lat="48.89862" lon="2.36774">
        <ele>37</ele>
        <time>2014-02-23T14:46:47Z</time>
      </trkpt>
      <trkpt lat="48.89856" lon="2.36651">
        <ele>39</ele>
        <time>2014-02-23T14:47:03Z</time>
      </trkpt>
      <trkpt lat="48.89853" lon="2.36591">
        <ele>38</ele>
        <time>2014-02-23T14:47:13Z</time>
      </trkpt>
      <trkpt lat="48.89853" lon="2.36579">
        <ele>34</ele>
        <time>2014-02-23T14:47:15Z</time>
      </trkpt>
      <trkpt lat="48.89852" lon="2.36566">
        <ele>38</ele>
        <time>2014-02-23T14:47:17Z</time>
      </trkpt>
      <trkpt lat="48.89848" lon="2.36538">
        <ele>39</ele>
        <time>2014-02-23T14:47:22Z</time>
      </trkpt>
      <trkpt lat="48.89849" lon="2.36526">
        <ele>38</ele>
        <time>2014-02-23T14:47:24Z</time>
      </trkpt>
      <trkpt lat="48.89848" lon="2.36515">
        <ele>31</ele>
        <time>2014-02-23T14:47:26Z</time>
      </trkpt>
      <trkpt lat="48.8985" lon="2.36503">
        <ele>37</ele>
        <time>2014-02-23T14:47:28Z</time>
      </trkpt>
      <trkpt lat="48.89851" lon="2.36492">
        <ele>35</ele>
        <time>2014-02-23T14:47:30Z</time>
      </trkpt>
      <trkpt lat="48.89853" lon="2.36477">
        <ele>33</ele>
        <time>2014-02-23T14:47:33Z</time>
      </trkpt>
      <trkpt lat="48.89852" lon="2.36466">
        <ele>36</ele>
        <time>2014-02-23T14:47:35Z</time>
      </trkpt>
      <trkpt lat="48.89849" lon="2.36455">
        <ele>37</ele>
        <time>2014-02-23T14:47:38Z</time>
      </trkpt>
      <trkpt lat="48.89846" lon="2.36434">
        <ele>41</ele>
        <time>2014-02-23T14:47:43Z</time>
      </trkpt>
      <trkpt lat="48.89847" lon="2.36424">
        <ele>41</ele>
        <time>2014-02-23T14:47:45Z</time>
      </trkpt>
      <trkpt lat="48.89848" lon="2.36416">
        <ele>35</ele>
        <time>2014-02-23T14:47:47Z</time>
      </trkpt>
      <trkpt lat="48.89851" lon="2.36405">
        <ele>32</ele>
        <time>2014-02-23T14:47:49Z</time>
      </trkpt>
      <trkpt lat="48.8985" lon="2.36392">
        <ele>35</ele>
        <time>2014-02-23T14:47:51Z</time>
      </trkpt>
      <trkpt lat="48.89849" lon="2.36383">
        <ele>34</ele>
        <time>2014-02-23T14:47:53Z</time>
      </trkpt>
      <trkpt lat="48.89846" lon="2.36367">
        <ele>31</ele>
        <time>2014-02-23T14:47:57Z</time>
      </trkpt>
      <trkpt lat="48.89842" lon="2.36339">
        <ele>37</ele>
        <time>2014-02-23T14:48:03Z</time>
      </trkpt>
      <trkpt lat="48.8984" lon="2.3633">
        <ele>35</ele>
        <time>2014-02-23T14:48:05Z</time>
      </trkpt>
      <trkpt lat="48.8984" lon="2.36321">
        <ele>35</ele>
        <time>2014-02-23T14:48:07Z</time>
      </trkpt>
      <trkpt lat="48.89838" lon="2.36305">
        <ele>38</ele>
        <time>2014-02-23T14:48:11Z</time>
      </trkpt>
      <trkpt lat="48.89836" lon="2.36296">
        <ele>38</ele>
        <time>2014-02-23T14:48:13Z</time>
      </trkpt>
      <trkpt lat="48.89836" lon="2.36287">
        <ele>35</ele>
        <time>2014-02-23T14:48:15Z</time>
      </trkpt>
      <trkpt lat="48.89835" lon="2.36276">
        <ele>35</ele>
        <time>2014-02-23T14:48:17Z</time>
      </trkpt>
      <trkpt lat="48.89834" lon="2.36257">
        <ele>28</ele>
        <time>2014-02-23T14:48:21Z</time>
      </trkpt>
      <trkpt lat="48.89833" lon="2.36249">
        <ele>29</ele>
        <time>2014-02-23T14:48:23Z</time>
      </trkpt>
      <trkpt lat="48.89833" lon="2.36239">
        <ele>29</ele>
        <time>2014-02-23T14:48:25Z</time>
      </trkpt>
      <trkpt lat="48.8983" lon="2.36203">
        <ele>28</ele>
        <time>2014-02-23T14:48:33Z</time>
      </trkpt>
      <trkpt lat="48.8983" lon="2.36178">
        <ele>31</ele>
        <time>2014-02-23T14:48:38Z</time>
      </trkpt>
      <trkpt lat="48.89828" lon="2.36163">
        <ele>28</ele>
        <time>2014-02-23T14:48:41Z</time>
      </trkpt>
      <trkpt lat="48.89826" lon="2.36137">
        <ele>36</ele>
        <time>2014-02-23T14:48:47Z</time>
      </trkpt>
      <trkpt lat="48.89826" lon="2.36124">
        <ele>34</ele>
        <time>2014-02-23T14:48:51Z</time>
      </trkpt>
      <trkpt lat="48.89827" lon="2.36111">
        <ele>41</ele>
        <time>2014-02-23T14:48:55Z</time>
      </trkpt>
      <trkpt lat="48.89829" lon="2.36102">
        <ele>42</ele>
        <time>2014-02-23T14:48:57Z</time>
      </trkpt>
      <trkpt lat="48.8983" lon="2.36091">
        <ele>36</ele>
        <time>2014-02-23T14:48:59Z</time>
      </trkpt>
      <trkpt lat="48.89831" lon="2.36081">
        <ele>38</ele>
        <time>2014-02-23T14:49:01Z</time>
      </trkpt>
      <trkpt lat="48.89832" lon="2.36045">
        <ele>37</ele>
        <time>2014-02-23T14:49:07Z</time>
      </trkpt>
      <trkpt lat="48.89831" lon="2.36032">
        <ele>37</ele>
        <time>2014-02-23T14:49:09Z</time>
      </trkpt>
      <trkpt lat="48.8983" lon="2.36">
        <ele>37</ele>
        <time>2014-02-23T14:49:15Z</time>
      </trkpt>
      <trkpt lat="48.89828" lon="2.35973">
        <ele>37</ele>
        <time>2014-02-23T14:49:21Z</time>
      </trkpt>
      <trkpt lat="48.89827" lon="2.3597">
        <ele>37</ele>
        <time>2014-02-23T14:49:22Z</time>
      </trkpt>
      <trkpt lat="48.89827" lon="2.3595">
        <ele>36</ele>
        <time>2014-02-23T14:49:28Z</time>
      </trkpt>
      <trkpt lat="48.89828" lon="2.35941">
        <ele>40</ele>
        <time>2014-02-23T14:49:31Z</time>
      </trkpt>
      <trkpt lat="48.89828" lon="2.35932">
        <ele>41</ele>
        <time>2014-02-23T14:49:34Z</time>
      </trkpt>
      <trkpt lat="48.89827" lon="2.35924">
        <ele>34</ele>
        <time>2014-02-23T14:49:38Z</time>
      </trkpt>
      <trkpt lat="48.89829" lon="2.3591">
        <ele>30</ele>
        <time>2014-02-23T14:49:46Z</time>
      </trkpt>
      <trkpt lat="48.89829" lon="2.35896">
        <ele>33</ele>
        <time>2014-02-23T14:49:50Z</time>
      </trkpt>
      <trkpt lat="48.8983" lon="2.35881">
        <ele>31</ele>
        <time>2014-02-23T14:49:53Z</time>
      </trkpt>
      <trkpt lat="48.89832" lon="2.35871">
        <ele>34</ele>
        <time>2014-02-23T14:49:55Z</time>
      </trkpt>
      <trkpt lat="48.89831" lon="2.35862">
        <ele>34</ele>
        <time>2014-02-23T14:49:58Z</time>
      </trkpt>
      <trkpt lat="48.8983" lon="2.3583">
        <ele>38</ele>
        <time>2014-02-23T14:50:07Z</time>
      </trkpt>
      <trkpt lat="48.8983" lon="2.358">
        <ele>40</ele>
        <time>2014-02-23T14:50:15Z</time>
      </trkpt>
      <trkpt lat="48.89828" lon="2.35792">
        <ele>38</ele>
        <time>2014-02-23T14:50:17Z</time>
      </trkpt>
      <trkpt lat="48.89827" lon="2.35781">
        <ele>36</ele>
        <time>2014-02-23T14:50:20Z</time>
      </trkpt>
      <trkpt lat="48.89828" lon="2.35757">
        <ele>40</ele>
        <time>2014-02-23T14:50:25Z</time>
      </trkpt>
      <trkpt lat="48.89828" lon="2.35747">
        <ele>40</ele>
        <time>2014-02-23T14:50:27Z</time>
      </trkpt>
      <trkpt lat="48.89828" lon="2.35737">
        <ele>38</ele>
        <time>2014-02-23T14:50:29Z</time>
      </trkpt>
      <trkpt lat="48.89829" lon="2.35728">
        <ele>39</ele>
        <time>2014-02-23T14:50:31Z</time>
      </trkpt>
      <trkpt lat="48.8983" lon="2.35717">
        <ele>38</ele>
        <time>2014-02-23T14:50:33Z</time>
      </trkpt>
      <trkpt lat="48.89831" lon="2.35699">
        <ele>36</ele>
        <time>2014-02-23T14:50:36Z</time>
      </trkpt>
      <trkpt lat="48.8983" lon="2.35685">
        <ele>35</ele>
        <time>2014-02-23T14:50:38Z</time>
      </trkpt>
      <trkpt lat="48.89829" lon="2.35677">
        <ele>36</ele>
        <time>2014-02-23T14:50:39Z</time>
      </trkpt>
      <trkpt lat="48.89829" lon="2.35663">
        <ele>40</ele>
        <time>2014-02-23T14:50:41Z</time>
      </trkpt>
      <trkpt lat="48.89828" lon="2.35646">
        <ele>40</ele>
        <time>2014-02-23T14:50:43Z</time>
      </trkpt>
      <trkpt lat="48.89828" lon="2.35627">
        <ele>38</ele>
        <time>2014-02-23T14:50:45Z</time>
      </trkpt>
      <trkpt lat="48.89829" lon="2.35618">
        <ele>36</ele>
        <time>2014-02-23T14:50:46Z</time>
      </trkpt>
      <trkpt lat="48.89831" lon="2.35584">
        <ele>35</ele>
        <time>2014-02-23T14:50:50Z</time>
      </trkpt>
      <trkpt lat="48.89831" lon="2.35576">
        <ele>38</ele>
        <time>2014-02-23T14:50:51Z</time>
      </trkpt>
      <trkpt lat="48.89828" lon="2.35547">
        <ele>36</ele>
        <time>2014-02-23T14:50:55Z</time>
      </trkpt>
      <trkpt lat="48.89828" lon="2.3554">
        <ele>38</ele>
        <time>2014-02-23T14:50:56Z</time>
      </trkpt>
      <trkpt lat="48.89829" lon="2.35526">
        <ele>39</ele>
        <time>2014-02-23T14:50:58Z</time>
      </trkpt>
      <trkpt lat="48.89832" lon="2.35494">
        <ele>35</ele>
        <time>2014-02-23T14:51:03Z</time>
      </trkpt>
      <trkpt lat="48.89832" lon="2.35473">
        <ele>29</ele>
        <time>2014-02-23T14:51:06Z</time>
      </trkpt>
      <trkpt lat="48.8983" lon="2.3544">
        <ele>33</ele>
        <time>2014-02-23T14:51:11Z</time>
      </trkpt>
      <trkpt lat="48.89845" lon="2.35374">
        <ele>35</ele>
        <time>2014-02-23T14:51:29Z</time>
      </trkpt>
      <trkpt lat="48.89845" lon="2.35342">
        <ele>51</ele>
        <time>2014-02-23T14:51:33Z</time>
      </trkpt>
      <trkpt lat="48.89846" lon="2.35339">
        <ele>40</ele>
        <time>2014-02-23T14:51:34Z</time>
      </trkpt>
      <trkpt lat="48.8984" lon="2.35341">
        <ele>39</ele>
        <time>2014-02-23T14:51:41Z</time>
      </trkpt>
      <trkpt lat="48.89836" lon="2.35335">
        <ele>38</ele>
        <time>2014-02-23T14:51:44Z</time>
      </trkpt>
      <trkpt lat="48.89833" lon="2.35326">
        <ele>41</ele>
        <time>2014-02-23T14:51:47Z</time>
      </trkpt>
      <trkpt lat="48.89831" lon="2.35317">
        <ele>42</ele>
        <time>2014-02-23T14:51:50Z</time>
      </trkpt>
      <trkpt lat="48.89826" lon="2.35289">
        <ele>41</ele>
        <time>2014-02-23T14:52:00Z</time>
      </trkpt>
      <trkpt lat="48.89826" lon="2.35279">
        <ele>42</ele>
        <time>2014-02-23T14:52:06Z</time>
      </trkpt>
      <trkpt lat="48.89824" lon="2.35266">
        <ele>44</ele>
        <time>2014-02-23T14:52:16Z</time>
      </trkpt>
      <trkpt lat="48.89821" lon="2.35257">
        <ele>40</ele>
        <time>2014-02-23T14:52:33Z</time>
      </trkpt>
      <trkpt lat="48.89819" lon="2.35247">
        <ele>41</ele>
        <time>2014-02-23T14:52:36Z</time>
      </trkpt>
      <trkpt lat="48.89822" lon="2.35241">
        <ele>46</ele>
        <time>2014-02-23T14:52:40Z</time>
      </trkpt>
      <trkpt lat="48.89827" lon="2.35236">
        <ele>47</ele>
        <time>2014-02-23T14:52:43Z</time>
      </trkpt>
      <trkpt lat="48.89828" lon="2.35236">
        <ele>49</ele>
        <time>2014-02-23T14:52:44Z</time>
      </trkpt>
      <trkpt lat="48.89831" lon="2.35236">
        <ele>49</ele>
        <time>2014-02-23T14:52:48Z</time>
      </trkpt>
      <trkpt lat="48.89839" lon="2.35238">
        <ele>50</ele>
        <time>2014-02-23T14:53:00Z</time>
      </trkpt>
      <trkpt lat="48.89844" lon="2.35235">
        <ele>53</ele>
        <time>2014-02-23T14:53:05Z</time>
      </trkpt>
      <trkpt lat="48.89843" lon="2.35234">
        <ele>68</ele>
        <time>2014-02-23T14:53:10Z</time>
      </trkpt>
      <trkpt lat="48.89843" lon="2.35221">
        <ele>69</ele>
        <time>2014-02-23T14:53:27Z</time>
      </trkpt>
      <trkpt lat="48.89842" lon="2.35186">
        <ele>66</ele>
        <time>2014-02-23T14:53:32Z</time>
      </trkpt>
      <trkpt lat="48.89842" lon="2.35178">
        <ele>66</ele>
        <time>2014-02-23T14:53:33Z</time>
      </trkpt>
      <trkpt lat="48.89843" lon="2.35142">
        <ele>57</ele>
        <time>2014-02-23T14:53:37Z</time>
      </trkpt>
      <trkpt lat="48.89844" lon="2.35134">
        <ele>54</ele>
        <time>2014-02-23T14:53:38Z</time>
      </trkpt>
      <trkpt lat="48.89844" lon="2.35118">
        <ele>48</ele>
        <time>2014-02-23T14:53:40Z</time>
      </trkpt>
      <trkpt lat="48.89845" lon="2.35053">
        <ele>46</ele>
        <time>2014-02-23T14:53:49Z</time>
      </trkpt>
      <trkpt lat="48.89846" lon="2.35042">
        <ele>44</ele>
        <time>2014-02-23T14:53:51Z</time>
      </trkpt>
      <trkpt lat="48.89845" lon="2.35031">
        <ele>42</ele>
        <time>2014-02-23T14:53:53Z</time>
      </trkpt>
      <trkpt lat="48.89846" lon="2.35021">
        <ele>41</ele>
        <time>2014-02-23T14:53:55Z</time>
      </trkpt>
      <trkpt lat="48.89845" lon="2.35009">
        <ele>42</ele>
        <time>2014-02-23T14:53:57Z</time>
      </trkpt>
      <trkpt lat="48.89845" lon="2.34997">
        <ele>42</ele>
        <time>2014-02-23T14:53:59Z</time>
      </trkpt>
      <trkpt lat="48.89843" lon="2.34984">
        <ele>46</ele>
        <time>2014-02-23T14:54:01Z</time>
      </trkpt>
      <trkpt lat="48.8984" lon="2.34952">
        <ele>45</ele>
        <time>2014-02-23T14:54:06Z</time>
      </trkpt>
      <trkpt lat="48.89839" lon="2.34931">
        <ele>41</ele>
        <time>2014-02-23T14:54:10Z</time>
      </trkpt>
      <trkpt lat="48.89841" lon="2.34923">
        <ele>41</ele>
        <time>2014-02-23T14:54:11Z</time>
      </trkpt>
      <trkpt lat="48.89843" lon="2.34911">
        <ele>46</ele>
        <time>2014-02-23T14:54:13Z</time>
      </trkpt>
      <trkpt lat="48.89845" lon="2.34895">
        <ele>40</ele>
        <time>2014-02-23T14:54:16Z</time>
      </trkpt>
      <trkpt lat="48.89842" lon="2.34884">
        <ele>44</ele>
        <time>2014-02-23T14:54:18Z</time>
      </trkpt>
      <trkpt lat="48.89842" lon="2.34876">
        <ele>46</ele>
        <time>2014-02-23T14:54:20Z</time>
      </trkpt>
      <trkpt lat="48.89839" lon="2.34865">
        <ele>48</ele>
        <time>2014-02-23T14:54:22Z</time>
      </trkpt>
      <trkpt lat="48.8984" lon="2.34854">
        <ele>45</ele>
        <time>2014-02-23T14:54:24Z</time>
      </trkpt>
      <trkpt lat="48.89839" lon="2.34843">
        <ele>48</ele>
        <time>2014-02-23T14:54:26Z</time>
      </trkpt>
      <trkpt lat="48.89838" lon="2.34821">
        <ele>54</ele>
        <time>2014-02-23T14:54:30Z</time>
      </trkpt>
      <trkpt lat="48.89839" lon="2.348">
        <ele>50</ele>
        <time>2014-02-23T14:54:33Z</time>
      </trkpt>
      <trkpt lat="48.8984" lon="2.34786">
        <ele>50</ele>
        <time>2014-02-23T14:54:37Z</time>
      </trkpt>
      <trkpt lat="48.8984" lon="2.34775">
        <ele>50</ele>
        <time>2014-02-23T14:54:40Z</time>
      </trkpt>
      <trkpt lat="48.8984" lon="2.34766">
        <ele>50</ele>
        <time>2014-02-23T14:54:42Z</time>
      </trkpt>
      <trkpt lat="48.8984" lon="2.34755">
        <ele>50</ele>
        <time>2014-02-23T14:54:44Z</time>
      </trkpt>
      <trkpt lat="48.89841" lon="2.34746">
        <ele>48</ele>
        <time>2014-02-23T14:54:46Z</time>
      </trkpt>
      <trkpt lat="48.8984" lon="2.34736">
        <ele>43</ele>
        <time>2014-02-23T14:54:48Z</time>
      </trkpt>
      <trkpt lat="48.8984" lon="2.34725">
        <ele>44</ele>
        <time>2014-02-23T14:54:51Z</time>
      </trkpt>
      <trkpt lat="48.8984" lon="2.34718">
        <ele>47</ele>
        <time>2014-02-23T14:54:53Z</time>
      </trkpt>
      <trkpt lat="48.89841" lon="2.34708">
        <ele>49</ele>
        <time>2014-02-23T14:54:56Z</time>
      </trkpt>
      <trkpt lat="48.8984" lon="2.34694">
        <ele>53</ele>
        <time>2014-02-23T14:55:01Z</time>
      </trkpt>
      <trkpt lat="48.89839" lon="2.34682">
        <ele>40</ele>
        <time>2014-02-23T14:55:04Z</time>
      </trkpt>
      <trkpt lat="48.89838" lon="2.34664">
        <ele>44</ele>
        <time>2014-02-23T14:55:08Z</time>
      </trkpt>
      <trkpt lat="48.89835" lon="2.34641">
        <ele>38</ele>
        <time>2014-02-23T14:55:14Z</time>
      </trkpt>
      <trkpt lat="48.89833" lon="2.34632">
        <ele>37</ele>
        <time>2014-02-23T14:55:16Z</time>
      </trkpt>
      <trkpt lat="48.89832" lon="2.34623">
        <ele>45</ele>
        <time>2014-02-23T14:55:18Z</time>
      </trkpt>
      <trkpt lat="48.89832" lon="2.34614">
        <ele>48</ele>
        <time>2014-02-23T14:55:20Z</time>
      </trkpt>
      <trkpt lat="48.89831" lon="2.34584">
        <ele>44</ele>
        <time>2014-02-23T14:55:26Z</time>
      </trkpt>
      <trkpt lat="48.89829" lon="2.34573">
        <ele>46</ele>
        <time>2014-02-23T14:55:28Z</time>
      </trkpt>
      <trkpt lat="48.89826" lon="2.34564">
        <ele>48</ele>
        <time>2014-02-23T14:55:30Z</time>
      </trkpt>
      <trkpt lat="48.89825" lon="2.34556">
        <ele>45</ele>
        <time>2014-02-23T14:55:32Z</time>
      </trkpt>
      <trkpt lat="48.89825" lon="2.34545">
        <ele>43</ele>
        <time>2014-02-23T14:55:34Z</time>
      </trkpt>
      <trkpt lat="48.89824" lon="2.34535">
        <ele>41</ele>
        <time>2014-02-23T14:55:36Z</time>
      </trkpt>
      <trkpt lat="48.8982" lon="2.34506">
        <ele>47</ele>
        <time>2014-02-23T14:55:45Z</time>
      </trkpt>
      <trkpt lat="48.89816" lon="2.34476">
        <ele>44</ele>
        <time>2014-02-23T14:55:54Z</time>
      </trkpt>
      <trkpt lat="48.89816" lon="2.34468">
        <ele>42</ele>
        <time>2014-02-23T14:55:57Z</time>
      </trkpt>
      <trkpt lat="48.89814" lon="2.34451">
        <ele>43</ele>
        <time>2014-02-23T14:56:05Z</time>
      </trkpt>
      <trkpt lat="48.89813" lon="2.34444">
        <ele>43</ele>
        <time>2014-02-23T14:56:09Z</time>
      </trkpt>
      <trkpt lat="48.89814" lon="2.34435">
        <ele>43</ele>
        <time>2014-02-23T14:56:11Z</time>
      </trkpt>
      <trkpt lat="48.89816" lon="2.34429">
        <ele>44</ele>
        <time>2014-02-23T14:56:13Z</time>
      </trkpt>
      <trkpt lat="48.89818" lon="2.34421">
        <ele>48</ele>
        <time>2014-02-23T14:56:16Z</time>
      </trkpt>
      <trkpt lat="48.89815" lon="2.34412">
        <ele>52</ele>
        <time>2014-02-23T14:56:22Z</time>
      </trkpt>
      <trkpt lat="48.8981" lon="2.34402">
        <ele>51</ele>
        <time>2014-02-23T14:56:26Z</time>
      </trkpt>
      <trkpt lat="48.89806" lon="2.34396">
        <ele>50</ele>
        <time>2014-02-23T14:56:29Z</time>
      </trkpt>
      <trkpt lat="48.89803" lon="2.34387">
        <ele>52</ele>
        <time>2014-02-23T14:56:33Z</time>
      </trkpt>
      <trkpt lat="48.89804" lon="2.3438">
        <ele>55</ele>
        <time>2014-02-23T14:56:37Z</time>
      </trkpt>
      <trkpt lat="48.89808" lon="2.34369">
        <ele>60</ele>
        <time>2014-02-23T14:56:41Z</time>
      </trkpt>
      <trkpt lat="48.89807" lon="2.3436">
        <ele>60</ele>
        <time>2014-02-23T14:56:44Z</time>
      </trkpt>
      <trkpt lat="48.89804" lon="2.34338">
        <ele>56</ele>
        <time>2014-02-23T14:56:53Z</time>
      </trkpt>
      <trkpt lat="48.89804" lon="2.34328">
        <ele>51</ele>
        <time>2014-02-23T14:56:55Z</time>
      </trkpt>
      <trkpt lat="48.89806" lon="2.34315">
        <ele>54</ele>
        <time>2014-02-23T14:56:57Z</time>
      </trkpt>
      <trkpt lat="48.89804" lon="2.34308">
        <ele>53</ele>
        <time>2014-02-23T14:56:59Z</time>
      </trkpt>
      <trkpt lat="48.89803" lon="2.34299">
        <ele>50</ele>
        <time>2014-02-23T14:57:01Z</time>
      </trkpt>
      <trkpt lat="48.89803" lon="2.34291">
        <ele>54</ele>
        <time>2014-02-23T14:57:03Z</time>
      </trkpt>
      <trkpt lat="48.89803" lon="2.34278">
        <ele>51</ele>
        <time>2014-02-23T14:57:06Z</time>
      </trkpt>
      <trkpt lat="48.89801" lon="2.34271">
        <ele>55</ele>
        <time>2014-02-23T14:57:08Z</time>
      </trkpt>
      <trkpt lat="48.898" lon="2.34264">
        <ele>50</ele>
        <time>2014-02-23T14:57:10Z</time>
      </trkpt>
      <trkpt lat="48.89799" lon="2.34248">
        <ele>43</ele>
        <time>2014-02-23T14:57:14Z</time>
      </trkpt>
      <trkpt lat="48.89801" lon="2.34239">
        <ele>40</ele>
        <time>2014-02-23T14:57:17Z</time>
      </trkpt>
      <trkpt lat="48.898" lon="2.34229">
        <ele>45</ele>
        <time>2014-02-23T14:57:20Z</time>
      </trkpt>
      <trkpt lat="48.89802" lon="2.34221">
        <ele>47</ele>
        <time>2014-02-23T14:57:22Z</time>
      </trkpt>
      <trkpt lat="48.89802" lon="2.34212">
        <ele>45</ele>
        <time>2014-02-23T14:57:24Z</time>
      </trkpt>
      <trkpt lat="48.89803" lon="2.34192">
        <ele>45</ele>
        <time>2014-02-23T14:57:28Z</time>
      </trkpt>
      <trkpt lat="48.89803" lon="2.34184">
        <ele>42</ele>
        <time>2014-02-23T14:57:30Z</time>
      </trkpt>
      <trkpt lat="48.89803" lon="2.34172">
        <ele>43</ele>
        <time>2014-02-23T14:57:33Z</time>
      </trkpt>
      <trkpt lat="48.89804" lon="2.34165">
        <ele>44</ele>
        <time>2014-02-23T14:57:35Z</time>
      </trkpt>
      <trkpt lat="48.89807" lon="2.34135">
        <ele>48</ele>
        <time>2014-02-23T14:57:42Z</time>
      </trkpt>
      <trkpt lat="48.89807" lon="2.34124">
        <ele>52</ele>
        <time>2014-02-23T14:57:45Z</time>
      </trkpt>
      <trkpt lat="48.89805" lon="2.34116">
        <ele>51</ele>
        <time>2014-02-23T14:57:47Z</time>
      </trkpt>
      <trkpt lat="48.89805" lon="2.34105">
        <ele>50</ele>
        <time>2014-02-23T14:57:50Z</time>
      </trkpt>
      <trkpt lat="48.89804" lon="2.34097">
        <ele>44</ele>
        <time>2014-02-23T14:57:52Z</time>
      </trkpt>
      <trkpt lat="48.89804" lon="2.34089">
        <ele>49</ele>
        <time>2014-02-23T14:57:54Z</time>
      </trkpt>
      <trkpt lat="48.89805" lon="2.3408">
        <ele>45</ele>
        <time>2014-02-23T14:57:57Z</time>
      </trkpt>
      <trkpt lat="48.89806" lon="2.34069">
        <ele>46</ele>
        <time>2014-02-23T14:58:02Z</time>
      </trkpt>
      <trkpt lat="48.89804" lon="2.3406">
        <ele>47</ele>
        <time>2014-02-23T14:58:05Z</time>
      </trkpt>
      <trkpt lat="48.89804" lon="2.3405">
        <ele>47</ele>
        <time>2014-02-23T14:58:08Z</time>
      </trkpt>
      <trkpt lat="48.89803" lon="2.34041">
        <ele>46</ele>
        <time>2014-02-23T14:58:11Z</time>
      </trkpt>
      <trkpt lat="48.89804" lon="2.34032">
        <ele>50</ele>
        <time>2014-02-23T14:58:14Z</time>
      </trkpt>
      <trkpt lat="48.89803" lon="2.34022">
        <ele>57</ele>
        <time>2014-02-23T14:58:17Z</time>
      </trkpt>
      <trkpt lat="48.89802" lon="2.34015">
        <ele>60</ele>
        <time>2014-02-23T14:58:19Z</time>
      </trkpt>
      <trkpt lat="48.89801" lon="2.34005">
        <ele>57</ele>
        <time>2014-02-23T14:58:21Z</time>
      </trkpt>
      <trkpt lat="48.89801" lon="2.33981">
        <ele>54</ele>
        <time>2014-02-23T14:58:26Z</time>
      </trkpt>
      <trkpt lat="48.89802" lon="2.33957">
        <ele>52</ele>
        <time>2014-02-23T14:58:30Z</time>
      </trkpt>
      <trkpt lat="48.89801" lon="2.33945">
        <ele>53</ele>
        <time>2014-02-23T14:58:32Z</time>
      </trkpt>
      <trkpt lat="48.89802" lon="2.33937">
        <ele>66</ele>
        <time>2014-02-23T14:58:45Z</time>
      </trkpt>
      <trkpt lat="48.898" lon="2.33927">
        <ele>62</ele>
        <time>2014-02-23T14:58:55Z</time>
      </trkpt>
      <trkpt lat="48.89796" lon="2.33919">
        <ele>61</ele>
        <time>2014-02-23T14:58:58Z</time>
      </trkpt>
      <trkpt lat="48.89794" lon="2.33911">
        <ele>51</ele>
        <time>2014-02-23T14:59:02Z</time>
      </trkpt>
      <trkpt lat="48.89785" lon="2.33886">
        <ele>48</ele>
        <time>2014-02-23T14:59:10Z</time>
      </trkpt>
      <trkpt lat="48.89784" lon="2.33877">
        <ele>33</ele>
        <time>2014-02-23T14:59:11Z</time>
      </trkpt>
      <trkpt lat="48.89786" lon="2.3387">
        <ele>34</ele>
        <time>2014-02-23T14:59:12Z</time>
      </trkpt>
      <trkpt lat="48.89788" lon="2.33851">
        <ele>42</ele>
        <time>2014-02-23T14:59:16Z</time>
      </trkpt>
      <trkpt lat="48.89789" lon="2.33842">
        <ele>48</ele>
        <time>2014-02-23T14:59:19Z</time>
      </trkpt>
      <trkpt lat="48.8979" lon="2.33832">
        <ele>50</ele>
        <time>2014-02-23T14:59:23Z</time>
      </trkpt>
      <trkpt lat="48.89792" lon="2.33824">
        <ele>50</ele>
        <time>2014-02-23T14:59:28Z</time>
      </trkpt>
      <trkpt lat="48.89792" lon="2.33815">
        <ele>55</ele>
        <time>2014-02-23T14:59:31Z</time>
      </trkpt>
      <trkpt lat="48.89789" lon="2.338">
        <ele>57</ele>
        <time>2014-02-23T14:59:37Z</time>
      </trkpt>
      <trkpt lat="48.89788" lon="2.33787">
        <ele>71</ele>
        <time>2014-02-23T14:59:41Z</time>
      </trkpt>
      <trkpt lat="48.8979" lon="2.33777">
        <ele>59</ele>
        <time>2014-02-23T14:59:43Z</time>
      </trkpt>
      <trkpt lat="48.89791" lon="2.33767">
        <ele>56</ele>
        <time>2014-02-23T14:59:45Z</time>
      </trkpt>
      <trkpt lat="48.89792" lon="2.33759">
        <ele>58</ele>
        <time>2014-02-23T14:59:49Z</time>
      </trkpt>
      <trkpt lat="48.89798" lon="2.33741">
        <ele>43</ele>
        <time>2014-02-23T14:59:53Z</time>
      </trkpt>
      <trkpt lat="48.89795" lon="2.33733">
        <ele>41</ele>
        <time>2014-02-23T15:00:20Z</time>
      </trkpt>
      <trkpt lat="48.89796" lon="2.33725">
        <ele>51</ele>
        <time>2014-02-23T15:00:26Z</time>
      </trkpt>
      <trkpt lat="48.89797" lon="2.33715">
        <ele>65</ele>
        <time>2014-02-23T15:00:31Z</time>
      </trkpt>
      <trkpt lat="48.89795" lon="2.33708">
        <ele>65</ele>
        <time>2014-02-23T15:00:34Z</time>
      </trkpt>
      <trkpt lat="48.89794" lon="2.33699">
        <ele>66</ele>
        <time>2014-02-23T15:00:38Z</time>
      </trkpt>
      <trkpt lat="48.89791" lon="2.33687">
        <ele>75</ele>
        <time>2014-02-23T15:00:42Z</time>
      </trkpt>
      <trkpt lat="48.89789" lon="2.33679">
        <ele>63</ele>
        <time>2014-02-23T15:00:45Z</time>
      </trkpt>
      <trkpt lat="48.89785" lon="2.33672">
        <ele>59</ele>
        <time>2014-02-23T15:00:47Z</time>
      </trkpt>
      <trkpt lat="48.89782" lon="2.33663">
        <ele>64</ele>
        <time>2014-02-23T15:00:50Z</time>
      </trkpt>
      <trkpt lat="48.89784" lon="2.33654">
        <ele>62</ele>
        <time>2014-02-23T15:00:53Z</time>
      </trkpt>
      <trkpt lat="48.89787" lon="2.33647">
        <ele>59</ele>
        <time>2014-02-23T15:00:55Z</time>
      </trkpt>
      <trkpt lat="48.89785" lon="2.33639">
        <ele>56</ele>
        <time>2014-02-23T15:00:58Z</time>
      </trkpt>
      <trkpt lat="48.89785" lon="2.33628">
        <ele>52</ele>
        <time>2014-02-23T15:01:01Z</time>
      </trkpt>
      <trkpt lat="48.89784" lon="2.33619">
        <ele>56</ele>
        <time>2014-02-23T15:01:03Z</time>
      </trkpt>
      <trkpt lat="48.89784" lon="2.33604">
        <ele>57</ele>
        <time>2014-02-23T15:01:06Z</time>
      </trkpt>
      <trkpt lat="48.89786" lon="2.33597">
        <ele>57</ele>
        <time>2014-02-23T15:01:08Z</time>
      </trkpt>
      <trkpt lat="48.89791" lon="2.33569">
        <ele>54</ele>
        <time>2014-02-23T15:01:14Z</time>
      </trkpt>
      <trkpt lat="48.8979" lon="2.33558">
        <ele>52</ele>
        <time>2014-02-23T15:01:17Z</time>
      </trkpt>
      <trkpt lat="48.89789" lon="2.33542">
        <ele>49</ele>
        <time>2014-02-23T15:01:20Z</time>
      </trkpt>
      <trkpt lat="48.89789" lon="2.33532">
        <ele>47</ele>
        <time>2014-02-23T15:01:24Z</time>
      </trkpt>
      <trkpt lat="48.89788" lon="2.33519">
        <ele>49</ele>
        <time>2014-02-23T15:01:30Z</time>
      </trkpt>
      <trkpt lat="48.89787" lon="2.33509">
        <ele>53</ele>
        <time>2014-02-23T15:01:33Z</time>
      </trkpt>
      <trkpt lat="48.89787" lon="2.33499">
        <ele>53</ele>
        <time>2014-02-23T15:01:36Z</time>
      </trkpt>
      <trkpt lat="48.89787" lon="2.33491">
        <ele>52</ele>
        <time>2014-02-23T15:01:38Z</time>
      </trkpt>
      <trkpt lat="48.89787" lon="2.33483">
        <ele>49</ele>
        <time>2014-02-23T15:01:40Z</time>
      </trkpt>
      <trkpt lat="48.89786" lon="2.33474">
        <ele>51</ele>
        <time>2014-02-23T15:01:42Z</time>
      </trkpt>
      <trkpt lat="48.89785" lon="2.33464">
        <ele>56</ele>
        <time>2014-02-23T15:01:44Z</time>
      </trkpt>
      <trkpt lat="48.89784" lon="2.33454">
        <ele>55</ele>
        <time>2014-02-23T15:01:46Z</time>
      </trkpt>
      <trkpt lat="48.89783" lon="2.33446">
        <ele>54</ele>
        <time>2014-02-23T15:01:48Z</time>
      </trkpt>
      <trkpt lat="48.89782" lon="2.33438">
        <ele>61</ele>
        <time>2014-02-23T15:01:50Z</time>
      </trkpt>
      <trkpt lat="48.89784" lon="2.33427">
        <ele>58</ele>
        <time>2014-02-23T15:01:53Z</time>
      </trkpt>
      <trkpt lat="48.89787" lon="2.33421">
        <ele>60</ele>
        <time>2014-02-23T15:01:55Z</time>
      </trkpt>
      <trkpt lat="48.89788" lon="2.33409">
        <ele>55</ele>
        <time>2014-02-23T15:01:57Z</time>
      </trkpt>
      <trkpt lat="48.89791" lon="2.3338">
        <ele>52</ele>
        <time>2014-02-23T15:02:01Z</time>
      </trkpt>
      <trkpt lat="48.89791" lon="2.33367">
        <ele>51</ele>
        <time>2014-02-23T15:02:03Z</time>
      </trkpt>
      <trkpt lat="48.8979" lon="2.33348">
        <ele>49</ele>
        <time>2014-02-23T15:02:07Z</time>
      </trkpt>
      <trkpt lat="48.89788" lon="2.33332">
        <ele>51</ele>
        <time>2014-02-23T15:02:12Z</time>
      </trkpt>
      <trkpt lat="48.89785" lon="2.33301">
        <ele>51</ele>
        <time>2014-02-23T15:02:19Z</time>
      </trkpt>
      <trkpt lat="48.89785" lon="2.33284">
        <ele>55</ele>
        <time>2014-02-23T15:02:22Z</time>
      </trkpt>
      <trkpt lat="48.89784" lon="2.33274">
        <ele>50</ele>
        <time>2014-02-23T15:02:24Z</time>
      </trkpt>
      <trkpt lat="48.89785" lon="2.33264">
        <ele>58</ele>
        <time>2014-02-23T15:02:26Z</time>
      </trkpt>
      <trkpt lat="48.89787" lon="2.33236">
        <ele>51</ele>
        <time>2014-02-23T15:02:30Z</time>
      </trkpt>
      <trkpt lat="48.89788" lon="2.33223">
        <ele>51</ele>
        <time>2014-02-23T15:02:32Z</time>
      </trkpt>
      <trkpt lat="48.89787" lon="2.33212">
        <ele>53</ele>
        <time>2014-02-23T15:02:34Z</time>
      </trkpt>
      <trkpt lat="48.89782" lon="2.33149">
        <ele>58</ele>
        <time>2014-02-23T15:02:47Z</time>
      </trkpt>
      <trkpt lat="48.89781" lon="2.33141">
        <ele>56</ele>
        <time>2014-02-23T15:02:49Z</time>
      </trkpt>
      <trkpt lat="48.89778" lon="2.33132">
        <ele>57</ele>
        <time>2014-02-23T15:02:51Z</time>
      </trkpt>
      <trkpt lat="48.89776" lon="2.33122">
        <ele>57</ele>
        <time>2014-02-23T15:02:53Z</time>
      </trkpt>
      <trkpt lat="48.89776" lon="2.33111">
        <ele>54</ele>
        <time>2014-02-23T15:02:55Z</time>
      </trkpt>
      <trkpt lat="48.89779" lon="2.33088">
        <ele>55</ele>
        <time>2014-02-23T15:03:01Z</time>
      </trkpt>
      <trkpt lat="48.89783" lon="2.3308">
        <ele>53</ele>
        <time>2014-02-23T15:03:03Z</time>
      </trkpt>
      <trkpt lat="48.89785" lon="2.33071">
        <ele>54</ele>
        <time>2014-02-23T15:03:05Z</time>
      </trkpt>
      <trkpt lat="48.89789" lon="2.33049">
        <ele>55</ele>
        <time>2014-02-23T15:03:10Z</time>
      </trkpt>
      <trkpt lat="48.89784" lon="2.33043">
        <ele>52</ele>
        <time>2014-02-23T15:03:13Z</time>
      </trkpt>
      <trkpt lat="48.89774" lon="2.33026">
        <ele>51</ele>
        <time>2014-02-23T15:03:18Z</time>
      </trkpt>
      <trkpt lat="48.89776" lon="2.33013">
        <ele>47</ele>
        <time>2014-02-23T15:03:20Z</time>
      </trkpt>
      <trkpt lat="48.8978" lon="2.32954">
        <ele>19</ele>
        <time>2014-02-23T15:03:32Z</time>
      </trkpt>
      <trkpt lat="48.89782" lon="2.32945">
        <ele>18</ele>
        <time>2014-02-23T15:03:36Z</time>
      </trkpt>
      <trkpt lat="48.89787" lon="2.32941">
        <ele>17</ele>
        <time>2014-02-23T15:03:40Z</time>
      </trkpt>
      <trkpt lat="48.89793" lon="2.32941">
        <ele>18</ele>
        <time>2014-02-23T15:03:44Z</time>
      </trkpt>
      <trkpt lat="48.898" lon="2.32937">
        <ele>24</ele>
        <time>2014-02-23T15:03:54Z</time>
      </trkpt>
      <trkpt lat="48.89795" lon="2.32933">
        <ele>38</ele>
        <time>2014-02-23T15:04:00Z</time>
      </trkpt>
      <trkpt lat="48.89793" lon="2.32924">
        <ele>50</ele>
        <time>2014-02-23T15:04:23Z</time>
      </trkpt>
      <trkpt lat="48.89795" lon="2.32914">
        <ele>67</ele>
        <time>2014-02-23T15:04:31Z</time>
      </trkpt>
      <trkpt lat="48.89793" lon="2.32904">
        <ele>70</ele>
        <time>2014-02-23T15:04:35Z</time>
      </trkpt>
      <trkpt lat="48.89791" lon="2.32897">
        <ele>63</ele>
        <time>2014-02-23T15:04:39Z</time>
      </trkpt>
      <trkpt lat="48.89789" lon="2.32888">
        <ele>58</ele>
        <time>2014-02-23T15:04:42Z</time>
      </trkpt>
      <trkpt lat="48.89789" lon="2.32879">
        <ele>59</ele>
        <time>2014-02-23T15:04:45Z</time>
      </trkpt>
      <trkpt lat="48.89786" lon="2.32871">
        <ele>52</ele>
        <time>2014-02-23T15:04:48Z</time>
      </trkpt>
      <trkpt lat="48.89784" lon="2.32861">
        <ele>52</ele>
        <time>2014-02-23T15:04:51Z</time>
      </trkpt>
      <trkpt lat="48.89783" lon="2.32852">
        <ele>52</ele>
        <time>2014-02-23T15:04:54Z</time>
      </trkpt>
      <trkpt lat="48.8978" lon="2.32767">
        <ele>50</ele>
        <time>2014-02-23T15:05:13Z</time>
      </trkpt>
      <trkpt lat="48.89779" lon="2.32756">
        <ele>54</ele>
        <time>2014-02-23T15:05:16Z</time>
      </trkpt>
      <trkpt lat="48.89779" lon="2.32748">
        <ele>56</ele>
        <time>2014-02-23T15:05:18Z</time>
      </trkpt>
      <trkpt lat="48.8978" lon="2.32741">
        <ele>56</ele>
        <time>2014-02-23T15:05:20Z</time>
      </trkpt>
      <trkpt lat="48.8978" lon="2.32727">
        <ele>53</ele>
        <time>2014-02-23T15:05:23Z</time>
      </trkpt>
      <trkpt lat="48.89779" lon="2.32698">
        <ele>51</ele>
        <time>2014-02-23T15:05:33Z</time>
      </trkpt>
      <trkpt lat="48.89778" lon="2.32689">
        <ele>61</ele>
        <time>2014-02-23T15:05:37Z</time>
      </trkpt>
      <trkpt lat="48.89779" lon="2.3268">
        <ele>54</ele>
        <time>2014-02-23T15:05:40Z</time>
      </trkpt>
      <trkpt lat="48.89781" lon="2.32651">
        <ele>37</ele>
        <time>2014-02-23T15:05:49Z</time>
      </trkpt>
      <trkpt lat="48.89779" lon="2.32641">
        <ele>38</ele>
        <time>2014-02-23T15:05:51Z</time>
      </trkpt>
      <trkpt lat="48.89779" lon="2.32632">
        <ele>40</ele>
        <time>2014-02-23T15:05:53Z</time>
      </trkpt>
      <trkpt lat="48.89778" lon="2.32621">
        <ele>40</ele>
        <time>2014-02-23T15:05:56Z</time>
      </trkpt>
      <trkpt lat="48.89776" lon="2.32613">
        <ele>37</ele>
        <time>2014-02-23T15:05:58Z</time>
      </trkpt>
      <trkpt lat="48.89773" lon="2.32603">
        <ele>43</ele>
        <time>2014-02-23T15:06:01Z</time>
      </trkpt>
      <trkpt lat="48.89767" lon="2.32588">
        <ele>41</ele>
        <time>2014-02-23T15:06:06Z</time>
      </trkpt>
      <trkpt lat="48.89763" lon="2.32583">
        <ele>45</ele>
        <time>2014-02-23T15:06:08Z</time>
      </trkpt>
      <trkpt lat="48.89761" lon="2.32576">
        <ele>52</ele>
        <time>2014-02-23T15:06:11Z</time>
      </trkpt>
      <trkpt lat="48.89763" lon="2.32566">
        <ele>60</ele>
        <time>2014-02-23T15:06:14Z</time>
      </trkpt>
      <trkpt lat="48.89764" lon="2.32557">
        <ele>68</ele>
        <time>2014-02-23T15:06:16Z</time>
      </trkpt>
      <trkpt lat="48.89763" lon="2.32549">
        <ele>70</ele>
        <time>2014-02-23T15:06:18Z</time>
      </trkpt>
      <trkpt lat="48.89762" lon="2.3254">
        <ele>67</ele>
        <time>2014-02-23T15:06:20Z</time>
      </trkpt>
      <trkpt lat="48.89759" lon="2.3253">
        <ele>61</ele>
        <time>2014-02-23T15:06:22Z</time>
      </trkpt>
      <trkpt lat="48.89752" lon="2.325">
        <ele>54</ele>
        <time>2014-02-23T15:06:29Z</time>
      </trkpt>
      <trkpt lat="48.89751" lon="2.32492">
        <ele>54</ele>
        <time>2014-02-23T15:06:32Z</time>
      </trkpt>
      <trkpt lat="48.89757" lon="2.32486">
        <ele>63</ele>
        <time>2014-02-23T15:06:36Z</time>
      </trkpt>
      <trkpt lat="48.89759" lon="2.32477">
        <ele>66</ele>
        <time>2014-02-23T15:06:39Z</time>
      </trkpt>
      <trkpt lat="48.89756" lon="2.32468">
        <ele>56</ele>
        <time>2014-02-23T15:06:43Z</time>
      </trkpt>
      <trkpt lat="48.89755" lon="2.32456">
        <ele>53</ele>
        <time>2014-02-23T15:06:45Z</time>
      </trkpt>
      <trkpt lat="48.89756" lon="2.32447">
        <ele>53</ele>
        <time>2014-02-23T15:06:46Z</time>
      </trkpt>
      <trkpt lat="48.89759" lon="2.32429">
        <ele>51</ele>
        <time>2014-02-23T15:06:48Z</time>
      </trkpt>
      <trkpt lat="48.89766" lon="2.32417">
        <ele>49</ele>
        <time>2014-02-23T15:06:53Z</time>
      </trkpt>
      <trkpt lat="48.89769" lon="2.32408">
        <ele>51</ele>
        <time>2014-02-23T15:06:55Z</time>
      </trkpt>
      <trkpt lat="48.89771" lon="2.32398">
        <ele>49</ele>
        <time>2014-02-23T15:06:58Z</time>
      </trkpt>
      <trkpt lat="48.89768" lon="2.32389">
        <ele>50</ele>
        <time>2014-02-23T15:07:01Z</time>
      </trkpt>
      <trkpt lat="48.89767" lon="2.3238">
        <ele>47</ele>
        <time>2014-02-23T15:07:04Z</time>
      </trkpt>
      <trkpt lat="48.89767" lon="2.3237">
        <ele>45</ele>
        <time>2014-02-23T15:07:07Z</time>
      </trkpt>
      <trkpt lat="48.89768" lon="2.3236">
        <ele>46</ele>
        <time>2014-02-23T15:07:09Z</time>
      </trkpt>
      <trkpt lat="48.89769" lon="2.32339">
        <ele>42</ele>
        <time>2014-02-23T15:07:13Z</time>
      </trkpt>
      <trkpt lat="48.89768" lon="2.32322">
        <ele>42</ele>
        <time>2014-02-23T15:07:16Z</time>
      </trkpt>
      <trkpt lat="48.89767" lon="2.32307">
        <ele>43</ele>
        <time>2014-02-23T15:07:19Z</time>
      </trkpt>
      <trkpt lat="48.89766" lon="2.32299">
        <ele>43</ele>
        <time>2014-02-23T15:07:21Z</time>
      </trkpt>
      <trkpt lat="48.89764" lon="2.3229">
        <ele>39</ele>
        <time>2014-02-23T15:07:23Z</time>
      </trkpt>
      <trkpt lat="48.89763" lon="2.3228">
        <ele>38</ele>
        <time>2014-02-23T15:07:25Z</time>
      </trkpt>
      <trkpt lat="48.89763" lon="2.3227">
        <ele>39</ele>
        <time>2014-02-23T15:07:27Z</time>
      </trkpt>
      <trkpt lat="48.89765" lon="2.3226">
        <ele>40</ele>
        <time>2014-02-23T15:07:29Z</time>
      </trkpt>
      <trkpt lat="48.89764" lon="2.32248">
        <ele>39</ele>
        <time>2014-02-23T15:07:31Z</time>
      </trkpt>
      <trkpt lat="48.89763" lon="2.32239">
        <ele>39</ele>
        <time>2014-02-23T15:07:33Z</time>
      </trkpt>
      <trkpt lat="48.89764" lon="2.32223">
        <ele>45</ele>
        <time>2014-02-23T15:07:36Z</time>
      </trkpt>
      <trkpt lat="48.89763" lon="2.32212">
        <ele>41</ele>
        <time>2014-02-23T15:07:38Z</time>
      </trkpt>
      <trkpt lat="48.89762" lon="2.32198">
        <ele>39</ele>
        <time>2014-02-23T15:07:41Z</time>
      </trkpt>
      <trkpt lat="48.89759" lon="2.32188">
        <ele>38</ele>
        <time>2014-02-23T15:07:43Z</time>
      </trkpt>
      <trkpt lat="48.89757" lon="2.32178">
        <ele>37</ele>
        <time>2014-02-23T15:07:45Z</time>
      </trkpt>
      <trkpt lat="48.89751" lon="2.32148">
        <ele>40</ele>
        <time>2014-02-23T15:07:51Z</time>
      </trkpt>
      <trkpt lat="48.89748" lon="2.32139">
        <ele>42</ele>
        <time>2014-02-23T15:07:53Z</time>
      </trkpt>
      <trkpt lat="48.89743" lon="2.3213">
        <ele>41</ele>
        <time>2014-02-23T15:07:55Z</time>
      </trkpt>
      <trkpt lat="48.89735" lon="2.32111">
        <ele>42</ele>
        <time>2014-02-23T15:07:58Z</time>
      </trkpt>
      <trkpt lat="48.89733" lon="2.32103">
        <ele>44</ele>
        <time>2014-02-23T15:07:59Z</time>
      </trkpt>
      <trkpt lat="48.89729" lon="2.32088">
        <ele>43</ele>
        <time>2014-02-23T15:08:01Z</time>
      </trkpt>
      <trkpt lat="48.89723" lon="2.32076">
        <ele>44</ele>
        <time>2014-02-23T15:08:03Z</time>
      </trkpt>
      <trkpt lat="48.89719" lon="2.3207">
        <ele>44</ele>
        <time>2014-02-23T15:08:04Z</time>
      </trkpt>
      <trkpt lat="48.89717" lon="2.32062">
        <ele>41</ele>
        <time>2014-02-23T15:08:05Z</time>
      </trkpt>
      <trkpt lat="48.89716" lon="2.32054">
        <ele>42</ele>
        <time>2014-02-23T15:08:06Z</time>
      </trkpt>
      <trkpt lat="48.89713" lon="2.32047">
        <ele>38</ele>
        <time>2014-02-23T15:08:07Z</time>
      </trkpt>
      <trkpt lat="48.8971" lon="2.3204">
        <ele>39</ele>
        <time>2014-02-23T15:08:08Z</time>
      </trkpt>
      <trkpt lat="48.89705" lon="2.32032">
        <ele>43</ele>
        <time>2014-02-23T15:08:09Z</time>
      </trkpt>
      <trkpt lat="48.89703" lon="2.32024">
        <ele>41</ele>
        <time>2014-02-23T15:08:10Z</time>
      </trkpt>
      <trkpt lat="48.89699" lon="2.32016">
        <ele>42</ele>
        <time>2014-02-23T15:08:11Z</time>
      </trkpt>
      <trkpt lat="48.89696" lon="2.32008">
        <ele>43</ele>
        <time>2014-02-23T15:08:12Z</time>
      </trkpt>
      <trkpt lat="48.89692" lon="2.32">
        <ele>42</ele>
        <time>2014-02-23T15:08:13Z</time>
      </trkpt>
      <trkpt lat="48.89689" lon="2.31992">
        <ele>42</ele>
        <time>2014-02-23T15:08:14Z</time>
      </trkpt>
      <trkpt lat="48.89687" lon="2.31983">
        <ele>47</ele>
        <time>2014-02-23T15:08:15Z</time>
      </trkpt>
      <trkpt lat="48.89661" lon="2.31902">
        <ele>41</ele>
        <time>2014-02-23T15:08:25Z</time>
      </trkpt>
      <trkpt lat="48.89658" lon="2.31895">
        <ele>41</ele>
        <time>2014-02-23T15:08:26Z</time>
      </trkpt>
      <trkpt lat="48.89643" lon="2.31863">
        <ele>40</ele>
        <time>2014-02-23T15:08:30Z</time>
      </trkpt>
      <trkpt lat="48.8964" lon="2.31855">
        <ele>39</ele>
        <time>2014-02-23T15:08:31Z</time>
      </trkpt>
      <trkpt lat="48.89629" lon="2.3183">
        <ele>35</ele>
        <time>2014-02-23T15:08:34Z</time>
      </trkpt>
      <trkpt lat="48.89622" lon="2.31812">
        <ele>33</ele>
        <time>2014-02-23T15:08:36Z</time>
      </trkpt>
      <trkpt lat="48.89578" lon="2.31698">
        <ele>25</ele>
        <time>2014-02-23T15:08:53Z</time>
      </trkpt>
      <trkpt lat="48.89557" lon="2.31647">
        <ele>30</ele>
        <time>2014-02-23T15:09:03Z</time>
      </trkpt>
      <trkpt lat="48.89554" lon="2.31636">
        <ele>30</ele>
        <time>2014-02-23T15:09:06Z</time>
      </trkpt>
      <trkpt lat="48.89553" lon="2.31628">
        <ele>26</ele>
        <time>2014-02-23T15:09:08Z</time>
      </trkpt>
      <trkpt lat="48.89548" lon="2.31602">
        <ele>29</ele>
        <time>2014-02-23T15:09:13Z</time>
      </trkpt>
      <trkpt lat="48.89544" lon="2.31592">
        <ele>29</ele>
        <time>2014-02-23T15:09:15Z</time>
      </trkpt>
      <trkpt lat="48.89543" lon="2.31582">
        <ele>28</ele>
        <time>2014-02-23T15:09:17Z</time>
      </trkpt>
      <trkpt lat="48.89541" lon="2.31573">
        <ele>28</ele>
        <time>2014-02-23T15:09:19Z</time>
      </trkpt>
      <trkpt lat="48.89536" lon="2.31563">
        <ele>29</ele>
        <time>2014-02-23T15:09:21Z</time>
      </trkpt>
      <trkpt lat="48.89527" lon="2.31539">
        <ele>26</ele>
        <time>2014-02-23T15:09:25Z</time>
      </trkpt>
      <trkpt lat="48.89516" lon="2.31519">
        <ele>23</ele>
        <time>2014-02-23T15:09:29Z</time>
      </trkpt>
      <trkpt lat="48.89513" lon="2.31509">
        <ele>24</ele>
        <time>2014-02-23T15:09:31Z</time>
      </trkpt>
      <trkpt lat="48.89511" lon="2.31498">
        <ele>20</ele>
        <time>2014-02-23T15:09:33Z</time>
      </trkpt>
      <trkpt lat="48.89509" lon="2.31489">
        <ele>20</ele>
        <time>2014-02-23T15:09:35Z</time>
      </trkpt>
      <trkpt lat="48.89502" lon="2.31459">
        <ele>16</ele>
        <time>2014-02-23T15:09:41Z</time>
      </trkpt>
      <trkpt lat="48.89495" lon="2.31437">
        <ele>19</ele>
        <time>2014-02-23T15:09:47Z</time>
      </trkpt>
      <trkpt lat="48.89493" lon="2.3143">
        <ele>28</ele>
        <time>2014-02-23T15:09:49Z</time>
      </trkpt>
      <trkpt lat="48.89483" lon="2.31397">
        <ele>34</ele>
        <time>2014-02-23T15:09:59Z</time>
      </trkpt>
      <trkpt lat="48.89483" lon="2.31383">
        <ele>33</ele>
        <time>2014-02-23T15:10:05Z</time>
      </trkpt>
      <trkpt lat="48.89474" lon="2.31377">
        <ele>27</ele>
        <time>2014-02-23T15:10:12Z</time>
      </trkpt>
      <trkpt lat="48.89468" lon="2.31378">
        <ele>27</ele>
        <time>2014-02-23T15:10:15Z</time>
      </trkpt>
      <trkpt lat="48.89464" lon="2.3138">
        <ele>30</ele>
        <time>2014-02-23T15:10:17Z</time>
      </trkpt>
      <trkpt lat="48.89459" lon="2.31372">
        <ele>29</ele>
        <time>2014-02-23T15:10:28Z</time>
      </trkpt>
      <trkpt lat="48.89457" lon="2.31364">
        <ele>30</ele>
        <time>2014-02-23T15:10:36Z</time>
      </trkpt>
      <trkpt lat="48.89453" lon="2.31345">
        <ele>30</ele>
        <time>2014-02-23T15:10:56Z</time>
      </trkpt>
      <trkpt lat="48.89458" lon="2.31333">
        <ele>40</ele>
        <time>2014-02-23T15:11:05Z</time>
      </trkpt>
      <trkpt lat="48.89459" lon="2.31321">
        <ele>42</ele>
        <time>2014-02-23T15:12:15Z</time>
      </trkpt>
      <trkpt lat="48.89456" lon="2.31314">
        <ele>38</ele>
        <time>2014-02-23T15:12:19Z</time>
      </trkpt>
      <trkpt lat="48.89452" lon="2.31307">
        <ele>38</ele>
        <time>2014-02-23T15:12:23Z</time>
      </trkpt>
      <trkpt lat="48.89442" lon="2.313">
        <ele>33</ele>
        <time>2014-02-23T15:12:29Z</time>
      </trkpt>
      <trkpt lat="48.89437" lon="2.31303">
        <ele>31</ele>
        <time>2014-02-23T15:12:32Z</time>
      </trkpt>
      <trkpt lat="48.89432" lon="2.3131">
        <ele>23</ele>
        <time>2014-02-23T15:12:51Z</time>
      </trkpt>
      <trkpt lat="48.89432" lon="2.3131">
        <ele>22</ele>
        <time>2014-02-23T15:12:52Z</time>
      </trkpt>
      <trkpt lat="48.89435" lon="2.31309">
        <ele>28</ele>
        <time>2014-02-23T15:12:54Z</time>
      </trkpt>
      <trkpt lat="48.8944" lon="2.31302">
        <ele>27</ele>
        <time>2014-02-23T15:12:58Z</time>
      </trkpt>
      <trkpt lat="48.89443" lon="2.31294">
        <ele>27</ele>
        <time>2014-02-23T15:13:02Z</time>
      </trkpt>
      <trkpt lat="48.89448" lon="2.31279">
        <ele>26</ele>
        <time>2014-02-23T15:13:13Z</time>
      </trkpt>
      <trkpt lat="48.89442" lon="2.31275">
        <ele>31</ele>
        <time>2014-02-23T15:13:17Z</time>
      </trkpt>
      <trkpt lat="48.89433" lon="2.31263">
        <ele>34</ele>
        <time>2014-02-23T15:13:25Z</time>
      </trkpt>
      <trkpt lat="48.89429" lon="2.31257">
        <ele>35</ele>
        <time>2014-02-23T15:13:29Z</time>
      </trkpt>
      <trkpt lat="48.89423" lon="2.31249">
        <ele>37</ele>
        <time>2014-02-23T15:13:33Z</time>
      </trkpt>
      <trkpt lat="48.89418" lon="2.31246">
        <ele>30</ele>
        <time>2014-02-23T15:13:36Z</time>
      </trkpt>
      <trkpt lat="48.89404" lon="2.31238">
        <ele>26</ele>
        <time>2014-02-23T15:13:44Z</time>
      </trkpt>
      <trkpt lat="48.89399" lon="2.31237">
        <ele>24</ele>
        <time>2014-02-23T15:13:47Z</time>
      </trkpt>
      <trkpt lat="48.89389" lon="2.31231">
        <ele>40</ele>
        <time>2014-02-23T15:13:52Z</time>
      </trkpt>
      <trkpt lat="48.89385" lon="2.31225">
        <ele>46</ele>
        <time>2014-02-23T15:13:55Z</time>
      </trkpt>
      <trkpt lat="48.89384" lon="2.31212">
        <ele>47</ele>
        <time>2014-02-23T15:13:58Z</time>
      </trkpt>
      <trkpt lat="48.89385" lon="2.312">
        <ele>44</ele>
        <time>2014-02-23T15:13:59Z</time>
      </trkpt>
      <trkpt lat="48.89387" lon="2.31184">
        <ele>43</ele>
        <time>2014-02-23T15:14:04Z</time>
      </trkpt>
      <trkpt lat="48.89387" lon="2.31176">
        <ele>39</ele>
        <time>2014-02-23T15:14:09Z</time>
      </trkpt>
      <trkpt lat="48.89382" lon="2.31171">
        <ele>38</ele>
        <time>2014-02-23T15:14:12Z</time>
      </trkpt>
      <trkpt lat="48.89376" lon="2.31164">
        <ele>31</ele>
        <time>2014-02-23T15:14:15Z</time>
      </trkpt>
      <trkpt lat="48.89371" lon="2.31156">
        <ele>36</ele>
        <time>2014-02-23T15:14:18Z</time>
      </trkpt>
      <trkpt lat="48.8936" lon="2.31133">
        <ele>28</ele>
        <time>2014-02-23T15:14:26Z</time>
      </trkpt>
      <trkpt lat="48.89355" lon="2.31121">
        <ele>32</ele>
        <time>2014-02-23T15:14:30Z</time>
      </trkpt>
      <trkpt lat="48.89352" lon="2.3111">
        <ele>33</ele>
        <time>2014-02-23T15:14:34Z</time>
      </trkpt>
      <trkpt lat="48.89349" lon="2.31104">
        <ele>32</ele>
        <time>2014-02-23T15:14:36Z</time>
      </trkpt>
      <trkpt lat="48.89338" lon="2.31077">
        <ele>29</ele>
        <time>2014-02-23T15:14:43Z</time>
      </trkpt>
      <trkpt lat="48.89336" lon="2.31068">
        <ele>25</ele>
        <time>2014-02-23T15:14:45Z</time>
      </trkpt>
      <trkpt lat="48.89333" lon="2.31061">
        <ele>22</ele>
        <time>2014-02-23T15:14:47Z</time>
      </trkpt>
      <trkpt lat="48.89329" lon="2.31053">
        <ele>27</ele>
        <time>2014-02-23T15:14:49Z</time>
      </trkpt>
      <trkpt lat="48.89319" lon="2.31027">
        <ele>29</ele>
        <time>2014-02-23T15:14:56Z</time>
      </trkpt>
      <trkpt lat="48.89315" lon="2.31018">
        <ele>30</ele>
        <time>2014-02-23T15:14:58Z</time>
      </trkpt>
      <trkpt lat="48.89307" lon="2.30992">
        <ele>28</ele>
        <time>2014-02-23T15:15:03Z</time>
      </trkpt>
      <trkpt lat="48.89305" lon="2.3098">
        <ele>24</ele>
        <time>2014-02-23T15:15:05Z</time>
      </trkpt>
      <trkpt lat="48.89301" lon="2.30973">
        <ele>27</ele>
        <time>2014-02-23T15:15:07Z</time>
      </trkpt>
      <trkpt lat="48.89298" lon="2.30967">
        <ele>29</ele>
        <time>2014-02-23T15:15:09Z</time>
      </trkpt>
      <trkpt lat="48.89285" lon="2.30943">
        <ele>30</ele>
        <time>2014-02-23T15:15:17Z</time>
      </trkpt>
      <trkpt lat="48.8928" lon="2.30936">
        <ele>32</ele>
        <time>2014-02-23T15:15:19Z</time>
      </trkpt>
      <trkpt lat="48.89266" lon="2.30918">
        <ele>32</ele>
        <time>2014-02-23T15:15:24Z</time>
      </trkpt>
      <trkpt lat="48.89256" lon="2.30901">
        <ele>29</ele>
        <time>2014-02-23T15:15:30Z</time>
      </trkpt>
      <trkpt lat="48.89255" lon="2.30892">
        <ele>33</ele>
        <time>2014-02-23T15:15:33Z</time>
      </trkpt>
      <trkpt lat="48.89255" lon="2.30891">
        <ele>29</ele>
        <time>2014-02-23T15:15:38Z</time>
      </trkpt>
      <trkpt lat="48.89254" lon="2.30888">
        <ele>28</ele>
        <time>2014-02-23T15:15:42Z</time>
      </trkpt>
      <trkpt lat="48.89253" lon="2.30884">
        <ele>28</ele>
        <time>2014-02-23T15:15:46Z</time>
      </trkpt>
      <trkpt lat="48.89252" lon="2.3088">
        <ele>29</ele>
        <time>2014-02-23T15:15:48Z</time>
      </trkpt>
      <trkpt lat="48.89248" lon="2.30864">
        <ele>26</ele>
        <time>2014-02-23T15:15:54Z</time>
      </trkpt>
      <trkpt lat="48.89244" lon="2.30855">
        <ele>29</ele>
        <time>2014-02-23T15:15:57Z</time>
      </trkpt>
      <trkpt lat="48.89243" lon="2.30851">
        <ele>30</ele>
        <time>2014-02-23T15:15:59Z</time>
      </trkpt>
      <trkpt lat="48.89238" lon="2.30839">
        <ele>34</ele>
        <time>2014-02-23T15:16:04Z</time>
      </trkpt>
      <trkpt lat="48.89236" lon="2.30831">
        <ele>34</ele>
        <time>2014-02-23T15:16:06Z</time>
      </trkpt>
      <trkpt lat="48.89127" lon="2.30641">
        <ele>41</ele>
        <time>2014-02-23T15:16:48Z</time>
      </trkpt>
      <trkpt lat="48.89152" lon="2.30679">
        <ele>54</ele>
        <time>2014-02-23T15:16:52Z</time>
      </trkpt>
      <trkpt lat="48.89156" lon="2.30673">
        <ele>59</ele>
        <time>2014-02-23T15:16:53Z</time>
      </trkpt>
      <trkpt lat="48.89159" lon="2.30665">
        <ele>54</ele>
        <time>2014-02-23T15:16:56Z</time>
      </trkpt>
      <trkpt lat="48.89154" lon="2.30661">
        <ele>47</ele>
        <time>2014-02-23T15:16:59Z</time>
      </trkpt>
      <trkpt lat="48.89151" lon="2.30653">
        <ele>43</ele>
        <time>2014-02-23T15:17:01Z</time>
      </trkpt>
      <trkpt lat="48.89147" lon="2.30647">
        <ele>39</ele>
        <time>2014-02-23T15:17:03Z</time>
      </trkpt>
      <trkpt lat="48.89143" lon="2.3064">
        <ele>35</ele>
        <time>2014-02-23T15:17:05Z</time>
      </trkpt>
      <trkpt lat="48.89138" lon="2.30636">
        <ele>35</ele>
        <time>2014-02-23T15:17:07Z</time>
      </trkpt>
      <trkpt lat="48.89135" lon="2.30626">
        <ele>34</ele>
        <time>2014-02-23T15:17:09Z</time>
      </trkpt>
      <trkpt lat="48.89126" lon="2.3061">
        <ele>39</ele>
        <time>2014-02-23T15:17:17Z</time>
      </trkpt>
      <trkpt lat="48.89122" lon="2.30604">
        <ele>38</ele>
        <time>2014-02-23T15:17:20Z</time>
      </trkpt>
      <trkpt lat="48.89118" lon="2.30599">
        <ele>38</ele>
        <time>2014-02-23T15:17:23Z</time>
      </trkpt>
      <trkpt lat="48.89117" lon="2.30591">
        <ele>36</ele>
        <time>2014-02-23T15:17:24Z</time>
      </trkpt>
      <trkpt lat="48.89114" lon="2.30584">
        <ele>41</ele>
        <time>2014-02-23T15:17:26Z</time>
      </trkpt>
      <trkpt lat="48.89109" lon="2.30577">
        <ele>41</ele>
        <time>2014-02-23T15:17:29Z</time>
      </trkpt>
      <trkpt lat="48.89105" lon="2.30569">
        <ele>37</ele>
        <time>2014-02-23T15:17:31Z</time>
      </trkpt>
      <trkpt lat="48.891" lon="2.30566">
        <ele>39</ele>
        <time>2014-02-23T15:17:33Z</time>
      </trkpt>
      <trkpt lat="48.89096" lon="2.30561">
        <ele>33</ele>
        <time>2014-02-23T15:17:35Z</time>
      </trkpt>
      <trkpt lat="48.8909" lon="2.30546">
        <ele>42</ele>
        <time>2014-02-23T15:17:38Z</time>
      </trkpt>
      <trkpt lat="48.89081" lon="2.30519">
        <ele>38</ele>
        <time>2014-02-23T15:17:42Z</time>
      </trkpt>
      <trkpt lat="48.89078" lon="2.30505">
        <ele>36</ele>
        <time>2014-02-23T15:17:45Z</time>
      </trkpt>
      <trkpt lat="48.89076" lon="2.30496">
        <ele>36</ele>
        <time>2014-02-23T15:17:48Z</time>
      </trkpt>
      <trkpt lat="48.8907" lon="2.30471">
        <ele>39</ele>
        <time>2014-02-23T15:17:57Z</time>
      </trkpt>
      <trkpt lat="48.89065" lon="2.30466">
        <ele>43</ele>
        <time>2014-02-23T15:18:00Z</time>
      </trkpt>
      <trkpt lat="48.89061" lon="2.30461">
        <ele>42</ele>
        <time>2014-02-23T15:18:02Z</time>
      </trkpt>
      <trkpt lat="48.89057" lon="2.30454">
        <ele>43</ele>
        <time>2014-02-23T15:18:05Z</time>
      </trkpt>
      <trkpt lat="48.89051" lon="2.30448">
        <ele>45</ele>
        <time>2014-02-23T15:18:07Z</time>
      </trkpt>
      <trkpt lat="48.89048" lon="2.3044">
        <ele>42</ele>
        <time>2014-02-23T15:18:09Z</time>
      </trkpt>
      <trkpt lat="48.89046" lon="2.30431">
        <ele>41</ele>
        <time>2014-02-23T15:18:12Z</time>
      </trkpt>
      <trkpt lat="48.89044" lon="2.3042">
        <ele>41</ele>
        <time>2014-02-23T15:18:15Z</time>
      </trkpt>
      <trkpt lat="48.89041" lon="2.30407">
        <ele>38</ele>
        <time>2014-02-23T15:18:26Z</time>
      </trkpt>
      <trkpt lat="48.89037" lon="2.30399">
        <ele>40</ele>
        <time>2014-02-23T15:18:31Z</time>
      </trkpt>
      <trkpt lat="48.89034" lon="2.30392">
        <ele>38</ele>
        <time>2014-02-23T15:18:33Z</time>
      </trkpt>
      <trkpt lat="48.89023" lon="2.30368">
        <ele>29</ele>
        <time>2014-02-23T15:18:42Z</time>
      </trkpt>
      <trkpt lat="48.89018" lon="2.30364">
        <ele>32</ele>
        <time>2014-02-23T15:18:44Z</time>
      </trkpt>
      <trkpt lat="48.89015" lon="2.30358">
        <ele>35</ele>
        <time>2014-02-23T15:18:46Z</time>
      </trkpt>
      <trkpt lat="48.8901" lon="2.3035">
        <ele>35</ele>
        <time>2014-02-23T15:18:50Z</time>
      </trkpt>
      <trkpt lat="48.89002" lon="2.30346">
        <ele>34</ele>
        <time>2014-02-23T15:18:54Z</time>
      </trkpt>
      <trkpt lat="48.88993" lon="2.30339">
        <ele>36</ele>
        <time>2014-02-23T15:19:00Z</time>
      </trkpt>
      <trkpt lat="48.88987" lon="2.30336">
        <ele>40</ele>
        <time>2014-02-23T15:19:03Z</time>
      </trkpt>
      <trkpt lat="48.8898" lon="2.30332">
        <ele>38</ele>
        <time>2014-02-23T15:19:06Z</time>
      </trkpt>
      <trkpt lat="48.88976" lon="2.30327">
        <ele>41</ele>
        <time>2014-02-23T15:19:08Z</time>
      </trkpt>
      <trkpt lat="48.88964" lon="2.30308">
        <ele>45</ele>
        <time>2014-02-23T15:19:15Z</time>
      </trkpt>
      <trkpt lat="48.88963" lon="2.30298">
        <ele>48</ele>
        <time>2014-02-23T15:19:17Z</time>
      </trkpt>
      <trkpt lat="48.88956" lon="2.30295">
        <ele>43</ele>
        <time>2014-02-23T15:19:20Z</time>
      </trkpt>
      <trkpt lat="48.88953" lon="2.30285">
        <ele>49</ele>
        <time>2014-02-23T15:19:22Z</time>
      </trkpt>
      <trkpt lat="48.88947" lon="2.30274">
        <ele>46</ele>
        <time>2014-02-23T15:19:24Z</time>
      </trkpt>
      <trkpt lat="48.88936" lon="2.30249">
        <ele>41</ele>
        <time>2014-02-23T15:19:29Z</time>
      </trkpt>
      <trkpt lat="48.88932" lon="2.30237">
        <ele>45</ele>
        <time>2014-02-23T15:19:31Z</time>
      </trkpt>
      <trkpt lat="48.88928" lon="2.30231">
        <ele>44</ele>
        <time>2014-02-23T15:19:33Z</time>
      </trkpt>
      <trkpt lat="48.88924" lon="2.3022">
        <ele>41</ele>
        <time>2014-02-23T15:19:35Z</time>
      </trkpt>
      <trkpt lat="48.88924" lon="2.3021">
        <ele>38</ele>
        <time>2014-02-23T15:19:38Z</time>
      </trkpt>
      <trkpt lat="48.88922" lon="2.30201">
        <ele>37</ele>
        <time>2014-02-23T15:19:45Z</time>
      </trkpt>
      <trkpt lat="48.88918" lon="2.30193">
        <ele>41</ele>
        <time>2014-02-23T15:19:50Z</time>
      </trkpt>
      <trkpt lat="48.88912" lon="2.30184">
        <ele>42</ele>
        <time>2014-02-23T15:19:54Z</time>
      </trkpt>
      <trkpt lat="48.8891" lon="2.30175">
        <ele>37</ele>
        <time>2014-02-23T15:19:56Z</time>
      </trkpt>
      <trkpt lat="48.88909" lon="2.30163">
        <ele>41</ele>
        <time>2014-02-23T15:19:58Z</time>
      </trkpt>
      <trkpt lat="48.88907" lon="2.3015">
        <ele>38</ele>
        <time>2014-02-23T15:20:01Z</time>
      </trkpt>
      <trkpt lat="48.88903" lon="2.30141">
        <ele>42</ele>
        <time>2014-02-23T15:20:04Z</time>
      </trkpt>
      <trkpt lat="48.88897" lon="2.30127">
        <ele>38</ele>
        <time>2014-02-23T15:20:09Z</time>
      </trkpt>
      <trkpt lat="48.88893" lon="2.30124">
        <ele>40</ele>
        <time>2014-02-23T15:20:12Z</time>
      </trkpt>
      <trkpt lat="48.8889" lon="2.30117">
        <ele>28</ele>
        <time>2014-02-23T15:20:16Z</time>
      </trkpt>
      <trkpt lat="48.88882" lon="2.3011">
        <ele>34</ele>
        <time>2014-02-23T15:20:22Z</time>
      </trkpt>
      <trkpt lat="48.88879" lon="2.30103">
        <ele>39</ele>
        <time>2014-02-23T15:20:24Z</time>
      </trkpt>
      <trkpt lat="48.88876" lon="2.30095">
        <ele>38</ele>
        <time>2014-02-23T15:20:26Z</time>
      </trkpt>
      <trkpt lat="48.88874" lon="2.30083">
        <ele>33</ele>
        <time>2014-02-23T15:20:28Z</time>
      </trkpt>
      <trkpt lat="48.88871" lon="2.30074">
        <ele>33</ele>
        <time>2014-02-23T15:20:30Z</time>
      </trkpt>
      <trkpt lat="48.88865" lon="2.30063">
        <ele>29</ele>
        <time>2014-02-23T15:20:33Z</time>
      </trkpt>
      <trkpt lat="48.88856" lon="2.3005">
        <ele>29</ele>
        <time>2014-02-23T15:20:37Z</time>
      </trkpt>
      <trkpt lat="48.88853" lon="2.30039">
        <ele>31</ele>
        <time>2014-02-23T15:20:39Z</time>
      </trkpt>
      <trkpt lat="48.8885" lon="2.30033">
        <ele>31</ele>
        <time>2014-02-23T15:20:40Z</time>
      </trkpt>
      <trkpt lat="48.88842" lon="2.30026">
        <ele>28</ele>
        <time>2014-02-23T15:20:42Z</time>
      </trkpt>
      <trkpt lat="48.88836" lon="2.30017">
        <ele>24</ele>
        <time>2014-02-23T15:20:44Z</time>
      </trkpt>
      <trkpt lat="48.88831" lon="2.30014">
        <ele>22</ele>
        <time>2014-02-23T15:20:46Z</time>
      </trkpt>
      <trkpt lat="48.88823" lon="2.30007">
        <ele>19</ele>
        <time>2014-02-23T15:20:49Z</time>
      </trkpt>
      <trkpt lat="48.88819" lon="2.30002">
        <ele>24</ele>
        <time>2014-02-23T15:20:51Z</time>
      </trkpt>
      <trkpt lat="48.88812" lon="2.29987">
        <ele>24</ele>
        <time>2014-02-23T15:20:55Z</time>
      </trkpt>
      <trkpt lat="48.88811" lon="2.29975">
        <ele>23</ele>
        <time>2014-02-23T15:20:57Z</time>
      </trkpt>
      <trkpt lat="48.88807" lon="2.29947">
        <ele>23</ele>
        <time>2014-02-23T15:21:03Z</time>
      </trkpt>
      <trkpt lat="48.88804" lon="2.29939">
        <ele>23</ele>
        <time>2014-02-23T15:21:06Z</time>
      </trkpt>
      <trkpt lat="48.888" lon="2.29932">
        <ele>19</ele>
        <time>2014-02-23T15:21:08Z</time>
      </trkpt>
      <trkpt lat="48.88793" lon="2.29929">
        <ele>23</ele>
        <time>2014-02-23T15:21:11Z</time>
      </trkpt>
      <trkpt lat="48.88789" lon="2.29924">
        <ele>26</ele>
        <time>2014-02-23T15:21:13Z</time>
      </trkpt>
      <trkpt lat="48.88785" lon="2.29912">
        <ele>26</ele>
        <time>2014-02-23T15:21:15Z</time>
      </trkpt>
      <trkpt lat="48.88776" lon="2.29884">
        <ele>33</ele>
        <time>2014-02-23T15:21:19Z</time>
      </trkpt>
      <trkpt lat="48.88766" lon="2.29862">
        <ele>39</ele>
        <time>2014-02-23T15:21:24Z</time>
      </trkpt>
      <trkpt lat="48.8876" lon="2.29852">
        <ele>40</ele>
        <time>2014-02-23T15:21:27Z</time>
      </trkpt>
      <trkpt lat="48.88754" lon="2.2984">
        <ele>39</ele>
        <time>2014-02-23T15:21:31Z</time>
      </trkpt>
      <trkpt lat="48.88748" lon="2.29834">
        <ele>42</ele>
        <time>2014-02-23T15:21:33Z</time>
      </trkpt>
      <trkpt lat="48.88745" lon="2.29827">
        <ele>41</ele>
        <time>2014-02-23T15:21:35Z</time>
      </trkpt>
      <trkpt lat="48.88745" lon="2.29813">
        <ele>44</ele>
        <time>2014-02-23T15:21:37Z</time>
      </trkpt>
      <trkpt lat="48.88744" lon="2.29805">
        <ele>39</ele>
        <time>2014-02-23T15:21:39Z</time>
      </trkpt>
      <trkpt lat="48.88743" lon="2.29792">
        <ele>36</ele>
        <time>2014-02-23T15:21:43Z</time>
      </trkpt>
      <trkpt lat="48.88741" lon="2.29781">
        <ele>43</ele>
        <time>2014-02-23T15:21:48Z</time>
      </trkpt>
      <trkpt lat="48.88738" lon="2.29773">
        <ele>38</ele>
        <time>2014-02-23T15:21:51Z</time>
      </trkpt>
      <trkpt lat="48.88734" lon="2.29767">
        <ele>36</ele>
        <time>2014-02-23T15:21:54Z</time>
      </trkpt>
      <trkpt lat="48.88733" lon="2.29757">
        <ele>33</ele>
        <time>2014-02-23T15:21:56Z</time>
      </trkpt>
      <trkpt lat="48.88728" lon="2.29734">
        <ele>37</ele>
        <time>2014-02-23T15:22:04Z</time>
      </trkpt>
      <trkpt lat="48.88722" lon="2.29729">
        <ele>39</ele>
        <time>2014-02-23T15:22:08Z</time>
      </trkpt>
      <trkpt lat="48.88715" lon="2.29725">
        <ele>35</ele>
        <time>2014-02-23T15:22:11Z</time>
      </trkpt>
      <trkpt lat="48.8871" lon="2.29717">
        <ele>39</ele>
        <time>2014-02-23T15:22:14Z</time>
      </trkpt>
      <trkpt lat="48.88707" lon="2.2971">
        <ele>39</ele>
        <time>2014-02-23T15:22:17Z</time>
      </trkpt>
      <trkpt lat="48.88697" lon="2.29683">
        <ele>41</ele>
        <time>2014-02-23T15:22:25Z</time>
      </trkpt>
      <trkpt lat="48.88693" lon="2.29675">
        <ele>42</ele>
        <time>2014-02-23T15:22:27Z</time>
      </trkpt>
      <trkpt lat="48.88688" lon="2.29664">
        <ele>39</ele>
        <time>2014-02-23T15:22:30Z</time>
      </trkpt>
      <trkpt lat="48.88684" lon="2.29656">
        <ele>37</ele>
        <time>2014-02-23T15:22:32Z</time>
      </trkpt>
      <trkpt lat="48.88681" lon="2.29647">
        <ele>39</ele>
        <time>2014-02-23T15:22:34Z</time>
      </trkpt>
      <trkpt lat="48.88678" lon="2.29635">
        <ele>37</ele>
        <time>2014-02-23T15:22:36Z</time>
      </trkpt>
      <trkpt lat="48.88675" lon="2.29624">
        <ele>35</ele>
        <time>2014-02-23T15:22:38Z</time>
      </trkpt>
      <trkpt lat="48.88669" lon="2.29616">
        <ele>34</ele>
        <time>2014-02-23T15:22:40Z</time>
      </trkpt>
      <trkpt lat="48.88664" lon="2.29607">
        <ele>33</ele>
        <time>2014-02-23T15:22:43Z</time>
      </trkpt>
      <trkpt lat="48.8866" lon="2.29595">
        <ele>32</ele>
        <time>2014-02-23T15:22:46Z</time>
      </trkpt>
      <trkpt lat="48.8866" lon="2.29584">
        <ele>33</ele>
        <time>2014-02-23T15:22:48Z</time>
      </trkpt>
      <trkpt lat="48.88659" lon="2.29575">
        <ele>37</ele>
        <time>2014-02-23T15:22:50Z</time>
      </trkpt>
      <trkpt lat="48.88659" lon="2.29569">
        <ele>33</ele>
        <time>2014-02-23T15:22:52Z</time>
      </trkpt>
      <trkpt lat="48.88657" lon="2.29564">
        <ele>34</ele>
        <time>2014-02-23T15:22:54Z</time>
      </trkpt>
      <trkpt lat="48.88654" lon="2.29558">
        <ele>33</ele>
        <time>2014-02-23T15:22:56Z</time>
      </trkpt>
      <trkpt lat="48.8865" lon="2.29544">
        <ele>31</ele>
        <time>2014-02-23T15:23:01Z</time>
      </trkpt>
      <trkpt lat="48.88643" lon="2.29536">
        <ele>25</ele>
        <time>2014-02-23T15:23:06Z</time>
      </trkpt>
      <trkpt lat="48.8864" lon="2.29528">
        <ele>25</ele>
        <time>2014-02-23T15:23:09Z</time>
      </trkpt>
      <trkpt lat="48.8864" lon="2.2952">
        <ele>22</ele>
        <time>2014-02-23T15:23:11Z</time>
      </trkpt>
      <trkpt lat="48.88639" lon="2.29511">
        <ele>23</ele>
        <time>2014-02-23T15:23:14Z</time>
      </trkpt>
      <trkpt lat="48.88638" lon="2.29497">
        <ele>36</ele>
        <time>2014-02-23T15:23:18Z</time>
      </trkpt>
      <trkpt lat="48.88636" lon="2.29479">
        <ele>39</ele>
        <time>2014-02-23T15:23:23Z</time>
      </trkpt>
      <trkpt lat="48.88632" lon="2.2947">
        <ele>41</ele>
        <time>2014-02-23T15:23:25Z</time>
      </trkpt>
      <trkpt lat="48.88631" lon="2.29461">
        <ele>33</ele>
        <time>2014-02-23T15:23:28Z</time>
      </trkpt>
      <trkpt lat="48.8863" lon="2.29452">
        <ele>37</ele>
        <time>2014-02-23T15:23:32Z</time>
      </trkpt>
      <trkpt lat="48.88627" lon="2.29443">
        <ele>36</ele>
        <time>2014-02-23T15:23:36Z</time>
      </trkpt>
      <trkpt lat="48.88625" lon="2.29433">
        <ele>35</ele>
        <time>2014-02-23T15:23:39Z</time>
      </trkpt>
      <trkpt lat="48.8862" lon="2.29407">
        <ele>38</ele>
        <time>2014-02-23T15:23:46Z</time>
      </trkpt>
      <trkpt lat="48.88621" lon="2.29396">
        <ele>41</ele>
        <time>2014-02-23T15:23:48Z</time>
      </trkpt>
      <trkpt lat="48.88622" lon="2.29373">
        <ele>44</ele>
        <time>2014-02-23T15:23:52Z</time>
      </trkpt>
      <trkpt lat="48.88622" lon="2.29358">
        <ele>41</ele>
        <time>2014-02-23T15:23:55Z</time>
      </trkpt>
      <trkpt lat="48.88621" lon="2.29342">
        <ele>39</ele>
        <time>2014-02-23T15:23:58Z</time>
      </trkpt>
      <trkpt lat="48.88619" lon="2.29333">
        <ele>43</ele>
        <time>2014-02-23T15:24:00Z</time>
      </trkpt>
      <trkpt lat="48.88613" lon="2.29299">
        <ele>43</ele>
        <time>2014-02-23T15:24:08Z</time>
      </trkpt>
      <trkpt lat="48.88611" lon="2.29289">
        <ele>44</ele>
        <time>2014-02-23T15:24:11Z</time>
      </trkpt>
      <trkpt lat="48.8861" lon="2.29281">
        <ele>44</ele>
        <time>2014-02-23T15:24:13Z</time>
      </trkpt>
      <trkpt lat="48.88608" lon="2.29273">
        <ele>39</ele>
        <time>2014-02-23T15:24:23Z</time>
      </trkpt>
      <trkpt lat="48.8861" lon="2.29267">
        <ele>36</ele>
        <time>2014-02-23T15:24:27Z</time>
      </trkpt>
      <trkpt lat="48.88613" lon="2.29257">
        <ele>44</ele>
        <time>2014-02-23T15:24:34Z</time>
      </trkpt>
      <trkpt lat="48.88618" lon="2.29249">
        <ele>43</ele>
        <time>2014-02-23T15:24:45Z</time>
      </trkpt>
      <trkpt lat="48.88622" lon="2.29246">
        <ele>40</ele>
        <time>2014-02-23T15:25:11Z</time>
      </trkpt>
      <trkpt lat="48.88626" lon="2.29241">
        <ele>47</ele>
        <time>2014-02-23T15:25:42Z</time>
      </trkpt>
      <trkpt lat="48.88626" lon="2.29233">
        <ele>44</ele>
        <time>2014-02-23T15:25:44Z</time>
      </trkpt>
      <trkpt lat="48.88627" lon="2.2922">
        <ele>43</ele>
        <time>2014-02-23T15:25:46Z</time>
      </trkpt>
      <trkpt lat="48.88629" lon="2.29208">
        <ele>40</ele>
        <time>2014-02-23T15:25:49Z</time>
      </trkpt>
      <trkpt lat="48.88628" lon="2.292">
        <ele>42</ele>
        <time>2014-02-23T15:25:52Z</time>
      </trkpt>
      <trkpt lat="48.88623" lon="2.29192">
        <ele>38</ele>
        <time>2014-02-23T15:25:55Z</time>
      </trkpt>
      <trkpt lat="48.88619" lon="2.29188">
        <ele>38</ele>
        <time>2014-02-23T15:25:57Z</time>
      </trkpt>
      <trkpt lat="48.88613" lon="2.29186">
        <ele>40</ele>
        <time>2014-02-23T15:25:59Z</time>
      </trkpt>
      <trkpt lat="48.88608" lon="2.29183">
        <ele>42</ele>
        <time>2014-02-23T15:26:01Z</time>
      </trkpt>
      <trkpt lat="48.88589" lon="2.2917">
        <ele>43</ele>
        <time>2014-02-23T15:26:10Z</time>
      </trkpt>
      <trkpt lat="48.88584" lon="2.29166">
        <ele>41</ele>
        <time>2014-02-23T15:26:12Z</time>
      </trkpt>
      <trkpt lat="48.88581" lon="2.29154">
        <ele>43</ele>
        <time>2014-02-23T15:26:15Z</time>
      </trkpt>
      <trkpt lat="48.88582" lon="2.29141">
        <ele>42</ele>
        <time>2014-02-23T15:26:17Z</time>
      </trkpt>
      <trkpt lat="48.88582" lon="2.29127">
        <ele>42</ele>
        <time>2014-02-23T15:26:20Z</time>
      </trkpt>
      <trkpt lat="48.8858" lon="2.2912">
        <ele>28</ele>
        <time>2014-02-23T15:26:27Z</time>
      </trkpt>
      <trkpt lat="48.88578" lon="2.29112">
        <ele>29</ele>
        <time>2014-02-23T15:26:32Z</time>
      </trkpt>
      <trkpt lat="48.88576" lon="2.29112">
        <ele>30</ele>
        <time>2014-02-23T15:26:33Z</time>
      </trkpt>
      <trkpt lat="48.88569" lon="2.29112">
        <ele>32</ele>
        <time>2014-02-23T15:26:36Z</time>
      </trkpt>
      <trkpt lat="48.88564" lon="2.29111">
        <ele>36</ele>
        <time>2014-02-23T15:26:39Z</time>
      </trkpt>
      <trkpt lat="48.88557" lon="2.29112">
        <ele>37</ele>
        <time>2014-02-23T15:26:43Z</time>
      </trkpt>
      <trkpt lat="48.88554" lon="2.29105">
        <ele>38</ele>
        <time>2014-02-23T15:26:52Z</time>
      </trkpt>
      <trkpt lat="48.88548" lon="2.291">
        <ele>34</ele>
        <time>2014-02-23T15:27:22Z</time>
      </trkpt>
      <trkpt lat="48.88539" lon="2.29099">
        <ele>39</ele>
        <time>2014-02-23T15:27:25Z</time>
      </trkpt>
      <trkpt lat="48.88533" lon="2.29101">
        <ele>42</ele>
        <time>2014-02-23T15:27:27Z</time>
      </trkpt>
      <trkpt lat="48.88525" lon="2.29099">
        <ele>39</ele>
        <time>2014-02-23T15:27:30Z</time>
      </trkpt>
      <trkpt lat="48.88521" lon="2.29094">
        <ele>46</ele>
        <time>2014-02-23T15:27:33Z</time>
      </trkpt>
      <trkpt lat="48.88514" lon="2.29092">
        <ele>42</ele>
        <time>2014-02-23T15:27:35Z</time>
      </trkpt>
      <trkpt lat="48.88507" lon="2.29087">
        <ele>41</ele>
        <time>2014-02-23T15:27:37Z</time>
      </trkpt>
      <trkpt lat="48.88503" lon="2.2908">
        <ele>38</ele>
        <time>2014-02-23T15:27:39Z</time>
      </trkpt>
      <trkpt lat="48.88495" lon="2.29076">
        <ele>32</ele>
        <time>2014-02-23T15:27:42Z</time>
      </trkpt>
      <trkpt lat="48.88489" lon="2.29068">
        <ele>32</ele>
        <time>2014-02-23T15:27:46Z</time>
      </trkpt>
      <trkpt lat="48.88484" lon="2.29058">
        <ele>34</ele>
        <time>2014-02-23T15:27:49Z</time>
      </trkpt>
      <trkpt lat="48.88479" lon="2.29056">
        <ele>34</ele>
        <time>2014-02-23T15:27:51Z</time>
      </trkpt>
      <trkpt lat="48.88473" lon="2.29049">
        <ele>27</ele>
        <time>2014-02-23T15:27:54Z</time>
      </trkpt>
      <trkpt lat="48.88465" lon="2.29035">
        <ele>34</ele>
        <time>2014-02-23T15:27:58Z</time>
      </trkpt>
      <trkpt lat="48.88462" lon="2.29026">
        <ele>41</ele>
        <time>2014-02-23T15:28:01Z</time>
      </trkpt>
      <trkpt lat="48.88452" lon="2.28998">
        <ele>45</ele>
        <time>2014-02-23T15:28:07Z</time>
      </trkpt>
      <trkpt lat="48.88448" lon="2.28989">
        <ele>49</ele>
        <time>2014-02-23T15:28:09Z</time>
      </trkpt>
      <trkpt lat="48.88443" lon="2.28983">
        <ele>47</ele>
        <time>2014-02-23T15:28:11Z</time>
      </trkpt>
      <trkpt lat="48.88439" lon="2.28979">
        <ele>44</ele>
        <time>2014-02-23T15:28:13Z</time>
      </trkpt>
      <trkpt lat="48.88438" lon="2.28971">
        <ele>51</ele>
        <time>2014-02-23T15:28:15Z</time>
      </trkpt>
      <trkpt lat="48.8844" lon="2.28958">
        <ele>52</ele>
        <time>2014-02-23T15:28:17Z</time>
      </trkpt>
      <trkpt lat="48.88442" lon="2.28951">
        <ele>52</ele>
        <time>2014-02-23T15:28:18Z</time>
      </trkpt>
      <trkpt lat="48.88443" lon="2.2894">
        <ele>50</ele>
        <time>2014-02-23T15:28:20Z</time>
      </trkpt>
      <trkpt lat="48.88441" lon="2.28933">
        <ele>45</ele>
        <time>2014-02-23T15:28:22Z</time>
      </trkpt>
      <trkpt lat="48.88433" lon="2.28907">
        <ele>42</ele>
        <time>2014-02-23T15:28:28Z</time>
      </trkpt>
      <trkpt lat="48.88429" lon="2.28899">
        <ele>35</ele>
        <time>2014-02-23T15:28:31Z</time>
      </trkpt>
      <trkpt lat="48.88423" lon="2.2889">
        <ele>31</ele>
        <time>2014-02-23T15:28:35Z</time>
      </trkpt>
      <trkpt lat="48.88418" lon="2.28886">
        <ele>32</ele>
        <time>2014-02-23T15:28:37Z</time>
      </trkpt>
      <trkpt lat="48.88404" lon="2.28876">
        <ele>35</ele>
        <time>2014-02-23T15:28:42Z</time>
      </trkpt>
      <trkpt lat="48.88399" lon="2.28872">
        <ele>29</ele>
        <time>2014-02-23T15:28:44Z</time>
      </trkpt>
      <trkpt lat="48.88392" lon="2.2887">
        <ele>27</ele>
        <time>2014-02-23T15:28:46Z</time>
      </trkpt>
      <trkpt lat="48.88385" lon="2.28865">
        <ele>26</ele>
        <time>2014-02-23T15:28:49Z</time>
      </trkpt>
      <trkpt lat="48.88369" lon="2.28851">
        <ele>22</ele>
        <time>2014-02-23T15:28:57Z</time>
      </trkpt>
      <trkpt lat="48.88361" lon="2.28836">
        <ele>19</ele>
        <time>2014-02-23T15:29:03Z</time>
      </trkpt>
      <trkpt lat="48.8836" lon="2.28823">
        <ele>27</ele>
        <time>2014-02-23T15:29:05Z</time>
      </trkpt>
      <trkpt lat="48.88359" lon="2.28814">
        <ele>30</ele>
        <time>2014-02-23T15:29:07Z</time>
      </trkpt>
      <trkpt lat="48.88356" lon="2.28803">
        <ele>38</ele>
        <time>2014-02-23T15:29:10Z</time>
      </trkpt>
      <trkpt lat="48.88349" lon="2.28801">
        <ele>35</ele>
        <time>2014-02-23T15:29:13Z</time>
      </trkpt>
      <trkpt lat="48.88344" lon="2.28799">
        <ele>34</ele>
        <time>2014-02-23T15:29:15Z</time>
      </trkpt>
      <trkpt lat="48.88338" lon="2.28795">
        <ele>33</ele>
        <time>2014-02-23T15:29:17Z</time>
      </trkpt>
      <trkpt lat="48.88325" lon="2.28789">
        <ele>41</ele>
        <time>2014-02-23T15:29:21Z</time>
      </trkpt>
      <trkpt lat="48.88315" lon="2.28784">
        <ele>43</ele>
        <time>2014-02-23T15:29:25Z</time>
      </trkpt>
      <trkpt lat="48.88318" lon="2.28771">
        <ele>47</ele>
        <time>2014-02-23T15:29:27Z</time>
      </trkpt>
      <trkpt lat="48.88319" lon="2.28755">
        <ele>48</ele>
        <time>2014-02-23T15:29:29Z</time>
      </trkpt>
      <trkpt lat="48.88317" lon="2.28747">
        <ele>49</ele>
        <time>2014-02-23T15:29:31Z</time>
      </trkpt>
      <trkpt lat="48.88318" lon="2.28737">
        <ele>43</ele>
        <time>2014-02-23T15:29:34Z</time>
      </trkpt>
      <trkpt lat="48.88317" lon="2.28734">
        <ele>42</ele>
        <time>2014-02-23T15:29:35Z</time>
      </trkpt>
      <trkpt lat="48.88314" lon="2.28729">
        <ele>32</ele>
        <time>2014-02-23T15:29:40Z</time>
      </trkpt>
      <trkpt lat="48.88312" lon="2.28726">
        <ele>33</ele>
        <time>2014-02-23T15:29:41Z</time>
      </trkpt>
      <trkpt lat="48.88306" lon="2.28723">
        <ele>32</ele>
        <time>2014-02-23T15:29:44Z</time>
      </trkpt>
      <trkpt lat="48.88301" lon="2.28718">
        <ele>33</ele>
        <time>2014-02-23T15:29:46Z</time>
      </trkpt>
      <trkpt lat="48.88296" lon="2.28712">
        <ele>31</ele>
        <time>2014-02-23T15:29:48Z</time>
      </trkpt>
      <trkpt lat="48.88289" lon="2.28708">
        <ele>33</ele>
        <time>2014-02-23T15:29:50Z</time>
      </trkpt>
      <trkpt lat="48.88283" lon="2.28708">
        <ele>30</ele>
        <time>2014-02-23T15:29:52Z</time>
      </trkpt>
      <trkpt lat="48.88278" lon="2.28704">
        <ele>34</ele>
        <time>2014-02-23T15:29:54Z</time>
      </trkpt>
      <trkpt lat="48.88271" lon="2.28702">
        <ele>33</ele>
        <time>2014-02-23T15:29:56Z</time>
      </trkpt>
      <trkpt lat="48.88262" lon="2.28695">
        <ele>34</ele>
        <time>2014-02-23T15:29:59Z</time>
      </trkpt>
      <trkpt lat="48.88257" lon="2.28688">
        <ele>33</ele>
        <time>2014-02-23T15:30:01Z</time>
      </trkpt>
      <trkpt lat="48.8825" lon="2.28682">
        <ele>31</ele>
        <time>2014-02-23T15:30:03Z</time>
      </trkpt>
      <trkpt lat="48.88245" lon="2.2868">
        <ele>33</ele>
        <time>2014-02-23T15:30:05Z</time>
      </trkpt>
      <trkpt lat="48.88239" lon="2.28674">
        <ele>33</ele>
        <time>2014-02-23T15:30:07Z</time>
      </trkpt>
      <trkpt lat="48.88235" lon="2.28666">
        <ele>32</ele>
        <time>2014-02-23T15:30:09Z</time>
      </trkpt>
      <trkpt lat="48.88229" lon="2.28662">
        <ele>27</ele>
        <time>2014-02-23T15:30:11Z</time>
      </trkpt>
      <trkpt lat="48.88222" lon="2.28661">
        <ele>26</ele>
        <time>2014-02-23T15:30:13Z</time>
      </trkpt>
      <trkpt lat="48.8822" lon="2.28649">
        <ele>32</ele>
        <time>2014-02-23T15:30:15Z</time>
      </trkpt>
      <trkpt lat="48.88216" lon="2.28635">
        <ele>34</ele>
        <time>2014-02-23T15:30:18Z</time>
      </trkpt>
      <trkpt lat="48.88213" lon="2.28628">
        <ele>37</ele>
        <time>2014-02-23T15:30:21Z</time>
      </trkpt>
      <trkpt lat="48.88207" lon="2.28623">
        <ele>38</ele>
        <time>2014-02-23T15:30:26Z</time>
      </trkpt>
      <trkpt lat="48.882" lon="2.2862">
        <ele>40</ele>
        <time>2014-02-23T15:30:29Z</time>
      </trkpt>
      <trkpt lat="48.88194" lon="2.28613">
        <ele>41</ele>
        <time>2014-02-23T15:30:32Z</time>
      </trkpt>
      <trkpt lat="48.8819" lon="2.28609">
        <ele>36</ele>
        <time>2014-02-23T15:30:34Z</time>
      </trkpt>
      <trkpt lat="48.88187" lon="2.28601">
        <ele>31</ele>
        <time>2014-02-23T15:30:36Z</time>
      </trkpt>
      <trkpt lat="48.88184" lon="2.28594">
        <ele>29</ele>
        <time>2014-02-23T15:30:38Z</time>
      </trkpt>
      <trkpt lat="48.88178" lon="2.2859">
        <ele>24</ele>
        <time>2014-02-23T15:30:41Z</time>
      </trkpt>
      <trkpt lat="48.88177" lon="2.28583">
        <ele>25</ele>
        <time>2014-02-23T15:30:43Z</time>
      </trkpt>
      <trkpt lat="48.88172" lon="2.28578">
        <ele>18</ele>
        <time>2014-02-23T15:30:46Z</time>
      </trkpt>
      <trkpt lat="48.88173" lon="2.28565">
        <ele>29</ele>
        <time>2014-02-23T15:30:48Z</time>
      </trkpt>
      <trkpt lat="48.88175" lon="2.28553">
        <ele>30</ele>
        <time>2014-02-23T15:30:49Z</time>
      </trkpt>
      <trkpt lat="48.88176" lon="2.28537">
        <ele>28</ele>
        <time>2014-02-23T15:30:53Z</time>
      </trkpt>
      <trkpt lat="48.88172" lon="2.28531">
        <ele>25</ele>
        <time>2014-02-23T15:30:56Z</time>
      </trkpt>
      <trkpt lat="48.88169" lon="2.28524">
        <ele>33</ele>
        <time>2014-02-23T15:30:58Z</time>
      </trkpt>
      <trkpt lat="48.88162" lon="2.28519">
        <ele>35</ele>
        <time>2014-02-23T15:31:01Z</time>
      </trkpt>
      <trkpt lat="48.88155" lon="2.28516">
        <ele>35</ele>
        <time>2014-02-23T15:31:04Z</time>
      </trkpt>
      <trkpt lat="48.8815" lon="2.28516">
        <ele>30</ele>
        <time>2014-02-23T15:31:06Z</time>
      </trkpt>
      <trkpt lat="48.88136" lon="2.28511">
        <ele>26</ele>
        <time>2014-02-23T15:31:12Z</time>
      </trkpt>
      <trkpt lat="48.8813" lon="2.28506">
        <ele>27</ele>
        <time>2014-02-23T15:31:15Z</time>
      </trkpt>
      <trkpt lat="48.88125" lon="2.28498">
        <ele>25</ele>
        <time>2014-02-23T15:31:18Z</time>
      </trkpt>
      <trkpt lat="48.88123" lon="2.28491">
        <ele>21</ele>
        <time>2014-02-23T15:31:20Z</time>
      </trkpt>
      <trkpt lat="48.88121" lon="2.28482">
        <ele>9</ele>
        <time>2014-02-23T15:31:22Z</time>
      </trkpt>
      <trkpt lat="48.88119" lon="2.28476">
        <ele>4</ele>
        <time>2014-02-23T15:31:24Z</time>
      </trkpt>
      <trkpt lat="48.88121" lon="2.28466">
        <ele>21</ele>
        <time>2014-02-23T15:31:27Z</time>
      </trkpt>
      <trkpt lat="48.88126" lon="2.28456">
        <ele>27</ele>
        <time>2014-02-23T15:31:29Z</time>
      </trkpt>
      <trkpt lat="48.88131" lon="2.28444">
        <ele>32</ele>
        <time>2014-02-23T15:31:40Z</time>
      </trkpt>
      <trkpt lat="48.88127" lon="2.28448">
        <ele>41</ele>
        <time>2014-02-23T15:32:00Z</time>
      </trkpt>
      <trkpt lat="48.88122" lon="2.28455">
        <ele>44</ele>
        <time>2014-02-23T15:32:06Z</time>
      </trkpt>
      <trkpt lat="48.88116" lon="2.28459">
        <ele>41</ele>
        <time>2014-02-23T15:32:09Z</time>
      </trkpt>
      <trkpt lat="48.88112" lon="2.28464">
        <ele>43</ele>
        <time>2014-02-23T15:32:12Z</time>
      </trkpt>
      <trkpt lat="48.88106" lon="2.28467">
        <ele>41</ele>
        <time>2014-02-23T15:32:15Z</time>
      </trkpt>
      <trkpt lat="48.88095" lon="2.2847">
        <ele>39</ele>
        <time>2014-02-23T15:32:22Z</time>
      </trkpt>
      <trkpt lat="48.88089" lon="2.28468">
        <ele>32</ele>
        <time>2014-02-23T15:32:28Z</time>
      </trkpt>
      <trkpt lat="48.88086" lon="2.28461">
        <ele>35</ele>
        <time>2014-02-23T15:32:33Z</time>
      </trkpt>
      <trkpt lat="48.88082" lon="2.28451">
        <ele>36</ele>
        <time>2014-02-23T15:32:41Z</time>
      </trkpt>
      <trkpt lat="48.88082" lon="2.28441">
        <ele>39</ele>
        <time>2014-02-23T15:32:43Z</time>
      </trkpt>
      <trkpt lat="48.88081" lon="2.28431">
        <ele>40</ele>
        <time>2014-02-23T15:32:45Z</time>
      </trkpt>
      <trkpt lat="48.88079" lon="2.28424">
        <ele>39</ele>
        <time>2014-02-23T15:32:47Z</time>
      </trkpt>
      <trkpt lat="48.88077" lon="2.28422">
        <ele>41</ele>
        <time>2014-02-23T15:32:48Z</time>
      </trkpt>
      <trkpt lat="48.88074" lon="2.28414">
        <ele>40</ele>
        <time>2014-02-23T15:32:52Z</time>
      </trkpt>
      <trkpt lat="48.8807" lon="2.28407">
        <ele>39</ele>
        <time>2014-02-23T15:32:54Z</time>
      </trkpt>
      <trkpt lat="48.88065" lon="2.284">
        <ele>35</ele>
        <time>2014-02-23T15:32:57Z</time>
      </trkpt>
      <trkpt lat="48.8806" lon="2.28394">
        <ele>43</ele>
        <time>2014-02-23T15:32:59Z</time>
      </trkpt>
      <trkpt lat="48.88044" lon="2.28376">
        <ele>40</ele>
        <time>2014-02-23T15:33:05Z</time>
      </trkpt>
      <trkpt lat="48.88039" lon="2.28373">
        <ele>54</ele>
        <time>2014-02-23T15:33:08Z</time>
      </trkpt>
      <trkpt lat="48.8802" lon="2.2836">
        <ele>44</ele>
        <time>2014-02-23T15:33:14Z</time>
      </trkpt>
      <trkpt lat="48.88014" lon="2.28353">
        <ele>39</ele>
        <time>2014-02-23T15:33:16Z</time>
      </trkpt>
      <trkpt lat="48.88009" lon="2.28345">
        <ele>36</ele>
        <time>2014-02-23T15:33:18Z</time>
      </trkpt>
      <trkpt lat="48.88003" lon="2.28336">
        <ele>33</ele>
        <time>2014-02-23T15:33:20Z</time>
      </trkpt>
      <trkpt lat="48.87999" lon="2.2833">
        <ele>33</ele>
        <time>2014-02-23T15:33:22Z</time>
      </trkpt>
      <trkpt lat="48.87995" lon="2.28322">
        <ele>34</ele>
        <time>2014-02-23T15:33:24Z</time>
      </trkpt>
      <trkpt lat="48.87982" lon="2.28299">
        <ele>34</ele>
        <time>2014-02-23T15:33:30Z</time>
      </trkpt>
      <trkpt lat="48.87977" lon="2.28292">
        <ele>34</ele>
        <time>2014-02-23T15:33:32Z</time>
      </trkpt>
      <trkpt lat="48.87916" lon="2.28208">
        <ele>41</ele>
        <time>2014-02-23T15:33:58Z</time>
      </trkpt>
      <trkpt lat="48.87897" lon="2.28182">
        <ele>41</ele>
        <time>2014-02-23T15:34:14Z</time>
      </trkpt>
      <trkpt lat="48.87891" lon="2.28179">
        <ele>36</ele>
        <time>2014-02-23T15:34:18Z</time>
      </trkpt>
      <trkpt lat="48.87886" lon="2.28173">
        <ele>34</ele>
        <time>2014-02-23T15:34:56Z</time>
      </trkpt>
      <trkpt lat="48.87884" lon="2.28167">
        <ele>31</ele>
        <time>2014-02-23T15:34:59Z</time>
      </trkpt>
      <trkpt lat="48.87882" lon="2.28164">
        <ele>36</ele>
        <time>2014-02-23T15:35:00Z</time>
      </trkpt>
      <trkpt lat="48.87874" lon="2.28151">
        <ele>37</ele>
        <time>2014-02-23T15:35:04Z</time>
      </trkpt>
      <trkpt lat="48.87869" lon="2.28144">
        <ele>36</ele>
        <time>2014-02-23T15:35:06Z</time>
      </trkpt>
      <trkpt lat="48.87861" lon="2.28133">
        <ele>30</ele>
        <time>2014-02-23T15:35:09Z</time>
      </trkpt>
      <trkpt lat="48.87859" lon="2.28129">
        <ele>31</ele>
        <time>2014-02-23T15:35:10Z</time>
      </trkpt>
      <trkpt lat="48.87857" lon="2.28125">
        <ele>31</ele>
        <time>2014-02-23T15:35:11Z</time>
      </trkpt>
      <trkpt lat="48.87855" lon="2.28122">
        <ele>31</ele>
        <time>2014-02-23T15:35:12Z</time>
      </trkpt>
      <trkpt lat="48.87852" lon="2.28112">
        <ele>30</ele>
        <time>2014-02-23T15:35:14Z</time>
      </trkpt>
      <trkpt lat="48.87851" lon="2.28107">
        <ele>31</ele>
        <time>2014-02-23T15:35:15Z</time>
      </trkpt>
      <trkpt lat="48.87851" lon="2.28102">
        <ele>33</ele>
        <time>2014-02-23T15:35:16Z</time>
      </trkpt>
      <trkpt lat="48.8785" lon="2.28097">
        <ele>33</ele>
        <time>2014-02-23T15:35:17Z</time>
      </trkpt>
      <trkpt lat="48.87851" lon="2.28091">
        <ele>31</ele>
        <time>2014-02-23T15:35:18Z</time>
      </trkpt>
      <trkpt lat="48.87853" lon="2.2808">
        <ele>32</ele>
        <time>2014-02-23T15:35:20Z</time>
      </trkpt>
      <trkpt lat="48.87859" lon="2.28049">
        <ele>32</ele>
        <time>2014-02-23T15:35:26Z</time>
      </trkpt>
      <trkpt lat="48.87862" lon="2.28039">
        <ele>29</ele>
        <time>2014-02-23T15:35:28Z</time>
      </trkpt>
      <trkpt lat="48.87863" lon="2.28029">
        <ele>32</ele>
        <time>2014-02-23T15:35:31Z</time>
      </trkpt>
      <trkpt lat="48.87866" lon="2.28019">
        <ele>36</ele>
        <time>2014-02-23T15:35:34Z</time>
      </trkpt>
      <trkpt lat="48.87872" lon="2.28013">
        <ele>37</ele>
        <time>2014-02-23T15:35:38Z</time>
      </trkpt>
      <trkpt lat="48.87875" lon="2.28007">
        <ele>37</ele>
        <time>2014-02-23T15:35:42Z</time>
      </trkpt>
      <trkpt lat="48.87878" lon="2.28">
        <ele>31</ele>
        <time>2014-02-23T15:35:46Z</time>
      </trkpt>
      <trkpt lat="48.87879" lon="2.27997">
        <ele>41</ele>
        <time>2014-02-23T15:36:10Z</time>
      </trkpt>
      <trkpt lat="48.87881" lon="2.27994">
        <ele>30</ele>
        <time>2014-02-23T15:36:21Z</time>
      </trkpt>
      <trkpt lat="48.87876" lon="2.27985">
        <ele>35</ele>
        <time>2014-02-23T15:36:26Z</time>
      </trkpt>
      <trkpt lat="48.87872" lon="2.2798">
        <ele>35</ele>
        <time>2014-02-23T15:36:28Z</time>
      </trkpt>
      <trkpt lat="48.87869" lon="2.27979">
        <ele>35</ele>
        <time>2014-02-23T15:36:29Z</time>
      </trkpt>
      <trkpt lat="48.87863" lon="2.27975">
        <ele>31</ele>
        <time>2014-02-23T15:36:31Z</time>
      </trkpt>
      <trkpt lat="48.87849" lon="2.27964">
        <ele>34</ele>
        <time>2014-02-23T15:36:36Z</time>
      </trkpt>
      <trkpt lat="48.87845" lon="2.27961">
        <ele>32</ele>
        <time>2014-02-23T15:36:38Z</time>
      </trkpt>
      <trkpt lat="48.8784" lon="2.27958">
        <ele>39</ele>
        <time>2014-02-23T15:36:41Z</time>
      </trkpt>
      <trkpt lat="48.87833" lon="2.27959">
        <ele>36</ele>
        <time>2014-02-23T15:36:44Z</time>
      </trkpt>
      <trkpt lat="48.87824" lon="2.27957">
        <ele>36</ele>
        <time>2014-02-23T15:36:47Z</time>
      </trkpt>
      <trkpt lat="48.87819" lon="2.27953">
        <ele>35</ele>
        <time>2014-02-23T15:36:49Z</time>
      </trkpt>
      <trkpt lat="48.87809" lon="2.27947">
        <ele>37</ele>
        <time>2014-02-23T15:36:52Z</time>
      </trkpt>
      <trkpt lat="48.87801" lon="2.27939">
        <ele>35</ele>
        <time>2014-02-23T15:36:55Z</time>
      </trkpt>
      <trkpt lat="48.87796" lon="2.27934">
        <ele>33</ele>
        <time>2014-02-23T15:36:57Z</time>
      </trkpt>
      <trkpt lat="48.87783" lon="2.27923">
        <ele>35</ele>
        <time>2014-02-23T15:37:04Z</time>
      </trkpt>
      <trkpt lat="48.87777" lon="2.27922">
        <ele>35</ele>
        <time>2014-02-23T15:37:08Z</time>
      </trkpt>
      <trkpt lat="48.87771" lon="2.27922">
        <ele>33</ele>
        <time>2014-02-23T15:37:10Z</time>
      </trkpt>
      <trkpt lat="48.87754" lon="2.2792">
        <ele>35</ele>
        <time>2014-02-23T15:37:16Z</time>
      </trkpt>
      <trkpt lat="48.87752" lon="2.27919">
        <ele>35</ele>
        <time>2014-02-23T15:37:17Z</time>
      </trkpt>
      <trkpt lat="48.87747" lon="2.27914">
        <ele>32</ele>
        <time>2014-02-23T15:37:21Z</time>
      </trkpt>
      <trkpt lat="48.87744" lon="2.27906">
        <ele>32</ele>
        <time>2014-02-23T15:37:27Z</time>
      </trkpt>
      <trkpt lat="48.87744" lon="2.27899">
        <ele>27</ele>
        <time>2014-02-23T15:37:31Z</time>
      </trkpt>
      <trkpt lat="48.87742" lon="2.27891">
        <ele>24</ele>
        <time>2014-02-23T15:37:37Z</time>
      </trkpt>
      <trkpt lat="48.87736" lon="2.27891">
        <ele>31</ele>
        <time>2014-02-23T15:37:41Z</time>
      </trkpt>
      <trkpt lat="48.8773" lon="2.2789">
        <ele>29</ele>
        <time>2014-02-23T15:37:44Z</time>
      </trkpt>
      <trkpt lat="48.8773" lon="2.27889">
        <ele>31</ele>
        <time>2014-02-23T15:37:51Z</time>
      </trkpt>
      <trkpt lat="48.87725" lon="2.27896">
        <ele>36</ele>
        <time>2014-02-23T15:37:55Z</time>
      </trkpt>
      <trkpt lat="48.87724" lon="2.27904">
        <ele>15</ele>
        <time>2014-02-23T15:38:14Z</time>
      </trkpt>
      <trkpt lat="48.87721" lon="2.27906">
        <ele>23</ele>
        <time>2014-02-23T15:38:18Z</time>
      </trkpt>
      <trkpt lat="48.87719" lon="2.27906">
        <ele>24</ele>
        <time>2014-02-23T15:38:24Z</time>
      </trkpt>
      <trkpt lat="48.87718" lon="2.27917">
        <ele>25</ele>
        <time>2014-02-23T15:38:28Z</time>
      </trkpt>
      <trkpt lat="48.87713" lon="2.27946">
        <ele>33</ele>
        <time>2014-02-23T15:38:35Z</time>
      </trkpt>
      <trkpt lat="48.8771" lon="2.27956">
        <ele>32</ele>
        <time>2014-02-23T15:38:37Z</time>
      </trkpt>
      <trkpt lat="48.87708" lon="2.27967">
        <ele>31</ele>
        <time>2014-02-23T15:38:39Z</time>
      </trkpt>
      <trkpt lat="48.87704" lon="2.27983">
        <ele>35</ele>
        <time>2014-02-23T15:38:42Z</time>
      </trkpt>
      <trkpt lat="48.87704" lon="2.27989">
        <ele>36</ele>
        <time>2014-02-23T15:38:43Z</time>
      </trkpt>
      <trkpt lat="48.87704" lon="2.27996">
        <ele>35</ele>
        <time>2014-02-23T15:38:44Z</time>
      </trkpt>
      <trkpt lat="48.87706" lon="2.28016">
        <ele>37</ele>
        <time>2014-02-23T15:38:47Z</time>
      </trkpt>
      <trkpt lat="48.87708" lon="2.28021">
        <ele>38</ele>
        <time>2014-02-23T15:38:48Z</time>
      </trkpt>
      <trkpt lat="48.8771" lon="2.28027">
        <ele>37</ele>
        <time>2014-02-23T15:38:49Z</time>
      </trkpt>
      <trkpt lat="48.87714" lon="2.28048">
        <ele>38</ele>
        <time>2014-02-23T15:38:53Z</time>
      </trkpt>
      <trkpt lat="48.87717" lon="2.28058">
        <ele>39</ele>
        <time>2014-02-23T15:38:55Z</time>
      </trkpt>
      <trkpt lat="48.87727" lon="2.28086">
        <ele>38</ele>
        <time>2014-02-23T15:39:02Z</time>
      </trkpt>
      <trkpt lat="48.87731" lon="2.28108">
        <ele>38</ele>
        <time>2014-02-23T15:39:07Z</time>
      </trkpt>
      <trkpt lat="48.8773" lon="2.28118">
        <ele>34</ele>
        <time>2014-02-23T15:39:09Z</time>
      </trkpt>
      <trkpt lat="48.87728" lon="2.28126">
        <ele>35</ele>
        <time>2014-02-23T15:39:11Z</time>
      </trkpt>
      <trkpt lat="48.87724" lon="2.28131">
        <ele>33</ele>
        <time>2014-02-23T15:39:13Z</time>
      </trkpt>
      <trkpt lat="48.87708" lon="2.28155">
        <ele>34</ele>
        <time>2014-02-23T15:39:19Z</time>
      </trkpt>
      <trkpt lat="48.87703" lon="2.28165">
        <ele>34</ele>
        <time>2014-02-23T15:39:21Z</time>
      </trkpt>
      <trkpt lat="48.87698" lon="2.2818">
        <ele>34</ele>
        <time>2014-02-23T15:39:24Z</time>
      </trkpt>
      <trkpt lat="48.87696" lon="2.28184">
        <ele>32</ele>
        <time>2014-02-23T15:39:25Z</time>
      </trkpt>
      <trkpt lat="48.87694" lon="2.28189">
        <ele>34</ele>
        <time>2014-02-23T15:39:26Z</time>
      </trkpt>
      <trkpt lat="48.87692" lon="2.28197">
        <ele>37</ele>
        <time>2014-02-23T15:39:28Z</time>
      </trkpt>
      <trkpt lat="48.87691" lon="2.28206">
        <ele>35</ele>
        <time>2014-02-23T15:39:32Z</time>
      </trkpt>
      <trkpt lat="48.8769" lon="2.28217">
        <ele>34</ele>
        <time>2014-02-23T15:39:35Z</time>
      </trkpt>
      <trkpt lat="48.87689" lon="2.28221">
        <ele>36</ele>
        <time>2014-02-23T15:39:36Z</time>
      </trkpt>
      <trkpt lat="48.87688" lon="2.28225">
        <ele>37</ele>
        <time>2014-02-23T15:39:37Z</time>
      </trkpt>
      <trkpt lat="48.87686" lon="2.28241">
        <ele>35</ele>
        <time>2014-02-23T15:39:41Z</time>
      </trkpt>
      <trkpt lat="48.87681" lon="2.28261">
        <ele>30</ele>
        <time>2014-02-23T15:39:47Z</time>
      </trkpt>
      <trkpt lat="48.87675" lon="2.28261">
        <ele>36</ele>
        <time>2014-02-23T15:39:50Z</time>
      </trkpt>
      <trkpt lat="48.8767" lon="2.28259">
        <ele>38</ele>
        <time>2014-02-23T15:39:53Z</time>
      </trkpt>
      <trkpt lat="48.8767" lon="2.28256">
        <ele>38</ele>
        <time>2014-02-23T15:39:57Z</time>
      </trkpt>
      <trkpt lat="48.87667" lon="2.28254">
        <ele>32</ele>
        <time>2014-02-23T15:39:58Z</time>
      </trkpt>
      <trkpt lat="48.87659" lon="2.28246">
        <ele>34</ele>
        <time>2014-02-23T15:40:02Z</time>
      </trkpt>
      <trkpt lat="48.87657" lon="2.28243">
        <ele>36</ele>
        <time>2014-02-23T15:40:03Z</time>
      </trkpt>
      <trkpt lat="48.87654" lon="2.28239">
        <ele>37</ele>
        <time>2014-02-23T15:40:04Z</time>
      </trkpt>
      <trkpt lat="48.87647" lon="2.28226">
        <ele>39</ele>
        <time>2014-02-23T15:40:08Z</time>
      </trkpt>
      <trkpt lat="48.87642" lon="2.28218">
        <ele>41</ele>
        <time>2014-02-23T15:40:11Z</time>
      </trkpt>
      <trkpt lat="48.87635" lon="2.28207">
        <ele>47</ele>
        <time>2014-02-23T15:40:14Z</time>
      </trkpt>
      <trkpt lat="48.87633" lon="2.28204">
        <ele>49</ele>
        <time>2014-02-23T15:40:15Z</time>
      </trkpt>
      <trkpt lat="48.87631" lon="2.282">
        <ele>47</ele>
        <time>2014-02-23T15:40:16Z</time>
      </trkpt>
      <trkpt lat="48.87628" lon="2.28195">
        <ele>46</ele>
        <time>2014-02-23T15:40:17Z</time>
      </trkpt>
      <trkpt lat="48.87619" lon="2.28179">
        <ele>45</ele>
        <time>2014-02-23T15:40:21Z</time>
      </trkpt>
      <trkpt lat="48.8761" lon="2.28157">
        <ele>50</ele>
        <time>2014-02-23T15:40:26Z</time>
      </trkpt>
      <trkpt lat="48.87606" lon="2.28142">
        <ele>44</ele>
        <time>2014-02-23T15:40:29Z</time>
      </trkpt>
      <trkpt lat="48.87601" lon="2.28117">
        <ele>46</ele>
        <time>2014-02-23T15:40:34Z</time>
      </trkpt>
      <trkpt lat="48.87593" lon="2.28091">
        <ele>42</ele>
        <time>2014-02-23T15:40:40Z</time>
      </trkpt>
      <trkpt lat="48.87575" lon="2.28034">
        <ele>49</ele>
        <time>2014-02-23T15:40:52Z</time>
      </trkpt>
      <trkpt lat="48.87566" lon="2.28011">
        <ele>42</ele>
        <time>2014-02-23T15:40:58Z</time>
      </trkpt>
      <trkpt lat="48.87561" lon="2.28003">
        <ele>38</ele>
        <time>2014-02-23T15:41:01Z</time>
      </trkpt>
      <trkpt lat="48.87558" lon="2.27997">
        <ele>37</ele>
        <time>2014-02-23T15:41:03Z</time>
      </trkpt>
      <trkpt lat="48.87554" lon="2.27988">
        <ele>39</ele>
        <time>2014-02-23T15:41:06Z</time>
      </trkpt>
      <trkpt lat="48.87551" lon="2.27982">
        <ele>36</ele>
        <time>2014-02-23T15:41:08Z</time>
      </trkpt>
      <trkpt lat="48.87538" lon="2.2796">
        <ele>21</ele>
        <time>2014-02-23T15:41:17Z</time>
      </trkpt>
      <trkpt lat="48.87536" lon="2.27951">
        <ele>30</ele>
        <time>2014-02-23T15:41:20Z</time>
      </trkpt>
      <trkpt lat="48.8753" lon="2.2793">
        <ele>35</ele>
        <time>2014-02-23T15:41:26Z</time>
      </trkpt>
      <trkpt lat="48.87529" lon="2.27927">
        <ele>34</ele>
        <time>2014-02-23T15:41:27Z</time>
      </trkpt>
      <trkpt lat="48.87527" lon="2.27924">
        <ele>37</ele>
        <time>2014-02-23T15:41:28Z</time>
      </trkpt>
      <trkpt lat="48.87523" lon="2.27912">
        <ele>35</ele>
        <time>2014-02-23T15:41:32Z</time>
      </trkpt>
      <trkpt lat="48.87521" lon="2.27902">
        <ele>42</ele>
        <time>2014-02-23T15:41:35Z</time>
      </trkpt>
      <trkpt lat="48.87519" lon="2.27896">
        <ele>42</ele>
        <time>2014-02-23T15:41:38Z</time>
      </trkpt>
      <trkpt lat="48.87519" lon="2.27896">
        <ele>42</ele>
        <time>2014-02-23T15:41:38Z</time>
      </trkpt>
      <trkpt lat="48.87516" lon="2.27895">
        <ele>32</ele>
        <time>2014-02-23T15:42:10Z</time>
      </trkpt>
      <trkpt lat="48.87516" lon="2.27891">
        <ele>35</ele>
        <time>2014-02-23T15:42:26Z</time>
      </trkpt>
      <trkpt lat="48.87516" lon="2.27887">
        <ele>34</ele>
        <time>2014-02-23T15:42:29Z</time>
      </trkpt>
      <trkpt lat="48.87515" lon="2.27878">
        <ele>38</ele>
        <time>2014-02-23T15:42:33Z</time>
      </trkpt>
      <trkpt lat="48.87515" lon="2.2787">
        <ele>40</ele>
        <time>2014-02-23T15:42:37Z</time>
      </trkpt>
      <trkpt lat="48.87514" lon="2.27865">
        <ele>37</ele>
        <time>2014-02-23T15:42:39Z</time>
      </trkpt>
      <trkpt lat="48.87513" lon="2.27856">
        <ele>42</ele>
        <time>2014-02-23T15:42:42Z</time>
      </trkpt>
      <trkpt lat="48.8751" lon="2.27829">
        <ele>40</ele>
        <time>2014-02-23T15:42:49Z</time>
      </trkpt>
      <trkpt lat="48.87507" lon="2.27825">
        <ele>38</ele>
        <time>2014-02-23T15:42:51Z</time>
      </trkpt>
      <trkpt lat="48.87495" lon="2.27809">
        <ele>32</ele>
        <time>2014-02-23T15:42:58Z</time>
      </trkpt>
      <trkpt lat="48.87492" lon="2.27807">
        <ele>33</ele>
        <time>2014-02-23T15:42:59Z</time>
      </trkpt>
      <trkpt lat="48.87489" lon="2.27804">
        <ele>33</ele>
        <time>2014-02-23T15:43:00Z</time>
      </trkpt>
      <trkpt lat="48.87486" lon="2.27802">
        <ele>32</ele>
        <time>2014-02-23T15:43:01Z</time>
      </trkpt>
      <trkpt lat="48.87477" lon="2.27796">
        <ele>35</ele>
        <time>2014-02-23T15:43:04Z</time>
      </trkpt>
      <trkpt lat="48.87475" lon="2.27795">
        <ele>36</ele>
        <time>2014-02-23T15:43:05Z</time>
      </trkpt>
      <trkpt lat="48.87469" lon="2.27791">
        <ele>40</ele>
        <time>2014-02-23T15:43:07Z</time>
      </trkpt>
      <trkpt lat="48.87453" lon="2.27776">
        <ele>39</ele>
        <time>2014-02-23T15:43:13Z</time>
      </trkpt>
      <trkpt lat="48.87448" lon="2.27771">
        <ele>39</ele>
        <time>2014-02-23T15:43:15Z</time>
      </trkpt>
      <trkpt lat="48.87441" lon="2.27764">
        <ele>38</ele>
        <time>2014-02-23T15:43:17Z</time>
      </trkpt>
      <trkpt lat="48.87421" lon="2.27749">
        <ele>40</ele>
        <time>2014-02-23T15:43:22Z</time>
      </trkpt>
      <trkpt lat="48.8741" lon="2.27737">
        <ele>44</ele>
        <time>2014-02-23T15:43:25Z</time>
      </trkpt>
      <trkpt lat="48.87401" lon="2.2773">
        <ele>44</ele>
        <time>2014-02-23T15:43:28Z</time>
      </trkpt>
      <trkpt lat="48.87393" lon="2.27721">
        <ele>49</ele>
        <time>2014-02-23T15:43:31Z</time>
      </trkpt>
      <trkpt lat="48.87381" lon="2.27704">
        <ele>50</ele>
        <time>2014-02-23T15:43:36Z</time>
      </trkpt>
      <trkpt lat="48.87366" lon="2.27684">
        <ele>50</ele>
        <time>2014-02-23T15:43:42Z</time>
      </trkpt>
      <trkpt lat="48.87359" lon="2.27677">
        <ele>48</ele>
        <time>2014-02-23T15:43:45Z</time>
      </trkpt>
      <trkpt lat="48.87354" lon="2.27672">
        <ele>42</ele>
        <time>2014-02-23T15:43:47Z</time>
      </trkpt>
      <trkpt lat="48.87348" lon="2.27664">
        <ele>40</ele>
        <time>2014-02-23T15:43:50Z</time>
      </trkpt>
      <trkpt lat="48.87343" lon="2.27656">
        <ele>41</ele>
        <time>2014-02-23T15:43:52Z</time>
      </trkpt>
      <trkpt lat="48.87339" lon="2.27649">
        <ele>39</ele>
        <time>2014-02-23T15:43:54Z</time>
      </trkpt>
      <trkpt lat="48.87332" lon="2.27642">
        <ele>39</ele>
        <time>2014-02-23T15:43:56Z</time>
      </trkpt>
      <trkpt lat="48.87316" lon="2.27622">
        <ele>43</ele>
        <time>2014-02-23T15:44:02Z</time>
      </trkpt>
      <trkpt lat="48.87304" lon="2.2761">
        <ele>40</ele>
        <time>2014-02-23T15:44:05Z</time>
      </trkpt>
      <trkpt lat="48.87235" lon="2.27549">
        <ele>34</ele>
        <time>2014-02-23T15:44:37Z</time>
      </trkpt>
      <trkpt lat="48.8723" lon="2.27552">
        <ele>42</ele>
        <time>2014-02-23T15:45:00Z</time>
      </trkpt>
      <trkpt lat="48.87227" lon="2.27553">
        <ele>41</ele>
        <time>2014-02-23T15:45:18Z</time>
      </trkpt>
      <trkpt lat="48.87223" lon="2.27561">
        <ele>36</ele>
        <time>2014-02-23T15:45:32Z</time>
      </trkpt>
      <trkpt lat="48.87222" lon="2.27569">
        <ele>32</ele>
        <time>2014-02-23T15:45:35Z</time>
      </trkpt>
      <trkpt lat="48.8722" lon="2.27575">
        <ele>33</ele>
        <time>2014-02-23T15:45:38Z</time>
      </trkpt>
      <trkpt lat="48.8722" lon="2.27581">
        <ele>31</ele>
        <time>2014-02-23T15:45:40Z</time>
      </trkpt>
      <trkpt lat="48.8722" lon="2.27584">
        <ele>26</ele>
        <time>2014-02-23T15:45:42Z</time>
      </trkpt>
      <trkpt lat="48.87221" lon="2.2759">
        <ele>33</ele>
        <time>2014-02-23T15:45:46Z</time>
      </trkpt>
      <trkpt lat="48.8722" lon="2.27594">
        <ele>31</ele>
        <time>2014-02-23T15:45:48Z</time>
      </trkpt>
      <trkpt lat="48.87219" lon="2.27603">
        <ele>36</ele>
        <time>2014-02-23T15:45:51Z</time>
      </trkpt>
      <trkpt lat="48.87218" lon="2.27605">
        <ele>34</ele>
        <time>2014-02-23T15:45:52Z</time>
      </trkpt>
      <trkpt lat="48.87218" lon="2.27611">
        <ele>36</ele>
        <time>2014-02-23T15:45:54Z</time>
      </trkpt>
      <trkpt lat="48.87218" lon="2.27617">
        <ele>36</ele>
        <time>2014-02-23T15:45:56Z</time>
      </trkpt>
      <trkpt lat="48.87217" lon="2.27621">
        <ele>36</ele>
        <time>2014-02-23T15:45:59Z</time>
      </trkpt>
      <trkpt lat="48.87213" lon="2.27624">
        <ele>36</ele>
        <time>2014-02-23T15:46:03Z</time>
      </trkpt>
      <trkpt lat="48.87208" lon="2.27626">
        <ele>35</ele>
        <time>2014-02-23T15:46:08Z</time>
      </trkpt>
      <trkpt lat="48.87208" lon="2.27627">
        <ele>34</ele>
        <time>2014-02-23T15:46:18Z</time>
      </trkpt>
      <trkpt lat="48.87206" lon="2.27632">
        <ele>33</ele>
        <time>2014-02-23T15:46:25Z</time>
      </trkpt>
      <trkpt lat="48.87204" lon="2.2764">
        <ele>33</ele>
        <time>2014-02-23T15:46:49Z</time>
      </trkpt>
      <trkpt lat="48.87204" lon="2.2764">
        <ele>33</ele>
        <time>2014-02-23T15:46:50Z</time>
      </trkpt>
      <trkpt lat="48.87204" lon="2.27645">
        <ele>32</ele>
        <time>2014-02-23T15:46:54Z</time>
      </trkpt>
      <trkpt lat="48.87202" lon="2.27653">
        <ele>32</ele>
        <time>2014-02-23T15:46:57Z</time>
      </trkpt>
      <trkpt lat="48.87199" lon="2.27658">
        <ele>39</ele>
        <time>2014-02-23T15:47:00Z</time>
      </trkpt>
      <trkpt lat="48.87197" lon="2.27659">
        <ele>39</ele>
        <time>2014-02-23T15:47:05Z</time>
      </trkpt>
      <trkpt lat="48.87194" lon="2.27662">
        <ele>38</ele>
        <time>2014-02-23T15:47:07Z</time>
      </trkpt>
      <trkpt lat="48.8719" lon="2.27667">
        <ele>43</ele>
        <time>2014-02-23T15:47:11Z</time>
      </trkpt>
      <trkpt lat="48.87186" lon="2.27665">
        <ele>40</ele>
        <time>2014-02-23T15:47:19Z</time>
      </trkpt>
      <trkpt lat="48.87181" lon="2.27669">
        <ele>41</ele>
        <time>2014-02-23T15:47:24Z</time>
      </trkpt>
      <trkpt lat="48.87174" lon="2.2767">
        <ele>38</ele>
        <time>2014-02-23T15:47:28Z</time>
      </trkpt>
      <trkpt lat="48.87174" lon="2.27666">
        <ele>38</ele>
        <time>2014-02-23T15:47:42Z</time>
      </trkpt>
      <trkpt lat="48.87171" lon="2.27664">
        <ele>44</ele>
        <time>2014-02-23T15:47:51Z</time>
      </trkpt>
      <trkpt lat="48.87168" lon="2.27662">
        <ele>39</ele>
        <time>2014-02-23T15:48:04Z</time>
      </trkpt>
      <trkpt lat="48.87166" lon="2.27663">
        <ele>38</ele>
        <time>2014-02-23T15:48:14Z</time>
      </trkpt>
      <trkpt lat="48.87163" lon="2.27656">
        <ele>42</ele>
        <time>2014-02-23T15:48:21Z</time>
      </trkpt>
      <trkpt lat="48.87161" lon="2.27654">
        <ele>42</ele>
        <time>2014-02-23T15:48:24Z</time>
      </trkpt>
      <trkpt lat="48.87162" lon="2.2765">
        <ele>36</ele>
        <time>2014-02-23T15:48:30Z</time>
      </trkpt>
      <trkpt lat="48.8716" lon="2.27645">
        <ele>44</ele>
        <time>2014-02-23T15:48:37Z</time>
      </trkpt>
      <trkpt lat="48.87158" lon="2.27642">
        <ele>46</ele>
        <time>2014-02-23T15:48:40Z</time>
      </trkpt>
      <trkpt lat="48.87155" lon="2.2764">
        <ele>48</ele>
        <time>2014-02-23T15:48:42Z</time>
      </trkpt>
      <trkpt lat="48.87152" lon="2.27639">
        <ele>46</ele>
        <time>2014-02-23T15:48:43Z</time>
      </trkpt>
      <trkpt lat="48.8715" lon="2.27637">
        <ele>45</ele>
        <time>2014-02-23T15:48:44Z</time>
      </trkpt>
      <trkpt lat="48.87148" lon="2.27636">
        <ele>45</ele>
        <time>2014-02-23T15:48:45Z</time>
      </trkpt>
      <trkpt lat="48.87141" lon="2.27632">
        <ele>48</ele>
        <time>2014-02-23T15:48:53Z</time>
      </trkpt>
      <trkpt lat="48.87138" lon="2.27626">
        <ele>42</ele>
        <time>2014-02-23T15:48:59Z</time>
      </trkpt>
      <trkpt lat="48.87133" lon="2.27621">
        <ele>40</ele>
        <time>2014-02-23T15:49:03Z</time>
      </trkpt>
      <trkpt lat="48.87128" lon="2.27617">
        <ele>40</ele>
        <time>2014-02-23T15:49:10Z</time>
      </trkpt>
      <trkpt lat="48.87123" lon="2.2761">
        <ele>41</ele>
        <time>2014-02-23T15:49:17Z</time>
      </trkpt>
      <trkpt lat="48.8712" lon="2.27602">
        <ele>43</ele>
        <time>2014-02-23T15:49:21Z</time>
      </trkpt>
      <trkpt lat="48.87118" lon="2.276">
        <ele>43</ele>
        <time>2014-02-23T15:49:23Z</time>
      </trkpt>
      <trkpt lat="48.87117" lon="2.27597">
        <ele>45</ele>
        <time>2014-02-23T15:49:25Z</time>
      </trkpt>
      <trkpt lat="48.87115" lon="2.27587">
        <ele>44</ele>
        <time>2014-02-23T15:49:29Z</time>
      </trkpt>
      <trkpt lat="48.87115" lon="2.27578">
        <ele>43</ele>
        <time>2014-02-23T15:49:31Z</time>
      </trkpt>
      <trkpt lat="48.87112" lon="2.27569">
        <ele>45</ele>
        <time>2014-02-23T15:49:34Z</time>
      </trkpt>
      <trkpt lat="48.87109" lon="2.27563">
        <ele>45</ele>
        <time>2014-02-23T15:49:36Z</time>
      </trkpt>
      <trkpt lat="48.87107" lon="2.27561">
        <ele>45</ele>
        <time>2014-02-23T15:49:37Z</time>
      </trkpt>
      <trkpt lat="48.87094" lon="2.27539">
        <ele>44</ele>
        <time>2014-02-23T15:49:46Z</time>
      </trkpt>
      <trkpt lat="48.87092" lon="2.27533">
        <ele>39</ele>
        <time>2014-02-23T15:49:48Z</time>
      </trkpt>
      <trkpt lat="48.87086" lon="2.27523">
        <ele>42</ele>
        <time>2014-02-23T15:49:52Z</time>
      </trkpt>
      <trkpt lat="48.87083" lon="2.27515">
        <ele>46</ele>
        <time>2014-02-23T15:49:56Z</time>
      </trkpt>
      <trkpt lat="48.87082" lon="2.27505">
        <ele>48</ele>
        <time>2014-02-23T15:50:00Z</time>
      </trkpt>
      <trkpt lat="48.87083" lon="2.27492">
        <ele>49</ele>
        <time>2014-02-23T15:50:05Z</time>
      </trkpt>
      <trkpt lat="48.87086" lon="2.27489">
        <ele>45</ele>
        <time>2014-02-23T15:50:10Z</time>
      </trkpt>
      <trkpt lat="48.87087" lon="2.27477">
        <ele>40</ele>
        <time>2014-02-23T15:50:19Z</time>
      </trkpt>
      <trkpt lat="48.87085" lon="2.27465">
        <ele>41</ele>
        <time>2014-02-23T15:50:22Z</time>
      </trkpt>
      <trkpt lat="48.87081" lon="2.27459">
        <ele>34</ele>
        <time>2014-02-23T15:50:26Z</time>
      </trkpt>
      <trkpt lat="48.87075" lon="2.27457">
        <ele>35</ele>
        <time>2014-02-23T15:50:29Z</time>
      </trkpt>
      <trkpt lat="48.87056" lon="2.27451">
        <ele>33</ele>
        <time>2014-02-23T15:50:35Z</time>
      </trkpt>
      <trkpt lat="48.87051" lon="2.27448">
        <ele>33</ele>
        <time>2014-02-23T15:50:36Z</time>
      </trkpt>
      <trkpt lat="48.87031" lon="2.27435">
        <ele>42</ele>
        <time>2014-02-23T15:50:41Z</time>
      </trkpt>
      <trkpt lat="48.87023" lon="2.27432">
        <ele>43</ele>
        <time>2014-02-23T15:50:43Z</time>
      </trkpt>
      <trkpt lat="48.87004" lon="2.27422">
        <ele>42</ele>
        <time>2014-02-23T15:50:48Z</time>
      </trkpt>
      <trkpt lat="48.86993" lon="2.27409">
        <ele>37</ele>
        <time>2014-02-23T15:50:52Z</time>
      </trkpt>
      <trkpt lat="48.86977" lon="2.27397">
        <ele>44</ele>
        <time>2014-02-23T15:50:57Z</time>
      </trkpt>
      <trkpt lat="48.8696" lon="2.2738">
        <ele>49</ele>
        <time>2014-02-23T15:51:04Z</time>
      </trkpt>
      <trkpt lat="48.86947" lon="2.2737">
        <ele>49</ele>
        <time>2014-02-23T15:51:08Z</time>
      </trkpt>
      <trkpt lat="48.86928" lon="2.27353">
        <ele>41</ele>
        <time>2014-02-23T15:51:14Z</time>
      </trkpt>
      <trkpt lat="48.86923" lon="2.27346">
        <ele>39</ele>
        <time>2014-02-23T15:51:17Z</time>
      </trkpt>
      <trkpt lat="48.86916" lon="2.2734">
        <ele>42</ele>
        <time>2014-02-23T15:51:22Z</time>
      </trkpt>
      <trkpt lat="48.8691" lon="2.2734">
        <ele>43</ele>
        <time>2014-02-23T15:51:25Z</time>
      </trkpt>
      <trkpt lat="48.86904" lon="2.27339">
        <ele>47</ele>
        <time>2014-02-23T15:51:29Z</time>
      </trkpt>
      <trkpt lat="48.86898" lon="2.27335">
        <ele>50</ele>
        <time>2014-02-23T15:51:33Z</time>
      </trkpt>
      <trkpt lat="48.86882" lon="2.27323">
        <ele>45</ele>
        <time>2014-02-23T15:51:42Z</time>
      </trkpt>
      <trkpt lat="48.86879" lon="2.27323">
        <ele>41</ele>
        <time>2014-02-23T15:51:46Z</time>
      </trkpt>
      <trkpt lat="48.86874" lon="2.27319">
        <ele>46</ele>
        <time>2014-02-23T15:51:51Z</time>
      </trkpt>
      <trkpt lat="48.8687" lon="2.27314">
        <ele>50</ele>
        <time>2014-02-23T15:51:57Z</time>
      </trkpt>
      <trkpt lat="48.86865" lon="2.27308">
        <ele>51</ele>
        <time>2014-02-23T15:52:00Z</time>
      </trkpt>
      <trkpt lat="48.8686" lon="2.27305">
        <ele>49</ele>
        <time>2014-02-23T15:52:02Z</time>
      </trkpt>
      <trkpt lat="48.86856" lon="2.27298">
        <ele>47</ele>
        <time>2014-02-23T15:52:04Z</time>
      </trkpt>
      <trkpt lat="48.86852" lon="2.27293">
        <ele>45</ele>
        <time>2014-02-23T15:52:06Z</time>
      </trkpt>
      <trkpt lat="48.86847" lon="2.2729">
        <ele>49</ele>
        <time>2014-02-23T15:52:18Z</time>
      </trkpt>
      <trkpt lat="48.86827" lon="2.27279">
        <ele>48</ele>
        <time>2014-02-23T15:52:24Z</time>
      </trkpt>
      <trkpt lat="48.86821" lon="2.27273">
        <ele>50</ele>
        <time>2014-02-23T15:52:26Z</time>
      </trkpt>
      <trkpt lat="48.86817" lon="2.27268">
        <ele>47</ele>
        <time>2014-02-23T15:52:29Z</time>
      </trkpt>
      <trkpt lat="48.86812" lon="2.27261">
        <ele>42</ele>
        <time>2014-02-23T15:52:32Z</time>
      </trkpt>
      <trkpt lat="48.86806" lon="2.27255">
        <ele>42</ele>
        <time>2014-02-23T15:52:34Z</time>
      </trkpt>
      <trkpt lat="48.86791" lon="2.27241">
        <ele>43</ele>
        <time>2014-02-23T15:52:39Z</time>
      </trkpt>
      <trkpt lat="48.86782" lon="2.27235">
        <ele>50</ele>
        <time>2014-02-23T15:52:43Z</time>
      </trkpt>
      <trkpt lat="48.86776" lon="2.27228">
        <ele>42</ele>
        <time>2014-02-23T15:52:46Z</time>
      </trkpt>
      <trkpt lat="48.86768" lon="2.27221">
        <ele>43</ele>
        <time>2014-02-23T15:52:49Z</time>
      </trkpt>
      <trkpt lat="48.86765" lon="2.27219">
        <ele>44</ele>
        <time>2014-02-23T15:52:50Z</time>
      </trkpt>
      <trkpt lat="48.86751" lon="2.27211">
        <ele>55</ele>
        <time>2014-02-23T15:52:55Z</time>
      </trkpt>
      <trkpt lat="48.86747" lon="2.27206">
        <ele>61</ele>
        <time>2014-02-23T15:52:59Z</time>
      </trkpt>
      <trkpt lat="48.86743" lon="2.27203">
        <ele>55</ele>
        <time>2014-02-23T15:53:02Z</time>
      </trkpt>
      <trkpt lat="48.86736" lon="2.27196">
        <ele>59</ele>
        <time>2014-02-23T15:53:06Z</time>
      </trkpt>
      <trkpt lat="48.86732" lon="2.27189">
        <ele>62</ele>
        <time>2014-02-23T15:53:09Z</time>
      </trkpt>
      <trkpt lat="48.86725" lon="2.27179">
        <ele>60</ele>
        <time>2014-02-23T15:53:12Z</time>
      </trkpt>
      <trkpt lat="48.86719" lon="2.27168">
        <ele>56</ele>
        <time>2014-02-23T15:53:16Z</time>
      </trkpt>
      <trkpt lat="48.86712" lon="2.27163">
        <ele>49</ele>
        <time>2014-02-23T15:53:19Z</time>
      </trkpt>
      <trkpt lat="48.86706" lon="2.27165">
        <ele>52</ele>
        <time>2014-02-23T15:53:22Z</time>
      </trkpt>
      <trkpt lat="48.867" lon="2.27162">
        <ele>50</ele>
        <time>2014-02-23T15:53:24Z</time>
      </trkpt>
      <trkpt lat="48.86689" lon="2.27155">
        <ele>54</ele>
        <time>2014-02-23T15:53:30Z</time>
      </trkpt>
      <trkpt lat="48.86686" lon="2.27153">
        <ele>50</ele>
        <time>2014-02-23T15:53:32Z</time>
      </trkpt>
      <trkpt lat="48.8668" lon="2.27149">
        <ele>52</ele>
        <time>2014-02-23T15:53:35Z</time>
      </trkpt>
      <trkpt lat="48.86674" lon="2.27143">
        <ele>48</ele>
        <time>2014-02-23T15:53:39Z</time>
      </trkpt>
      <trkpt lat="48.86658" lon="2.27128">
        <ele>46</ele>
        <time>2014-02-23T15:53:52Z</time>
      </trkpt>
      <trkpt lat="48.86652" lon="2.27124">
        <ele>52</ele>
        <time>2014-02-23T15:53:57Z</time>
      </trkpt>
      <trkpt lat="48.86633" lon="2.27112">
        <ele>46</ele>
        <time>2014-02-23T15:54:04Z</time>
      </trkpt>
      <trkpt lat="48.86628" lon="2.27108">
        <ele>41</ele>
        <time>2014-02-23T15:54:06Z</time>
      </trkpt>
      <trkpt lat="48.86622" lon="2.27104">
        <ele>49</ele>
        <time>2014-02-23T15:54:09Z</time>
      </trkpt>
      <trkpt lat="48.86617" lon="2.27096">
        <ele>54</ele>
        <time>2014-02-23T15:54:12Z</time>
      </trkpt>
      <trkpt lat="48.86611" lon="2.27091">
        <ele>57</ele>
        <time>2014-02-23T15:54:14Z</time>
      </trkpt>
      <trkpt lat="48.86602" lon="2.27081">
        <ele>57</ele>
        <time>2014-02-23T15:54:18Z</time>
      </trkpt>
      <trkpt lat="48.86587" lon="2.27064">
        <ele>59</ele>
        <time>2014-02-23T15:54:24Z</time>
      </trkpt>
      <trkpt lat="48.86583" lon="2.27056">
        <ele>53</ele>
        <time>2014-02-23T15:54:26Z</time>
      </trkpt>
      <trkpt lat="48.86575" lon="2.27051">
        <ele>56</ele>
        <time>2014-02-23T15:54:28Z</time>
      </trkpt>
      <trkpt lat="48.86568" lon="2.27045">
        <ele>55</ele>
        <time>2014-02-23T15:54:30Z</time>
      </trkpt>
      <trkpt lat="48.86563" lon="2.27042">
        <ele>48</ele>
        <time>2014-02-23T15:54:32Z</time>
      </trkpt>
      <trkpt lat="48.86558" lon="2.27038">
        <ele>44</ele>
        <time>2014-02-23T15:54:34Z</time>
      </trkpt>
      <trkpt lat="48.86542" lon="2.27029">
        <ele>47</ele>
        <time>2014-02-23T15:54:41Z</time>
      </trkpt>
      <trkpt lat="48.865" lon="2.27006">
        <ele>46</ele>
        <time>2014-02-23T15:54:55Z</time>
      </trkpt>
      <trkpt lat="48.86494" lon="2.27">
        <ele>54</ele>
        <time>2014-02-23T15:54:58Z</time>
      </trkpt>
      <trkpt lat="48.86485" lon="2.26992">
        <ele>53</ele>
        <time>2014-02-23T15:55:01Z</time>
      </trkpt>
      <trkpt lat="48.8645" lon="2.26962">
        <ele>61</ele>
        <time>2014-02-23T15:55:16Z</time>
      </trkpt>
      <trkpt lat="48.86445" lon="2.26957">
        <ele>60</ele>
        <time>2014-02-23T15:55:20Z</time>
      </trkpt>
      <trkpt lat="48.86441" lon="2.2695">
        <ele>64</ele>
        <time>2014-02-23T15:55:25Z</time>
      </trkpt>
      <trkpt lat="48.86435" lon="2.26946">
        <ele>62</ele>
        <time>2014-02-23T15:55:28Z</time>
      </trkpt>
      <trkpt lat="48.8643" lon="2.2694">
        <ele>54</ele>
        <time>2014-02-23T15:55:31Z</time>
      </trkpt>
      <trkpt lat="48.86412" lon="2.26925">
        <ele>59</ele>
        <time>2014-02-23T15:55:41Z</time>
      </trkpt>
      <trkpt lat="48.86396" lon="2.26911">
        <ele>63</ele>
        <time>2014-02-23T15:55:47Z</time>
      </trkpt>
      <trkpt lat="48.86381" lon="2.26894">
        <ele>64</ele>
        <time>2014-02-23T15:55:54Z</time>
      </trkpt>
      <trkpt lat="48.86349" lon="2.26862">
        <ele>51</ele>
        <time>2014-02-23T15:56:13Z</time>
      </trkpt>
      <trkpt lat="48.86345" lon="2.26857">
        <ele>48</ele>
        <time>2014-02-23T15:56:16Z</time>
      </trkpt>
      <trkpt lat="48.8634" lon="2.26849">
        <ele>41</ele>
        <time>2014-02-23T15:56:21Z</time>
      </trkpt>
      <trkpt lat="48.86336" lon="2.2684">
        <ele>41</ele>
        <time>2014-02-23T15:56:34Z</time>
      </trkpt>
      <trkpt lat="48.86335" lon="2.26837">
        <ele>53</ele>
        <time>2014-02-23T15:56:39Z</time>
      </trkpt>
      <trkpt lat="48.86333" lon="2.26829">
        <ele>48</ele>
        <time>2014-02-23T15:56:43Z</time>
      </trkpt>
      <trkpt lat="48.86328" lon="2.26823">
        <ele>51</ele>
        <time>2014-02-23T15:56:45Z</time>
      </trkpt>
      <trkpt lat="48.86323" lon="2.26813">
        <ele>50</ele>
        <time>2014-02-23T15:56:47Z</time>
      </trkpt>
      <trkpt lat="48.86311" lon="2.2679">
        <ele>50</ele>
        <time>2014-02-23T15:56:55Z</time>
      </trkpt>
      <trkpt lat="48.86305" lon="2.26783">
        <ele>48</ele>
        <time>2014-02-23T15:56:57Z</time>
      </trkpt>
      <trkpt lat="48.86303" lon="2.2678">
        <ele>47</ele>
        <time>2014-02-23T15:56:58Z</time>
      </trkpt>
      <trkpt lat="48.86299" lon="2.26778">
        <ele>47</ele>
        <time>2014-02-23T15:56:59Z</time>
      </trkpt>
      <trkpt lat="48.86279" lon="2.26769">
        <ele>44</ele>
        <time>2014-02-23T15:57:08Z</time>
      </trkpt>
      <trkpt lat="48.86276" lon="2.26766">
        <ele>45</ele>
        <time>2014-02-23T15:57:10Z</time>
      </trkpt>
      <trkpt lat="48.86271" lon="2.26768">
        <ele>45</ele>
        <time>2014-02-23T15:57:21Z</time>
      </trkpt>
      <trkpt lat="48.86265" lon="2.2677">
        <ele>46</ele>
        <time>2014-02-23T15:57:25Z</time>
      </trkpt>
      <trkpt lat="48.8626" lon="2.26772">
        <ele>50</ele>
        <time>2014-02-23T15:57:28Z</time>
      </trkpt>
      <trkpt lat="48.86255" lon="2.26769">
        <ele>48</ele>
        <time>2014-02-23T15:57:33Z</time>
      </trkpt>
      <trkpt lat="48.86249" lon="2.26764">
        <ele>47</ele>
        <time>2014-02-23T15:57:36Z</time>
      </trkpt>
      <trkpt lat="48.86243" lon="2.26761">
        <ele>45</ele>
        <time>2014-02-23T15:57:39Z</time>
      </trkpt>
      <trkpt lat="48.86235" lon="2.26762">
        <ele>43</ele>
        <time>2014-02-23T15:57:41Z</time>
      </trkpt>
      <trkpt lat="48.86226" lon="2.26761">
        <ele>39</ele>
        <time>2014-02-23T15:57:45Z</time>
      </trkpt>
      <trkpt lat="48.8622" lon="2.26757">
        <ele>46</ele>
        <time>2014-02-23T15:57:48Z</time>
      </trkpt>
      <trkpt lat="48.86216" lon="2.26753">
        <ele>47</ele>
        <time>2014-02-23T15:57:51Z</time>
      </trkpt>
      <trkpt lat="48.86208" lon="2.26741">
        <ele>45</ele>
        <time>2014-02-23T15:57:55Z</time>
      </trkpt>
      <trkpt lat="48.86202" lon="2.26737">
        <ele>44</ele>
        <time>2014-02-23T15:57:58Z</time>
      </trkpt>
      <trkpt lat="48.86196" lon="2.26735">
        <ele>46</ele>
        <time>2014-02-23T15:58:00Z</time>
      </trkpt>
      <trkpt lat="48.8619" lon="2.26732">
        <ele>43</ele>
        <time>2014-02-23T15:58:02Z</time>
      </trkpt>
      <trkpt lat="48.86183" lon="2.26725">
        <ele>44</ele>
        <time>2014-02-23T15:58:04Z</time>
      </trkpt>
      <trkpt lat="48.86175" lon="2.26719">
        <ele>39</ele>
        <time>2014-02-23T15:58:07Z</time>
      </trkpt>
      <trkpt lat="48.86167" lon="2.26711">
        <ele>43</ele>
        <time>2014-02-23T15:58:10Z</time>
      </trkpt>
      <trkpt lat="48.8616" lon="2.26698">
        <ele>45</ele>
        <time>2014-02-23T15:58:14Z</time>
      </trkpt>
      <trkpt lat="48.86159" lon="2.26679">
        <ele>49</ele>
        <time>2014-02-23T15:58:18Z</time>
      </trkpt>
      <trkpt lat="48.8615" lon="2.26667">
        <ele>56</ele>
        <time>2014-02-23T15:58:21Z</time>
      </trkpt>
      <trkpt lat="48.86142" lon="2.26666">
        <ele>55</ele>
        <time>2014-02-23T15:58:22Z</time>
      </trkpt>
      <trkpt lat="48.86134" lon="2.26666">
        <ele>55</ele>
        <time>2014-02-23T15:58:23Z</time>
      </trkpt>
      <trkpt lat="48.86123" lon="2.26669">
        <ele>44</ele>
        <time>2014-02-23T15:58:25Z</time>
      </trkpt>
      <trkpt lat="48.86116" lon="2.26669">
        <ele>41</ele>
        <time>2014-02-23T15:58:28Z</time>
      </trkpt>
      <trkpt lat="48.86109" lon="2.26664">
        <ele>38</ele>
        <time>2014-02-23T15:58:31Z</time>
      </trkpt>
      <trkpt lat="48.8609" lon="2.26653">
        <ele>46</ele>
        <time>2014-02-23T15:58:36Z</time>
      </trkpt>
      <trkpt lat="48.86083" lon="2.26651">
        <ele>49</ele>
        <time>2014-02-23T15:58:38Z</time>
      </trkpt>
      <trkpt lat="48.86062" lon="2.26647">
        <ele>55</ele>
        <time>2014-02-23T15:58:46Z</time>
      </trkpt>
      <trkpt lat="48.86058" lon="2.26644">
        <ele>51</ele>
        <time>2014-02-23T15:58:48Z</time>
      </trkpt>
      <trkpt lat="48.86052" lon="2.26641">
        <ele>53</ele>
        <time>2014-02-23T15:58:50Z</time>
      </trkpt>
      <trkpt lat="48.86047" lon="2.26638">
        <ele>58</ele>
        <time>2014-02-23T15:58:52Z</time>
      </trkpt>
      <trkpt lat="48.86038" lon="2.26634">
        <ele>56</ele>
        <time>2014-02-23T15:58:55Z</time>
      </trkpt>
      <trkpt lat="48.86019" lon="2.26625">
        <ele>46</ele>
        <time>2014-02-23T15:59:01Z</time>
      </trkpt>
      <trkpt lat="48.8601" lon="2.26623">
        <ele>51</ele>
        <time>2014-02-23T15:59:03Z</time>
      </trkpt>
      <trkpt lat="48.86002" lon="2.26619">
        <ele>53</ele>
        <time>2014-02-23T15:59:05Z</time>
      </trkpt>
      <trkpt lat="48.85998" lon="2.26613">
        <ele>62</ele>
        <time>2014-02-23T15:59:07Z</time>
      </trkpt>
      <trkpt lat="48.85993" lon="2.26599">
        <ele>55</ele>
        <time>2014-02-23T15:59:09Z</time>
      </trkpt>
      <trkpt lat="48.85987" lon="2.26593">
        <ele>55</ele>
        <time>2014-02-23T15:59:10Z</time>
      </trkpt>
      <trkpt lat="48.85981" lon="2.2659">
        <ele>57</ele>
        <time>2014-02-23T15:59:11Z</time>
      </trkpt>
      <trkpt lat="48.85968" lon="2.26586">
        <ele>54</ele>
        <time>2014-02-23T15:59:13Z</time>
      </trkpt>
      <trkpt lat="48.85929" lon="2.26569">
        <ele>54</ele>
        <time>2014-02-23T15:59:27Z</time>
      </trkpt>
      <trkpt lat="48.85924" lon="2.26566">
        <ele>57</ele>
        <time>2014-02-23T15:59:29Z</time>
      </trkpt>
      <trkpt lat="48.85918" lon="2.26562">
        <ele>54</ele>
        <time>2014-02-23T15:59:31Z</time>
      </trkpt>
      <trkpt lat="48.8591" lon="2.26559">
        <ele>59</ele>
        <time>2014-02-23T15:59:33Z</time>
      </trkpt>
      <trkpt lat="48.85903" lon="2.26555">
        <ele>56</ele>
        <time>2014-02-23T15:59:35Z</time>
      </trkpt>
      <trkpt lat="48.85883" lon="2.26543">
        <ele>57</ele>
        <time>2014-02-23T15:59:40Z</time>
      </trkpt>
      <trkpt lat="48.85869" lon="2.26533">
        <ele>55</ele>
        <time>2014-02-23T15:59:44Z</time>
      </trkpt>
      <trkpt lat="48.85854" lon="2.26525">
        <ele>54</ele>
        <time>2014-02-23T15:59:48Z</time>
      </trkpt>
      <trkpt lat="48.85847" lon="2.26519">
        <ele>57</ele>
        <time>2014-02-23T15:59:50Z</time>
      </trkpt>
      <trkpt lat="48.85839" lon="2.26514">
        <ele>63</ele>
        <time>2014-02-23T15:59:52Z</time>
      </trkpt>
      <trkpt lat="48.85828" lon="2.26505">
        <ele>57</ele>
        <time>2014-02-23T15:59:55Z</time>
      </trkpt>
      <trkpt lat="48.8581" lon="2.26491">
        <ele>53</ele>
        <time>2014-02-23T16:00:00Z</time>
      </trkpt>
      <trkpt lat="48.85802" lon="2.26488">
        <ele>52</ele>
        <time>2014-02-23T16:00:02Z</time>
      </trkpt>
      <trkpt lat="48.85783" lon="2.26485">
        <ele>51</ele>
        <time>2014-02-23T16:00:07Z</time>
      </trkpt>
      <trkpt lat="48.85772" lon="2.26479">
        <ele>50</ele>
        <time>2014-02-23T16:00:11Z</time>
      </trkpt>
      <trkpt lat="48.85767" lon="2.26476">
        <ele>50</ele>
        <time>2014-02-23T16:00:13Z</time>
      </trkpt>
      <trkpt lat="48.85762" lon="2.26472">
        <ele>51</ele>
        <time>2014-02-23T16:00:15Z</time>
      </trkpt>
      <trkpt lat="48.85758" lon="2.26467">
        <ele>54</ele>
        <time>2014-02-23T16:00:17Z</time>
      </trkpt>
      <trkpt lat="48.85747" lon="2.26449">
        <ele>54</ele>
        <time>2014-02-23T16:00:25Z</time>
      </trkpt>
      <trkpt lat="48.85753" lon="2.26438">
        <ele>66</ele>
        <time>2014-02-23T16:00:27Z</time>
      </trkpt>
      <trkpt lat="48.85759" lon="2.2643">
        <ele>68</ele>
        <time>2014-02-23T16:00:28Z</time>
      </trkpt>
      <trkpt lat="48.85774" lon="2.26409">
        <ele>60</ele>
        <time>2014-02-23T16:00:32Z</time>
      </trkpt>
      <trkpt lat="48.85779" lon="2.26401">
        <ele>65</ele>
        <time>2014-02-23T16:00:34Z</time>
      </trkpt>
      <trkpt lat="48.85783" lon="2.26393">
        <ele>68</ele>
        <time>2014-02-23T16:00:36Z</time>
      </trkpt>
      <trkpt lat="48.85787" lon="2.26379">
        <ele>57</ele>
        <time>2014-02-23T16:00:39Z</time>
      </trkpt>
      <trkpt lat="48.85788" lon="2.2637">
        <ele>54</ele>
        <time>2014-02-23T16:00:41Z</time>
      </trkpt>
      <trkpt lat="48.85789" lon="2.26351">
        <ele>49</ele>
        <time>2014-02-23T16:00:46Z</time>
      </trkpt>
      <trkpt lat="48.85791" lon="2.26333">
        <ele>54</ele>
        <time>2014-02-23T16:00:51Z</time>
      </trkpt>
      <trkpt lat="48.85794" lon="2.2632">
        <ele>55</ele>
        <time>2014-02-23T16:00:54Z</time>
      </trkpt>
      <trkpt lat="48.85796" lon="2.26305">
        <ele>46</ele>
        <time>2014-02-23T16:00:59Z</time>
      </trkpt>
      <trkpt lat="48.85789" lon="2.263">
        <ele>30</ele>
        <time>2014-02-23T16:01:15Z</time>
      </trkpt>
      <trkpt lat="48.85778" lon="2.2629">
        <ele>40</ele>
        <time>2014-02-23T16:01:21Z</time>
      </trkpt>
      <trkpt lat="48.85772" lon="2.26285">
        <ele>43</ele>
        <time>2014-02-23T16:01:25Z</time>
      </trkpt>
      <trkpt lat="48.8577" lon="2.26284">
        <ele>40</ele>
        <time>2014-02-23T16:01:26Z</time>
      </trkpt>
      <trkpt lat="48.85764" lon="2.26279">
        <ele>38</ele>
        <time>2014-02-23T16:01:29Z</time>
      </trkpt>
      <trkpt lat="48.85762" lon="2.26278">
        <ele>37</ele>
        <time>2014-02-23T16:01:30Z</time>
      </trkpt>
      <trkpt lat="48.8576" lon="2.26276">
        <ele>39</ele>
        <time>2014-02-23T16:01:31Z</time>
      </trkpt>
      <trkpt lat="48.85756" lon="2.26274">
        <ele>37</ele>
        <time>2014-02-23T16:01:32Z</time>
      </trkpt>
      <trkpt lat="48.85745" lon="2.26266">
        <ele>41</ele>
        <time>2014-02-23T16:01:36Z</time>
      </trkpt>
      <trkpt lat="48.85733" lon="2.26261">
        <ele>44</ele>
        <time>2014-02-23T16:01:39Z</time>
      </trkpt>
      <trkpt lat="48.85726" lon="2.26259">
        <ele>47</ele>
        <time>2014-02-23T16:01:40Z</time>
      </trkpt>
      <trkpt lat="48.8565" lon="2.26241">
        <ele>45</ele>
        <time>2014-02-23T16:02:06Z</time>
      </trkpt>
      <trkpt lat="48.85647" lon="2.2624">
        <ele>43</ele>
        <time>2014-02-23T16:02:08Z</time>
      </trkpt>
      <trkpt lat="48.85638" lon="2.26235">
        <ele>49</ele>
        <time>2014-02-23T16:02:13Z</time>
      </trkpt>
      <trkpt lat="48.85632" lon="2.26231">
        <ele>43</ele>
        <time>2014-02-23T16:02:15Z</time>
      </trkpt>
      <trkpt lat="48.85594" lon="2.26206">
        <ele>48</ele>
        <time>2014-02-23T16:02:25Z</time>
      </trkpt>
      <trkpt lat="48.85579" lon="2.26198">
        <ele>49</ele>
        <time>2014-02-23T16:02:28Z</time>
      </trkpt>
      <trkpt lat="48.85555" lon="2.26186">
        <ele>43</ele>
        <time>2014-02-23T16:02:34Z</time>
      </trkpt>
      <trkpt lat="48.85545" lon="2.26179">
        <ele>44</ele>
        <time>2014-02-23T16:02:38Z</time>
      </trkpt>
      <trkpt lat="48.85461" lon="2.26124">
        <ele>50</ele>
        <time>2014-02-23T16:03:01Z</time>
      </trkpt>
      <trkpt lat="48.85402" lon="2.26087">
        <ele>52</ele>
        <time>2014-02-23T16:03:19Z</time>
      </trkpt>
      <trkpt lat="48.85398" lon="2.26085">
        <ele>51</ele>
        <time>2014-02-23T16:03:21Z</time>
      </trkpt>
      <trkpt lat="48.85388" lon="2.2608">
        <ele>50</ele>
        <time>2014-02-23T16:03:24Z</time>
      </trkpt>
      <trkpt lat="48.85382" lon="2.26076">
        <ele>51</ele>
        <time>2014-02-23T16:03:26Z</time>
      </trkpt>
      <trkpt lat="48.85368" lon="2.26067">
        <ele>43</ele>
        <time>2014-02-23T16:03:30Z</time>
      </trkpt>
      <trkpt lat="48.85362" lon="2.26065">
        <ele>37</ele>
        <time>2014-02-23T16:03:32Z</time>
      </trkpt>
      <trkpt lat="48.85356" lon="2.26061">
        <ele>38</ele>
        <time>2014-02-23T16:03:34Z</time>
      </trkpt>
      <trkpt lat="48.85337" lon="2.2605">
        <ele>34</ele>
        <time>2014-02-23T16:03:40Z</time>
      </trkpt>
      <trkpt lat="48.85331" lon="2.26044">
        <ele>33</ele>
        <time>2014-02-23T16:03:42Z</time>
      </trkpt>
      <trkpt lat="48.85326" lon="2.2604">
        <ele>32</ele>
        <time>2014-02-23T16:03:44Z</time>
      </trkpt>
      <trkpt lat="48.85301" lon="2.26024">
        <ele>41</ele>
        <time>2014-02-23T16:03:54Z</time>
      </trkpt>
      <trkpt lat="48.85294" lon="2.26021">
        <ele>41</ele>
        <time>2014-02-23T16:03:56Z</time>
      </trkpt>
      <trkpt lat="48.85291" lon="2.26018">
        <ele>42</ele>
        <time>2014-02-23T16:03:57Z</time>
      </trkpt>
      <trkpt lat="48.85247" lon="2.25988">
        <ele>46</ele>
        <time>2014-02-23T16:04:12Z</time>
      </trkpt>
      <trkpt lat="48.85241" lon="2.25985">
        <ele>47</ele>
        <time>2014-02-23T16:04:13Z</time>
      </trkpt>
      <trkpt lat="48.85174" lon="2.25945">
        <ele>49</ele>
        <time>2014-02-23T16:04:33Z</time>
      </trkpt>
      <trkpt lat="48.85168" lon="2.25941">
        <ele>49</ele>
        <time>2014-02-23T16:04:36Z</time>
      </trkpt>
      <trkpt lat="48.85113" lon="2.259">
        <ele>35</ele>
        <time>2014-02-23T16:04:55Z</time>
      </trkpt>
      <trkpt lat="48.85101" lon="2.25894">
        <ele>35</ele>
        <time>2014-02-23T16:05:02Z</time>
      </trkpt>
      <trkpt lat="48.85096" lon="2.25893">
        <ele>34</ele>
        <time>2014-02-23T16:05:06Z</time>
      </trkpt>
      <trkpt lat="48.8509" lon="2.25888">
        <ele>37</ele>
        <time>2014-02-23T16:05:11Z</time>
      </trkpt>
      <trkpt lat="48.85076" lon="2.25878">
        <ele>29</ele>
        <time>2014-02-23T16:05:17Z</time>
      </trkpt>
      <trkpt lat="48.8507" lon="2.25875">
        <ele>28</ele>
        <time>2014-02-23T16:05:19Z</time>
      </trkpt>
      <trkpt lat="48.85064" lon="2.25871">
        <ele>25</ele>
        <time>2014-02-23T16:05:22Z</time>
      </trkpt>
      <trkpt lat="48.85058" lon="2.25868">
        <ele>23</ele>
        <time>2014-02-23T16:05:26Z</time>
      </trkpt>
      <trkpt lat="48.85017" lon="2.25848">
        <ele>36</ele>
        <time>2014-02-23T16:05:39Z</time>
      </trkpt>
      <trkpt lat="48.85006" lon="2.25842">
        <ele>36</ele>
        <time>2014-02-23T16:05:42Z</time>
      </trkpt>
      <trkpt lat="48.85" lon="2.25837">
        <ele>34</ele>
        <time>2014-02-23T16:05:44Z</time>
      </trkpt>
      <trkpt lat="48.8498" lon="2.25825">
        <ele>30</ele>
        <time>2014-02-23T16:05:50Z</time>
      </trkpt>
      <trkpt lat="48.84971" lon="2.25822">
        <ele>33</ele>
        <time>2014-02-23T16:05:52Z</time>
      </trkpt>
      <trkpt lat="48.84958" lon="2.25815">
        <ele>39</ele>
        <time>2014-02-23T16:05:55Z</time>
      </trkpt>
      <trkpt lat="48.84938" lon="2.25804">
        <ele>43</ele>
        <time>2014-02-23T16:06:00Z</time>
      </trkpt>
      <trkpt lat="48.84927" lon="2.258">
        <ele>37</ele>
        <time>2014-02-23T16:06:02Z</time>
      </trkpt>
      <trkpt lat="48.84911" lon="2.25798">
        <ele>37</ele>
        <time>2014-02-23T16:06:05Z</time>
      </trkpt>
      <trkpt lat="48.8487" lon="2.25794">
        <ele>37</ele>
        <time>2014-02-23T16:06:14Z</time>
      </trkpt>
      <trkpt lat="48.84863" lon="2.25799">
        <ele>38</ele>
        <time>2014-02-23T16:06:16Z</time>
      </trkpt>
      <trkpt lat="48.84857" lon="2.25806">
        <ele>37</ele>
        <time>2014-02-23T16:06:18Z</time>
      </trkpt>
      <trkpt lat="48.8485" lon="2.25812">
        <ele>35</ele>
        <time>2014-02-23T16:06:20Z</time>
      </trkpt>
      <trkpt lat="48.84836" lon="2.2582">
        <ele>39</ele>
        <time>2014-02-23T16:06:24Z</time>
      </trkpt>
      <trkpt lat="48.84832" lon="2.25825">
        <ele>35</ele>
        <time>2014-02-23T16:06:25Z</time>
      </trkpt>
      <trkpt lat="48.84828" lon="2.25836">
        <ele>34</ele>
        <time>2014-02-23T16:06:27Z</time>
      </trkpt>
      <trkpt lat="48.84825" lon="2.25848">
        <ele>36</ele>
        <time>2014-02-23T16:06:33Z</time>
      </trkpt>
      <trkpt lat="48.84827" lon="2.25837">
        <ele>37</ele>
        <time>2014-02-23T16:06:38Z</time>
      </trkpt>
      <trkpt lat="48.8483" lon="2.25828">
        <ele>30</ele>
        <time>2014-02-23T16:06:42Z</time>
      </trkpt>
      <trkpt lat="48.84825" lon="2.25824">
        <ele>28</ele>
        <time>2014-02-23T16:07:20Z</time>
      </trkpt>
      <trkpt lat="48.84821" lon="2.25829">
        <ele>55</ele>
        <time>2014-02-23T16:07:45Z</time>
      </trkpt>
      <trkpt lat="48.84818" lon="2.25826">
        <ele>40</ele>
        <time>2014-02-23T16:07:48Z</time>
      </trkpt>
      <trkpt lat="48.84815" lon="2.25825">
        <ele>38</ele>
        <time>2014-02-23T16:07:49Z</time>
      </trkpt>
      <trkpt lat="48.84806" lon="2.25821">
        <ele>34</ele>
        <time>2014-02-23T16:07:53Z</time>
      </trkpt>
      <trkpt lat="48.84802" lon="2.25828">
        <ele>30</ele>
        <time>2014-02-23T16:07:57Z</time>
      </trkpt>
      <trkpt lat="48.84802" lon="2.2583">
        <ele>44</ele>
        <time>2014-02-23T16:08:28Z</time>
      </trkpt>
      <trkpt lat="48.84796" lon="2.25832">
        <ele>55</ele>
        <time>2014-02-23T16:08:47Z</time>
      </trkpt>
      <trkpt lat="48.84789" lon="2.25831">
        <ele>53</ele>
        <time>2014-02-23T16:08:50Z</time>
      </trkpt>
      <trkpt lat="48.84781" lon="2.25831">
        <ele>44</ele>
        <time>2014-02-23T16:08:55Z</time>
      </trkpt>
      <trkpt lat="48.84775" lon="2.25833">
        <ele>39</ele>
        <time>2014-02-23T16:09:00Z</time>
      </trkpt>
      <trkpt lat="48.84771" lon="2.25832">
        <ele>36</ele>
        <time>2014-02-23T16:09:03Z</time>
      </trkpt>
      <trkpt lat="48.84769" lon="2.25832">
        <ele>38</ele>
        <time>2014-02-23T16:09:04Z</time>
      </trkpt>
      <trkpt lat="48.84766" lon="2.25832">
        <ele>40</ele>
        <time>2014-02-23T16:09:05Z</time>
      </trkpt>
      <trkpt lat="48.84764" lon="2.25831">
        <ele>39</ele>
        <time>2014-02-23T16:09:06Z</time>
      </trkpt>
      <trkpt lat="48.84759" lon="2.25829">
        <ele>39</ele>
        <time>2014-02-23T16:09:08Z</time>
      </trkpt>
      <trkpt lat="48.84748" lon="2.25826">
        <ele>37</ele>
        <time>2014-02-23T16:09:12Z</time>
      </trkpt>
      <trkpt lat="48.84745" lon="2.25826">
        <ele>36</ele>
        <time>2014-02-23T16:09:13Z</time>
      </trkpt>
      <trkpt lat="48.84742" lon="2.25827">
        <ele>38</ele>
        <time>2014-02-23T16:09:14Z</time>
      </trkpt>
      <trkpt lat="48.84739" lon="2.25826">
        <ele>34</ele>
        <time>2014-02-23T16:09:15Z</time>
      </trkpt>
      <trkpt lat="48.84724" lon="2.25824">
        <ele>39</ele>
        <time>2014-02-23T16:09:20Z</time>
      </trkpt>
      <trkpt lat="48.84717" lon="2.25818">
        <ele>37</ele>
        <time>2014-02-23T16:09:22Z</time>
      </trkpt>
      <trkpt lat="48.84697" lon="2.25807">
        <ele>37</ele>
        <time>2014-02-23T16:09:27Z</time>
      </trkpt>
      <trkpt lat="48.84659" lon="2.25785">
        <ele>37</ele>
        <time>2014-02-23T16:09:37Z</time>
      </trkpt>
      <trkpt lat="48.84641" lon="2.25778">
        <ele>37</ele>
        <time>2014-02-23T16:09:41Z</time>
      </trkpt>
      <trkpt lat="48.84623" lon="2.25771">
        <ele>37</ele>
        <time>2014-02-23T16:09:44Z</time>
      </trkpt>
      <trkpt lat="48.84613" lon="2.25768">
        <ele>38</ele>
        <time>2014-02-23T16:09:46Z</time>
      </trkpt>
      <trkpt lat="48.84594" lon="2.25761">
        <ele>34</ele>
        <time>2014-02-23T16:09:50Z</time>
      </trkpt>
      <trkpt lat="48.84589" lon="2.25758">
        <ele>32</ele>
        <time>2014-02-23T16:09:51Z</time>
      </trkpt>
      <trkpt lat="48.8457" lon="2.25747">
        <ele>32</ele>
        <time>2014-02-23T16:09:56Z</time>
      </trkpt>
      <trkpt lat="48.84564" lon="2.25745">
        <ele>30</ele>
        <time>2014-02-23T16:09:58Z</time>
      </trkpt>
      <trkpt lat="48.84554" lon="2.25735">
        <ele>35</ele>
        <time>2014-02-23T16:10:02Z</time>
      </trkpt>
      <trkpt lat="48.84548" lon="2.25729">
        <ele>33</ele>
        <time>2014-02-23T16:10:04Z</time>
      </trkpt>
      <trkpt lat="48.84546" lon="2.25728">
        <ele>37</ele>
        <time>2014-02-23T16:10:05Z</time>
      </trkpt>
      <trkpt lat="48.84543" lon="2.25729">
        <ele>58</ele>
        <time>2014-02-23T16:10:14Z</time>
      </trkpt>
      <trkpt lat="48.84538" lon="2.25728">
        <ele>71</ele>
        <time>2014-02-23T16:10:22Z</time>
      </trkpt>
      <trkpt lat="48.84533" lon="2.25726">
        <ele>47</ele>
        <time>2014-02-23T16:10:26Z</time>
      </trkpt>
      <trkpt lat="48.84527" lon="2.25722">
        <ele>45</ele>
        <time>2014-02-23T16:10:29Z</time>
      </trkpt>
      <trkpt lat="48.8452" lon="2.25716">
        <ele>42</ele>
        <time>2014-02-23T16:10:33Z</time>
      </trkpt>
      <trkpt lat="48.84515" lon="2.25715">
        <ele>38</ele>
        <time>2014-02-23T16:10:35Z</time>
      </trkpt>
      <trkpt lat="48.84506" lon="2.25713">
        <ele>36</ele>
        <time>2014-02-23T16:10:38Z</time>
      </trkpt>
      <trkpt lat="48.84499" lon="2.25714">
        <ele>36</ele>
        <time>2014-02-23T16:10:40Z</time>
      </trkpt>
      <trkpt lat="48.84491" lon="2.25714">
        <ele>33</ele>
        <time>2014-02-23T16:10:43Z</time>
      </trkpt>
      <trkpt lat="48.84457" lon="2.25702">
        <ele>27</ele>
        <time>2014-02-23T16:10:52Z</time>
      </trkpt>
      <trkpt lat="48.84447" lon="2.25696">
        <ele>31</ele>
        <time>2014-02-23T16:10:55Z</time>
      </trkpt>
      <trkpt lat="48.84442" lon="2.25691">
        <ele>35</ele>
        <time>2014-02-23T16:10:57Z</time>
      </trkpt>
      <trkpt lat="48.84422" lon="2.25674">
        <ele>35</ele>
        <time>2014-02-23T16:11:03Z</time>
      </trkpt>
      <trkpt lat="48.84417" lon="2.2567">
        <ele>36</ele>
        <time>2014-02-23T16:11:04Z</time>
      </trkpt>
      <trkpt lat="48.84399" lon="2.2566">
        <ele>36</ele>
        <time>2014-02-23T16:11:09Z</time>
      </trkpt>
      <trkpt lat="48.8439" lon="2.25665">
        <ele>37</ele>
        <time>2014-02-23T16:11:11Z</time>
      </trkpt>
      <trkpt lat="48.84382" lon="2.25673">
        <ele>36</ele>
        <time>2014-02-23T16:11:13Z</time>
      </trkpt>
      <trkpt lat="48.84377" lon="2.25674">
        <ele>35</ele>
        <time>2014-02-23T16:11:14Z</time>
      </trkpt>
      <trkpt lat="48.84371" lon="2.25677">
        <ele>34</ele>
        <time>2014-02-23T16:11:15Z</time>
      </trkpt>
      <trkpt lat="48.84349" lon="2.25688">
        <ele>35</ele>
        <time>2014-02-23T16:11:19Z</time>
      </trkpt>
      <trkpt lat="48.84345" lon="2.25689">
        <ele>35</ele>
        <time>2014-02-23T16:11:20Z</time>
      </trkpt>
      <trkpt lat="48.84338" lon="2.25689">
        <ele>37</ele>
        <time>2014-02-23T16:11:21Z</time>
      </trkpt>
      <trkpt lat="48.84329" lon="2.25692">
        <ele>37</ele>
        <time>2014-02-23T16:11:23Z</time>
      </trkpt>
      <trkpt lat="48.8432" lon="2.25691">
        <ele>38</ele>
        <time>2014-02-23T16:11:25Z</time>
      </trkpt>
      <trkpt lat="48.843" lon="2.25685">
        <ele>35</ele>
        <time>2014-02-23T16:11:31Z</time>
      </trkpt>
      <trkpt lat="48.84296" lon="2.25676">
        <ele>33</ele>
        <time>2014-02-23T16:11:33Z</time>
      </trkpt>
      <trkpt lat="48.84298" lon="2.25667">
        <ele>38</ele>
        <time>2014-02-23T16:11:34Z</time>
      </trkpt>
      <trkpt lat="48.84301" lon="2.25657">
        <ele>36</ele>
        <time>2014-02-23T16:11:35Z</time>
      </trkpt>
      <trkpt lat="48.84302" lon="2.25648">
        <ele>36</ele>
        <time>2014-02-23T16:11:36Z</time>
      </trkpt>
      <trkpt lat="48.84302" lon="2.2564">
        <ele>34</ele>
        <time>2014-02-23T16:11:37Z</time>
      </trkpt>
      <trkpt lat="48.843" lon="2.25632">
        <ele>35</ele>
        <time>2014-02-23T16:11:38Z</time>
      </trkpt>
      <trkpt lat="48.84298" lon="2.25625">
        <ele>38</ele>
        <time>2014-02-23T16:11:40Z</time>
      </trkpt>
      <trkpt lat="48.84291" lon="2.25624">
        <ele>32</ele>
        <time>2014-02-23T16:11:43Z</time>
      </trkpt>
      <trkpt lat="48.84286" lon="2.2562">
        <ele>30</ele>
        <time>2014-02-23T16:11:45Z</time>
      </trkpt>
      <trkpt lat="48.84271" lon="2.25614">
        <ele>31</ele>
        <time>2014-02-23T16:11:49Z</time>
      </trkpt>
      <trkpt lat="48.84267" lon="2.25613">
        <ele>32</ele>
        <time>2014-02-23T16:11:50Z</time>
      </trkpt>
      <trkpt lat="48.84259" lon="2.25611">
        <ele>31</ele>
        <time>2014-02-23T16:11:52Z</time>
      </trkpt>
      <trkpt lat="48.84254" lon="2.25603">
        <ele>35</ele>
        <time>2014-02-23T16:11:54Z</time>
      </trkpt>
      <trkpt lat="48.84249" lon="2.25597">
        <ele>38</ele>
        <time>2014-02-23T16:11:56Z</time>
      </trkpt>
      <trkpt lat="48.84243" lon="2.25597">
        <ele>37</ele>
        <time>2014-02-23T16:12:09Z</time>
      </trkpt>
      <trkpt lat="48.84171" lon="2.25593">
        <ele>35</ele>
        <time>2014-02-23T16:12:45Z</time>
      </trkpt>
      <trkpt lat="48.84165" lon="2.25592">
        <ele>36</ele>
        <time>2014-02-23T16:12:47Z</time>
      </trkpt>
      <trkpt lat="48.84146" lon="2.2559">
        <ele>39</ele>
        <time>2014-02-23T16:12:52Z</time>
      </trkpt>
      <trkpt lat="48.84139" lon="2.25591">
        <ele>40</ele>
        <time>2014-02-23T16:12:54Z</time>
      </trkpt>
      <trkpt lat="48.84074" lon="2.256">
        <ele>36</ele>
        <time>2014-02-23T16:13:12Z</time>
      </trkpt>
      <trkpt lat="48.84068" lon="2.25603">
        <ele>32</ele>
        <time>2014-02-23T16:13:14Z</time>
      </trkpt>
      <trkpt lat="48.84052" lon="2.25612">
        <ele>33</ele>
        <time>2014-02-23T16:13:19Z</time>
      </trkpt>
      <trkpt lat="48.84044" lon="2.25617">
        <ele>36</ele>
        <time>2014-02-23T16:13:21Z</time>
      </trkpt>
      <trkpt lat="48.84039" lon="2.25621">
        <ele>37</ele>
        <time>2014-02-23T16:13:22Z</time>
      </trkpt>
      <trkpt lat="48.84034" lon="2.25624">
        <ele>37</ele>
        <time>2014-02-23T16:13:23Z</time>
      </trkpt>
      <trkpt lat="48.84026" lon="2.25631">
        <ele>36</ele>
        <time>2014-02-23T16:13:26Z</time>
      </trkpt>
      <trkpt lat="48.84019" lon="2.25633">
        <ele>37</ele>
        <time>2014-02-23T16:13:28Z</time>
      </trkpt>
      <trkpt lat="48.84006" lon="2.25634">
        <ele>34</ele>
        <time>2014-02-23T16:13:33Z</time>
      </trkpt>
      <trkpt lat="48.84" lon="2.2563">
        <ele>35</ele>
        <time>2014-02-23T16:13:36Z</time>
      </trkpt>
      <trkpt lat="48.83995" lon="2.25625">
        <ele>31</ele>
        <time>2014-02-23T16:13:38Z</time>
      </trkpt>
      <trkpt lat="48.83992" lon="2.25616">
        <ele>30</ele>
        <time>2014-02-23T16:13:41Z</time>
      </trkpt>
      <trkpt lat="48.83985" lon="2.25612">
        <ele>39</ele>
        <time>2014-02-23T16:13:44Z</time>
      </trkpt>
      <trkpt lat="48.8398" lon="2.25614">
        <ele>41</ele>
        <time>2014-02-23T16:13:46Z</time>
      </trkpt>
      <trkpt lat="48.8397" lon="2.25617">
        <ele>37</ele>
        <time>2014-02-23T16:13:49Z</time>
      </trkpt>
      <trkpt lat="48.8395" lon="2.25622">
        <ele>35</ele>
        <time>2014-02-23T16:13:58Z</time>
      </trkpt>
      <trkpt lat="48.83943" lon="2.25621">
        <ele>35</ele>
        <time>2014-02-23T16:14:01Z</time>
      </trkpt>
      <trkpt lat="48.83935" lon="2.25621">
        <ele>34</ele>
        <time>2014-02-23T16:14:04Z</time>
      </trkpt>
      <trkpt lat="48.8393" lon="2.25623">
        <ele>36</ele>
        <time>2014-02-23T16:14:06Z</time>
      </trkpt>
      <trkpt lat="48.83925" lon="2.25628">
        <ele>34</ele>
        <time>2014-02-23T16:14:09Z</time>
      </trkpt>
      <trkpt lat="48.8392" lon="2.25634">
        <ele>37</ele>
        <time>2014-02-23T16:14:11Z</time>
      </trkpt>
      <trkpt lat="48.83912" lon="2.25643">
        <ele>32</ele>
        <time>2014-02-23T16:14:14Z</time>
      </trkpt>
      <trkpt lat="48.83902" lon="2.2565">
        <ele>33</ele>
        <time>2014-02-23T16:14:18Z</time>
      </trkpt>
      <trkpt lat="48.83896" lon="2.25653">
        <ele>34</ele>
        <time>2014-02-23T16:14:19Z</time>
      </trkpt>
      <trkpt lat="48.83889" lon="2.25655">
        <ele>31</ele>
        <time>2014-02-23T16:14:21Z</time>
      </trkpt>
      <trkpt lat="48.8387" lon="2.25663">
        <ele>26</ele>
        <time>2014-02-23T16:14:27Z</time>
      </trkpt>
      <trkpt lat="48.83865" lon="2.25669">
        <ele>30</ele>
        <time>2014-02-23T16:14:29Z</time>
      </trkpt>
      <trkpt lat="48.83859" lon="2.25669">
        <ele>31</ele>
        <time>2014-02-23T16:14:32Z</time>
      </trkpt>
      <trkpt lat="48.83856" lon="2.25663">
        <ele>37</ele>
        <time>2014-02-23T16:14:34Z</time>
      </trkpt>
      <trkpt lat="48.83854" lon="2.25653">
        <ele>41</ele>
        <time>2014-02-23T16:14:37Z</time>
      </trkpt>
      <trkpt lat="48.83846" lon="2.25631">
        <ele>42</ele>
        <time>2014-02-23T16:14:47Z</time>
      </trkpt>
      <trkpt lat="48.83843" lon="2.25625">
        <ele>37</ele>
        <time>2014-02-23T16:14:49Z</time>
      </trkpt>
      <trkpt lat="48.83839" lon="2.25624">
        <ele>28</ele>
        <time>2014-02-23T16:14:56Z</time>
      </trkpt>
      <trkpt lat="48.83837" lon="2.25624">
        <ele>32</ele>
        <time>2014-02-23T16:14:59Z</time>
      </trkpt>
      <trkpt lat="48.83833" lon="2.25621">
        <ele>32</ele>
        <time>2014-02-23T16:15:03Z</time>
      </trkpt>
      <trkpt lat="48.83828" lon="2.25619">
        <ele>29</ele>
        <time>2014-02-23T16:15:07Z</time>
      </trkpt>
      <trkpt lat="48.83826" lon="2.2562">
        <ele>27</ele>
        <time>2014-02-23T16:15:08Z</time>
      </trkpt>
      <trkpt lat="48.83823" lon="2.25615">
        <ele>29</ele>
        <time>2014-02-23T16:15:16Z</time>
      </trkpt>
      <trkpt lat="48.83819" lon="2.2561">
        <ele>27</ele>
        <time>2014-02-23T16:15:21Z</time>
      </trkpt>
      <trkpt lat="48.83814" lon="2.25611">
        <ele>27</ele>
        <time>2014-02-23T16:15:25Z</time>
      </trkpt>
      <trkpt lat="48.83808" lon="2.2561">
        <ele>33</ele>
        <time>2014-02-23T16:15:28Z</time>
      </trkpt>
      <trkpt lat="48.83802" lon="2.25612">
        <ele>31</ele>
        <time>2014-02-23T16:15:31Z</time>
      </trkpt>
      <trkpt lat="48.83781" lon="2.25616">
        <ele>29</ele>
        <time>2014-02-23T16:15:40Z</time>
      </trkpt>
      <trkpt lat="48.83776" lon="2.25619">
        <ele>31</ele>
        <time>2014-02-23T16:15:42Z</time>
      </trkpt>
      <trkpt lat="48.83768" lon="2.25622">
        <ele>32</ele>
        <time>2014-02-23T16:15:45Z</time>
      </trkpt>
      <trkpt lat="48.83759" lon="2.25626">
        <ele>32</ele>
        <time>2014-02-23T16:15:48Z</time>
      </trkpt>
      <trkpt lat="48.83757" lon="2.25628">
        <ele>33</ele>
        <time>2014-02-23T16:15:49Z</time>
      </trkpt>
      <trkpt lat="48.83754" lon="2.25631">
        <ele>32</ele>
        <time>2014-02-23T16:15:50Z</time>
      </trkpt>
      <trkpt lat="48.83752" lon="2.25633">
        <ele>30</ele>
        <time>2014-02-23T16:15:51Z</time>
      </trkpt>
      <trkpt lat="48.83745" lon="2.25642">
        <ele>30</ele>
        <time>2014-02-23T16:15:55Z</time>
      </trkpt>
      <trkpt lat="48.83742" lon="2.25646">
        <ele>29</ele>
        <time>2014-02-23T16:15:57Z</time>
      </trkpt>
      <trkpt lat="48.8374" lon="2.25649">
        <ele>28</ele>
        <time>2014-02-23T16:15:58Z</time>
      </trkpt>
      <trkpt lat="48.83737" lon="2.25648">
        <ele>33</ele>
        <time>2014-02-23T16:16:00Z</time>
      </trkpt>
      <trkpt lat="48.83734" lon="2.25646">
        <ele>30</ele>
        <time>2014-02-23T16:16:02Z</time>
      </trkpt>
      <trkpt lat="48.83731" lon="2.25646">
        <ele>28</ele>
        <time>2014-02-23T16:16:04Z</time>
      </trkpt>
      <trkpt lat="48.83728" lon="2.2564">
        <ele>17</ele>
        <time>2014-02-23T16:16:20Z</time>
      </trkpt>
      <trkpt lat="48.83728" lon="2.2564">
        <ele>24</ele>
        <time>2014-02-23T16:16:20Z</time>
      </trkpt>
      <trkpt lat="48.83731" lon="2.25641">
        <ele>37</ele>
        <time>2014-02-23T16:16:53Z</time>
      </trkpt>
      <trkpt lat="48.83728" lon="2.2565">
        <ele>33</ele>
        <time>2014-02-23T16:16:58Z</time>
      </trkpt>
      <trkpt lat="48.83724" lon="2.25655">
        <ele>28</ele>
        <time>2014-02-23T16:17:32Z</time>
      </trkpt>
      <trkpt lat="48.83726" lon="2.2566">
        <ele>29</ele>
        <time>2014-02-23T16:17:56Z</time>
      </trkpt>
      <trkpt lat="48.83731" lon="2.25662">
        <ele>29</ele>
        <time>2014-02-23T16:17:59Z</time>
      </trkpt>
      <trkpt lat="48.8373" lon="2.2567">
        <ele>25</ele>
        <time>2014-02-23T16:18:05Z</time>
      </trkpt>
      <trkpt lat="48.83731" lon="2.25679">
        <ele>24</ele>
        <time>2014-02-23T16:18:08Z</time>
      </trkpt>
      <trkpt lat="48.83731" lon="2.25682">
        <ele>25</ele>
        <time>2014-02-23T16:18:09Z</time>
      </trkpt>
      <trkpt lat="48.83735" lon="2.25695">
        <ele>29</ele>
        <time>2014-02-23T16:18:14Z</time>
      </trkpt>
      <trkpt lat="48.83739" lon="2.25701">
        <ele>32</ele>
        <time>2014-02-23T16:18:16Z</time>
      </trkpt>
      <trkpt lat="48.83743" lon="2.2571">
        <ele>28</ele>
        <time>2014-02-23T16:18:19Z</time>
      </trkpt>
      <trkpt lat="48.83745" lon="2.25717">
        <ele>28</ele>
        <time>2014-02-23T16:18:22Z</time>
      </trkpt>
      <trkpt lat="48.83743" lon="2.25725">
        <ele>26</ele>
        <time>2014-02-23T16:18:26Z</time>
      </trkpt>
      <trkpt lat="48.83743" lon="2.25739">
        <ele>31</ele>
        <time>2014-02-23T16:18:30Z</time>
      </trkpt>
      <trkpt lat="48.83744" lon="2.25749">
        <ele>32</ele>
        <time>2014-02-23T16:18:34Z</time>
      </trkpt>
      <trkpt lat="48.83747" lon="2.25762">
        <ele>34</ele>
        <time>2014-02-23T16:18:41Z</time>
      </trkpt>
      <trkpt lat="48.83749" lon="2.25769">
        <ele>35</ele>
        <time>2014-02-23T16:18:43Z</time>
      </trkpt>
      <trkpt lat="48.83757" lon="2.25784">
        <ele>39</ele>
        <time>2014-02-23T16:18:50Z</time>
      </trkpt>
      <trkpt lat="48.83756" lon="2.25792">
        <ele>34</ele>
        <time>2014-02-23T16:18:56Z</time>
      </trkpt>
      <trkpt lat="48.83753" lon="2.25802">
        <ele>33</ele>
        <time>2014-02-23T16:18:59Z</time>
      </trkpt>
      <trkpt lat="48.83752" lon="2.25812">
        <ele>39</ele>
        <time>2014-02-23T16:19:02Z</time>
      </trkpt>
      <trkpt lat="48.83749" lon="2.2582">
        <ele>44</ele>
        <time>2014-02-23T16:19:05Z</time>
      </trkpt>
      <trkpt lat="48.83748" lon="2.25829">
        <ele>44</ele>
        <time>2014-02-23T16:19:08Z</time>
      </trkpt>
      <trkpt lat="48.83748" lon="2.25838">
        <ele>36</ele>
        <time>2014-02-23T16:19:11Z</time>
      </trkpt>
      <trkpt lat="48.83744" lon="2.25848">
        <ele>40</ele>
        <time>2014-02-23T16:19:14Z</time>
      </trkpt>
      <trkpt lat="48.83744" lon="2.25859">
        <ele>39</ele>
        <time>2014-02-23T16:19:17Z</time>
      </trkpt>
      <trkpt lat="48.83741" lon="2.25867">
        <ele>37</ele>
        <time>2014-02-23T16:19:19Z</time>
      </trkpt>
      <trkpt lat="48.83739" lon="2.25878">
        <ele>30</ele>
        <time>2014-02-23T16:19:21Z</time>
      </trkpt>
      <trkpt lat="48.83736" lon="2.25894">
        <ele>23</ele>
        <time>2014-02-23T16:19:24Z</time>
      </trkpt>
      <trkpt lat="48.83734" lon="2.25906">
        <ele>24</ele>
        <time>2014-02-23T16:19:26Z</time>
      </trkpt>
      <trkpt lat="48.8373" lon="2.25916">
        <ele>20</ele>
        <time>2014-02-23T16:19:28Z</time>
      </trkpt>
      <trkpt lat="48.83728" lon="2.25926">
        <ele>26</ele>
        <time>2014-02-23T16:19:30Z</time>
      </trkpt>
      <trkpt lat="48.83726" lon="2.25936">
        <ele>27</ele>
        <time>2014-02-23T16:19:32Z</time>
      </trkpt>
      <trkpt lat="48.83722" lon="2.25944">
        <ele>27</ele>
        <time>2014-02-23T16:19:34Z</time>
      </trkpt>
      <trkpt lat="48.83712" lon="2.25971">
        <ele>33</ele>
        <time>2014-02-23T16:19:42Z</time>
      </trkpt>
      <trkpt lat="48.83711" lon="2.25983">
        <ele>31</ele>
        <time>2014-02-23T16:19:44Z</time>
      </trkpt>
      <trkpt lat="48.83708" lon="2.25991">
        <ele>33</ele>
        <time>2014-02-23T16:19:46Z</time>
      </trkpt>
      <trkpt lat="48.83706" lon="2.26007">
        <ele>41</ele>
        <time>2014-02-23T16:19:50Z</time>
      </trkpt>
      <trkpt lat="48.83708" lon="2.26016">
        <ele>45</ele>
        <time>2014-02-23T16:19:52Z</time>
      </trkpt>
      <trkpt lat="48.83706" lon="2.26026">
        <ele>46</ele>
        <time>2014-02-23T16:19:55Z</time>
      </trkpt>
      <trkpt lat="48.83705" lon="2.26039">
        <ele>48</ele>
        <time>2014-02-23T16:20:00Z</time>
      </trkpt>
      <trkpt lat="48.83706" lon="2.2605">
        <ele>52</ele>
        <time>2014-02-23T16:20:03Z</time>
      </trkpt>
      <trkpt lat="48.83711" lon="2.26055">
        <ele>46</ele>
        <time>2014-02-23T16:20:05Z</time>
      </trkpt>
      <trkpt lat="48.83718" lon="2.26066">
        <ele>43</ele>
        <time>2014-02-23T16:20:08Z</time>
      </trkpt>
      <trkpt lat="48.8372" lon="2.26075">
        <ele>40</ele>
        <time>2014-02-23T16:20:10Z</time>
      </trkpt>
      <trkpt lat="48.83719" lon="2.26083">
        <ele>33</ele>
        <time>2014-02-23T16:20:11Z</time>
      </trkpt>
      <trkpt lat="48.83707" lon="2.26145">
        <ele>44</ele>
        <time>2014-02-23T16:20:23Z</time>
      </trkpt>
      <trkpt lat="48.83704" lon="2.26153">
        <ele>48</ele>
        <time>2014-02-23T16:20:26Z</time>
      </trkpt>
      <trkpt lat="48.83696" lon="2.2618">
        <ele>34</ele>
        <time>2014-02-23T16:20:45Z</time>
      </trkpt>
      <trkpt lat="48.83692" lon="2.26196">
        <ele>40</ele>
        <time>2014-02-23T16:20:59Z</time>
      </trkpt>
      <trkpt lat="48.83692" lon="2.26204">
        <ele>39</ele>
        <time>2014-02-23T16:21:02Z</time>
      </trkpt>
      <trkpt lat="48.83695" lon="2.26218">
        <ele>41</ele>
        <time>2014-02-23T16:21:08Z</time>
      </trkpt>
      <trkpt lat="48.837" lon="2.26219">
        <ele>39</ele>
        <time>2014-02-23T16:21:11Z</time>
      </trkpt>
      <trkpt lat="48.83706" lon="2.26224">
        <ele>38</ele>
        <time>2014-02-23T16:21:14Z</time>
      </trkpt>
      <trkpt lat="48.8371" lon="2.2623">
        <ele>38</ele>
        <time>2014-02-23T16:21:17Z</time>
      </trkpt>
      <trkpt lat="48.83715" lon="2.26232">
        <ele>38</ele>
        <time>2014-02-23T16:21:18Z</time>
      </trkpt>
      <trkpt lat="48.83722" lon="2.26238">
        <ele>45</ele>
        <time>2014-02-23T16:21:19Z</time>
      </trkpt>
      <trkpt lat="48.83726" lon="2.26244">
        <ele>47</ele>
        <time>2014-02-23T16:21:20Z</time>
      </trkpt>
      <trkpt lat="48.83741" lon="2.26265">
        <ele>36</ele>
        <time>2014-02-23T16:21:24Z</time>
      </trkpt>
      <trkpt lat="48.83745" lon="2.26273">
        <ele>39</ele>
        <time>2014-02-23T16:21:26Z</time>
      </trkpt>
      <trkpt lat="48.83748" lon="2.26284">
        <ele>42</ele>
        <time>2014-02-23T16:21:29Z</time>
      </trkpt>
      <trkpt lat="48.83752" lon="2.26293">
        <ele>45</ele>
        <time>2014-02-23T16:21:31Z</time>
      </trkpt>
      <trkpt lat="48.83765" lon="2.26321">
        <ele>33</ele>
        <time>2014-02-23T16:21:36Z</time>
      </trkpt>
      <trkpt lat="48.83773" lon="2.2633">
        <ele>37</ele>
        <time>2014-02-23T16:21:38Z</time>
      </trkpt>
      <trkpt lat="48.8378" lon="2.26336">
        <ele>35</ele>
        <time>2014-02-23T16:21:40Z</time>
      </trkpt>
      <trkpt lat="48.83784" lon="2.2634">
        <ele>36</ele>
        <time>2014-02-23T16:21:41Z</time>
      </trkpt>
      <trkpt lat="48.83853" lon="2.26411">
        <ele>42</ele>
        <time>2014-02-23T16:22:00Z</time>
      </trkpt>
      <trkpt lat="48.83857" lon="2.26418">
        <ele>40</ele>
        <time>2014-02-23T16:22:02Z</time>
      </trkpt>
      <trkpt lat="48.83872" lon="2.26438">
        <ele>39</ele>
        <time>2014-02-23T16:22:09Z</time>
      </trkpt>
      <trkpt lat="48.83879" lon="2.26442">
        <ele>40</ele>
        <time>2014-02-23T16:22:11Z</time>
      </trkpt>
      <trkpt lat="48.83886" lon="2.26445">
        <ele>40</ele>
        <time>2014-02-23T16:22:13Z</time>
      </trkpt>
      <trkpt lat="48.83893" lon="2.26451">
        <ele>37</ele>
        <time>2014-02-23T16:22:15Z</time>
      </trkpt>
      <trkpt lat="48.83898" lon="2.26458">
        <ele>34</ele>
        <time>2014-02-23T16:22:17Z</time>
      </trkpt>
      <trkpt lat="48.839" lon="2.2647">
        <ele>35</ele>
        <time>2014-02-23T16:22:19Z</time>
      </trkpt>
      <trkpt lat="48.839" lon="2.26484">
        <ele>31</ele>
        <time>2014-02-23T16:22:21Z</time>
      </trkpt>
      <trkpt lat="48.83899" lon="2.26501">
        <ele>25</ele>
        <time>2014-02-23T16:22:23Z</time>
      </trkpt>
      <trkpt lat="48.83896" lon="2.26518">
        <ele>28</ele>
        <time>2014-02-23T16:22:25Z</time>
      </trkpt>
      <trkpt lat="48.83892" lon="2.26527">
        <ele>28</ele>
        <time>2014-02-23T16:22:26Z</time>
      </trkpt>
      <trkpt lat="48.8389" lon="2.26536">
        <ele>26</ele>
        <time>2014-02-23T16:22:27Z</time>
      </trkpt>
      <trkpt lat="48.83886" lon="2.2655">
        <ele>26</ele>
        <time>2014-02-23T16:22:29Z</time>
      </trkpt>
      <trkpt lat="48.83882" lon="2.26565">
        <ele>27</ele>
        <time>2014-02-23T16:22:31Z</time>
      </trkpt>
      <trkpt lat="48.83876" lon="2.26593">
        <ele>28</ele>
        <time>2014-02-23T16:22:35Z</time>
      </trkpt>
      <trkpt lat="48.83875" lon="2.26601">
        <ele>27</ele>
        <time>2014-02-23T16:22:36Z</time>
      </trkpt>
      <trkpt lat="48.83871" lon="2.26611">
        <ele>29</ele>
        <time>2014-02-23T16:22:39Z</time>
      </trkpt>
      <trkpt lat="48.8387" lon="2.26619">
        <ele>31</ele>
        <time>2014-02-23T16:22:41Z</time>
      </trkpt>
      <trkpt lat="48.83873" lon="2.26626">
        <ele>28</ele>
        <time>2014-02-23T16:22:43Z</time>
      </trkpt>
      <trkpt lat="48.83876" lon="2.26633">
        <ele>21</ele>
        <time>2014-02-23T16:22:47Z</time>
      </trkpt>
      <trkpt lat="48.83881" lon="2.26639">
        <ele>23</ele>
        <time>2014-02-23T16:22:51Z</time>
      </trkpt>
      <trkpt lat="48.83884" lon="2.26641">
        <ele>25</ele>
        <time>2014-02-23T16:22:53Z</time>
      </trkpt>
      <trkpt lat="48.83888" lon="2.26644">
        <ele>24</ele>
        <time>2014-02-23T16:22:55Z</time>
      </trkpt>
      <trkpt lat="48.83919" lon="2.26671">
        <ele>25</ele>
        <time>2014-02-23T16:23:07Z</time>
      </trkpt>
      <trkpt lat="48.83928" lon="2.2668">
        <ele>30</ele>
        <time>2014-02-23T16:23:11Z</time>
      </trkpt>
      <trkpt lat="48.83933" lon="2.26684">
        <ele>29</ele>
        <time>2014-02-23T16:23:13Z</time>
      </trkpt>
      <trkpt lat="48.8395" lon="2.26699">
        <ele>30</ele>
        <time>2014-02-23T16:23:21Z</time>
      </trkpt>
      <trkpt lat="48.83955" lon="2.26705">
        <ele>27</ele>
        <time>2014-02-23T16:23:24Z</time>
      </trkpt>
      <trkpt lat="48.83961" lon="2.26707">
        <ele>29</ele>
        <time>2014-02-23T16:23:27Z</time>
      </trkpt>
      <trkpt lat="48.83962" lon="2.26704">
        <ele>28</ele>
        <time>2014-02-23T16:23:29Z</time>
      </trkpt>
      <trkpt lat="48.83966" lon="2.26696">
        <ele>26</ele>
        <time>2014-02-23T16:23:33Z</time>
      </trkpt>
      <trkpt lat="48.83968" lon="2.26689">
        <ele>29</ele>
        <time>2014-02-23T16:23:36Z</time>
      </trkpt>
      <trkpt lat="48.83975" lon="2.26681">
        <ele>27</ele>
        <time>2014-02-23T16:23:44Z</time>
      </trkpt>
      <trkpt lat="48.83978" lon="2.26675">
        <ele>24</ele>
        <time>2014-02-23T16:23:47Z</time>
      </trkpt>
      <trkpt lat="48.8397" lon="2.26682">
        <ele>30</ele>
        <time>2014-02-23T16:24:19Z</time>
      </trkpt>
      <trkpt lat="48.83965" lon="2.26679">
        <ele>18</ele>
        <time>2014-02-23T16:24:32Z</time>
      </trkpt>
      <trkpt lat="48.83964" lon="2.26688">
        <ele>27</ele>
        <time>2014-02-23T16:24:39Z</time>
      </trkpt>
      <trkpt lat="48.83966" lon="2.26696">
        <ele>28</ele>
        <time>2014-02-23T16:24:42Z</time>
      </trkpt>
      <trkpt lat="48.83966" lon="2.26705">
        <ele>22</ele>
        <time>2014-02-23T16:24:47Z</time>
      </trkpt>
      <trkpt lat="48.83964" lon="2.26715">
        <ele>20</ele>
        <time>2014-02-23T16:24:50Z</time>
      </trkpt>
      <trkpt lat="48.83963" lon="2.2672">
        <ele>24</ele>
        <time>2014-02-23T16:24:51Z</time>
      </trkpt>
      <trkpt lat="48.83963" lon="2.26725">
        <ele>26</ele>
        <time>2014-02-23T16:24:52Z</time>
      </trkpt>
      <trkpt lat="48.83961" lon="2.26738">
        <ele>30</ele>
        <time>2014-02-23T16:24:59Z</time>
      </trkpt>
      <trkpt lat="48.83961" lon="2.26744">
        <ele>30</ele>
        <time>2014-02-23T16:25:04Z</time>
      </trkpt>
      <trkpt lat="48.83959" lon="2.26747">
        <ele>43</ele>
        <time>2014-02-23T16:25:22Z</time>
      </trkpt>
      <trkpt lat="48.83958" lon="2.26751">
        <ele>30</ele>
        <time>2014-02-23T16:25:29Z</time>
      </trkpt>
      <trkpt lat="48.83956" lon="2.26756">
        <ele>35</ele>
        <time>2014-02-23T16:25:32Z</time>
      </trkpt>
      <trkpt lat="48.83954" lon="2.26761">
        <ele>35</ele>
        <time>2014-02-23T16:25:34Z</time>
      </trkpt>
      <trkpt lat="48.83953" lon="2.26765">
        <ele>36</ele>
        <time>2014-02-23T16:25:35Z</time>
      </trkpt>
      <trkpt lat="48.83952" lon="2.26769">
        <ele>35</ele>
        <time>2014-02-23T16:25:36Z</time>
      </trkpt>
      <trkpt lat="48.83951" lon="2.26773">
        <ele>36</ele>
        <time>2014-02-23T16:25:37Z</time>
      </trkpt>
      <trkpt lat="48.8395" lon="2.26776">
        <ele>33</ele>
        <time>2014-02-23T16:25:38Z</time>
      </trkpt>
      <trkpt lat="48.83948" lon="2.26781">
        <ele>33</ele>
        <time>2014-02-23T16:25:40Z</time>
      </trkpt>
      <trkpt lat="48.83946" lon="2.26786">
        <ele>33</ele>
        <time>2014-02-23T16:25:42Z</time>
      </trkpt>
      <trkpt lat="48.83942" lon="2.26802">
        <ele>30</ele>
        <time>2014-02-23T16:25:47Z</time>
      </trkpt>
      <trkpt lat="48.83941" lon="2.26805">
        <ele>31</ele>
        <time>2014-02-23T16:25:48Z</time>
      </trkpt>
      <trkpt lat="48.8394" lon="2.26808">
        <ele>30</ele>
        <time>2014-02-23T16:25:49Z</time>
      </trkpt>
      <trkpt lat="48.83939" lon="2.26812">
        <ele>30</ele>
        <time>2014-02-23T16:25:50Z</time>
      </trkpt>
      <trkpt lat="48.83933" lon="2.26826">
        <ele>29</ele>
        <time>2014-02-23T16:25:54Z</time>
      </trkpt>
      <trkpt lat="48.83929" lon="2.26831">
        <ele>29</ele>
        <time>2014-02-23T16:25:56Z</time>
      </trkpt>
      <trkpt lat="48.83924" lon="2.2684">
        <ele>30</ele>
        <time>2014-02-23T16:25:59Z</time>
      </trkpt>
      <trkpt lat="48.83921" lon="2.26848">
        <ele>27</ele>
        <time>2014-02-23T16:26:01Z</time>
      </trkpt>
      <trkpt lat="48.83919" lon="2.26852">
        <ele>27</ele>
        <time>2014-02-23T16:26:02Z</time>
      </trkpt>
      <trkpt lat="48.83916" lon="2.26862">
        <ele>25</ele>
        <time>2014-02-23T16:26:04Z</time>
      </trkpt>
      <trkpt lat="48.83903" lon="2.26892">
        <ele>28</ele>
        <time>2014-02-23T16:26:12Z</time>
      </trkpt>
      <trkpt lat="48.83901" lon="2.26896">
        <ele>27</ele>
        <time>2014-02-23T16:26:13Z</time>
      </trkpt>
      <trkpt lat="48.83898" lon="2.269">
        <ele>24</ele>
        <time>2014-02-23T16:26:14Z</time>
      </trkpt>
      <trkpt lat="48.83891" lon="2.26913">
        <ele>25</ele>
        <time>2014-02-23T16:26:18Z</time>
      </trkpt>
      <trkpt lat="48.83888" lon="2.26918">
        <ele>29</ele>
        <time>2014-02-23T16:26:19Z</time>
      </trkpt>
      <trkpt lat="48.83882" lon="2.2693">
        <ele>27</ele>
        <time>2014-02-23T16:26:22Z</time>
      </trkpt>
      <trkpt lat="48.83878" lon="2.26936">
        <ele>33</ele>
        <time>2014-02-23T16:26:24Z</time>
      </trkpt>
      <trkpt lat="48.83871" lon="2.26949">
        <ele>32</ele>
        <time>2014-02-23T16:26:28Z</time>
      </trkpt>
      <trkpt lat="48.83867" lon="2.26952">
        <ele>32</ele>
        <time>2014-02-23T16:26:30Z</time>
      </trkpt>
      <trkpt lat="48.83865" lon="2.26957">
        <ele>27</ele>
        <time>2014-02-23T16:26:32Z</time>
      </trkpt>
      <trkpt lat="48.83863" lon="2.26963">
        <ele>26</ele>
        <time>2014-02-23T16:26:34Z</time>
      </trkpt>
      <trkpt lat="48.83862" lon="2.26967">
        <ele>29</ele>
        <time>2014-02-23T16:26:47Z</time>
      </trkpt>
      <trkpt lat="48.83858" lon="2.2697">
        <ele>33</ele>
        <time>2014-02-23T16:27:03Z</time>
      </trkpt>
      <trkpt lat="48.83854" lon="2.26978">
        <ele>29</ele>
        <time>2014-02-23T16:27:06Z</time>
      </trkpt>
      <trkpt lat="48.83853" lon="2.26982">
        <ele>28</ele>
        <time>2014-02-23T16:27:08Z</time>
      </trkpt>
      <trkpt lat="48.83852" lon="2.26986">
        <ele>30</ele>
        <time>2014-02-23T16:27:10Z</time>
      </trkpt>
      <trkpt lat="48.8385" lon="2.2699">
        <ele>28</ele>
        <time>2014-02-23T16:27:12Z</time>
      </trkpt>
      <trkpt lat="48.83849" lon="2.26998">
        <ele>25</ele>
        <time>2014-02-23T16:27:16Z</time>
      </trkpt>
      <trkpt lat="48.83848" lon="2.27003">
        <ele>28</ele>
        <time>2014-02-23T16:27:18Z</time>
      </trkpt>
      <trkpt lat="48.83847" lon="2.27007">
        <ele>26</ele>
        <time>2014-02-23T16:27:21Z</time>
      </trkpt>
      <trkpt lat="48.83843" lon="2.27014">
        <ele>26</ele>
        <time>2014-02-23T16:27:25Z</time>
      </trkpt>
      <trkpt lat="48.83841" lon="2.27016">
        <ele>26</ele>
        <time>2014-02-23T16:27:26Z</time>
      </trkpt>
      <trkpt lat="48.83839" lon="2.27019">
        <ele>30</ele>
        <time>2014-02-23T16:27:27Z</time>
      </trkpt>
      <trkpt lat="48.83837" lon="2.27021">
        <ele>30</ele>
        <time>2014-02-23T16:27:28Z</time>
      </trkpt>
      <trkpt lat="48.83832" lon="2.27025">
        <ele>28</ele>
        <time>2014-02-23T16:27:32Z</time>
      </trkpt>
      <trkpt lat="48.83828" lon="2.27032">
        <ele>26</ele>
        <time>2014-02-23T16:27:35Z</time>
      </trkpt>
      <trkpt lat="48.83822" lon="2.2704">
        <ele>25</ele>
        <time>2014-02-23T16:27:39Z</time>
      </trkpt>
      <trkpt lat="48.83817" lon="2.27046">
        <ele>25</ele>
        <time>2014-02-23T16:27:42Z</time>
      </trkpt>
      <trkpt lat="48.83815" lon="2.27049">
        <ele>26</ele>
        <time>2014-02-23T16:27:43Z</time>
      </trkpt>
      <trkpt lat="48.83814" lon="2.27055">
        <ele>27</ele>
        <time>2014-02-23T16:27:45Z</time>
      </trkpt>
      <trkpt lat="48.83813" lon="2.27063">
        <ele>31</ele>
        <time>2014-02-23T16:27:47Z</time>
      </trkpt>
      <trkpt lat="48.83813" lon="2.27068">
        <ele>32</ele>
        <time>2014-02-23T16:27:49Z</time>
      </trkpt>
      <trkpt lat="48.8381" lon="2.27077">
        <ele>30</ele>
        <time>2014-02-23T16:27:52Z</time>
      </trkpt>
      <trkpt lat="48.83809" lon="2.2708">
        <ele>33</ele>
        <time>2014-02-23T16:27:53Z</time>
      </trkpt>
      <trkpt lat="48.83808" lon="2.27083">
        <ele>36</ele>
        <time>2014-02-23T16:27:54Z</time>
      </trkpt>
      <trkpt lat="48.83792" lon="2.27122">
        <ele>32</ele>
        <time>2014-02-23T16:28:01Z</time>
      </trkpt>
      <trkpt lat="48.8379" lon="2.2713">
        <ele>34</ele>
        <time>2014-02-23T16:28:02Z</time>
      </trkpt>
      <trkpt lat="48.83788" lon="2.27136">
        <ele>33</ele>
        <time>2014-02-23T16:28:03Z</time>
      </trkpt>
      <trkpt lat="48.83786" lon="2.27142">
        <ele>34</ele>
        <time>2014-02-23T16:28:04Z</time>
      </trkpt>
      <trkpt lat="48.83782" lon="2.27152">
        <ele>33</ele>
        <time>2014-02-23T16:28:06Z</time>
      </trkpt>
      <trkpt lat="48.83762" lon="2.27208">
        <ele>35</ele>
        <time>2014-02-23T16:28:14Z</time>
      </trkpt>
      <trkpt lat="48.83759" lon="2.27217">
        <ele>37</ele>
        <time>2014-02-23T16:28:15Z</time>
      </trkpt>
      <trkpt lat="48.83723" lon="2.27333">
        <ele>35</ele>
        <time>2014-02-23T16:28:27Z</time>
      </trkpt>
      <trkpt lat="48.83712" lon="2.27367">
        <ele>33</ele>
        <time>2014-02-23T16:28:31Z</time>
      </trkpt>
      <trkpt lat="48.83709" lon="2.27375">
        <ele>33</ele>
        <time>2014-02-23T16:28:32Z</time>
      </trkpt>
      <trkpt lat="48.83704" lon="2.27386">
        <ele>31</ele>
        <time>2014-02-23T16:28:34Z</time>
      </trkpt>
      <trkpt lat="48.837" lon="2.27391">
        <ele>29</ele>
        <time>2014-02-23T16:28:35Z</time>
      </trkpt>
      <trkpt lat="48.83696" lon="2.274">
        <ele>32</ele>
        <time>2014-02-23T16:28:36Z</time>
      </trkpt>
      <trkpt lat="48.83689" lon="2.27419">
        <ele>27</ele>
        <time>2014-02-23T16:28:38Z</time>
      </trkpt>
      <trkpt lat="48.83688" lon="2.27429">
        <ele>27</ele>
        <time>2014-02-23T16:28:39Z</time>
      </trkpt>
      <trkpt lat="48.83681" lon="2.27456">
        <ele>33</ele>
        <time>2014-02-23T16:28:43Z</time>
      </trkpt>
      <trkpt lat="48.83677" lon="2.27467">
        <ele>24</ele>
        <time>2014-02-23T16:28:45Z</time>
      </trkpt>
      <trkpt lat="48.83669" lon="2.27495">
        <ele>26</ele>
        <time>2014-02-23T16:28:49Z</time>
      </trkpt>
      <trkpt lat="48.83667" lon="2.27503">
        <ele>27</ele>
        <time>2014-02-23T16:28:50Z</time>
      </trkpt>
      <trkpt lat="48.8364" lon="2.27619">
        <ele>18</ele>
        <time>2014-02-23T16:29:06Z</time>
      </trkpt>
      <trkpt lat="48.83638" lon="2.27627">
        <ele>19</ele>
        <time>2014-02-23T16:29:07Z</time>
      </trkpt>
      <trkpt lat="48.83636" lon="2.27635">
        <ele>19</ele>
        <time>2014-02-23T16:29:08Z</time>
      </trkpt>
      <trkpt lat="48.83629" lon="2.27664">
        <ele>24</ele>
        <time>2014-02-23T16:29:12Z</time>
      </trkpt>
      <trkpt lat="48.83626" lon="2.27693">
        <ele>46</ele>
        <time>2014-02-23T16:29:17Z</time>
      </trkpt>
      <trkpt lat="48.83627" lon="2.27702">
        <ele>49</ele>
        <time>2014-02-23T16:29:18Z</time>
      </trkpt>
      <trkpt lat="48.83626" lon="2.27735">
        <ele>45</ele>
        <time>2014-02-23T16:29:24Z</time>
      </trkpt>
      <trkpt lat="48.8362" lon="2.27755">
        <ele>42</ele>
        <time>2014-02-23T16:29:28Z</time>
      </trkpt>
      <trkpt lat="48.83612" lon="2.27787">
        <ele>40</ele>
        <time>2014-02-23T16:29:35Z</time>
      </trkpt>
      <trkpt lat="48.83604" lon="2.27796">
        <ele>36</ele>
        <time>2014-02-23T16:29:39Z</time>
      </trkpt>
      <trkpt lat="48.83594" lon="2.27801">
        <ele>28</ele>
        <time>2014-02-23T16:29:43Z</time>
      </trkpt>
      <trkpt lat="48.8359" lon="2.27807">
        <ele>36</ele>
        <time>2014-02-23T16:30:10Z</time>
      </trkpt>
      <trkpt lat="48.83582" lon="2.27812">
        <ele>32</ele>
        <time>2014-02-23T16:30:36Z</time>
      </trkpt>
      <trkpt lat="48.83583" lon="2.27829">
        <ele>30</ele>
        <time>2014-02-23T16:30:43Z</time>
      </trkpt>
      <trkpt lat="48.83581" lon="2.2787">
        <ele>23</ele>
        <time>2014-02-23T16:31:02Z</time>
      </trkpt>
      <trkpt lat="48.83578" lon="2.27877">
        <ele>18</ele>
        <time>2014-02-23T16:31:04Z</time>
      </trkpt>
      <trkpt lat="48.83569" lon="2.27904">
        <ele>19</ele>
        <time>2014-02-23T16:31:12Z</time>
      </trkpt>
      <trkpt lat="48.83566" lon="2.27919">
        <ele>17</ele>
        <time>2014-02-23T16:31:17Z</time>
      </trkpt>
      <trkpt lat="48.83566" lon="2.27926">
        <ele>17</ele>
        <time>2014-02-23T16:31:19Z</time>
      </trkpt>
      <trkpt lat="48.83564" lon="2.27934">
        <ele>25</ele>
        <time>2014-02-23T16:31:21Z</time>
      </trkpt>
      <trkpt lat="48.83559" lon="2.27951">
        <ele>25</ele>
        <time>2014-02-23T16:31:25Z</time>
      </trkpt>
      <trkpt lat="48.83554" lon="2.27965">
        <ele>20</ele>
        <time>2014-02-23T16:31:27Z</time>
      </trkpt>
      <trkpt lat="48.83545" lon="2.27992">
        <ele>16</ele>
        <time>2014-02-23T16:31:32Z</time>
      </trkpt>
      <trkpt lat="48.83543" lon="2.28002">
        <ele>19</ele>
        <time>2014-02-23T16:31:34Z</time>
      </trkpt>
      <trkpt lat="48.8352" lon="2.28067">
        <ele>19</ele>
        <time>2014-02-23T16:31:46Z</time>
      </trkpt>
      <trkpt lat="48.83519" lon="2.28071">
        <ele>20</ele>
        <time>2014-02-23T16:31:47Z</time>
      </trkpt>
      <trkpt lat="48.83517" lon="2.28077">
        <ele>20</ele>
        <time>2014-02-23T16:31:48Z</time>
      </trkpt>
      <trkpt lat="48.83514" lon="2.28094">
        <ele>21</ele>
        <time>2014-02-23T16:31:51Z</time>
      </trkpt>
      <trkpt lat="48.83514" lon="2.28104">
        <ele>22</ele>
        <time>2014-02-23T16:31:53Z</time>
      </trkpt>
      <trkpt lat="48.83512" lon="2.28115">
        <ele>24</ele>
        <time>2014-02-23T16:31:55Z</time>
      </trkpt>
      <trkpt lat="48.83507" lon="2.28145">
        <ele>21</ele>
        <time>2014-02-23T16:32:00Z</time>
      </trkpt>
      <trkpt lat="48.83502" lon="2.28156">
        <ele>21</ele>
        <time>2014-02-23T16:32:02Z</time>
      </trkpt>
      <trkpt lat="48.83482" lon="2.28212">
        <ele>20</ele>
        <time>2014-02-23T16:32:13Z</time>
      </trkpt>
      <trkpt lat="48.83474" lon="2.28227">
        <ele>21</ele>
        <time>2014-02-23T16:32:17Z</time>
      </trkpt>
      <trkpt lat="48.8347" lon="2.28235">
        <ele>19</ele>
        <time>2014-02-23T16:32:19Z</time>
      </trkpt>
      <trkpt lat="48.83466" lon="2.28245">
        <ele>21</ele>
        <time>2014-02-23T16:32:21Z</time>
      </trkpt>
      <trkpt lat="48.83425" lon="2.28358">
        <ele>25</ele>
        <time>2014-02-23T16:32:52Z</time>
      </trkpt>
      <trkpt lat="48.83421" lon="2.28371">
        <ele>25</ele>
        <time>2014-02-23T16:33:06Z</time>
      </trkpt>
      <trkpt lat="48.83419" lon="2.28387">
        <ele>19</ele>
        <time>2014-02-23T16:33:13Z</time>
      </trkpt>
      <trkpt lat="48.83415" lon="2.284">
        <ele>19</ele>
        <time>2014-02-23T16:33:18Z</time>
      </trkpt>
      <trkpt lat="48.83413" lon="2.28407">
        <ele>24</ele>
        <time>2014-02-23T16:33:19Z</time>
      </trkpt>
      <trkpt lat="48.83405" lon="2.28434">
        <ele>22</ele>
        <time>2014-02-23T16:33:27Z</time>
      </trkpt>
      <trkpt lat="48.83401" lon="2.28448">
        <ele>21</ele>
        <time>2014-02-23T16:33:30Z</time>
      </trkpt>
      <trkpt lat="48.834" lon="2.28459">
        <ele>19</ele>
        <time>2014-02-23T16:33:32Z</time>
      </trkpt>
      <trkpt lat="48.83398" lon="2.28469">
        <ele>17</ele>
        <time>2014-02-23T16:33:34Z</time>
      </trkpt>
      <trkpt lat="48.83396" lon="2.28473">
        <ele>20</ele>
        <time>2014-02-23T16:33:35Z</time>
      </trkpt>
      <trkpt lat="48.83392" lon="2.2848">
        <ele>20</ele>
        <time>2014-02-23T16:33:38Z</time>
      </trkpt>
      <trkpt lat="48.83387" lon="2.2849">
        <ele>19</ele>
        <time>2014-02-23T16:33:42Z</time>
      </trkpt>
      <trkpt lat="48.83381" lon="2.28497">
        <ele>16</ele>
        <time>2014-02-23T16:33:45Z</time>
      </trkpt>
      <trkpt lat="48.83376" lon="2.28506">
        <ele>19</ele>
        <time>2014-02-23T16:33:48Z</time>
      </trkpt>
      <trkpt lat="48.83364" lon="2.28528">
        <ele>18</ele>
        <time>2014-02-23T16:33:56Z</time>
      </trkpt>
      <trkpt lat="48.83362" lon="2.28537">
        <ele>28</ele>
        <time>2014-02-23T16:34:14Z</time>
      </trkpt>
      <trkpt lat="48.83363" lon="2.28548">
        <ele>25</ele>
        <time>2014-02-23T16:34:17Z</time>
      </trkpt>
      <trkpt lat="48.83363" lon="2.28556">
        <ele>19</ele>
        <time>2014-02-23T16:34:19Z</time>
      </trkpt>
      <trkpt lat="48.83361" lon="2.28564">
        <ele>23</ele>
        <time>2014-02-23T16:34:21Z</time>
      </trkpt>
      <trkpt lat="48.8336" lon="2.28568">
        <ele>22</ele>
        <time>2014-02-23T16:34:22Z</time>
      </trkpt>
      <trkpt lat="48.83355" lon="2.28588">
        <ele>14</ele>
        <time>2014-02-23T16:34:26Z</time>
      </trkpt>
      <trkpt lat="48.83352" lon="2.286">
        <ele>21</ele>
        <time>2014-02-23T16:34:29Z</time>
      </trkpt>
      <trkpt lat="48.83349" lon="2.28608">
        <ele>16</ele>
        <time>2014-02-23T16:34:32Z</time>
      </trkpt>
      <trkpt lat="48.83348" lon="2.28617">
        <ele>16</ele>
        <time>2014-02-23T16:34:35Z</time>
      </trkpt>
      <trkpt lat="48.83344" lon="2.28625">
        <ele>18</ele>
        <time>2014-02-23T16:34:39Z</time>
      </trkpt>
      <trkpt lat="48.83339" lon="2.28631">
        <ele>16</ele>
        <time>2014-02-23T16:34:42Z</time>
      </trkpt>
      <trkpt lat="48.83325" lon="2.28652">
        <ele>20</ele>
        <time>2014-02-23T16:34:54Z</time>
      </trkpt>
      <trkpt lat="48.83321" lon="2.2866">
        <ele>22</ele>
        <time>2014-02-23T16:34:57Z</time>
      </trkpt>
      <trkpt lat="48.83318" lon="2.28671">
        <ele>23</ele>
        <time>2014-02-23T16:35:00Z</time>
      </trkpt>
      <trkpt lat="48.83314" lon="2.28684">
        <ele>24</ele>
        <time>2014-02-23T16:35:04Z</time>
      </trkpt>
      <trkpt lat="48.83312" lon="2.28688">
        <ele>29</ele>
        <time>2014-02-23T16:35:06Z</time>
      </trkpt>
      <trkpt lat="48.8331" lon="2.28699">
        <ele>21</ele>
        <time>2014-02-23T16:35:10Z</time>
      </trkpt>
      <trkpt lat="48.83308" lon="2.28705">
        <ele>21</ele>
        <time>2014-02-23T16:35:12Z</time>
      </trkpt>
      <trkpt lat="48.83305" lon="2.28711">
        <ele>18</ele>
        <time>2014-02-23T16:35:16Z</time>
      </trkpt>
      <trkpt lat="48.83298" lon="2.2871">
        <ele>35</ele>
        <time>2014-02-23T16:35:31Z</time>
      </trkpt>
      <trkpt lat="48.83293" lon="2.28707">
        <ele>35</ele>
        <time>2014-02-23T16:35:34Z</time>
      </trkpt>
      <trkpt lat="48.83277" lon="2.287">
        <ele>33</ele>
        <time>2014-02-23T16:35:45Z</time>
      </trkpt>
      <trkpt lat="48.83272" lon="2.28699">
        <ele>31</ele>
        <time>2014-02-23T16:35:48Z</time>
      </trkpt>
      <trkpt lat="48.83267" lon="2.28702">
        <ele>41</ele>
        <time>2014-02-23T16:35:50Z</time>
      </trkpt>
      <trkpt lat="48.83261" lon="2.28709">
        <ele>41</ele>
        <time>2014-02-23T16:35:52Z</time>
      </trkpt>
      <trkpt lat="48.83257" lon="2.28713">
        <ele>36</ele>
        <time>2014-02-23T16:35:53Z</time>
      </trkpt>
      <trkpt lat="48.83253" lon="2.28716">
        <ele>36</ele>
        <time>2014-02-23T16:35:54Z</time>
      </trkpt>
      <trkpt lat="48.83249" lon="2.28722">
        <ele>28</ele>
        <time>2014-02-23T16:35:56Z</time>
      </trkpt>
      <trkpt lat="48.83239" lon="2.28734">
        <ele>30</ele>
        <time>2014-02-23T16:36:11Z</time>
      </trkpt>
      <trkpt lat="48.83236" lon="2.28734">
        <ele>36</ele>
        <time>2014-02-23T16:36:13Z</time>
      </trkpt>
      <trkpt lat="48.83233" lon="2.28736">
        <ele>30</ele>
        <time>2014-02-23T16:36:16Z</time>
      </trkpt>
      <trkpt lat="48.8323" lon="2.28736">
        <ele>33</ele>
        <time>2014-02-23T16:36:20Z</time>
      </trkpt>
      <trkpt lat="48.83226" lon="2.28737">
        <ele>39</ele>
        <time>2014-02-23T16:36:24Z</time>
      </trkpt>
      <trkpt lat="48.83227" lon="2.28743">
        <ele>30</ele>
        <time>2014-02-23T16:36:27Z</time>
      </trkpt>
      <trkpt lat="48.83228" lon="2.28749">
        <ele>29</ele>
        <time>2014-02-23T16:36:33Z</time>
      </trkpt>
      <trkpt lat="48.83228" lon="2.28753">
        <ele>41</ele>
        <time>2014-02-23T16:36:49Z</time>
      </trkpt>
      <trkpt lat="48.83225" lon="2.28762">
        <ele>41</ele>
        <time>2014-02-23T16:36:51Z</time>
      </trkpt>
      <trkpt lat="48.83223" lon="2.28765">
        <ele>40</ele>
        <time>2014-02-23T16:36:53Z</time>
      </trkpt>
      <trkpt lat="48.83222" lon="2.28768">
        <ele>32</ele>
        <time>2014-02-23T16:36:55Z</time>
      </trkpt>
      <trkpt lat="48.83222" lon="2.28772">
        <ele>32</ele>
        <time>2014-02-23T16:37:14Z</time>
      </trkpt>
      <trkpt lat="48.83221" lon="2.28781">
        <ele>31</ele>
        <time>2014-02-23T16:37:19Z</time>
      </trkpt>
      <trkpt lat="48.83221" lon="2.28784">
        <ele>31</ele>
        <time>2014-02-23T16:37:20Z</time>
      </trkpt>
      <trkpt lat="48.83221" lon="2.28788">
        <ele>29</ele>
        <time>2014-02-23T16:37:22Z</time>
      </trkpt>
      <trkpt lat="48.83218" lon="2.28795">
        <ele>37</ele>
        <time>2014-02-23T16:37:28Z</time>
      </trkpt>
      <trkpt lat="48.83218" lon="2.28803">
        <ele>33</ele>
        <time>2014-02-23T16:37:35Z</time>
      </trkpt>
      <trkpt lat="48.83218" lon="2.28807">
        <ele>33</ele>
        <time>2014-02-23T16:37:49Z</time>
      </trkpt>
      <trkpt lat="48.8322" lon="2.28817">
        <ele>34</ele>
        <time>2014-02-23T16:38:01Z</time>
      </trkpt>
      <trkpt lat="48.83221" lon="2.28825">
        <ele>38</ele>
        <time>2014-02-23T16:38:05Z</time>
      </trkpt>
      <trkpt lat="48.83225" lon="2.28881">
        <ele>39</ele>
        <time>2014-02-23T16:38:24Z</time>
      </trkpt>
      <trkpt lat="48.83223" lon="2.28889">
        <ele>40</ele>
        <time>2014-02-23T16:38:27Z</time>
      </trkpt>
      <trkpt lat="48.83223" lon="2.28897">
        <ele>35</ele>
        <time>2014-02-23T16:38:30Z</time>
      </trkpt>
      <trkpt lat="48.83219" lon="2.28905">
        <ele>33</ele>
        <time>2014-02-23T16:38:35Z</time>
      </trkpt>
      <trkpt lat="48.83218" lon="2.28913">
        <ele>29</ele>
        <time>2014-02-23T16:38:39Z</time>
      </trkpt>
      <trkpt lat="48.83216" lon="2.28924">
        <ele>23</ele>
        <time>2014-02-23T16:38:43Z</time>
      </trkpt>
      <trkpt lat="48.83214" lon="2.28933">
        <ele>34</ele>
        <time>2014-02-23T16:38:46Z</time>
      </trkpt>
      <trkpt lat="48.83208" lon="2.28934">
        <ele>61</ele>
        <time>2014-02-23T16:39:00Z</time>
      </trkpt>
      <trkpt lat="48.83204" lon="2.28943">
        <ele>42</ele>
        <time>2014-02-23T16:41:16Z</time>
      </trkpt>
      <trkpt lat="48.83199" lon="2.28949">
        <ele>41</ele>
        <time>2014-02-23T16:41:18Z</time>
      </trkpt>
      <trkpt lat="48.83195" lon="2.28953">
        <ele>42</ele>
        <time>2014-02-23T16:41:22Z</time>
      </trkpt>
      <trkpt lat="48.8319" lon="2.2896">
        <ele>39</ele>
        <time>2014-02-23T16:41:25Z</time>
      </trkpt>
      <trkpt lat="48.83186" lon="2.28969">
        <ele>38</ele>
        <time>2014-02-23T16:41:28Z</time>
      </trkpt>
      <trkpt lat="48.83183" lon="2.28975">
        <ele>36</ele>
        <time>2014-02-23T16:41:30Z</time>
      </trkpt>
      <trkpt lat="48.83181" lon="2.28983">
        <ele>37</ele>
        <time>2014-02-23T16:41:33Z</time>
      </trkpt>
      <trkpt lat="48.83177" lon="2.28989">
        <ele>36</ele>
        <time>2014-02-23T16:41:35Z</time>
      </trkpt>
      <trkpt lat="48.83175" lon="2.28996">
        <ele>37</ele>
        <time>2014-02-23T16:41:37Z</time>
      </trkpt>
      <trkpt lat="48.83169" lon="2.29006">
        <ele>34</ele>
        <time>2014-02-23T16:41:41Z</time>
      </trkpt>
      <trkpt lat="48.83166" lon="2.29015">
        <ele>38</ele>
        <time>2014-02-23T16:41:44Z</time>
      </trkpt>
      <trkpt lat="48.83162" lon="2.29022">
        <ele>37</ele>
        <time>2014-02-23T16:41:47Z</time>
      </trkpt>
      <trkpt lat="48.83158" lon="2.29029">
        <ele>41</ele>
        <time>2014-02-23T16:41:50Z</time>
      </trkpt>
      <trkpt lat="48.83154" lon="2.29036">
        <ele>39</ele>
        <time>2014-02-23T16:41:53Z</time>
      </trkpt>
      <trkpt lat="48.83149" lon="2.29043">
        <ele>41</ele>
        <time>2014-02-23T16:41:56Z</time>
      </trkpt>
      <trkpt lat="48.83145" lon="2.29051">
        <ele>41</ele>
        <time>2014-02-23T16:41:59Z</time>
      </trkpt>
      <trkpt lat="48.83121" lon="2.29098">
        <ele>34</ele>
        <time>2014-02-23T16:42:16Z</time>
      </trkpt>
      <trkpt lat="48.83115" lon="2.29115">
        <ele>39</ele>
        <time>2014-02-23T16:42:28Z</time>
      </trkpt>
      <trkpt lat="48.83112" lon="2.29123">
        <ele>37</ele>
        <time>2014-02-23T16:42:31Z</time>
      </trkpt>
      <trkpt lat="48.83105" lon="2.2915">
        <ele>41</ele>
        <time>2014-02-23T16:42:41Z</time>
      </trkpt>
      <trkpt lat="48.83103" lon="2.29158">
        <ele>39</ele>
        <time>2014-02-23T16:42:44Z</time>
      </trkpt>
      <trkpt lat="48.83099" lon="2.29166">
        <ele>36</ele>
        <time>2014-02-23T16:42:47Z</time>
      </trkpt>
      <trkpt lat="48.83095" lon="2.29172">
        <ele>38</ele>
        <time>2014-02-23T16:42:51Z</time>
      </trkpt>
      <trkpt lat="48.83092" lon="2.29179">
        <ele>33</ele>
        <time>2014-02-23T16:42:54Z</time>
      </trkpt>
      <trkpt lat="48.8309" lon="2.29187">
        <ele>41</ele>
        <time>2014-02-23T16:43:08Z</time>
      </trkpt>
      <trkpt lat="48.83087" lon="2.29202">
        <ele>46</ele>
        <time>2014-02-23T16:43:20Z</time>
      </trkpt>
      <trkpt lat="48.83086" lon="2.29203">
        <ele>46</ele>
        <time>2014-02-23T16:43:21Z</time>
      </trkpt>
      <trkpt lat="48.83081" lon="2.29205">
        <ele>49</ele>
        <time>2014-02-23T16:43:25Z</time>
      </trkpt>
      <trkpt lat="48.83078" lon="2.29206">
        <ele>45</ele>
        <time>2014-02-23T16:43:34Z</time>
      </trkpt>
      <trkpt lat="48.83075" lon="2.29214">
        <ele>46</ele>
        <time>2014-02-23T16:43:55Z</time>
      </trkpt>
      <trkpt lat="48.83072" lon="2.29225">
        <ele>51</ele>
        <time>2014-02-23T16:43:59Z</time>
      </trkpt>
      <trkpt lat="48.83069" lon="2.29236">
        <ele>52</ele>
        <time>2014-02-23T16:44:02Z</time>
      </trkpt>
      <trkpt lat="48.83068" lon="2.2924">
        <ele>48</ele>
        <time>2014-02-23T16:44:03Z</time>
      </trkpt>
      <trkpt lat="48.83068" lon="2.29244">
        <ele>47</ele>
        <time>2014-02-23T16:44:04Z</time>
      </trkpt>
      <trkpt lat="48.83065" lon="2.2925">
        <ele>52</ele>
        <time>2014-02-23T16:44:08Z</time>
      </trkpt>
      <trkpt lat="48.83063" lon="2.2925">
        <ele>56</ele>
        <time>2014-02-23T16:44:14Z</time>
      </trkpt>
      <trkpt lat="48.83061" lon="2.29249">
        <ele>48</ele>
        <time>2014-02-23T16:44:17Z</time>
      </trkpt>
      <trkpt lat="48.83038" lon="2.29233">
        <ele>73</ele>
        <time>2014-02-23T16:46:56Z</time>
      </trkpt>
      <trkpt lat="48.83047" lon="2.29239">
        <ele>61</ele>
        <time>2014-02-23T16:47:23Z</time>
      </trkpt>
      <trkpt lat="48.83054" lon="2.29239">
        <ele>57</ele>
        <time>2014-02-23T16:47:25Z</time>
      </trkpt>
      <trkpt lat="48.83054" lon="2.29231">
        <ele>61</ele>
        <time>2014-02-23T16:47:45Z</time>
      </trkpt>
      <trkpt lat="48.83047" lon="2.29238">
        <ele>54</ele>
        <time>2014-02-23T16:48:29Z</time>
      </trkpt>
      <trkpt lat="48.83049" lon="2.29246">
        <ele>51</ele>
        <time>2014-02-23T16:48:52Z</time>
      </trkpt>
      <trkpt lat="48.83048" lon="2.29228">
        <ele>102</ele>
        <time>2014-02-23T16:49:05Z</time>
      </trkpt>
      <trkpt lat="48.8304" lon="2.29218">
        <ele>99</ele>
        <time>2014-02-23T16:49:30Z</time>
      </trkpt>
      <trkpt lat="48.83032" lon="2.29217">
        <ele>92</ele>
        <time>2014-02-23T16:49:37Z</time>
      </trkpt>
      <trkpt lat="48.83038" lon="2.29219">
        <ele>74</ele>
        <time>2014-02-23T16:49:51Z</time>
      </trkpt>
      <trkpt lat="48.83038" lon="2.29219">
        <ele>100</ele>
        <time>2014-02-23T16:49:51Z</time>
      </trkpt>
      <trkpt lat="48.8305" lon="2.29212">
        <ele>77</ele>
        <time>2014-02-23T16:51:07Z</time>
      </trkpt>
      <trkpt lat="48.8305" lon="2.2922">
        <ele>45</ele>
        <time>2014-02-23T16:51:43Z</time>
      </trkpt>
      <trkpt lat="48.83045" lon="2.29231">
        <ele>45</ele>
        <time>2014-02-23T16:52:25Z</time>
      </trkpt>
      <trkpt lat="48.83045" lon="2.29243">
        <ele>45</ele>
        <time>2014-02-23T16:56:33Z</time>
      </trkpt>
      <trkpt lat="48.83021" lon="2.29178">
        <ele>44</ele>
        <time>2014-02-23T16:59:16Z</time>
      </trkpt>
      <trkpt lat="48.83042" lon="2.29206">
        <ele>47</ele>
        <time>2014-02-23T17:02:06Z</time>
      </trkpt>
      <trkpt lat="48.8305" lon="2.29221">
        <ele>44</ele>
        <time>2014-02-23T17:02:56Z</time>
      </trkpt>
      <trkpt lat="48.83047" lon="2.29232">
        <ele>44</ele>
        <time>2014-02-23T17:04:05Z</time>
      </trkpt>
      <trkpt lat="48.83056" lon="2.29235">
        <ele>50</ele>
        <time>2014-02-23T17:04:22Z</time>
      </trkpt>
      <trkpt lat="48.8306" lon="2.29231">
        <ele>54</ele>
        <time>2014-02-23T17:05:10Z</time>
      </trkpt>
      <trkpt lat="48.83067" lon="2.29237">
        <ele>64</ele>
        <time>2014-02-23T17:05:14Z</time>
      </trkpt>
      <trkpt lat="48.83071" lon="2.29244">
        <ele>63</ele>
        <time>2014-02-23T17:05:16Z</time>
      </trkpt>
      <trkpt lat="48.83072" lon="2.29256">
        <ele>83</ele>
        <time>2014-02-23T17:05:34Z</time>
      </trkpt>
      <trkpt lat="48.83071" lon="2.29269">
        <ele>76</ele>
        <time>2014-02-23T17:05:38Z</time>
      </trkpt>
      <trkpt lat="48.83069" lon="2.29281">
        <ele>66</ele>
        <time>2014-02-23T17:05:41Z</time>
      </trkpt>
      <trkpt lat="48.83065" lon="2.29288">
        <ele>60</ele>
        <time>2014-02-23T17:05:44Z</time>
      </trkpt>
      <trkpt lat="48.83062" lon="2.29299">
        <ele>58</ele>
        <time>2014-02-23T17:05:47Z</time>
      </trkpt>
      <trkpt lat="48.83057" lon="2.29304">
        <ele>50</ele>
        <time>2014-02-23T17:05:49Z</time>
      </trkpt>
      <trkpt lat="48.83052" lon="2.29309">
        <ele>49</ele>
        <time>2014-02-23T17:05:51Z</time>
      </trkpt>
      <trkpt lat="48.83048" lon="2.29312">
        <ele>49</ele>
        <time>2014-02-23T17:05:53Z</time>
      </trkpt>
      <trkpt lat="48.83043" lon="2.29316">
        <ele>47</ele>
        <time>2014-02-23T17:05:55Z</time>
      </trkpt>
      <trkpt lat="48.83041" lon="2.29323">
        <ele>47</ele>
        <time>2014-02-23T17:05:57Z</time>
      </trkpt>
      <trkpt lat="48.83036" lon="2.29347">
        <ele>59</ele>
        <time>2014-02-23T17:06:05Z</time>
      </trkpt>
      <trkpt lat="48.83032" lon="2.29356">
        <ele>61</ele>
        <time>2014-02-23T17:06:08Z</time>
      </trkpt>
      <trkpt lat="48.83029" lon="2.29367">
        <ele>65</ele>
        <time>2014-02-23T17:06:11Z</time>
      </trkpt>
      <trkpt lat="48.83016" lon="2.29415">
        <ele>64</ele>
        <time>2014-02-23T17:06:23Z</time>
      </trkpt>
      <trkpt lat="48.83012" lon="2.29424">
        <ele>65</ele>
        <time>2014-02-23T17:06:25Z</time>
      </trkpt>
      <trkpt lat="48.83009" lon="2.29434">
        <ele>61</ele>
        <time>2014-02-23T17:06:27Z</time>
      </trkpt>
      <trkpt lat="48.82982" lon="2.29528">
        <ele>65</ele>
        <time>2014-02-23T17:06:52Z</time>
      </trkpt>
      <trkpt lat="48.82978" lon="2.29533">
        <ele>67</ele>
        <time>2014-02-23T17:06:54Z</time>
      </trkpt>
      <trkpt lat="48.82974" lon="2.29538">
        <ele>67</ele>
        <time>2014-02-23T17:06:56Z</time>
      </trkpt>
      <trkpt lat="48.82974" lon="2.29543">
        <ele>60</ele>
        <time>2014-02-23T17:06:57Z</time>
      </trkpt>
      <trkpt lat="48.82973" lon="2.29547">
        <ele>70</ele>
        <time>2014-02-23T17:07:13Z</time>
      </trkpt>
      <trkpt lat="48.82974" lon="2.29551">
        <ele>72</ele>
        <time>2014-02-23T17:07:14Z</time>
      </trkpt>
      <trkpt lat="48.82973" lon="2.29563">
        <ele>69</ele>
        <time>2014-02-23T17:07:18Z</time>
      </trkpt>
      <trkpt lat="48.82972" lon="2.29567">
        <ele>66</ele>
        <time>2014-02-23T17:07:20Z</time>
      </trkpt>
      <trkpt lat="48.82968" lon="2.29584">
        <ele>73</ele>
        <time>2014-02-23T17:07:25Z</time>
      </trkpt>
      <trkpt lat="48.82967" lon="2.29593">
        <ele>72</ele>
        <time>2014-02-23T17:07:27Z</time>
      </trkpt>
      <trkpt lat="48.82968" lon="2.29602">
        <ele>74</ele>
        <time>2014-02-23T17:07:29Z</time>
      </trkpt>
      <trkpt lat="48.82964" lon="2.29612">
        <ele>63</ele>
        <time>2014-02-23T17:07:31Z</time>
      </trkpt>
      <trkpt lat="48.82958" lon="2.29623">
        <ele>58</ele>
        <time>2014-02-23T17:07:33Z</time>
      </trkpt>
      <trkpt lat="48.82953" lon="2.29631">
        <ele>54</ele>
        <time>2014-02-23T17:07:35Z</time>
      </trkpt>
      <trkpt lat="48.82948" lon="2.29639">
        <ele>53</ele>
        <time>2014-02-23T17:07:37Z</time>
      </trkpt>
      <trkpt lat="48.82946" lon="2.29651">
        <ele>53</ele>
        <time>2014-02-23T17:07:39Z</time>
      </trkpt>
      <trkpt lat="48.82942" lon="2.29665">
        <ele>60</ele>
        <time>2014-02-23T17:07:42Z</time>
      </trkpt>
      <trkpt lat="48.82939" lon="2.2968">
        <ele>54</ele>
        <time>2014-02-23T17:07:45Z</time>
      </trkpt>
      <trkpt lat="48.82933" lon="2.2971">
        <ele>57</ele>
        <time>2014-02-23T17:07:51Z</time>
      </trkpt>
      <trkpt lat="48.82933" lon="2.29722">
        <ele>57</ele>
        <time>2014-02-23T17:07:54Z</time>
      </trkpt>
      <trkpt lat="48.82932" lon="2.29733">
        <ele>61</ele>
        <time>2014-02-23T17:07:56Z</time>
      </trkpt>
      <trkpt lat="48.82929" lon="2.29744">
        <ele>60</ele>
        <time>2014-02-23T17:07:58Z</time>
      </trkpt>
      <trkpt lat="48.82927" lon="2.29756">
        <ele>60</ele>
        <time>2014-02-23T17:08:00Z</time>
      </trkpt>
      <trkpt lat="48.82918" lon="2.29808">
        <ele>61</ele>
        <time>2014-02-23T17:08:09Z</time>
      </trkpt>
      <trkpt lat="48.82915" lon="2.2982">
        <ele>58</ele>
        <time>2014-02-23T17:08:11Z</time>
      </trkpt>
      <trkpt lat="48.82908" lon="2.2986">
        <ele>55</ele>
        <time>2014-02-23T17:08:19Z</time>
      </trkpt>
      <trkpt lat="48.82906" lon="2.29866">
        <ele>56</ele>
        <time>2014-02-23T17:08:20Z</time>
      </trkpt>
      <trkpt lat="48.82905" lon="2.29871">
        <ele>59</ele>
        <time>2014-02-23T17:08:21Z</time>
      </trkpt>
      <trkpt lat="48.82897" lon="2.29895">
        <ele>62</ele>
        <time>2014-02-23T17:08:25Z</time>
      </trkpt>
      <trkpt lat="48.82896" lon="2.29904">
        <ele>68</ele>
        <time>2014-02-23T17:08:27Z</time>
      </trkpt>
      <trkpt lat="48.82897" lon="2.29915">
        <ele>72</ele>
        <time>2014-02-23T17:08:30Z</time>
      </trkpt>
      <trkpt lat="48.82895" lon="2.29924">
        <ele>68</ele>
        <time>2014-02-23T17:08:33Z</time>
      </trkpt>
      <trkpt lat="48.8289" lon="2.29945">
        <ele>57</ele>
        <time>2014-02-23T17:08:38Z</time>
      </trkpt>
      <trkpt lat="48.82883" lon="2.29972">
        <ele>54</ele>
        <time>2014-02-23T17:08:43Z</time>
      </trkpt>
      <trkpt lat="48.82881" lon="2.29984">
        <ele>66</ele>
        <time>2014-02-23T17:08:46Z</time>
      </trkpt>
      <trkpt lat="48.82878" lon="2.29995">
        <ele>63</ele>
        <time>2014-02-23T17:08:48Z</time>
      </trkpt>
      <trkpt lat="48.82874" lon="2.30006">
        <ele>64</ele>
        <time>2014-02-23T17:08:50Z</time>
      </trkpt>
      <trkpt lat="48.82865" lon="2.30032">
        <ele>58</ele>
        <time>2014-02-23T17:08:57Z</time>
      </trkpt>
      <trkpt lat="48.82863" lon="2.30042">
        <ele>53</ele>
        <time>2014-02-23T17:08:59Z</time>
      </trkpt>
      <trkpt lat="48.82856" lon="2.30069">
        <ele>58</ele>
        <time>2014-02-23T17:09:04Z</time>
      </trkpt>
      <trkpt lat="48.82853" lon="2.30087">
        <ele>57</ele>
        <time>2014-02-23T17:09:08Z</time>
      </trkpt>
      <trkpt lat="48.8285" lon="2.30098">
        <ele>56</ele>
        <time>2014-02-23T17:09:10Z</time>
      </trkpt>
      <trkpt lat="48.82845" lon="2.3011">
        <ele>52</ele>
        <time>2014-02-23T17:09:13Z</time>
      </trkpt>
      <trkpt lat="48.82839" lon="2.30117">
        <ele>45</ele>
        <time>2014-02-23T17:09:15Z</time>
      </trkpt>
      <trkpt lat="48.82835" lon="2.30126">
        <ele>45</ele>
        <time>2014-02-23T17:09:17Z</time>
      </trkpt>
      <trkpt lat="48.82833" lon="2.30134">
        <ele>50</ele>
        <time>2014-02-23T17:09:19Z</time>
      </trkpt>
      <trkpt lat="48.82835" lon="2.30143">
        <ele>51</ele>
        <time>2014-02-23T17:09:21Z</time>
      </trkpt>
      <trkpt lat="48.8284" lon="2.30167">
        <ele>64</ele>
        <time>2014-02-23T17:09:26Z</time>
      </trkpt>
      <trkpt lat="48.82837" lon="2.30178">
        <ele>63</ele>
        <time>2014-02-23T17:09:28Z</time>
      </trkpt>
      <trkpt lat="48.82835" lon="2.30184">
        <ele>59</ele>
        <time>2014-02-23T17:09:30Z</time>
      </trkpt>
      <trkpt lat="48.82831" lon="2.30195">
        <ele>51</ele>
        <time>2014-02-23T17:09:32Z</time>
      </trkpt>
      <trkpt lat="48.82797" lon="2.30311">
        <ele>31</ele>
        <time>2014-02-23T17:09:51Z</time>
      </trkpt>
      <trkpt lat="48.82795" lon="2.30319">
        <ele>29</ele>
        <time>2014-02-23T17:09:52Z</time>
      </trkpt>
      <trkpt lat="48.82794" lon="2.30327">
        <ele>32</ele>
        <time>2014-02-23T17:09:53Z</time>
      </trkpt>
      <trkpt lat="48.82794" lon="2.30336">
        <ele>38</ele>
        <time>2014-02-23T17:09:54Z</time>
      </trkpt>
      <trkpt lat="48.82793" lon="2.30346">
        <ele>47</ele>
        <time>2014-02-23T17:09:55Z</time>
      </trkpt>
      <trkpt lat="48.82789" lon="2.30362">
        <ele>50</ele>
        <time>2014-02-23T17:09:57Z</time>
      </trkpt>
      <trkpt lat="48.82788" lon="2.30375">
        <ele>48</ele>
        <time>2014-02-23T17:09:59Z</time>
      </trkpt>
      <trkpt lat="48.82779" lon="2.30441">
        <ele>47</ele>
        <time>2014-02-23T17:10:10Z</time>
      </trkpt>
      <trkpt lat="48.82777" lon="2.3045">
        <ele>44</ele>
        <time>2014-02-23T17:10:11Z</time>
      </trkpt>
      <trkpt lat="48.82774" lon="2.30458">
        <ele>43</ele>
        <time>2014-02-23T17:10:12Z</time>
      </trkpt>
      <trkpt lat="48.82767" lon="2.30478">
        <ele>51</ele>
        <time>2014-02-23T17:10:23Z</time>
      </trkpt>
      <trkpt lat="48.82769" lon="2.30485">
        <ele>51</ele>
        <time>2014-02-23T17:10:28Z</time>
      </trkpt>
      <trkpt lat="48.82765" lon="2.30492">
        <ele>53</ele>
        <time>2014-02-23T17:10:31Z</time>
      </trkpt>
      <trkpt lat="48.82762" lon="2.30496">
        <ele>53</ele>
        <time>2014-02-23T17:10:33Z</time>
      </trkpt>
      <trkpt lat="48.8276" lon="2.30499">
        <ele>51</ele>
        <time>2014-02-23T17:10:38Z</time>
      </trkpt>
      <trkpt lat="48.82759" lon="2.30503">
        <ele>55</ele>
        <time>2014-02-23T17:10:39Z</time>
      </trkpt>
      <trkpt lat="48.82759" lon="2.30507">
        <ele>57</ele>
        <time>2014-02-23T17:10:40Z</time>
      </trkpt>
      <trkpt lat="48.82758" lon="2.30514">
        <ele>56</ele>
        <time>2014-02-23T17:10:41Z</time>
      </trkpt>
      <trkpt lat="48.82757" lon="2.30523">
        <ele>62</ele>
        <time>2014-02-23T17:10:44Z</time>
      </trkpt>
      <trkpt lat="48.82761" lon="2.30539">
        <ele>85</ele>
        <time>2014-02-23T17:11:12Z</time>
      </trkpt>
      <trkpt lat="48.82763" lon="2.30546">
        <ele>81</ele>
        <time>2014-02-23T17:11:14Z</time>
      </trkpt>
      <trkpt lat="48.82766" lon="2.30558">
        <ele>79</ele>
        <time>2014-02-23T17:11:17Z</time>
      </trkpt>
      <trkpt lat="48.82765" lon="2.30566">
        <ele>76</ele>
        <time>2014-02-23T17:11:19Z</time>
      </trkpt>
      <trkpt lat="48.82763" lon="2.30573">
        <ele>61</ele>
        <time>2014-02-23T17:11:21Z</time>
      </trkpt>
      <trkpt lat="48.82755" lon="2.30601">
        <ele>50</ele>
        <time>2014-02-23T17:11:27Z</time>
      </trkpt>
      <trkpt lat="48.8275" lon="2.30614">
        <ele>49</ele>
        <time>2014-02-23T17:11:32Z</time>
      </trkpt>
      <trkpt lat="48.82744" lon="2.3062">
        <ele>48</ele>
        <time>2014-02-23T17:11:35Z</time>
      </trkpt>
      <trkpt lat="48.82743" lon="2.30629">
        <ele>51</ele>
        <time>2014-02-23T17:11:37Z</time>
      </trkpt>
      <trkpt lat="48.82741" lon="2.30641">
        <ele>53</ele>
        <time>2014-02-23T17:11:40Z</time>
      </trkpt>
      <trkpt lat="48.82736" lon="2.3065">
        <ele>56</ele>
        <time>2014-02-23T17:11:42Z</time>
      </trkpt>
      <trkpt lat="48.82731" lon="2.30658">
        <ele>60</ele>
        <time>2014-02-23T17:11:44Z</time>
      </trkpt>
      <trkpt lat="48.82723" lon="2.30665">
        <ele>62</ele>
        <time>2014-02-23T17:11:46Z</time>
      </trkpt>
      <trkpt lat="48.82718" lon="2.30671">
        <ele>55</ele>
        <time>2014-02-23T17:11:48Z</time>
      </trkpt>
      <trkpt lat="48.82713" lon="2.30681">
        <ele>54</ele>
        <time>2014-02-23T17:11:50Z</time>
      </trkpt>
      <trkpt lat="48.8271" lon="2.30687">
        <ele>52</ele>
        <time>2014-02-23T17:11:52Z</time>
      </trkpt>
      <trkpt lat="48.82702" lon="2.30711">
        <ele>49</ele>
        <time>2014-02-23T17:11:59Z</time>
      </trkpt>
      <trkpt lat="48.827" lon="2.30719">
        <ele>44</ele>
        <time>2014-02-23T17:12:01Z</time>
      </trkpt>
      <trkpt lat="48.82697" lon="2.30739">
        <ele>46</ele>
        <time>2014-02-23T17:12:05Z</time>
      </trkpt>
      <trkpt lat="48.82692" lon="2.30767">
        <ele>44</ele>
        <time>2014-02-23T17:12:13Z</time>
      </trkpt>
      <trkpt lat="48.82691" lon="2.30777">
        <ele>40</ele>
        <time>2014-02-23T17:12:15Z</time>
      </trkpt>
      <trkpt lat="48.82687" lon="2.30805">
        <ele>40</ele>
        <time>2014-02-23T17:12:21Z</time>
      </trkpt>
      <trkpt lat="48.82683" lon="2.30814">
        <ele>44</ele>
        <time>2014-02-23T17:12:23Z</time>
      </trkpt>
      <trkpt lat="48.82681" lon="2.30824">
        <ele>43</ele>
        <time>2014-02-23T17:12:25Z</time>
      </trkpt>
      <trkpt lat="48.8268" lon="2.30839">
        <ele>46</ele>
        <time>2014-02-23T17:12:28Z</time>
      </trkpt>
      <trkpt lat="48.82677" lon="2.3085">
        <ele>48</ele>
        <time>2014-02-23T17:12:30Z</time>
      </trkpt>
      <trkpt lat="48.82675" lon="2.30862">
        <ele>44</ele>
        <time>2014-02-23T17:12:32Z</time>
      </trkpt>
      <trkpt lat="48.82672" lon="2.30872">
        <ele>51</ele>
        <time>2014-02-23T17:12:34Z</time>
      </trkpt>
      <trkpt lat="48.82662" lon="2.30902">
        <ele>50</ele>
        <time>2014-02-23T17:12:39Z</time>
      </trkpt>
      <trkpt lat="48.82656" lon="2.30928">
        <ele>57</ele>
        <time>2014-02-23T17:12:43Z</time>
      </trkpt>
      <trkpt lat="48.82657" lon="2.30936">
        <ele>58</ele>
        <time>2014-02-23T17:12:44Z</time>
      </trkpt>
      <trkpt lat="48.82657" lon="2.30944">
        <ele>57</ele>
        <time>2014-02-23T17:12:45Z</time>
      </trkpt>
      <trkpt lat="48.82656" lon="2.30952">
        <ele>60</ele>
        <time>2014-02-23T17:12:46Z</time>
      </trkpt>
      <trkpt lat="48.82652" lon="2.3098">
        <ele>61</ele>
        <time>2014-02-23T17:12:50Z</time>
      </trkpt>
      <trkpt lat="48.82651" lon="2.30995">
        <ele>56</ele>
        <time>2014-02-23T17:12:52Z</time>
      </trkpt>
      <trkpt lat="48.82649" lon="2.31004">
        <ele>63</ele>
        <time>2014-02-23T17:12:54Z</time>
      </trkpt>
      <trkpt lat="48.8265" lon="2.31019">
        <ele>62</ele>
        <time>2014-02-23T17:12:56Z</time>
      </trkpt>
      <trkpt lat="48.82647" lon="2.31033">
        <ele>60</ele>
        <time>2014-02-23T17:12:58Z</time>
      </trkpt>
      <trkpt lat="48.82646" lon="2.31046">
        <ele>59</ele>
        <time>2014-02-23T17:13:00Z</time>
      </trkpt>
      <trkpt lat="48.82642" lon="2.31058">
        <ele>57</ele>
        <time>2014-02-23T17:13:02Z</time>
      </trkpt>
      <trkpt lat="48.8264" lon="2.31067">
        <ele>58</ele>
        <time>2014-02-23T17:13:04Z</time>
      </trkpt>
      <trkpt lat="48.82638" lon="2.31084">
        <ele>69</ele>
        <time>2014-02-23T17:13:08Z</time>
      </trkpt>
      <trkpt lat="48.82638" lon="2.31092">
        <ele>64</ele>
        <time>2014-02-23T17:13:10Z</time>
      </trkpt>
      <trkpt lat="48.82635" lon="2.31109">
        <ele>62</ele>
        <time>2014-02-23T17:13:14Z</time>
      </trkpt>
      <trkpt lat="48.82632" lon="2.31119">
        <ele>63</ele>
        <time>2014-02-23T17:13:16Z</time>
      </trkpt>
      <trkpt lat="48.82627" lon="2.31128">
        <ele>61</ele>
        <time>2014-02-23T17:13:18Z</time>
      </trkpt>
      <trkpt lat="48.82619" lon="2.31142">
        <ele>60</ele>
        <time>2014-02-23T17:13:21Z</time>
      </trkpt>
      <trkpt lat="48.82621" lon="2.31152">
        <ele>71</ele>
        <time>2014-02-23T17:13:23Z</time>
      </trkpt>
      <trkpt lat="48.82624" lon="2.31182">
        <ele>64</ele>
        <time>2014-02-23T17:13:29Z</time>
      </trkpt>
      <trkpt lat="48.82622" lon="2.31191">
        <ele>63</ele>
        <time>2014-02-23T17:13:31Z</time>
      </trkpt>
      <trkpt lat="48.82621" lon="2.31201">
        <ele>59</ele>
        <time>2014-02-23T17:13:33Z</time>
      </trkpt>
      <trkpt lat="48.82621" lon="2.31209">
        <ele>62</ele>
        <time>2014-02-23T17:13:35Z</time>
      </trkpt>
      <trkpt lat="48.8262" lon="2.31218">
        <ele>65</ele>
        <time>2014-02-23T17:13:37Z</time>
      </trkpt>
      <trkpt lat="48.82618" lon="2.31225">
        <ele>66</ele>
        <time>2014-02-23T17:13:39Z</time>
      </trkpt>
      <trkpt lat="48.82612" lon="2.31229">
        <ele>66</ele>
        <time>2014-02-23T17:13:41Z</time>
      </trkpt>
      <trkpt lat="48.826" lon="2.31241">
        <ele>63</ele>
        <time>2014-02-23T17:13:59Z</time>
      </trkpt>
      <trkpt lat="48.826" lon="2.31252">
        <ele>65</ele>
        <time>2014-02-23T17:14:02Z</time>
      </trkpt>
      <trkpt lat="48.82598" lon="2.31261">
        <ele>63</ele>
        <time>2014-02-23T17:14:04Z</time>
      </trkpt>
      <trkpt lat="48.82594" lon="2.3127">
        <ele>64</ele>
        <time>2014-02-23T17:14:06Z</time>
      </trkpt>
      <trkpt lat="48.8259" lon="2.31277">
        <ele>66</ele>
        <time>2014-02-23T17:14:09Z</time>
      </trkpt>
      <trkpt lat="48.82588" lon="2.31286">
        <ele>62</ele>
        <time>2014-02-23T17:14:11Z</time>
      </trkpt>
      <trkpt lat="48.82585" lon="2.313">
        <ele>62</ele>
        <time>2014-02-23T17:14:15Z</time>
      </trkpt>
      <trkpt lat="48.82582" lon="2.31308">
        <ele>63</ele>
        <time>2014-02-23T17:14:17Z</time>
      </trkpt>
      <trkpt lat="48.82579" lon="2.31323">
        <ele>63</ele>
        <time>2014-02-23T17:14:20Z</time>
      </trkpt>
      <trkpt lat="48.8258" lon="2.31334">
        <ele>62</ele>
        <time>2014-02-23T17:14:22Z</time>
      </trkpt>
      <trkpt lat="48.82585" lon="2.31354">
        <ele>63</ele>
        <time>2014-02-23T17:14:26Z</time>
      </trkpt>
      <trkpt lat="48.82587" lon="2.31368">
        <ele>61</ele>
        <time>2014-02-23T17:14:29Z</time>
      </trkpt>
      <trkpt lat="48.82582" lon="2.31378">
        <ele>65</ele>
        <time>2014-02-23T17:14:31Z</time>
      </trkpt>
      <trkpt lat="48.82579" lon="2.31388">
        <ele>64</ele>
        <time>2014-02-23T17:14:33Z</time>
      </trkpt>
      <trkpt lat="48.82575" lon="2.31396">
        <ele>64</ele>
        <time>2014-02-23T17:14:35Z</time>
      </trkpt>
      <trkpt lat="48.82571" lon="2.3141">
        <ele>61</ele>
        <time>2014-02-23T17:14:39Z</time>
      </trkpt>
      <trkpt lat="48.8257" lon="2.31419">
        <ele>58</ele>
        <time>2014-02-23T17:14:42Z</time>
      </trkpt>
      <trkpt lat="48.82567" lon="2.31425">
        <ele>60</ele>
        <time>2014-02-23T17:14:44Z</time>
      </trkpt>
      <trkpt lat="48.82557" lon="2.31453">
        <ele>63</ele>
        <time>2014-02-23T17:14:51Z</time>
      </trkpt>
      <trkpt lat="48.82555" lon="2.31463">
        <ele>64</ele>
        <time>2014-02-23T17:14:53Z</time>
      </trkpt>
      <trkpt lat="48.82552" lon="2.3147">
        <ele>61</ele>
        <time>2014-02-23T17:14:55Z</time>
      </trkpt>
      <trkpt lat="48.82546" lon="2.31484">
        <ele>59</ele>
        <time>2014-02-23T17:14:58Z</time>
      </trkpt>
      <trkpt lat="48.8254" lon="2.31504">
        <ele>61</ele>
        <time>2014-02-23T17:15:02Z</time>
      </trkpt>
      <trkpt lat="48.82538" lon="2.31514">
        <ele>61</ele>
        <time>2014-02-23T17:15:05Z</time>
      </trkpt>
      <trkpt lat="48.82532" lon="2.31542">
        <ele>54</ele>
        <time>2014-02-23T17:15:12Z</time>
      </trkpt>
      <trkpt lat="48.8253" lon="2.31553">
        <ele>57</ele>
        <time>2014-02-23T17:15:14Z</time>
      </trkpt>
      <trkpt lat="48.82527" lon="2.31584">
        <ele>61</ele>
        <time>2014-02-23T17:15:20Z</time>
      </trkpt>
      <trkpt lat="48.82524" lon="2.31594">
        <ele>61</ele>
        <time>2014-02-23T17:15:23Z</time>
      </trkpt>
      <trkpt lat="48.82521" lon="2.31602">
        <ele>60</ele>
        <time>2014-02-23T17:15:25Z</time>
      </trkpt>
      <trkpt lat="48.825" lon="2.31651">
        <ele>51</ele>
        <time>2014-02-23T17:15:37Z</time>
      </trkpt>
      <trkpt lat="48.82498" lon="2.31662">
        <ele>57</ele>
        <time>2014-02-23T17:15:40Z</time>
      </trkpt>
      <trkpt lat="48.82494" lon="2.3167">
        <ele>64</ele>
        <time>2014-02-23T17:15:43Z</time>
      </trkpt>
      <trkpt lat="48.82496" lon="2.31683">
        <ele>65</ele>
        <time>2014-02-23T17:15:47Z</time>
      </trkpt>
      <trkpt lat="48.82497" lon="2.31693">
        <ele>59</ele>
        <time>2014-02-23T17:15:49Z</time>
      </trkpt>
      <trkpt lat="48.82496" lon="2.31702">
        <ele>61</ele>
        <time>2014-02-23T17:15:51Z</time>
      </trkpt>
      <trkpt lat="48.82493" lon="2.3172">
        <ele>73</ele>
        <time>2014-02-23T17:15:55Z</time>
      </trkpt>
      <trkpt lat="48.82491" lon="2.31728">
        <ele>67</ele>
        <time>2014-02-23T17:15:57Z</time>
      </trkpt>
      <trkpt lat="48.82484" lon="2.3176">
        <ele>63</ele>
        <time>2014-02-23T17:16:04Z</time>
      </trkpt>
      <trkpt lat="48.82483" lon="2.31768">
        <ele>64</ele>
        <time>2014-02-23T17:16:06Z</time>
      </trkpt>
      <trkpt lat="48.82481" lon="2.31776">
        <ele>59</ele>
        <time>2014-02-23T17:16:08Z</time>
      </trkpt>
      <trkpt lat="48.82479" lon="2.31783">
        <ele>65</ele>
        <time>2014-02-23T17:16:10Z</time>
      </trkpt>
      <trkpt lat="48.82476" lon="2.31794">
        <ele>63</ele>
        <time>2014-02-23T17:16:13Z</time>
      </trkpt>
      <trkpt lat="48.82473" lon="2.31801">
        <ele>65</ele>
        <time>2014-02-23T17:16:15Z</time>
      </trkpt>
      <trkpt lat="48.82472" lon="2.31809">
        <ele>64</ele>
        <time>2014-02-23T17:16:17Z</time>
      </trkpt>
      <trkpt lat="48.82471" lon="2.31816">
        <ele>57</ele>
        <time>2014-02-23T17:16:19Z</time>
      </trkpt>
      <trkpt lat="48.82468" lon="2.31827">
        <ele>62</ele>
        <time>2014-02-23T17:16:25Z</time>
      </trkpt>
      <trkpt lat="48.82466" lon="2.31835">
        <ele>63</ele>
        <time>2014-02-23T17:16:28Z</time>
      </trkpt>
      <trkpt lat="48.82465" lon="2.31846">
        <ele>65</ele>
        <time>2014-02-23T17:16:31Z</time>
      </trkpt>
      <trkpt lat="48.82463" lon="2.31858">
        <ele>64</ele>
        <time>2014-02-23T17:16:34Z</time>
      </trkpt>
      <trkpt lat="48.82458" lon="2.31889">
        <ele>68</ele>
        <time>2014-02-23T17:16:39Z</time>
      </trkpt>
      <trkpt lat="48.82456" lon="2.3192">
        <ele>66</ele>
        <time>2014-02-23T17:16:48Z</time>
      </trkpt>
      <trkpt lat="48.82457" lon="2.31929">
        <ele>66</ele>
        <time>2014-02-23T17:16:51Z</time>
      </trkpt>
      <trkpt lat="48.8246" lon="2.31938">
        <ele>61</ele>
        <time>2014-02-23T17:16:56Z</time>
      </trkpt>
      <trkpt lat="48.82461" lon="2.31942">
        <ele>63</ele>
        <time>2014-02-23T17:16:58Z</time>
      </trkpt>
      <trkpt lat="48.82465" lon="2.31954">
        <ele>65</ele>
        <time>2014-02-23T17:17:04Z</time>
      </trkpt>
      <trkpt lat="48.82464" lon="2.31961">
        <ele>62</ele>
        <time>2014-02-23T17:17:06Z</time>
      </trkpt>
      <trkpt lat="48.82465" lon="2.31964">
        <ele>62</ele>
        <time>2014-02-23T17:17:07Z</time>
      </trkpt>
      <trkpt lat="48.82465" lon="2.31971">
        <ele>61</ele>
        <time>2014-02-23T17:17:09Z</time>
      </trkpt>
      <trkpt lat="48.82463" lon="2.31984">
        <ele>60</ele>
        <time>2014-02-23T17:17:12Z</time>
      </trkpt>
      <trkpt lat="48.82462" lon="2.31991">
        <ele>64</ele>
        <time>2014-02-23T17:17:14Z</time>
      </trkpt>
      <trkpt lat="48.82454" lon="2.32019">
        <ele>65</ele>
        <time>2014-02-23T17:17:21Z</time>
      </trkpt>
      <trkpt lat="48.82448" lon="2.32035">
        <ele>65</ele>
        <time>2014-02-23T17:17:25Z</time>
      </trkpt>
      <trkpt lat="48.82443" lon="2.32045">
        <ele>66</ele>
        <time>2014-02-23T17:17:27Z</time>
      </trkpt>
      <trkpt lat="48.82442" lon="2.32053">
        <ele>71</ele>
        <time>2014-02-23T17:17:29Z</time>
      </trkpt>
      <trkpt lat="48.82441" lon="2.32062">
        <ele>70</ele>
        <time>2014-02-23T17:17:31Z</time>
      </trkpt>
      <trkpt lat="48.82438" lon="2.32071">
        <ele>68</ele>
        <time>2014-02-23T17:17:33Z</time>
      </trkpt>
      <trkpt lat="48.82434" lon="2.3208">
        <ele>66</ele>
        <time>2014-02-23T17:17:35Z</time>
      </trkpt>
      <trkpt lat="48.82431" lon="2.32092">
        <ele>62</ele>
        <time>2014-02-23T17:17:37Z</time>
      </trkpt>
      <trkpt lat="48.82429" lon="2.32104">
        <ele>60</ele>
        <time>2014-02-23T17:17:39Z</time>
      </trkpt>
      <trkpt lat="48.82425" lon="2.32119">
        <ele>64</ele>
        <time>2014-02-23T17:17:43Z</time>
      </trkpt>
      <trkpt lat="48.8242" lon="2.32124">
        <ele>63</ele>
        <time>2014-02-23T17:17:45Z</time>
      </trkpt>
      <trkpt lat="48.82413" lon="2.32127">
        <ele>62</ele>
        <time>2014-02-23T17:17:47Z</time>
      </trkpt>
      <trkpt lat="48.82399" lon="2.32136">
        <ele>60</ele>
        <time>2014-02-23T17:17:51Z</time>
      </trkpt>
      <trkpt lat="48.82398" lon="2.32149">
        <ele>65</ele>
        <time>2014-02-23T17:17:53Z</time>
      </trkpt>
      <trkpt lat="48.82399" lon="2.32162">
        <ele>66</ele>
        <time>2014-02-23T17:17:55Z</time>
      </trkpt>
      <trkpt lat="48.82399" lon="2.32184">
        <ele>60</ele>
        <time>2014-02-23T17:17:59Z</time>
      </trkpt>
      <trkpt lat="48.82398" lon="2.32194">
        <ele>64</ele>
        <time>2014-02-23T17:18:01Z</time>
      </trkpt>
      <trkpt lat="48.82395" lon="2.32206">
        <ele>65</ele>
        <time>2014-02-23T17:18:03Z</time>
      </trkpt>
      <trkpt lat="48.82391" lon="2.32217">
        <ele>64</ele>
        <time>2014-02-23T17:18:05Z</time>
      </trkpt>
      <trkpt lat="48.82383" lon="2.32236">
        <ele>60</ele>
        <time>2014-02-23T17:18:09Z</time>
      </trkpt>
      <trkpt lat="48.82374" lon="2.32264">
        <ele>64</ele>
        <time>2014-02-23T17:18:16Z</time>
      </trkpt>
      <trkpt lat="48.82373" lon="2.32272">
        <ele>64</ele>
        <time>2014-02-23T17:18:18Z</time>
      </trkpt>
      <trkpt lat="48.82373" lon="2.3228">
        <ele>71</ele>
        <time>2014-02-23T17:18:20Z</time>
      </trkpt>
      <trkpt lat="48.82371" lon="2.32305">
        <ele>62</ele>
        <time>2014-02-23T17:18:25Z</time>
      </trkpt>
      <trkpt lat="48.8237" lon="2.32314">
        <ele>59</ele>
        <time>2014-02-23T17:18:27Z</time>
      </trkpt>
      <trkpt lat="48.82366" lon="2.32325">
        <ele>62</ele>
        <time>2014-02-23T17:18:30Z</time>
      </trkpt>
      <trkpt lat="48.82368" lon="2.32336">
        <ele>67</ele>
        <time>2014-02-23T17:18:32Z</time>
      </trkpt>
      <trkpt lat="48.8237" lon="2.32355">
        <ele>75</ele>
        <time>2014-02-23T17:18:37Z</time>
      </trkpt>
      <trkpt lat="48.8237" lon="2.32366">
        <ele>72</ele>
        <time>2014-02-23T17:18:40Z</time>
      </trkpt>
      <trkpt lat="48.82368" lon="2.32379">
        <ele>74</ele>
        <time>2014-02-23T17:18:43Z</time>
      </trkpt>
      <trkpt lat="48.82365" lon="2.32389">
        <ele>72</ele>
        <time>2014-02-23T17:18:46Z</time>
      </trkpt>
      <trkpt lat="48.82362" lon="2.32398">
        <ele>70</ele>
        <time>2014-02-23T17:18:48Z</time>
      </trkpt>
      <trkpt lat="48.82359" lon="2.32405">
        <ele>71</ele>
        <time>2014-02-23T17:18:50Z</time>
      </trkpt>
      <trkpt lat="48.82356" lon="2.32412">
        <ele>73</ele>
        <time>2014-02-23T17:18:52Z</time>
      </trkpt>
      <trkpt lat="48.82352" lon="2.32421">
        <ele>66</ele>
        <time>2014-02-23T17:18:54Z</time>
      </trkpt>
      <trkpt lat="48.82348" lon="2.32428">
        <ele>68</ele>
        <time>2014-02-23T17:18:56Z</time>
      </trkpt>
      <trkpt lat="48.82344" lon="2.32436">
        <ele>67</ele>
        <time>2014-02-23T17:18:58Z</time>
      </trkpt>
      <trkpt lat="48.82342" lon="2.32446">
        <ele>62</ele>
        <time>2014-02-23T17:19:00Z</time>
      </trkpt>
      <trkpt lat="48.82343" lon="2.32456">
        <ele>65</ele>
        <time>2014-02-23T17:19:02Z</time>
      </trkpt>
      <trkpt lat="48.82344" lon="2.32466">
        <ele>60</ele>
        <time>2014-02-23T17:19:04Z</time>
      </trkpt>
      <trkpt lat="48.82344" lon="2.32482">
        <ele>62</ele>
        <time>2014-02-23T17:19:09Z</time>
      </trkpt>
      <trkpt lat="48.82343" lon="2.32491">
        <ele>64</ele>
        <time>2014-02-23T17:19:12Z</time>
      </trkpt>
      <trkpt lat="48.82341" lon="2.32499">
        <ele>64</ele>
        <time>2014-02-23T17:19:14Z</time>
      </trkpt>
      <trkpt lat="48.82341" lon="2.32507">
        <ele>62</ele>
        <time>2014-02-23T17:19:16Z</time>
      </trkpt>
      <trkpt lat="48.82341" lon="2.32515">
        <ele>63</ele>
        <time>2014-02-23T17:19:18Z</time>
      </trkpt>
      <trkpt lat="48.82339" lon="2.32524">
        <ele>67</ele>
        <time>2014-02-23T17:19:22Z</time>
      </trkpt>
      <trkpt lat="48.82338" lon="2.32532">
        <ele>63</ele>
        <time>2014-02-23T17:19:25Z</time>
      </trkpt>
      <trkpt lat="48.8234" lon="2.32539">
        <ele>61</ele>
        <time>2014-02-23T17:19:28Z</time>
      </trkpt>
      <trkpt lat="48.82337" lon="2.32551">
        <ele>63</ele>
        <time>2014-02-23T17:19:31Z</time>
      </trkpt>
      <trkpt lat="48.82338" lon="2.3256">
        <ele>63</ele>
        <time>2014-02-23T17:19:34Z</time>
      </trkpt>
      <trkpt lat="48.82336" lon="2.32568">
        <ele>65</ele>
        <time>2014-02-23T17:19:38Z</time>
      </trkpt>
      <trkpt lat="48.8234" lon="2.32575">
        <ele>61</ele>
        <time>2014-02-23T17:19:42Z</time>
      </trkpt>
      <trkpt lat="48.82346" lon="2.32577">
        <ele>63</ele>
        <time>2014-02-23T17:19:44Z</time>
      </trkpt>
      <trkpt lat="48.82351" lon="2.3258">
        <ele>66</ele>
        <time>2014-02-23T17:19:46Z</time>
      </trkpt>
      <trkpt lat="48.82369" lon="2.32592">
        <ele>70</ele>
        <time>2014-02-23T17:19:53Z</time>
      </trkpt>
      <trkpt lat="48.82376" lon="2.32597">
        <ele>69</ele>
        <time>2014-02-23T17:19:55Z</time>
      </trkpt>
      <trkpt lat="48.82381" lon="2.32598">
        <ele>69</ele>
        <time>2014-02-23T17:19:57Z</time>
      </trkpt>
      <trkpt lat="48.82389" lon="2.32599">
        <ele>68</ele>
        <time>2014-02-23T17:19:59Z</time>
      </trkpt>
      <trkpt lat="48.82408" lon="2.32599">
        <ele>66</ele>
        <time>2014-02-23T17:20:06Z</time>
      </trkpt>
      <trkpt lat="48.82417" lon="2.32597">
        <ele>67</ele>
        <time>2014-02-23T17:20:09Z</time>
      </trkpt>
      <trkpt lat="48.82435" lon="2.32592">
        <ele>66</ele>
        <time>2014-02-23T17:20:16Z</time>
      </trkpt>
      <trkpt lat="48.82441" lon="2.32593">
        <ele>76</ele>
        <time>2014-02-23T17:20:18Z</time>
      </trkpt>
      <trkpt lat="48.82446" lon="2.32597">
        <ele>83</ele>
        <time>2014-02-23T17:20:20Z</time>
      </trkpt>
      <trkpt lat="48.82451" lon="2.32602">
        <ele>76</ele>
        <time>2014-02-23T17:20:21Z</time>
      </trkpt>
      <trkpt lat="48.82457" lon="2.32604">
        <ele>66</ele>
        <time>2014-02-23T17:20:22Z</time>
      </trkpt>
      <trkpt lat="48.82462" lon="2.32605">
        <ele>64</ele>
        <time>2014-02-23T17:20:23Z</time>
      </trkpt>
      <trkpt lat="48.82483" lon="2.32613">
        <ele>57</ele>
        <time>2014-02-23T17:20:27Z</time>
      </trkpt>
      <trkpt lat="48.82488" lon="2.32615">
        <ele>56</ele>
        <time>2014-02-23T17:20:29Z</time>
      </trkpt>
      <trkpt lat="48.82495" lon="2.32616">
        <ele>65</ele>
        <time>2014-02-23T17:20:35Z</time>
      </trkpt>
      <trkpt lat="48.82514" lon="2.32613">
        <ele>69</ele>
        <time>2014-02-23T17:20:50Z</time>
      </trkpt>
      <trkpt lat="48.82521" lon="2.32602">
        <ele>69</ele>
        <time>2014-02-23T17:20:53Z</time>
      </trkpt>
      <trkpt lat="48.82526" lon="2.32595">
        <ele>68</ele>
        <time>2014-02-23T17:20:56Z</time>
      </trkpt>
      <trkpt lat="48.82534" lon="2.3259">
        <ele>70</ele>
        <time>2014-02-23T17:21:09Z</time>
      </trkpt>
      <trkpt lat="48.82544" lon="2.32592">
        <ele>73</ele>
        <time>2014-02-23T17:21:11Z</time>
      </trkpt>
      <trkpt lat="48.82624" lon="2.32612">
        <ele>76</ele>
        <time>2014-02-23T17:21:27Z</time>
      </trkpt>
      <trkpt lat="48.82629" lon="2.32617">
        <ele>75</ele>
        <time>2014-02-23T17:21:30Z</time>
      </trkpt>
      <trkpt lat="48.82632" lon="2.32625">
        <ele>77</ele>
        <time>2014-02-23T17:21:32Z</time>
      </trkpt>
      <trkpt lat="48.8264" lon="2.32631">
        <ele>78</ele>
        <time>2014-02-23T17:21:37Z</time>
      </trkpt>
      <trkpt lat="48.82645" lon="2.32632">
        <ele>76</ele>
        <time>2014-02-23T17:21:39Z</time>
      </trkpt>
      <trkpt lat="48.82654" lon="2.32641">
        <ele>75</ele>
        <time>2014-02-23T17:21:44Z</time>
      </trkpt>
      <trkpt lat="48.82664" lon="2.32647">
        <ele>73</ele>
        <time>2014-02-23T17:21:52Z</time>
      </trkpt>
      <trkpt lat="48.82678" lon="2.32658">
        <ele>66</ele>
        <time>2014-02-23T17:21:55Z</time>
      </trkpt>
      <trkpt lat="48.82685" lon="2.32662">
        <ele>66</ele>
        <time>2014-02-23T17:21:58Z</time>
      </trkpt>
      <trkpt lat="48.82692" lon="2.32664">
        <ele>73</ele>
        <time>2014-02-23T17:22:02Z</time>
      </trkpt>
      <trkpt lat="48.82703" lon="2.32663">
        <ele>68</ele>
        <time>2014-02-23T17:22:04Z</time>
      </trkpt>
      <trkpt lat="48.82722" lon="2.32663">
        <ele>64</ele>
        <time>2014-02-23T17:22:08Z</time>
      </trkpt>
      <trkpt lat="48.82728" lon="2.32661">
        <ele>65</ele>
        <time>2014-02-23T17:22:10Z</time>
      </trkpt>
      <trkpt lat="48.82733" lon="2.3266">
        <ele>67</ele>
        <time>2014-02-23T17:22:12Z</time>
      </trkpt>
      <trkpt lat="48.82738" lon="2.32661">
        <ele>67</ele>
        <time>2014-02-23T17:22:14Z</time>
      </trkpt>
      <trkpt lat="48.82745" lon="2.32663">
        <ele>67</ele>
        <time>2014-02-23T17:22:17Z</time>
      </trkpt>
      <trkpt lat="48.8275" lon="2.32667">
        <ele>68</ele>
        <time>2014-02-23T17:22:21Z</time>
      </trkpt>
      <trkpt lat="48.82757" lon="2.32674">
        <ele>54</ele>
        <time>2014-02-23T17:22:24Z</time>
      </trkpt>
      <trkpt lat="48.82761" lon="2.32681">
        <ele>50</ele>
        <time>2014-02-23T17:22:25Z</time>
      </trkpt>
      <trkpt lat="48.82769" lon="2.32692">
        <ele>48</ele>
        <time>2014-02-23T17:22:28Z</time>
      </trkpt>
      <trkpt lat="48.82772" lon="2.32698">
        <ele>50</ele>
        <time>2014-02-23T17:22:30Z</time>
      </trkpt>
      <trkpt lat="48.82787" lon="2.32717">
        <ele>47</ele>
        <time>2014-02-23T17:22:39Z</time>
      </trkpt>
      <trkpt lat="48.82795" lon="2.3272">
        <ele>51</ele>
        <time>2014-02-23T17:22:49Z</time>
      </trkpt>
      <trkpt lat="48.82791" lon="2.32714">
        <ele>45</ele>
        <time>2014-02-23T17:22:52Z</time>
      </trkpt>
      <trkpt lat="48.82781" lon="2.32713">
        <ele>46</ele>
        <time>2014-02-23T17:22:58Z</time>
      </trkpt>
      <trkpt lat="48.82783" lon="2.32722">
        <ele>49</ele>
        <time>2014-02-23T17:23:03Z</time>
      </trkpt>
      <trkpt lat="48.82788" lon="2.32719">
        <ele>51</ele>
        <time>2014-02-23T17:23:10Z</time>
      </trkpt>
      <trkpt lat="48.82794" lon="2.32713">
        <ele>50</ele>
        <time>2014-02-23T17:23:19Z</time>
      </trkpt>
      <trkpt lat="48.82802" lon="2.32713">
        <ele>54</ele>
        <time>2014-02-23T17:23:27Z</time>
      </trkpt>
      <trkpt lat="48.8281" lon="2.32716">
        <ele>52</ele>
        <time>2014-02-23T17:23:29Z</time>
      </trkpt>
      <trkpt lat="48.82815" lon="2.32721">
        <ele>52</ele>
        <time>2014-02-23T17:23:30Z</time>
      </trkpt>
      <trkpt lat="48.82833" lon="2.32736">
        <ele>49</ele>
        <time>2014-02-23T17:23:36Z</time>
      </trkpt>
      <trkpt lat="48.8284" lon="2.32741">
        <ele>48</ele>
        <time>2014-02-23T17:23:39Z</time>
      </trkpt>
      <trkpt lat="48.82845" lon="2.32743">
        <ele>49</ele>
        <time>2014-02-23T17:23:41Z</time>
      </trkpt>
      <trkpt lat="48.82858" lon="2.32753">
        <ele>47</ele>
        <time>2014-02-23T17:23:50Z</time>
      </trkpt>
      <trkpt lat="48.82862" lon="2.3276">
        <ele>49</ele>
        <time>2014-02-23T17:23:51Z</time>
      </trkpt>
      <trkpt lat="48.82876" lon="2.32786">
        <ele>49</ele>
        <time>2014-02-23T17:23:55Z</time>
      </trkpt>
      <trkpt lat="48.82886" lon="2.32802">
        <ele>54</ele>
        <time>2014-02-23T17:23:59Z</time>
      </trkpt>
      <trkpt lat="48.82892" lon="2.32808">
        <ele>50</ele>
        <time>2014-02-23T17:24:02Z</time>
      </trkpt>
      <trkpt lat="48.82898" lon="2.32811">
        <ele>47</ele>
        <time>2014-02-23T17:24:04Z</time>
      </trkpt>
      <trkpt lat="48.82917" lon="2.32822">
        <ele>48</ele>
        <time>2014-02-23T17:24:13Z</time>
      </trkpt>
      <trkpt lat="48.82922" lon="2.32827">
        <ele>49</ele>
        <time>2014-02-23T17:24:16Z</time>
      </trkpt>
      <trkpt lat="48.82931" lon="2.32833">
        <ele>49</ele>
        <time>2014-02-23T17:24:20Z</time>
      </trkpt>
      <trkpt lat="48.82938" lon="2.32839">
        <ele>47</ele>
        <time>2014-02-23T17:24:24Z</time>
      </trkpt>
      <trkpt lat="48.82947" lon="2.32849">
        <ele>49</ele>
        <time>2014-02-23T17:24:29Z</time>
      </trkpt>
      <trkpt lat="48.82949" lon="2.32856">
        <ele>52</ele>
        <time>2014-02-23T17:24:38Z</time>
      </trkpt>
      <trkpt lat="48.82954" lon="2.32862">
        <ele>50</ele>
        <time>2014-02-23T17:24:41Z</time>
      </trkpt>
      <trkpt lat="48.8296" lon="2.32866">
        <ele>49</ele>
        <time>2014-02-23T17:24:43Z</time>
      </trkpt>
      <trkpt lat="48.8298" lon="2.3288">
        <ele>53</ele>
        <time>2014-02-23T17:24:48Z</time>
      </trkpt>
      <trkpt lat="48.82989" lon="2.32887">
        <ele>51</ele>
        <time>2014-02-23T17:24:50Z</time>
      </trkpt>
      <trkpt lat="48.82996" lon="2.32892">
        <ele>48</ele>
        <time>2014-02-23T17:24:52Z</time>
      </trkpt>
      <trkpt lat="48.83002" lon="2.32895">
        <ele>47</ele>
        <time>2014-02-23T17:24:54Z</time>
      </trkpt>
      <trkpt lat="48.8302" lon="2.32903">
        <ele>52</ele>
        <time>2014-02-23T17:25:00Z</time>
      </trkpt>
      <trkpt lat="48.83026" lon="2.32907">
        <ele>55</ele>
        <time>2014-02-23T17:25:03Z</time>
      </trkpt>
      <trkpt lat="48.83031" lon="2.3291">
        <ele>54</ele>
        <time>2014-02-23T17:25:05Z</time>
      </trkpt>
      <trkpt lat="48.83038" lon="2.32911">
        <ele>51</ele>
        <time>2014-02-23T17:25:07Z</time>
      </trkpt>
      <trkpt lat="48.83045" lon="2.32916">
        <ele>56</ele>
        <time>2014-02-23T17:25:10Z</time>
      </trkpt>
      <trkpt lat="48.83049" lon="2.32919">
        <ele>48</ele>
        <time>2014-02-23T17:25:12Z</time>
      </trkpt>
      <trkpt lat="48.83056" lon="2.32927">
        <ele>48</ele>
        <time>2014-02-23T17:25:15Z</time>
      </trkpt>
      <trkpt lat="48.83062" lon="2.32931">
        <ele>47</ele>
        <time>2014-02-23T17:25:18Z</time>
      </trkpt>
      <trkpt lat="48.83075" lon="2.32939">
        <ele>48</ele>
        <time>2014-02-23T17:25:25Z</time>
      </trkpt>
      <trkpt lat="48.83081" lon="2.32941">
        <ele>50</ele>
        <time>2014-02-23T17:25:28Z</time>
      </trkpt>
      <trkpt lat="48.83087" lon="2.32945">
        <ele>53</ele>
        <time>2014-02-23T17:25:31Z</time>
      </trkpt>
      <trkpt lat="48.83102" lon="2.32958">
        <ele>48</ele>
        <time>2014-02-23T17:25:38Z</time>
      </trkpt>
      <trkpt lat="48.83111" lon="2.32968">
        <ele>54</ele>
        <time>2014-02-23T17:25:41Z</time>
      </trkpt>
      <trkpt lat="48.83116" lon="2.32976">
        <ele>50</ele>
        <time>2014-02-23T17:25:43Z</time>
      </trkpt>
      <trkpt lat="48.83127" lon="2.3299">
        <ele>51</ele>
        <time>2014-02-23T17:25:47Z</time>
      </trkpt>
      <trkpt lat="48.83134" lon="2.32997">
        <ele>50</ele>
        <time>2014-02-23T17:25:49Z</time>
      </trkpt>
      <trkpt lat="48.83143" lon="2.33003">
        <ele>48</ele>
        <time>2014-02-23T17:25:52Z</time>
      </trkpt>
      <trkpt lat="48.83149" lon="2.33006">
        <ele>48</ele>
        <time>2014-02-23T17:25:54Z</time>
      </trkpt>
      <trkpt lat="48.83154" lon="2.33008">
        <ele>50</ele>
        <time>2014-02-23T17:25:56Z</time>
      </trkpt>
      <trkpt lat="48.83161" lon="2.33012">
        <ele>48</ele>
        <time>2014-02-23T17:25:59Z</time>
      </trkpt>
      <trkpt lat="48.83169" lon="2.33022">
        <ele>50</ele>
        <time>2014-02-23T17:26:03Z</time>
      </trkpt>
      <trkpt lat="48.83175" lon="2.33032">
        <ele>47</ele>
        <time>2014-02-23T17:26:05Z</time>
      </trkpt>
      <trkpt lat="48.83191" lon="2.33055">
        <ele>50</ele>
        <time>2014-02-23T17:26:09Z</time>
      </trkpt>
      <trkpt lat="48.83197" lon="2.33061">
        <ele>48</ele>
        <time>2014-02-23T17:26:11Z</time>
      </trkpt>
      <trkpt lat="48.83204" lon="2.33067">
        <ele>47</ele>
        <time>2014-02-23T17:26:13Z</time>
      </trkpt>
      <trkpt lat="48.83218" lon="2.33075">
        <ele>48</ele>
        <time>2014-02-23T17:26:17Z</time>
      </trkpt>
      <trkpt lat="48.83224" lon="2.33081">
        <ele>46</ele>
        <time>2014-02-23T17:26:19Z</time>
      </trkpt>
      <trkpt lat="48.83242" lon="2.33098">
        <ele>47</ele>
        <time>2014-02-23T17:26:25Z</time>
      </trkpt>
      <trkpt lat="48.83247" lon="2.33105">
        <ele>46</ele>
        <time>2014-02-23T17:26:27Z</time>
      </trkpt>
      <trkpt lat="48.83252" lon="2.33109">
        <ele>45</ele>
        <time>2014-02-23T17:26:29Z</time>
      </trkpt>
      <trkpt lat="48.83259" lon="2.33113">
        <ele>44</ele>
        <time>2014-02-23T17:26:32Z</time>
      </trkpt>
      <trkpt lat="48.83278" lon="2.33121">
        <ele>46</ele>
        <time>2014-02-23T17:26:42Z</time>
      </trkpt>
      <trkpt lat="48.83281" lon="2.33127">
        <ele>49</ele>
        <time>2014-02-23T17:26:46Z</time>
      </trkpt>
      <trkpt lat="48.83286" lon="2.33132">
        <ele>48</ele>
        <time>2014-02-23T17:26:49Z</time>
      </trkpt>
      <trkpt lat="48.83292" lon="2.33133">
        <ele>45</ele>
        <time>2014-02-23T17:26:52Z</time>
      </trkpt>
      <trkpt lat="48.83299" lon="2.33137">
        <ele>47</ele>
        <time>2014-02-23T17:26:55Z</time>
      </trkpt>
      <trkpt lat="48.83308" lon="2.3314">
        <ele>48</ele>
        <time>2014-02-23T17:26:58Z</time>
      </trkpt>
      <trkpt lat="48.83321" lon="2.33147">
        <ele>53</ele>
        <time>2014-02-23T17:27:04Z</time>
      </trkpt>
      <trkpt lat="48.83328" lon="2.33154">
        <ele>49</ele>
        <time>2014-02-23T17:27:07Z</time>
      </trkpt>
      <trkpt lat="48.83345" lon="2.33175">
        <ele>44</ele>
        <time>2014-02-23T17:27:11Z</time>
      </trkpt>
      <trkpt lat="48.83349" lon="2.33182">
        <ele>44</ele>
        <time>2014-02-23T17:27:13Z</time>
      </trkpt>
      <trkpt lat="48.83354" lon="2.33188">
        <ele>44</ele>
        <time>2014-02-23T17:27:16Z</time>
      </trkpt>
      <trkpt lat="48.83355" lon="2.33197">
        <ele>50</ele>
        <time>2014-02-23T17:27:19Z</time>
      </trkpt>
      <trkpt lat="48.83353" lon="2.33209">
        <ele>54</ele>
        <time>2014-02-23T17:27:23Z</time>
      </trkpt>
      <trkpt lat="48.8335" lon="2.33215">
        <ele>55</ele>
        <time>2014-02-23T17:27:27Z</time>
      </trkpt>
      <trkpt lat="48.83345" lon="2.3323">
        <ele>47</ele>
        <time>2014-02-23T17:27:33Z</time>
      </trkpt>
      <trkpt lat="48.83342" lon="2.33241">
        <ele>46</ele>
        <time>2014-02-23T17:27:39Z</time>
      </trkpt>
      <trkpt lat="48.83337" lon="2.33248">
        <ele>46</ele>
        <time>2014-02-23T17:27:44Z</time>
      </trkpt>
      <trkpt lat="48.83336" lon="2.33249">
        <ele>48</ele>
        <time>2014-02-23T17:28:53Z</time>
      </trkpt>
      <trkpt lat="48.83334" lon="2.33254">
        <ele>47</ele>
        <time>2014-02-23T17:29:00Z</time>
      </trkpt>
      <trkpt lat="48.83331" lon="2.33254">
        <ele>49</ele>
        <time>2014-02-23T17:29:03Z</time>
      </trkpt>
      <trkpt lat="48.83324" lon="2.33259">
        <ele>46</ele>
        <time>2014-02-23T17:29:08Z</time>
      </trkpt>
      <trkpt lat="48.8332" lon="2.3326">
        <ele>42</ele>
        <time>2014-02-23T17:29:11Z</time>
      </trkpt>
      <trkpt lat="48.83313" lon="2.33264">
        <ele>43</ele>
        <time>2014-02-23T17:29:16Z</time>
      </trkpt>
      <trkpt lat="48.83308" lon="2.33265">
        <ele>42</ele>
        <time>2014-02-23T17:29:20Z</time>
      </trkpt>
      <trkpt lat="48.833" lon="2.33269">
        <ele>49</ele>
        <time>2014-02-23T17:29:25Z</time>
      </trkpt>
      <trkpt lat="48.83296" lon="2.33274">
        <ele>48</ele>
        <time>2014-02-23T17:29:28Z</time>
      </trkpt>
      <trkpt lat="48.83293" lon="2.3328">
        <ele>47</ele>
        <time>2014-02-23T17:29:33Z</time>
      </trkpt>
      <trkpt lat="48.83287" lon="2.33281">
        <ele>50</ele>
        <time>2014-02-23T17:29:37Z</time>
      </trkpt>
      <trkpt lat="48.83268" lon="2.33284">
        <ele>45</ele>
        <time>2014-02-23T17:29:47Z</time>
      </trkpt>
      <trkpt lat="48.8326" lon="2.33286">
        <ele>45</ele>
        <time>2014-02-23T17:29:50Z</time>
      </trkpt>
      <trkpt lat="48.8325" lon="2.33291">
        <ele>47</ele>
        <time>2014-02-23T17:29:53Z</time>
      </trkpt>
      <trkpt lat="48.83242" lon="2.33296">
        <ele>46</ele>
        <time>2014-02-23T17:29:55Z</time>
      </trkpt>
      <trkpt lat="48.83236" lon="2.33303">
        <ele>50</ele>
        <time>2014-02-23T17:29:57Z</time>
      </trkpt>
      <trkpt lat="48.83227" lon="2.33308">
        <ele>56</ele>
        <time>2014-02-23T17:29:59Z</time>
      </trkpt>
      <trkpt lat="48.83221" lon="2.33313">
        <ele>58</ele>
        <time>2014-02-23T17:30:01Z</time>
      </trkpt>
      <trkpt lat="48.83213" lon="2.33315">
        <ele>56</ele>
        <time>2014-02-23T17:30:03Z</time>
      </trkpt>
      <trkpt lat="48.83199" lon="2.33322">
        <ele>59</ele>
        <time>2014-02-23T17:30:07Z</time>
      </trkpt>
      <trkpt lat="48.83194" lon="2.33327">
        <ele>59</ele>
        <time>2014-02-23T17:30:09Z</time>
      </trkpt>
      <trkpt lat="48.83188" lon="2.33331">
        <ele>58</ele>
        <time>2014-02-23T17:30:11Z</time>
      </trkpt>
      <trkpt lat="48.83181" lon="2.33332">
        <ele>60</ele>
        <time>2014-02-23T17:30:13Z</time>
      </trkpt>
      <trkpt lat="48.83175" lon="2.33336">
        <ele>59</ele>
        <time>2014-02-23T17:30:15Z</time>
      </trkpt>
      <trkpt lat="48.83156" lon="2.33348">
        <ele>63</ele>
        <time>2014-02-23T17:30:21Z</time>
      </trkpt>
      <trkpt lat="48.83149" lon="2.3335">
        <ele>66</ele>
        <time>2014-02-23T17:30:23Z</time>
      </trkpt>
      <trkpt lat="48.83142" lon="2.33355">
        <ele>70</ele>
        <time>2014-02-23T17:30:25Z</time>
      </trkpt>
      <trkpt lat="48.83137" lon="2.33356">
        <ele>69</ele>
        <time>2014-02-23T17:30:26Z</time>
      </trkpt>
      <trkpt lat="48.83126" lon="2.33358">
        <ele>70</ele>
        <time>2014-02-23T17:30:28Z</time>
      </trkpt>
      <trkpt lat="48.83107" lon="2.33362">
        <ele>77</ele>
        <time>2014-02-23T17:30:33Z</time>
      </trkpt>
      <trkpt lat="48.831" lon="2.33365">
        <ele>73</ele>
        <time>2014-02-23T17:30:35Z</time>
      </trkpt>
      <trkpt lat="48.83096" lon="2.33368">
        <ele>73</ele>
        <time>2014-02-23T17:30:36Z</time>
      </trkpt>
      <trkpt lat="48.83086" lon="2.33374">
        <ele>67</ele>
        <time>2014-02-23T17:30:39Z</time>
      </trkpt>
      <trkpt lat="48.83073" lon="2.33378">
        <ele>68</ele>
        <time>2014-02-23T17:30:43Z</time>
      </trkpt>
      <trkpt lat="48.83065" lon="2.33379">
        <ele>74</ele>
        <time>2014-02-23T17:30:45Z</time>
      </trkpt>
      <trkpt lat="48.83042" lon="2.33383">
        <ele>68</ele>
        <time>2014-02-23T17:30:50Z</time>
      </trkpt>
      <trkpt lat="48.83037" lon="2.33385">
        <ele>68</ele>
        <time>2014-02-23T17:30:51Z</time>
      </trkpt>
      <trkpt lat="48.83027" lon="2.33386">
        <ele>65</ele>
        <time>2014-02-23T17:30:54Z</time>
      </trkpt>
      <trkpt lat="48.83021" lon="2.33384">
        <ele>60</ele>
        <time>2014-02-23T17:30:57Z</time>
      </trkpt>
      <trkpt lat="48.83014" lon="2.33383">
        <ele>69</ele>
        <time>2014-02-23T17:31:01Z</time>
      </trkpt>
      <trkpt lat="48.83002" lon="2.33385">
        <ele>65</ele>
        <time>2014-02-23T17:31:04Z</time>
      </trkpt>
      <trkpt lat="48.82993" lon="2.33387">
        <ele>61</ele>
        <time>2014-02-23T17:31:06Z</time>
      </trkpt>
      <trkpt lat="48.82989" lon="2.33393">
        <ele>63</ele>
        <time>2014-02-23T17:31:08Z</time>
      </trkpt>
      <trkpt lat="48.82987" lon="2.33401">
        <ele>72</ele>
        <time>2014-02-23T17:31:11Z</time>
      </trkpt>
      <trkpt lat="48.82985" lon="2.3339">
        <ele>77</ele>
        <time>2014-02-23T17:31:29Z</time>
      </trkpt>
      <trkpt lat="48.82979" lon="2.33391">
        <ele>77</ele>
        <time>2014-02-23T17:31:37Z</time>
      </trkpt>
      <trkpt lat="48.82975" lon="2.33394">
        <ele>73</ele>
        <time>2014-02-23T17:31:40Z</time>
      </trkpt>
      <trkpt lat="48.82969" lon="2.33397">
        <ele>69</ele>
        <time>2014-02-23T17:31:43Z</time>
      </trkpt>
      <trkpt lat="48.82961" lon="2.33402">
        <ele>68</ele>
        <time>2014-02-23T17:31:47Z</time>
      </trkpt>
      <trkpt lat="48.82943" lon="2.33412">
        <ele>67</ele>
        <time>2014-02-23T17:31:53Z</time>
      </trkpt>
      <trkpt lat="48.82938" lon="2.33415">
        <ele>71</ele>
        <time>2014-02-23T17:31:55Z</time>
      </trkpt>
      <trkpt lat="48.82934" lon="2.33418">
        <ele>67</ele>
        <time>2014-02-23T17:31:57Z</time>
      </trkpt>
      <trkpt lat="48.82928" lon="2.33422">
        <ele>66</ele>
        <time>2014-02-23T17:31:59Z</time>
      </trkpt>
      <trkpt lat="48.82918" lon="2.33422">
        <ele>67</ele>
        <time>2014-02-23T17:32:01Z</time>
      </trkpt>
      <trkpt lat="48.8291" lon="2.33424">
        <ele>73</ele>
        <time>2014-02-23T17:32:03Z</time>
      </trkpt>
      <trkpt lat="48.82891" lon="2.3343">
        <ele>71</ele>
        <time>2014-02-23T17:32:07Z</time>
      </trkpt>
      <trkpt lat="48.82869" lon="2.33437">
        <ele>72</ele>
        <time>2014-02-23T17:32:12Z</time>
      </trkpt>
      <trkpt lat="48.82852" lon="2.33444">
        <ele>76</ele>
        <time>2014-02-23T17:32:16Z</time>
      </trkpt>
      <trkpt lat="48.82834" lon="2.33453">
        <ele>83</ele>
        <time>2014-02-23T17:32:20Z</time>
      </trkpt>
      <trkpt lat="48.82822" lon="2.33456">
        <ele>84</ele>
        <time>2014-02-23T17:32:23Z</time>
      </trkpt>
      <trkpt lat="48.82816" lon="2.33462">
        <ele>86</ele>
        <time>2014-02-23T17:32:25Z</time>
      </trkpt>
      <trkpt lat="48.82808" lon="2.33466">
        <ele>87</ele>
        <time>2014-02-23T17:32:27Z</time>
      </trkpt>
      <trkpt lat="48.82796" lon="2.33468">
        <ele>61</ele>
        <time>2014-02-23T17:32:30Z</time>
      </trkpt>
      <trkpt lat="48.82788" lon="2.33465">
        <ele>54</ele>
        <time>2014-02-23T17:32:32Z</time>
      </trkpt>
      <trkpt lat="48.82775" lon="2.33464">
        <ele>53</ele>
        <time>2014-02-23T17:32:35Z</time>
      </trkpt>
      <trkpt lat="48.82767" lon="2.33465">
        <ele>50</ele>
        <time>2014-02-23T17:32:37Z</time>
      </trkpt>
      <trkpt lat="48.82757" lon="2.33467">
        <ele>47</ele>
        <time>2014-02-23T17:32:41Z</time>
      </trkpt>
      <trkpt lat="48.82752" lon="2.33473">
        <ele>46</ele>
        <time>2014-02-23T17:32:43Z</time>
      </trkpt>
      <trkpt lat="48.82745" lon="2.33478">
        <ele>48</ele>
        <time>2014-02-23T17:32:46Z</time>
      </trkpt>
      <trkpt lat="48.8274" lon="2.33479">
        <ele>55</ele>
        <time>2014-02-23T17:32:48Z</time>
      </trkpt>
      <trkpt lat="48.8274" lon="2.33487">
        <ele>47</ele>
        <time>2014-02-23T17:32:56Z</time>
      </trkpt>
      <trkpt lat="48.82741" lon="2.33475">
        <ele>73</ele>
        <time>2014-02-23T17:33:09Z</time>
      </trkpt>
      <trkpt lat="48.82735" lon="2.33478">
        <ele>76</ele>
        <time>2014-02-23T17:33:20Z</time>
      </trkpt>
      <trkpt lat="48.8273" lon="2.33481">
        <ele>78</ele>
        <time>2014-02-23T17:33:23Z</time>
      </trkpt>
      <trkpt lat="48.82718" lon="2.33486">
        <ele>68</ele>
        <time>2014-02-23T17:33:28Z</time>
      </trkpt>
      <trkpt lat="48.82711" lon="2.3349">
        <ele>70</ele>
        <time>2014-02-23T17:33:31Z</time>
      </trkpt>
      <trkpt lat="48.82706" lon="2.33494">
        <ele>67</ele>
        <time>2014-02-23T17:33:34Z</time>
      </trkpt>
      <trkpt lat="48.82698" lon="2.33498">
        <ele>71</ele>
        <time>2014-02-23T17:33:37Z</time>
      </trkpt>
      <trkpt lat="48.82682" lon="2.33506">
        <ele>78</ele>
        <time>2014-02-23T17:33:42Z</time>
      </trkpt>
      <trkpt lat="48.82662" lon="2.33517">
        <ele>75</ele>
        <time>2014-02-23T17:33:48Z</time>
      </trkpt>
      <trkpt lat="48.82653" lon="2.33518">
        <ele>79</ele>
        <time>2014-02-23T17:33:50Z</time>
      </trkpt>
      <trkpt lat="48.82646" lon="2.3352">
        <ele>76</ele>
        <time>2014-02-23T17:33:52Z</time>
      </trkpt>
      <trkpt lat="48.82639" lon="2.33521">
        <ele>80</ele>
        <time>2014-02-23T17:33:54Z</time>
      </trkpt>
      <trkpt lat="48.8263" lon="2.33523">
        <ele>80</ele>
        <time>2014-02-23T17:33:56Z</time>
      </trkpt>
      <trkpt lat="48.82623" lon="2.33527">
        <ele>78</ele>
        <time>2014-02-23T17:33:58Z</time>
      </trkpt>
      <trkpt lat="48.82605" lon="2.33538">
        <ele>81</ele>
        <time>2014-02-23T17:34:03Z</time>
      </trkpt>
      <trkpt lat="48.82583" lon="2.33543">
        <ele>75</ele>
        <time>2014-02-23T17:34:08Z</time>
      </trkpt>
      <trkpt lat="48.82578" lon="2.33542">
        <ele>74</ele>
        <time>2014-02-23T17:34:09Z</time>
      </trkpt>
      <trkpt lat="48.82566" lon="2.33541">
        <ele>70</ele>
        <time>2014-02-23T17:34:12Z</time>
      </trkpt>
      <trkpt lat="48.82557" lon="2.33544">
        <ele>73</ele>
        <time>2014-02-23T17:34:14Z</time>
      </trkpt>
      <trkpt lat="48.82552" lon="2.33546">
        <ele>78</ele>
        <time>2014-02-23T17:34:15Z</time>
      </trkpt>
      <trkpt lat="48.82532" lon="2.33555">
        <ele>74</ele>
        <time>2014-02-23T17:34:20Z</time>
      </trkpt>
      <trkpt lat="48.82524" lon="2.33558">
        <ele>75</ele>
        <time>2014-02-23T17:34:22Z</time>
      </trkpt>
      <trkpt lat="48.82517" lon="2.33561">
        <ele>77</ele>
        <time>2014-02-23T17:34:24Z</time>
      </trkpt>
      <trkpt lat="48.82511" lon="2.33565">
        <ele>76</ele>
        <time>2014-02-23T17:34:26Z</time>
      </trkpt>
      <trkpt lat="48.82474" lon="2.33587">
        <ele>59</ele>
        <time>2014-02-23T17:34:38Z</time>
      </trkpt>
      <trkpt lat="48.82467" lon="2.33589">
        <ele>57</ele>
        <time>2014-02-23T17:34:40Z</time>
      </trkpt>
      <trkpt lat="48.82462" lon="2.33591">
        <ele>63</ele>
        <time>2014-02-23T17:34:42Z</time>
      </trkpt>
      <trkpt lat="48.82454" lon="2.33596">
        <ele>60</ele>
        <time>2014-02-23T17:34:46Z</time>
      </trkpt>
      <trkpt lat="48.82448" lon="2.33601">
        <ele>56</ele>
        <time>2014-02-23T17:34:49Z</time>
      </trkpt>
      <trkpt lat="48.82443" lon="2.33603">
        <ele>62</ele>
        <time>2014-02-23T17:34:51Z</time>
      </trkpt>
      <trkpt lat="48.82437" lon="2.33605">
        <ele>62</ele>
        <time>2014-02-23T17:34:54Z</time>
      </trkpt>
      <trkpt lat="48.82431" lon="2.33605">
        <ele>65</ele>
        <time>2014-02-23T17:34:58Z</time>
      </trkpt>
      <trkpt lat="48.82431" lon="2.33614">
        <ele>65</ele>
        <time>2014-02-23T17:35:05Z</time>
      </trkpt>
      <trkpt lat="48.82431" lon="2.33629">
        <ele>58</ele>
        <time>2014-02-23T17:35:09Z</time>
      </trkpt>
      <trkpt lat="48.8243" lon="2.33639">
        <ele>65</ele>
        <time>2014-02-23T17:35:19Z</time>
      </trkpt>
      <trkpt lat="48.82429" lon="2.33644">
        <ele>78</ele>
        <time>2014-02-23T17:35:30Z</time>
      </trkpt>
      <trkpt lat="48.82424" lon="2.33637">
        <ele>65</ele>
        <time>2014-02-23T17:37:29Z</time>
      </trkpt>
      <trkpt lat="48.82419" lon="2.33637">
        <ele>65</ele>
        <time>2014-02-23T17:37:32Z</time>
      </trkpt>
      <trkpt lat="48.82415" lon="2.33645">
        <ele>67</ele>
        <time>2014-02-23T17:37:36Z</time>
      </trkpt>
      <trkpt lat="48.82415" lon="2.33653">
        <ele>62</ele>
        <time>2014-02-23T17:37:38Z</time>
      </trkpt>
      <trkpt lat="48.82417" lon="2.33664">
        <ele>62</ele>
        <time>2014-02-23T17:37:40Z</time>
      </trkpt>
      <trkpt lat="48.82417" lon="2.33673">
        <ele>57</ele>
        <time>2014-02-23T17:37:42Z</time>
      </trkpt>
      <trkpt lat="48.82418" lon="2.33684">
        <ele>54</ele>
        <time>2014-02-23T17:37:44Z</time>
      </trkpt>
      <trkpt lat="48.82421" lon="2.33695">
        <ele>47</ele>
        <time>2014-02-23T17:37:46Z</time>
      </trkpt>
      <trkpt lat="48.82435" lon="2.33759">
        <ele>48</ele>
        <time>2014-02-23T17:37:54Z</time>
      </trkpt>
      <trkpt lat="48.82436" lon="2.3377">
        <ele>46</ele>
        <time>2014-02-23T17:37:56Z</time>
      </trkpt>
      <trkpt lat="48.82437" lon="2.33783">
        <ele>48</ele>
        <time>2014-02-23T17:37:58Z</time>
      </trkpt>
      <trkpt lat="48.82438" lon="2.33794">
        <ele>45</ele>
        <time>2014-02-23T17:38:00Z</time>
      </trkpt>
      <trkpt lat="48.82437" lon="2.33802">
        <ele>54</ele>
        <time>2014-02-23T17:38:02Z</time>
      </trkpt>
      <trkpt lat="48.82439" lon="2.33811">
        <ele>52</ele>
        <time>2014-02-23T17:38:04Z</time>
      </trkpt>
      <trkpt lat="48.82443" lon="2.3384">
        <ele>53</ele>
        <time>2014-02-23T17:38:09Z</time>
      </trkpt>
      <trkpt lat="48.82446" lon="2.33846">
        <ele>54</ele>
        <time>2014-02-23T17:38:10Z</time>
      </trkpt>
      <trkpt lat="48.82449" lon="2.33853">
        <ele>51</ele>
        <time>2014-02-23T17:38:11Z</time>
      </trkpt>
      <trkpt lat="48.82454" lon="2.33869">
        <ele>51</ele>
        <time>2014-02-23T17:38:14Z</time>
      </trkpt>
      <trkpt lat="48.82455" lon="2.33884">
        <ele>52</ele>
        <time>2014-02-23T17:38:16Z</time>
      </trkpt>
      <trkpt lat="48.82458" lon="2.33908">
        <ele>51</ele>
        <time>2014-02-23T17:38:19Z</time>
      </trkpt>
      <trkpt lat="48.82462" lon="2.33938">
        <ele>48</ele>
        <time>2014-02-23T17:38:23Z</time>
      </trkpt>
      <trkpt lat="48.82463" lon="2.33949">
        <ele>58</ele>
        <time>2014-02-23T17:38:25Z</time>
      </trkpt>
      <trkpt lat="48.82463" lon="2.3398">
        <ele>51</ele>
        <time>2014-02-23T17:38:30Z</time>
      </trkpt>
      <trkpt lat="48.82458" lon="2.33987">
        <ele>48</ele>
        <time>2014-02-23T17:38:32Z</time>
      </trkpt>
      <trkpt lat="48.82453" lon="2.3399">
        <ele>48</ele>
        <time>2014-02-23T17:38:34Z</time>
      </trkpt>
      <trkpt lat="48.82446" lon="2.33996">
        <ele>41</ele>
        <time>2014-02-23T17:38:41Z</time>
      </trkpt>
      <trkpt lat="48.82441" lon="2.34003">
        <ele>54</ele>
        <time>2014-02-23T17:38:50Z</time>
      </trkpt>
      <trkpt lat="48.82444" lon="2.34012">
        <ele>49</ele>
        <time>2014-02-23T17:38:53Z</time>
      </trkpt>
      <trkpt lat="48.82449" lon="2.34019">
        <ele>53</ele>
        <time>2014-02-23T17:39:01Z</time>
      </trkpt>
      <trkpt lat="48.82458" lon="2.34021">
        <ele>51</ele>
        <time>2014-02-23T17:39:08Z</time>
      </trkpt>
      <trkpt lat="48.82465" lon="2.34026">
        <ele>49</ele>
        <time>2014-02-23T17:39:10Z</time>
      </trkpt>
      <trkpt lat="48.82473" lon="2.34032">
        <ele>47</ele>
        <time>2014-02-23T17:39:12Z</time>
      </trkpt>
      <trkpt lat="48.82489" lon="2.34047">
        <ele>48</ele>
        <time>2014-02-23T17:39:16Z</time>
      </trkpt>
      <trkpt lat="48.82499" lon="2.34053">
        <ele>53</ele>
        <time>2014-02-23T17:39:18Z</time>
      </trkpt>
      <trkpt lat="48.82504" lon="2.34056">
        <ele>54</ele>
        <time>2014-02-23T17:39:19Z</time>
      </trkpt>
      <trkpt lat="48.82521" lon="2.3406">
        <ele>56</ele>
        <time>2014-02-23T17:39:22Z</time>
      </trkpt>
      <trkpt lat="48.82536" lon="2.34055">
        <ele>56</ele>
        <time>2014-02-23T17:39:24Z</time>
      </trkpt>
      <trkpt lat="48.8255" lon="2.34053">
        <ele>62</ele>
        <time>2014-02-23T17:39:26Z</time>
      </trkpt>
      <trkpt lat="48.82557" lon="2.34054">
        <ele>64</ele>
        <time>2014-02-23T17:39:27Z</time>
      </trkpt>
      <trkpt lat="48.82564" lon="2.34057">
        <ele>65</ele>
        <time>2014-02-23T17:39:28Z</time>
      </trkpt>
      <trkpt lat="48.82571" lon="2.34062">
        <ele>68</ele>
        <time>2014-02-23T17:39:29Z</time>
      </trkpt>
      <trkpt lat="48.82577" lon="2.34068">
        <ele>65</ele>
        <time>2014-02-23T17:39:30Z</time>
      </trkpt>
      <trkpt lat="48.82593" lon="2.34087">
        <ele>68</ele>
        <time>2014-02-23T17:39:33Z</time>
      </trkpt>
      <trkpt lat="48.82615" lon="2.34112">
        <ele>59</ele>
        <time>2014-02-23T17:39:37Z</time>
      </trkpt>
      <trkpt lat="48.82626" lon="2.34122">
        <ele>51</ele>
        <time>2014-02-23T17:39:39Z</time>
      </trkpt>
      <trkpt lat="48.82632" lon="2.3413">
        <ele>63</ele>
        <time>2014-02-23T17:39:47Z</time>
      </trkpt>
      <trkpt lat="48.82631" lon="2.34141">
        <ele>55</ele>
        <time>2014-02-23T17:39:54Z</time>
      </trkpt>
      <trkpt lat="48.82629" lon="2.34152">
        <ele>58</ele>
        <time>2014-02-23T17:40:07Z</time>
      </trkpt>
      <trkpt lat="48.82626" lon="2.34159">
        <ele>55</ele>
        <time>2014-02-23T17:40:10Z</time>
      </trkpt>
      <trkpt lat="48.82625" lon="2.34171">
        <ele>55</ele>
        <time>2014-02-23T17:40:13Z</time>
      </trkpt>
      <trkpt lat="48.8263" lon="2.34179">
        <ele>55</ele>
        <time>2014-02-23T17:40:15Z</time>
      </trkpt>
      <trkpt lat="48.82633" lon="2.34183">
        <ele>44</ele>
        <time>2014-02-23T17:40:22Z</time>
      </trkpt>
      <trkpt lat="48.82634" lon="2.34192">
        <ele>34</ele>
        <time>2014-02-23T17:40:34Z</time>
      </trkpt>
      <trkpt lat="48.82636" lon="2.34197">
        <ele>26</ele>
        <time>2014-02-23T17:40:44Z</time>
      </trkpt>
      <trkpt lat="48.8264" lon="2.34198">
        <ele>40</ele>
        <time>2014-02-23T17:41:00Z</time>
      </trkpt>
      <trkpt lat="48.82646" lon="2.34198">
        <ele>45</ele>
        <time>2014-02-23T17:41:06Z</time>
      </trkpt>
      <trkpt lat="48.82653" lon="2.34196">
        <ele>43</ele>
        <time>2014-02-23T17:41:10Z</time>
      </trkpt>
      <trkpt lat="48.82673" lon="2.34191">
        <ele>49</ele>
        <time>2014-02-23T17:41:19Z</time>
      </trkpt>
      <trkpt lat="48.82679" lon="2.34193">
        <ele>47</ele>
        <time>2014-02-23T17:41:21Z</time>
      </trkpt>
      <trkpt lat="48.82685" lon="2.34197">
        <ele>45</ele>
        <time>2014-02-23T17:41:23Z</time>
      </trkpt>
      <trkpt lat="48.82697" lon="2.34207">
        <ele>49</ele>
        <time>2014-02-23T17:41:26Z</time>
      </trkpt>
      <trkpt lat="48.8271" lon="2.34215">
        <ele>25</ele>
        <time>2014-02-23T17:41:32Z</time>
      </trkpt>
      <trkpt lat="48.82716" lon="2.34217">
        <ele>43</ele>
        <time>2014-02-23T17:41:35Z</time>
      </trkpt>
      <trkpt lat="48.82724" lon="2.34215">
        <ele>46</ele>
        <time>2014-02-23T17:41:39Z</time>
      </trkpt>
      <trkpt lat="48.82729" lon="2.34212">
        <ele>48</ele>
        <time>2014-02-23T17:41:42Z</time>
      </trkpt>
      <trkpt lat="48.82739" lon="2.34209">
        <ele>47</ele>
        <time>2014-02-23T17:41:46Z</time>
      </trkpt>
      <trkpt lat="48.82744" lon="2.34209">
        <ele>50</ele>
        <time>2014-02-23T17:41:48Z</time>
      </trkpt>
      <trkpt lat="48.82757" lon="2.34213">
        <ele>54</ele>
        <time>2014-02-23T17:41:52Z</time>
      </trkpt>
      <trkpt lat="48.82769" lon="2.34213">
        <ele>48</ele>
        <time>2014-02-23T17:41:56Z</time>
      </trkpt>
      <trkpt lat="48.82776" lon="2.34211">
        <ele>52</ele>
        <time>2014-02-23T17:41:58Z</time>
      </trkpt>
      <trkpt lat="48.82781" lon="2.34211">
        <ele>50</ele>
        <time>2014-02-23T17:42:00Z</time>
      </trkpt>
      <trkpt lat="48.82801" lon="2.3421">
        <ele>52</ele>
        <time>2014-02-23T17:42:07Z</time>
      </trkpt>
      <trkpt lat="48.8281" lon="2.34216">
        <ele>50</ele>
        <time>2014-02-23T17:42:11Z</time>
      </trkpt>
      <trkpt lat="48.82815" lon="2.34224">
        <ele>51</ele>
        <time>2014-02-23T17:42:13Z</time>
      </trkpt>
      <trkpt lat="48.8283" lon="2.34243">
        <ele>49</ele>
        <time>2014-02-23T17:42:18Z</time>
      </trkpt>
      <trkpt lat="48.82835" lon="2.34249">
        <ele>46</ele>
        <time>2014-02-23T17:42:20Z</time>
      </trkpt>
      <trkpt lat="48.82847" lon="2.34266">
        <ele>49</ele>
        <time>2014-02-23T17:42:22Z</time>
      </trkpt>
      <trkpt lat="48.82857" lon="2.34282">
        <ele>42</ele>
        <time>2014-02-23T17:42:25Z</time>
      </trkpt>
      <trkpt lat="48.8286" lon="2.3429">
        <ele>43</ele>
        <time>2014-02-23T17:42:27Z</time>
      </trkpt>
      <trkpt lat="48.82863" lon="2.34296">
        <ele>42</ele>
        <time>2014-02-23T17:42:29Z</time>
      </trkpt>
      <trkpt lat="48.82866" lon="2.34306">
        <ele>39</ele>
        <time>2014-02-23T17:42:32Z</time>
      </trkpt>
      <trkpt lat="48.82875" lon="2.34315">
        <ele>38</ele>
        <time>2014-02-23T17:42:36Z</time>
      </trkpt>
      <trkpt lat="48.82881" lon="2.34318">
        <ele>36</ele>
        <time>2014-02-23T17:42:38Z</time>
      </trkpt>
      <trkpt lat="48.82893" lon="2.34321">
        <ele>43</ele>
        <time>2014-02-23T17:42:42Z</time>
      </trkpt>
      <trkpt lat="48.82898" lon="2.34321">
        <ele>42</ele>
        <time>2014-02-23T17:42:44Z</time>
      </trkpt>
      <trkpt lat="48.82903" lon="2.34327">
        <ele>49</ele>
        <time>2014-02-23T17:42:45Z</time>
      </trkpt>
      <trkpt lat="48.82928" lon="2.34336">
        <ele>50</ele>
        <time>2014-02-23T17:42:50Z</time>
      </trkpt>
      <trkpt lat="48.82938" lon="2.34339">
        <ele>45</ele>
        <time>2014-02-23T17:42:52Z</time>
      </trkpt>
      <trkpt lat="48.82944" lon="2.34345">
        <ele>44</ele>
        <time>2014-02-23T17:42:54Z</time>
      </trkpt>
      <trkpt lat="48.82961" lon="2.34359">
        <ele>43</ele>
        <time>2014-02-23T17:43:01Z</time>
      </trkpt>
      <trkpt lat="48.82967" lon="2.34363">
        <ele>43</ele>
        <time>2014-02-23T17:43:04Z</time>
      </trkpt>
      <trkpt lat="48.82987" lon="2.34372">
        <ele>44</ele>
        <time>2014-02-23T17:43:12Z</time>
      </trkpt>
      <trkpt lat="48.82997" lon="2.34371">
        <ele>44</ele>
        <time>2014-02-23T17:43:15Z</time>
      </trkpt>
      <trkpt lat="48.83004" lon="2.34368">
        <ele>45</ele>
        <time>2014-02-23T17:43:17Z</time>
      </trkpt>
      <trkpt lat="48.83011" lon="2.34366">
        <ele>43</ele>
        <time>2014-02-23T17:43:20Z</time>
      </trkpt>
      <trkpt lat="48.83016" lon="2.34369">
        <ele>45</ele>
        <time>2014-02-23T17:43:22Z</time>
      </trkpt>
      <trkpt lat="48.83035" lon="2.34378">
        <ele>69</ele>
        <time>2014-02-23T17:43:29Z</time>
      </trkpt>
      <trkpt lat="48.8304" lon="2.34382">
        <ele>67</ele>
        <time>2014-02-23T17:43:31Z</time>
      </trkpt>
      <trkpt lat="48.83052" lon="2.34394">
        <ele>57</ele>
        <time>2014-02-23T17:43:34Z</time>
      </trkpt>
      <trkpt lat="48.83059" lon="2.34405">
        <ele>51</ele>
        <time>2014-02-23T17:43:36Z</time>
      </trkpt>
      <trkpt lat="48.83064" lon="2.34415">
        <ele>48</ele>
        <time>2014-02-23T17:43:38Z</time>
      </trkpt>
      <trkpt lat="48.83068" lon="2.3442">
        <ele>48</ele>
        <time>2014-02-23T17:43:39Z</time>
      </trkpt>
      <trkpt lat="48.83079" lon="2.3444">
        <ele>33</ele>
        <time>2014-02-23T17:43:51Z</time>
      </trkpt>
      <trkpt lat="48.83077" lon="2.3445">
        <ele>33</ele>
        <time>2014-02-23T17:43:55Z</time>
      </trkpt>
      <trkpt lat="48.83072" lon="2.34477">
        <ele>44</ele>
        <time>2014-02-23T17:44:04Z</time>
      </trkpt>
      <trkpt lat="48.83066" lon="2.34493">
        <ele>44</ele>
        <time>2014-02-23T17:44:10Z</time>
      </trkpt>
      <trkpt lat="48.83063" lon="2.34504">
        <ele>42</ele>
        <time>2014-02-23T17:44:14Z</time>
      </trkpt>
      <trkpt lat="48.83061" lon="2.34518">
        <ele>38</ele>
        <time>2014-02-23T17:44:20Z</time>
      </trkpt>
      <trkpt lat="48.83062" lon="2.34528">
        <ele>31</ele>
        <time>2014-02-23T17:44:25Z</time>
      </trkpt>
      <trkpt lat="48.83059" lon="2.34538">
        <ele>30</ele>
        <time>2014-02-23T17:44:27Z</time>
      </trkpt>
      <trkpt lat="48.83058" lon="2.34551">
        <ele>29</ele>
        <time>2014-02-23T17:44:29Z</time>
      </trkpt>
      <trkpt lat="48.8306" lon="2.34563">
        <ele>27</ele>
        <time>2014-02-23T17:44:31Z</time>
      </trkpt>
      <trkpt lat="48.83058" lon="2.34573">
        <ele>32</ele>
        <time>2014-02-23T17:44:33Z</time>
      </trkpt>
      <trkpt lat="48.83054" lon="2.34578">
        <ele>27</ele>
        <time>2014-02-23T17:44:35Z</time>
      </trkpt>
      <trkpt lat="48.83048" lon="2.34582">
        <ele>30</ele>
        <time>2014-02-23T17:44:38Z</time>
      </trkpt>
      <trkpt lat="48.83046" lon="2.3459">
        <ele>34</ele>
        <time>2014-02-23T17:44:41Z</time>
      </trkpt>
      <trkpt lat="48.83041" lon="2.34597">
        <ele>38</ele>
        <time>2014-02-23T17:44:44Z</time>
      </trkpt>
      <trkpt lat="48.83037" lon="2.34602">
        <ele>41</ele>
        <time>2014-02-23T17:44:46Z</time>
      </trkpt>
      <trkpt lat="48.83032" lon="2.34603">
        <ele>34</ele>
        <time>2014-02-23T17:44:49Z</time>
      </trkpt>
      <trkpt lat="48.83026" lon="2.34604">
        <ele>33</ele>
        <time>2014-02-23T17:44:53Z</time>
      </trkpt>
      <trkpt lat="48.8302" lon="2.34604">
        <ele>40</ele>
        <time>2014-02-23T17:44:56Z</time>
      </trkpt>
      <trkpt lat="48.83016" lon="2.34611">
        <ele>38</ele>
        <time>2014-02-23T17:44:59Z</time>
      </trkpt>
      <trkpt lat="48.83014" lon="2.3462">
        <ele>42</ele>
        <time>2014-02-23T17:45:02Z</time>
      </trkpt>
      <trkpt lat="48.83005" lon="2.34645">
        <ele>40</ele>
        <time>2014-02-23T17:45:09Z</time>
      </trkpt>
      <trkpt lat="48.83002" lon="2.34658">
        <ele>43</ele>
        <time>2014-02-23T17:45:13Z</time>
      </trkpt>
      <trkpt lat="48.83" lon="2.34672">
        <ele>45</ele>
        <time>2014-02-23T17:45:16Z</time>
      </trkpt>
      <trkpt lat="48.82997" lon="2.34687">
        <ele>47</ele>
        <time>2014-02-23T17:45:20Z</time>
      </trkpt>
      <trkpt lat="48.82989" lon="2.34714">
        <ele>44</ele>
        <time>2014-02-23T17:45:25Z</time>
      </trkpt>
      <trkpt lat="48.82986" lon="2.34721">
        <ele>43</ele>
        <time>2014-02-23T17:45:27Z</time>
      </trkpt>
      <trkpt lat="48.82982" lon="2.34726">
        <ele>46</ele>
        <time>2014-02-23T17:45:29Z</time>
      </trkpt>
      <trkpt lat="48.82978" lon="2.34735">
        <ele>48</ele>
        <time>2014-02-23T17:45:32Z</time>
      </trkpt>
      <trkpt lat="48.82977" lon="2.34743">
        <ele>45</ele>
        <time>2014-02-23T17:45:36Z</time>
      </trkpt>
      <trkpt lat="48.82974" lon="2.3475">
        <ele>41</ele>
        <time>2014-02-23T17:45:38Z</time>
      </trkpt>
      <trkpt lat="48.8297" lon="2.34761">
        <ele>45</ele>
        <time>2014-02-23T17:45:42Z</time>
      </trkpt>
      <trkpt lat="48.82968" lon="2.34773">
        <ele>44</ele>
        <time>2014-02-23T17:45:47Z</time>
      </trkpt>
      <trkpt lat="48.82964" lon="2.34781">
        <ele>45</ele>
        <time>2014-02-23T17:45:50Z</time>
      </trkpt>
      <trkpt lat="48.82959" lon="2.34788">
        <ele>46</ele>
        <time>2014-02-23T17:45:53Z</time>
      </trkpt>
      <trkpt lat="48.82955" lon="2.34797">
        <ele>48</ele>
        <time>2014-02-23T17:45:56Z</time>
      </trkpt>
      <trkpt lat="48.82951" lon="2.34803">
        <ele>47</ele>
        <time>2014-02-23T17:45:59Z</time>
      </trkpt>
      <trkpt lat="48.82947" lon="2.34809">
        <ele>38</ele>
        <time>2014-02-23T17:46:09Z</time>
      </trkpt>
      <trkpt lat="48.82947" lon="2.34817">
        <ele>41</ele>
        <time>2014-02-23T17:46:11Z</time>
      </trkpt>
      <trkpt lat="48.82947" lon="2.34829">
        <ele>50</ele>
        <time>2014-02-23T17:46:15Z</time>
      </trkpt>
      <trkpt lat="48.82946" lon="2.3484">
        <ele>47</ele>
        <time>2014-02-23T17:46:18Z</time>
      </trkpt>
      <trkpt lat="48.82943" lon="2.34848">
        <ele>49</ele>
        <time>2014-02-23T17:46:21Z</time>
      </trkpt>
      <trkpt lat="48.8294" lon="2.34863">
        <ele>43</ele>
        <time>2014-02-23T17:46:27Z</time>
      </trkpt>
      <trkpt lat="48.82937" lon="2.34882">
        <ele>41</ele>
        <time>2014-02-23T17:46:34Z</time>
      </trkpt>
      <trkpt lat="48.82936" lon="2.3489">
        <ele>45</ele>
        <time>2014-02-23T17:46:37Z</time>
      </trkpt>
      <trkpt lat="48.82934" lon="2.34899">
        <ele>47</ele>
        <time>2014-02-23T17:46:40Z</time>
      </trkpt>
      <trkpt lat="48.82932" lon="2.34906">
        <ele>48</ele>
        <time>2014-02-23T17:46:42Z</time>
      </trkpt>
      <trkpt lat="48.8293" lon="2.34915">
        <ele>48</ele>
        <time>2014-02-23T17:46:45Z</time>
      </trkpt>
      <trkpt lat="48.82931" lon="2.34924">
        <ele>44</ele>
        <time>2014-02-23T17:46:49Z</time>
      </trkpt>
      <trkpt lat="48.82929" lon="2.34933">
        <ele>46</ele>
        <time>2014-02-23T17:46:51Z</time>
      </trkpt>
      <trkpt lat="48.82926" lon="2.3494">
        <ele>45</ele>
        <time>2014-02-23T17:46:53Z</time>
      </trkpt>
      <trkpt lat="48.82924" lon="2.34948">
        <ele>54</ele>
        <time>2014-02-23T17:46:56Z</time>
      </trkpt>
      <trkpt lat="48.82922" lon="2.34956">
        <ele>53</ele>
        <time>2014-02-23T17:46:59Z</time>
      </trkpt>
      <trkpt lat="48.82924" lon="2.34968">
        <ele>46</ele>
        <time>2014-02-23T17:47:03Z</time>
      </trkpt>
      <trkpt lat="48.82923" lon="2.34977">
        <ele>44</ele>
        <time>2014-02-23T17:47:06Z</time>
      </trkpt>
      <trkpt lat="48.82923" lon="2.34986">
        <ele>47</ele>
        <time>2014-02-23T17:47:09Z</time>
      </trkpt>
      <trkpt lat="48.82921" lon="2.34995">
        <ele>47</ele>
        <time>2014-02-23T17:47:12Z</time>
      </trkpt>
      <trkpt lat="48.82921" lon="2.35007">
        <ele>48</ele>
        <time>2014-02-23T17:47:14Z</time>
      </trkpt>
      <trkpt lat="48.82923" lon="2.3502">
        <ele>46</ele>
        <time>2014-02-23T17:47:16Z</time>
      </trkpt>
      <trkpt lat="48.82927" lon="2.35032">
        <ele>46</ele>
        <time>2014-02-23T17:47:18Z</time>
      </trkpt>
      <trkpt lat="48.82927" lon="2.35042">
        <ele>44</ele>
        <time>2014-02-23T17:47:21Z</time>
      </trkpt>
      <trkpt lat="48.82932" lon="2.3505">
        <ele>44</ele>
        <time>2014-02-23T17:47:26Z</time>
      </trkpt>
      <trkpt lat="48.82939" lon="2.35053">
        <ele>43</ele>
        <time>2014-02-23T17:47:29Z</time>
      </trkpt>
      <trkpt lat="48.82945" lon="2.35061">
        <ele>43</ele>
        <time>2014-02-23T17:47:32Z</time>
      </trkpt>
      <trkpt lat="48.82948" lon="2.35072">
        <ele>46</ele>
        <time>2014-02-23T17:47:34Z</time>
      </trkpt>
      <trkpt lat="48.8295" lon="2.3508">
        <ele>45</ele>
        <time>2014-02-23T17:47:35Z</time>
      </trkpt>
      <trkpt lat="48.82954" lon="2.35091">
        <ele>44</ele>
        <time>2014-02-23T17:47:38Z</time>
      </trkpt>
      <trkpt lat="48.82956" lon="2.35101">
        <ele>48</ele>
        <time>2014-02-23T17:47:41Z</time>
      </trkpt>
      <trkpt lat="48.82959" lon="2.35109">
        <ele>44</ele>
        <time>2014-02-23T17:47:45Z</time>
      </trkpt>
      <trkpt lat="48.82961" lon="2.35121">
        <ele>44</ele>
        <time>2014-02-23T17:47:50Z</time>
      </trkpt>
      <trkpt lat="48.82965" lon="2.35128">
        <ele>43</ele>
        <time>2014-02-23T17:47:54Z</time>
      </trkpt>
      <trkpt lat="48.82977" lon="2.35154">
        <ele>44</ele>
        <time>2014-02-23T17:48:05Z</time>
      </trkpt>
      <trkpt lat="48.82983" lon="2.35165">
        <ele>43</ele>
        <time>2014-02-23T17:48:13Z</time>
      </trkpt>
      <trkpt lat="48.82989" lon="2.35175">
        <ele>47</ele>
        <time>2014-02-23T17:48:22Z</time>
      </trkpt>
      <trkpt lat="48.82992" lon="2.35185">
        <ele>44</ele>
        <time>2014-02-23T17:48:30Z</time>
      </trkpt>
      <trkpt lat="48.82993" lon="2.35197">
        <ele>48</ele>
        <time>2014-02-23T17:48:33Z</time>
      </trkpt>
      <trkpt lat="48.82995" lon="2.35208">
        <ele>52</ele>
        <time>2014-02-23T17:48:35Z</time>
      </trkpt>
      <trkpt lat="48.82999" lon="2.35215">
        <ele>52</ele>
        <time>2014-02-23T17:48:37Z</time>
      </trkpt>
      <trkpt lat="48.83002" lon="2.35226">
        <ele>56</ele>
        <time>2014-02-23T17:48:41Z</time>
      </trkpt>
      <trkpt lat="48.83009" lon="2.35237">
        <ele>61</ele>
        <time>2014-02-23T17:48:45Z</time>
      </trkpt>
      <trkpt lat="48.83013" lon="2.35242">
        <ele>59</ele>
        <time>2014-02-23T17:48:47Z</time>
      </trkpt>
      <trkpt lat="48.83021" lon="2.35251">
        <ele>50</ele>
        <time>2014-02-23T17:48:52Z</time>
      </trkpt>
      <trkpt lat="48.83024" lon="2.35258">
        <ele>49</ele>
        <time>2014-02-23T17:48:55Z</time>
      </trkpt>
      <trkpt lat="48.83026" lon="2.35266">
        <ele>45</ele>
        <time>2014-02-23T17:49:00Z</time>
      </trkpt>
      <trkpt lat="48.83032" lon="2.35275">
        <ele>58</ele>
        <time>2014-02-23T17:49:19Z</time>
      </trkpt>
      <trkpt lat="48.83036" lon="2.35283">
        <ele>64</ele>
        <time>2014-02-23T17:49:30Z</time>
      </trkpt>
      <trkpt lat="48.83041" lon="2.35289">
        <ele>62</ele>
        <time>2014-02-23T17:49:33Z</time>
      </trkpt>
      <trkpt lat="48.83044" lon="2.35297">
        <ele>62</ele>
        <time>2014-02-23T17:49:36Z</time>
      </trkpt>
      <trkpt lat="48.83045" lon="2.35305">
        <ele>59</ele>
        <time>2014-02-23T17:49:39Z</time>
      </trkpt>
      <trkpt lat="48.83048" lon="2.35311">
        <ele>53</ele>
        <time>2014-02-23T17:49:42Z</time>
      </trkpt>
      <trkpt lat="48.83046" lon="2.35318">
        <ele>49</ele>
        <time>2014-02-23T17:49:49Z</time>
      </trkpt>
      <trkpt lat="48.83046" lon="2.35307">
        <ele>55</ele>
        <time>2014-02-23T17:49:53Z</time>
      </trkpt>
      <trkpt lat="48.8305" lon="2.353">
        <ele>50</ele>
        <time>2014-02-23T17:49:55Z</time>
      </trkpt>
      <trkpt lat="48.83056" lon="2.35295">
        <ele>53</ele>
        <time>2014-02-23T17:49:58Z</time>
      </trkpt>
      <trkpt lat="48.83063" lon="2.35297">
        <ele>52</ele>
        <time>2014-02-23T17:50:01Z</time>
      </trkpt>
      <trkpt lat="48.83071" lon="2.35306">
        <ele>92</ele>
        <time>2014-02-23T17:50:22Z</time>
      </trkpt>
      <trkpt lat="48.83078" lon="2.35316">
        <ele>94</ele>
        <time>2014-02-23T17:50:28Z</time>
      </trkpt>
      <trkpt lat="48.83078" lon="2.35304">
        <ele>58</ele>
        <time>2014-02-23T17:50:49Z</time>
      </trkpt>
      <trkpt lat="48.83081" lon="2.35296">
        <ele>58</ele>
        <time>2014-02-23T17:50:51Z</time>
      </trkpt>
      <trkpt lat="48.83085" lon="2.35289">
        <ele>63</ele>
        <time>2014-02-23T17:50:54Z</time>
      </trkpt>
      <trkpt lat="48.8309" lon="2.35296">
        <ele>53</ele>
        <time>2014-02-23T17:51:02Z</time>
      </trkpt>
      <trkpt lat="48.83091" lon="2.35301">
        <ele>61</ele>
        <time>2014-02-23T17:51:08Z</time>
      </trkpt>
      <trkpt lat="48.83093" lon="2.35309">
        <ele>52</ele>
        <time>2014-02-23T17:51:14Z</time>
      </trkpt>
      <trkpt lat="48.83095" lon="2.35338">
        <ele>52</ele>
        <time>2014-02-23T17:51:21Z</time>
      </trkpt>
      <trkpt lat="48.83099" lon="2.3536">
        <ele>56</ele>
        <time>2014-02-23T17:51:26Z</time>
      </trkpt>
      <trkpt lat="48.83103" lon="2.3537">
        <ele>52</ele>
        <time>2014-02-23T17:51:28Z</time>
      </trkpt>
      <trkpt lat="48.83112" lon="2.35396">
        <ele>57</ele>
        <time>2014-02-23T17:51:34Z</time>
      </trkpt>
      <trkpt lat="48.83114" lon="2.35405">
        <ele>52</ele>
        <time>2014-02-23T17:51:36Z</time>
      </trkpt>
      <trkpt lat="48.83117" lon="2.35415">
        <ele>53</ele>
        <time>2014-02-23T17:51:38Z</time>
      </trkpt>
      <trkpt lat="48.83122" lon="2.35432">
        <ele>50</ele>
        <time>2014-02-23T17:51:42Z</time>
      </trkpt>
      <trkpt lat="48.83127" lon="2.35445">
        <ele>49</ele>
        <time>2014-02-23T17:51:46Z</time>
      </trkpt>
      <trkpt lat="48.8313" lon="2.35449">
        <ele>48</ele>
        <time>2014-02-23T17:51:49Z</time>
      </trkpt>
      <trkpt lat="48.83133" lon="2.35448">
        <ele>50</ele>
        <time>2014-02-23T17:51:51Z</time>
      </trkpt>
      <trkpt lat="48.83139" lon="2.35449">
        <ele>48</ele>
        <time>2014-02-23T17:51:53Z</time>
      </trkpt>
      <trkpt lat="48.83149" lon="2.3545">
        <ele>52</ele>
        <time>2014-02-23T17:51:57Z</time>
      </trkpt>
      <trkpt lat="48.83152" lon="2.3545">
        <ele>53</ele>
        <time>2014-02-23T17:51:58Z</time>
      </trkpt>
      <trkpt lat="48.83162" lon="2.35452">
        <ele>52</ele>
        <time>2014-02-23T17:52:02Z</time>
      </trkpt>
      <trkpt lat="48.83174" lon="2.35456">
        <ele>59</ele>
        <time>2014-02-23T17:52:09Z</time>
      </trkpt>
      <trkpt lat="48.83179" lon="2.35462">
        <ele>55</ele>
        <time>2014-02-23T17:52:13Z</time>
      </trkpt>
      <trkpt lat="48.83187" lon="2.35468">
        <ele>55</ele>
        <time>2014-02-23T17:52:17Z</time>
      </trkpt>
      <trkpt lat="48.83193" lon="2.35476">
        <ele>51</ele>
        <time>2014-02-23T17:52:20Z</time>
      </trkpt>
      <trkpt lat="48.83202" lon="2.35491">
        <ele>51</ele>
        <time>2014-02-23T17:52:26Z</time>
      </trkpt>
      <trkpt lat="48.83207" lon="2.35496">
        <ele>46</ele>
        <time>2014-02-23T17:52:28Z</time>
      </trkpt>
      <trkpt lat="48.8321" lon="2.35502">
        <ele>46</ele>
        <time>2014-02-23T17:52:31Z</time>
      </trkpt>
      <trkpt lat="48.83215" lon="2.35504">
        <ele>46</ele>
        <time>2014-02-23T17:52:38Z</time>
      </trkpt>
      <trkpt lat="48.83221" lon="2.35494">
        <ele>46</ele>
        <time>2014-02-23T17:52:42Z</time>
      </trkpt>
      <trkpt lat="48.83227" lon="2.35491">
        <ele>43</ele>
        <time>2014-02-23T17:52:44Z</time>
      </trkpt>
      <trkpt lat="48.8323" lon="2.35497">
        <ele>46</ele>
        <time>2014-02-23T17:53:18Z</time>
      </trkpt>
      <trkpt lat="48.83237" lon="2.35501">
        <ele>42</ele>
        <time>2014-02-23T17:53:20Z</time>
      </trkpt>
      <trkpt lat="48.83244" lon="2.35501">
        <ele>48</ele>
        <time>2014-02-23T17:53:23Z</time>
      </trkpt>
      <trkpt lat="48.8325" lon="2.35498">
        <ele>47</ele>
        <time>2014-02-23T17:53:25Z</time>
      </trkpt>
      <trkpt lat="48.83257" lon="2.35496">
        <ele>43</ele>
        <time>2014-02-23T17:53:27Z</time>
      </trkpt>
      <trkpt lat="48.83265" lon="2.35493">
        <ele>45</ele>
        <time>2014-02-23T17:53:29Z</time>
      </trkpt>
      <trkpt lat="48.83273" lon="2.35488">
        <ele>42</ele>
        <time>2014-02-23T17:53:31Z</time>
      </trkpt>
      <trkpt lat="48.8328" lon="2.35481">
        <ele>50</ele>
        <time>2014-02-23T17:53:33Z</time>
      </trkpt>
      <trkpt lat="48.83287" lon="2.35474">
        <ele>49</ele>
        <time>2014-02-23T17:53:35Z</time>
      </trkpt>
      <trkpt lat="48.83292" lon="2.35473">
        <ele>49</ele>
        <time>2014-02-23T17:53:36Z</time>
      </trkpt>
      <trkpt lat="48.83298" lon="2.35469">
        <ele>46</ele>
        <time>2014-02-23T17:53:38Z</time>
      </trkpt>
      <trkpt lat="48.83316" lon="2.35456">
        <ele>40</ele>
        <time>2014-02-23T17:53:43Z</time>
      </trkpt>
      <trkpt lat="48.83329" lon="2.35444">
        <ele>42</ele>
        <time>2014-02-23T17:53:49Z</time>
      </trkpt>
      <trkpt lat="48.83346" lon="2.3543">
        <ele>47</ele>
        <time>2014-02-23T17:53:58Z</time>
      </trkpt>
      <trkpt lat="48.83351" lon="2.35428">
        <ele>48</ele>
        <time>2014-02-23T17:54:00Z</time>
      </trkpt>
      <trkpt lat="48.83358" lon="2.35423">
        <ele>50</ele>
        <time>2014-02-23T17:54:03Z</time>
      </trkpt>
      <trkpt lat="48.83363" lon="2.35417">
        <ele>46</ele>
        <time>2014-02-23T17:54:05Z</time>
      </trkpt>
      <trkpt lat="48.83368" lon="2.35415">
        <ele>43</ele>
        <time>2014-02-23T17:54:06Z</time>
      </trkpt>
      <trkpt lat="48.83382" lon="2.35405">
        <ele>40</ele>
        <time>2014-02-23T17:54:09Z</time>
      </trkpt>
      <trkpt lat="48.83404" lon="2.3539">
        <ele>34</ele>
        <time>2014-02-23T17:54:13Z</time>
      </trkpt>
      <trkpt lat="48.83411" lon="2.35385">
        <ele>32</ele>
        <time>2014-02-23T17:54:14Z</time>
      </trkpt>
      <trkpt lat="48.83416" lon="2.35382">
        <ele>30</ele>
        <time>2014-02-23T17:54:15Z</time>
      </trkpt>
      <trkpt lat="48.83424" lon="2.35374">
        <ele>34</ele>
        <time>2014-02-23T17:54:17Z</time>
      </trkpt>
      <trkpt lat="48.83432" lon="2.3537">
        <ele>35</ele>
        <time>2014-02-23T17:54:19Z</time>
      </trkpt>
      <trkpt lat="48.83452" lon="2.3536">
        <ele>38</ele>
        <time>2014-02-23T17:54:26Z</time>
      </trkpt>
      <trkpt lat="48.83464" lon="2.35352">
        <ele>40</ele>
        <time>2014-02-23T17:54:29Z</time>
      </trkpt>
      <trkpt lat="48.83475" lon="2.35342">
        <ele>40</ele>
        <time>2014-02-23T17:54:32Z</time>
      </trkpt>
      <trkpt lat="48.83482" lon="2.35337">
        <ele>35</ele>
        <time>2014-02-23T17:54:34Z</time>
      </trkpt>
      <trkpt lat="48.83489" lon="2.35335">
        <ele>41</ele>
        <time>2014-02-23T17:54:36Z</time>
      </trkpt>
      <trkpt lat="48.83498" lon="2.35334">
        <ele>37</ele>
        <time>2014-02-23T17:54:40Z</time>
      </trkpt>
      <trkpt lat="48.83519" lon="2.35327">
        <ele>39</ele>
        <time>2014-02-23T17:54:50Z</time>
      </trkpt>
      <trkpt lat="48.83533" lon="2.35321">
        <ele>33</ele>
        <time>2014-02-23T17:54:54Z</time>
      </trkpt>
      <trkpt lat="48.83542" lon="2.35319">
        <ele>32</ele>
        <time>2014-02-23T17:54:56Z</time>
      </trkpt>
      <trkpt lat="48.83562" lon="2.35313">
        <ele>37</ele>
        <time>2014-02-23T17:55:01Z</time>
      </trkpt>
      <trkpt lat="48.83572" lon="2.35308">
        <ele>37</ele>
        <time>2014-02-23T17:55:03Z</time>
      </trkpt>
      <trkpt lat="48.83577" lon="2.35306">
        <ele>34</ele>
        <time>2014-02-23T17:55:04Z</time>
      </trkpt>
      <trkpt lat="48.83598" lon="2.35296">
        <ele>32</ele>
        <time>2014-02-23T17:55:09Z</time>
      </trkpt>
      <trkpt lat="48.83604" lon="2.35291">
        <ele>28</ele>
        <time>2014-02-23T17:55:11Z</time>
      </trkpt>
      <trkpt lat="48.83618" lon="2.35275">
        <ele>21</ele>
        <time>2014-02-23T17:55:16Z</time>
      </trkpt>
      <trkpt lat="48.83622" lon="2.35267">
        <ele>18</ele>
        <time>2014-02-23T17:55:18Z</time>
      </trkpt>
      <trkpt lat="48.83628" lon="2.3526">
        <ele>22</ele>
        <time>2014-02-23T17:55:20Z</time>
      </trkpt>
      <trkpt lat="48.83643" lon="2.35244">
        <ele>26</ele>
        <time>2014-02-23T17:55:25Z</time>
      </trkpt>
      <trkpt lat="48.83649" lon="2.3524">
        <ele>32</ele>
        <time>2014-02-23T17:55:27Z</time>
      </trkpt>
      <trkpt lat="48.83656" lon="2.35236">
        <ele>35</ele>
        <time>2014-02-23T17:55:29Z</time>
      </trkpt>
      <trkpt lat="48.83661" lon="2.3523">
        <ele>35</ele>
        <time>2014-02-23T17:55:31Z</time>
      </trkpt>
      <trkpt lat="48.83666" lon="2.35226">
        <ele>35</ele>
        <time>2014-02-23T17:55:33Z</time>
      </trkpt>
      <trkpt lat="48.83671" lon="2.35217">
        <ele>29</ele>
        <time>2014-02-23T17:55:36Z</time>
      </trkpt>
      <trkpt lat="48.83671" lon="2.3521">
        <ele>32</ele>
        <time>2014-02-23T17:55:39Z</time>
      </trkpt>
      <trkpt lat="48.83676" lon="2.35211">
        <ele>31</ele>
        <time>2014-02-23T17:55:42Z</time>
      </trkpt>
      <trkpt lat="48.83679" lon="2.35219">
        <ele>30</ele>
        <time>2014-02-23T17:55:48Z</time>
      </trkpt>
      <trkpt lat="48.8368" lon="2.35229">
        <ele>29</ele>
        <time>2014-02-23T17:55:57Z</time>
      </trkpt>
      <trkpt lat="48.83686" lon="2.35228">
        <ele>34</ele>
        <time>2014-02-23T17:56:08Z</time>
      </trkpt>
      <trkpt lat="48.8369" lon="2.35225">
        <ele>34</ele>
        <time>2014-02-23T17:56:11Z</time>
      </trkpt>
      <trkpt lat="48.83693" lon="2.35215">
        <ele>25</ele>
        <time>2014-02-23T17:56:14Z</time>
      </trkpt>
      <trkpt lat="48.83695" lon="2.35203">
        <ele>18</ele>
        <time>2014-02-23T17:56:16Z</time>
      </trkpt>
      <trkpt lat="48.83698" lon="2.35192">
        <ele>18</ele>
        <time>2014-02-23T17:56:18Z</time>
      </trkpt>
      <trkpt lat="48.83705" lon="2.35184">
        <ele>22</ele>
        <time>2014-02-23T17:56:20Z</time>
      </trkpt>
      <trkpt lat="48.83709" lon="2.35179">
        <ele>25</ele>
        <time>2014-02-23T17:56:21Z</time>
      </trkpt>
      <trkpt lat="48.83724" lon="2.35167">
        <ele>24</ele>
        <time>2014-02-23T17:56:26Z</time>
      </trkpt>
      <trkpt lat="48.83741" lon="2.35154">
        <ele>27</ele>
        <time>2014-02-23T17:56:32Z</time>
      </trkpt>
      <trkpt lat="48.83748" lon="2.35149">
        <ele>28</ele>
        <time>2014-02-23T17:56:34Z</time>
      </trkpt>
      <trkpt lat="48.83786" lon="2.35124">
        <ele>41</ele>
        <time>2014-02-23T17:56:45Z</time>
      </trkpt>
      <trkpt lat="48.83793" lon="2.35119">
        <ele>41</ele>
        <time>2014-02-23T17:56:47Z</time>
      </trkpt>
      <trkpt lat="48.83799" lon="2.35117">
        <ele>39</ele>
        <time>2014-02-23T17:56:49Z</time>
      </trkpt>
      <trkpt lat="48.83804" lon="2.35118">
        <ele>40</ele>
        <time>2014-02-23T17:56:51Z</time>
      </trkpt>
      <trkpt lat="48.8381" lon="2.35117">
        <ele>35</ele>
        <time>2014-02-23T17:56:53Z</time>
      </trkpt>
      <trkpt lat="48.83817" lon="2.35112">
        <ele>34</ele>
        <time>2014-02-23T17:56:55Z</time>
      </trkpt>
      <trkpt lat="48.83835" lon="2.35096">
        <ele>31</ele>
        <time>2014-02-23T17:57:00Z</time>
      </trkpt>
      <trkpt lat="48.83841" lon="2.35088">
        <ele>29</ele>
        <time>2014-02-23T17:57:02Z</time>
      </trkpt>
      <trkpt lat="48.83847" lon="2.35088">
        <ele>25</ele>
        <time>2014-02-23T17:57:05Z</time>
      </trkpt>
      <trkpt lat="48.83857" lon="2.35086">
        <ele>23</ele>
        <time>2014-02-23T17:57:11Z</time>
      </trkpt>
      <trkpt lat="48.83865" lon="2.35086">
        <ele>26</ele>
        <time>2014-02-23T17:57:17Z</time>
      </trkpt>
      <trkpt lat="48.8387" lon="2.35089">
        <ele>22</ele>
        <time>2014-02-23T17:57:20Z</time>
      </trkpt>
      <trkpt lat="48.83876" lon="2.35086">
        <ele>30</ele>
        <time>2014-02-23T17:57:25Z</time>
      </trkpt>
      <trkpt lat="48.83881" lon="2.35085">
        <ele>31</ele>
        <time>2014-02-23T17:57:30Z</time>
      </trkpt>
      <trkpt lat="48.83886" lon="2.35085">
        <ele>40</ele>
        <time>2014-02-23T17:57:34Z</time>
      </trkpt>
      <trkpt lat="48.83893" lon="2.35088">
        <ele>45</ele>
        <time>2014-02-23T17:57:42Z</time>
      </trkpt>
      <trkpt lat="48.83898" lon="2.35091">
        <ele>47</ele>
        <time>2014-02-23T17:57:45Z</time>
      </trkpt>
      <trkpt lat="48.83903" lon="2.35107">
        <ele>48</ele>
        <time>2014-02-23T17:57:53Z</time>
      </trkpt>
      <trkpt lat="48.83903" lon="2.35114">
        <ele>48</ele>
        <time>2014-02-23T17:57:55Z</time>
      </trkpt>
      <trkpt lat="48.83909" lon="2.35119">
        <ele>41</ele>
        <time>2014-02-23T17:57:59Z</time>
      </trkpt>
      <trkpt lat="48.83916" lon="2.35123">
        <ele>35</ele>
        <time>2014-02-23T17:58:06Z</time>
      </trkpt>
      <trkpt lat="48.83921" lon="2.35123">
        <ele>42</ele>
        <time>2014-02-23T17:58:09Z</time>
      </trkpt>
      <trkpt lat="48.8393" lon="2.35123">
        <ele>39</ele>
        <time>2014-02-23T17:58:12Z</time>
      </trkpt>
      <trkpt lat="48.83948" lon="2.35122">
        <ele>42</ele>
        <time>2014-02-23T17:58:18Z</time>
      </trkpt>
      <trkpt lat="48.83955" lon="2.35123">
        <ele>40</ele>
        <time>2014-02-23T17:58:20Z</time>
      </trkpt>
      <trkpt lat="48.83971" lon="2.35131">
        <ele>39</ele>
        <time>2014-02-23T17:58:24Z</time>
      </trkpt>
      <trkpt lat="48.83973" lon="2.35133">
        <ele>39</ele>
        <time>2014-02-23T17:58:25Z</time>
      </trkpt>
      <trkpt lat="48.83978" lon="2.35137">
        <ele>46</ele>
        <time>2014-02-23T17:58:27Z</time>
      </trkpt>
      <trkpt lat="48.83985" lon="2.35135">
        <ele>39</ele>
        <time>2014-02-23T17:58:30Z</time>
      </trkpt>
      <trkpt lat="48.8399" lon="2.35141">
        <ele>46</ele>
        <time>2014-02-23T17:58:36Z</time>
      </trkpt>
      <trkpt lat="48.83993" lon="2.35149">
        <ele>55</ele>
        <time>2014-02-23T17:58:37Z</time>
      </trkpt>
      <trkpt lat="48.84001" lon="2.35171">
        <ele>37</ele>
        <time>2014-02-23T17:58:45Z</time>
      </trkpt>
      <trkpt lat="48.84005" lon="2.35178">
        <ele>32</ele>
        <time>2014-02-23T17:58:55Z</time>
      </trkpt>
      <trkpt lat="48.84008" lon="2.35186">
        <ele>27</ele>
        <time>2014-02-23T17:58:58Z</time>
      </trkpt>
      <trkpt lat="48.84013" lon="2.35194">
        <ele>25</ele>
        <time>2014-02-23T17:59:01Z</time>
      </trkpt>
      <trkpt lat="48.84016" lon="2.35203">
        <ele>21</ele>
        <time>2014-02-23T17:59:03Z</time>
      </trkpt>
      <trkpt lat="48.84021" lon="2.35212">
        <ele>19</ele>
        <time>2014-02-23T17:59:05Z</time>
      </trkpt>
      <trkpt lat="48.84026" lon="2.35217">
        <ele>31</ele>
        <time>2014-02-23T17:59:07Z</time>
      </trkpt>
      <trkpt lat="48.84031" lon="2.35223">
        <ele>35</ele>
        <time>2014-02-23T17:59:09Z</time>
      </trkpt>
      <trkpt lat="48.84036" lon="2.35233">
        <ele>38</ele>
        <time>2014-02-23T17:59:11Z</time>
      </trkpt>
      <trkpt lat="48.8404" lon="2.35242">
        <ele>40</ele>
        <time>2014-02-23T17:59:13Z</time>
      </trkpt>
      <trkpt lat="48.84046" lon="2.3525">
        <ele>37</ele>
        <time>2014-02-23T17:59:15Z</time>
      </trkpt>
      <trkpt lat="48.8405" lon="2.35257">
        <ele>37</ele>
        <time>2014-02-23T17:59:17Z</time>
      </trkpt>
      <trkpt lat="48.84054" lon="2.35268">
        <ele>43</ele>
        <time>2014-02-23T17:59:21Z</time>
      </trkpt>
      <trkpt lat="48.84056" lon="2.35278">
        <ele>41</ele>
        <time>2014-02-23T17:59:24Z</time>
      </trkpt>
      <trkpt lat="48.84055" lon="2.35289">
        <ele>41</ele>
        <time>2014-02-23T17:59:27Z</time>
      </trkpt>
      <trkpt lat="48.84053" lon="2.35298">
        <ele>42</ele>
        <time>2014-02-23T17:59:29Z</time>
      </trkpt>
      <trkpt lat="48.84049" lon="2.35308">
        <ele>42</ele>
        <time>2014-02-23T17:59:31Z</time>
      </trkpt>
      <trkpt lat="48.84043" lon="2.35336">
        <ele>42</ele>
        <time>2014-02-23T17:59:36Z</time>
      </trkpt>
      <trkpt lat="48.84046" lon="2.35347">
        <ele>45</ele>
        <time>2014-02-23T17:59:38Z</time>
      </trkpt>
      <trkpt lat="48.8405" lon="2.35358">
        <ele>40</ele>
        <time>2014-02-23T17:59:40Z</time>
      </trkpt>
      <trkpt lat="48.84054" lon="2.35369">
        <ele>43</ele>
        <time>2014-02-23T17:59:42Z</time>
      </trkpt>
      <trkpt lat="48.84055" lon="2.35377">
        <ele>41</ele>
        <time>2014-02-23T17:59:43Z</time>
      </trkpt>
      <trkpt lat="48.84061" lon="2.35408">
        <ele>41</ele>
        <time>2014-02-23T17:59:46Z</time>
      </trkpt>
      <trkpt lat="48.84064" lon="2.35418">
        <ele>37</ele>
        <time>2014-02-23T17:59:47Z</time>
      </trkpt>
      <trkpt lat="48.84074" lon="2.35444">
        <ele>37</ele>
        <time>2014-02-23T17:59:50Z</time>
      </trkpt>
      <trkpt lat="48.8408" lon="2.35471">
        <ele>34</ele>
        <time>2014-02-23T17:59:53Z</time>
      </trkpt>
      <trkpt lat="48.84082" lon="2.35478">
        <ele>38</ele>
        <time>2014-02-23T17:59:54Z</time>
      </trkpt>
      <trkpt lat="48.84087" lon="2.355">
        <ele>37</ele>
        <time>2014-02-23T17:59:57Z</time>
      </trkpt>
      <trkpt lat="48.841" lon="2.35557">
        <ele>38</ele>
        <time>2014-02-23T18:00:06Z</time>
      </trkpt>
      <trkpt lat="48.84103" lon="2.35566">
        <ele>36</ele>
        <time>2014-02-23T18:00:08Z</time>
      </trkpt>
      <trkpt lat="48.84107" lon="2.35574">
        <ele>40</ele>
        <time>2014-02-23T18:00:10Z</time>
      </trkpt>
      <trkpt lat="48.84114" lon="2.35581">
        <ele>40</ele>
        <time>2014-02-23T18:00:12Z</time>
      </trkpt>
      <trkpt lat="48.8412" lon="2.35584">
        <ele>41</ele>
        <time>2014-02-23T18:00:14Z</time>
      </trkpt>
      <trkpt lat="48.84125" lon="2.35588">
        <ele>42</ele>
        <time>2014-02-23T18:00:17Z</time>
      </trkpt>
      <trkpt lat="48.84131" lon="2.35588">
        <ele>43</ele>
        <time>2014-02-23T18:00:21Z</time>
      </trkpt>
      <trkpt lat="48.84136" lon="2.35587">
        <ele>40</ele>
        <time>2014-02-23T18:00:24Z</time>
      </trkpt>
      <trkpt lat="48.84143" lon="2.35586">
        <ele>35</ele>
        <time>2014-02-23T18:00:27Z</time>
      </trkpt>
      <trkpt lat="48.84149" lon="2.35586">
        <ele>44</ele>
        <time>2014-02-23T18:00:29Z</time>
      </trkpt>
      <trkpt lat="48.84159" lon="2.35586">
        <ele>43</ele>
        <time>2014-02-23T18:00:33Z</time>
      </trkpt>
      <trkpt lat="48.84163" lon="2.35586">
        <ele>45</ele>
        <time>2014-02-23T18:00:35Z</time>
      </trkpt>
      <trkpt lat="48.84168" lon="2.35582">
        <ele>40</ele>
        <time>2014-02-23T18:00:38Z</time>
      </trkpt>
      <trkpt lat="48.84172" lon="2.35576">
        <ele>48</ele>
        <time>2014-02-23T18:00:41Z</time>
      </trkpt>
      <trkpt lat="48.84178" lon="2.35573">
        <ele>51</ele>
        <time>2014-02-23T18:00:43Z</time>
      </trkpt>
      <trkpt lat="48.84186" lon="2.35566">
        <ele>56</ele>
        <time>2014-02-23T18:00:46Z</time>
      </trkpt>
      <trkpt lat="48.84193" lon="2.35562">
        <ele>59</ele>
        <time>2014-02-23T18:00:48Z</time>
      </trkpt>
      <trkpt lat="48.84195" lon="2.35554">
        <ele>59</ele>
        <time>2014-02-23T18:00:51Z</time>
      </trkpt>
      <trkpt lat="48.84199" lon="2.35546">
        <ele>65</ele>
        <time>2014-02-23T18:00:54Z</time>
      </trkpt>
      <trkpt lat="48.84204" lon="2.35541">
        <ele>63</ele>
        <time>2014-02-23T18:00:56Z</time>
      </trkpt>
      <trkpt lat="48.84217" lon="2.35543">
        <ele>74</ele>
        <time>2014-02-23T18:01:00Z</time>
      </trkpt>
      <trkpt lat="48.84223" lon="2.35546">
        <ele>72</ele>
        <time>2014-02-23T18:01:01Z</time>
      </trkpt>
      <trkpt lat="48.84228" lon="2.3555">
        <ele>70</ele>
        <time>2014-02-23T18:01:02Z</time>
      </trkpt>
      <trkpt lat="48.84239" lon="2.35555">
        <ele>68</ele>
        <time>2014-02-23T18:01:04Z</time>
      </trkpt>
      <trkpt lat="48.84248" lon="2.35557">
        <ele>65</ele>
        <time>2014-02-23T18:01:06Z</time>
      </trkpt>
      <trkpt lat="48.84264" lon="2.35558">
        <ele>58</ele>
        <time>2014-02-23T18:01:10Z</time>
      </trkpt>
      <trkpt lat="48.8427" lon="2.35556">
        <ele>52</ele>
        <time>2014-02-23T18:01:12Z</time>
      </trkpt>
      <trkpt lat="48.8429" lon="2.35552">
        <ele>48</ele>
        <time>2014-02-23T18:01:17Z</time>
      </trkpt>
      <trkpt lat="48.84297" lon="2.35548">
        <ele>45</ele>
        <time>2014-02-23T18:01:20Z</time>
      </trkpt>
      <trkpt lat="48.84305" lon="2.35541">
        <ele>48</ele>
        <time>2014-02-23T18:01:23Z</time>
      </trkpt>
      <trkpt lat="48.84324" lon="2.35524">
        <ele>45</ele>
        <time>2014-02-23T18:01:28Z</time>
      </trkpt>
      <trkpt lat="48.84329" lon="2.35519">
        <ele>44</ele>
        <time>2014-02-23T18:01:30Z</time>
      </trkpt>
      <trkpt lat="48.84346" lon="2.35504">
        <ele>45</ele>
        <time>2014-02-23T18:01:36Z</time>
      </trkpt>
      <trkpt lat="48.84352" lon="2.35502">
        <ele>44</ele>
        <time>2014-02-23T18:01:38Z</time>
      </trkpt>
      <trkpt lat="48.84359" lon="2.35497">
        <ele>44</ele>
        <time>2014-02-23T18:01:42Z</time>
      </trkpt>
      <trkpt lat="48.84364" lon="2.3549">
        <ele>47</ele>
        <time>2014-02-23T18:01:45Z</time>
      </trkpt>
      <trkpt lat="48.8437" lon="2.35488">
        <ele>40</ele>
        <time>2014-02-23T18:01:48Z</time>
      </trkpt>
      <trkpt lat="48.84381" lon="2.35485">
        <ele>39</ele>
        <time>2014-02-23T18:01:54Z</time>
      </trkpt>
      <trkpt lat="48.84387" lon="2.35488">
        <ele>33</ele>
        <time>2014-02-23T18:02:00Z</time>
      </trkpt>
      <trkpt lat="48.84393" lon="2.35488">
        <ele>25</ele>
        <time>2014-02-23T18:02:03Z</time>
      </trkpt>
      <trkpt lat="48.84399" lon="2.3549">
        <ele>42</ele>
        <time>2014-02-23T18:02:16Z</time>
      </trkpt>
      <trkpt lat="48.84397" lon="2.35498">
        <ele>43</ele>
        <time>2014-02-23T18:02:27Z</time>
      </trkpt>
      <trkpt lat="48.84402" lon="2.35489">
        <ele>51</ele>
        <time>2014-02-23T18:02:40Z</time>
      </trkpt>
      <trkpt lat="48.84406" lon="2.35484">
        <ele>66</ele>
        <time>2014-02-23T18:02:44Z</time>
      </trkpt>
      <trkpt lat="48.84412" lon="2.35483">
        <ele>75</ele>
        <time>2014-02-23T18:02:47Z</time>
      </trkpt>
      <trkpt lat="48.84423" lon="2.35479">
        <ele>85</ele>
        <time>2014-02-23T18:02:51Z</time>
      </trkpt>
      <trkpt lat="48.84443" lon="2.35472">
        <ele>78</ele>
        <time>2014-02-23T18:02:57Z</time>
      </trkpt>
      <trkpt lat="48.84448" lon="2.3547">
        <ele>77</ele>
        <time>2014-02-23T18:02:59Z</time>
      </trkpt>
      <trkpt lat="48.84457" lon="2.35466">
        <ele>76</ele>
        <time>2014-02-23T18:03:03Z</time>
      </trkpt>
      <trkpt lat="48.84471" lon="2.35464">
        <ele>46</ele>
        <time>2014-02-23T18:03:08Z</time>
      </trkpt>
      <trkpt lat="48.84478" lon="2.35465">
        <ele>34</ele>
        <time>2014-02-23T18:03:10Z</time>
      </trkpt>
      <trkpt lat="48.84498" lon="2.35466">
        <ele>45</ele>
        <time>2014-02-23T18:03:18Z</time>
      </trkpt>
      <trkpt lat="48.84511" lon="2.35466">
        <ele>48</ele>
        <time>2014-02-23T18:03:23Z</time>
      </trkpt>
      <trkpt lat="48.8453" lon="2.35463">
        <ele>52</ele>
        <time>2014-02-23T18:03:30Z</time>
      </trkpt>
      <trkpt lat="48.84535" lon="2.35461">
        <ele>51</ele>
        <time>2014-02-23T18:03:32Z</time>
      </trkpt>
      <trkpt lat="48.84543" lon="2.35456">
        <ele>54</ele>
        <time>2014-02-23T18:03:35Z</time>
      </trkpt>
      <trkpt lat="48.84548" lon="2.35451">
        <ele>60</ele>
        <time>2014-02-23T18:03:37Z</time>
      </trkpt>
      <trkpt lat="48.84559" lon="2.35446">
        <ele>52</ele>
        <time>2014-02-23T18:03:41Z</time>
      </trkpt>
      <trkpt lat="48.84566" lon="2.35448">
        <ele>53</ele>
        <time>2014-02-23T18:03:43Z</time>
      </trkpt>
      <trkpt lat="48.84573" lon="2.35456">
        <ele>61</ele>
        <time>2014-02-23T18:03:45Z</time>
      </trkpt>
      <trkpt lat="48.8459" lon="2.35472">
        <ele>59</ele>
        <time>2014-02-23T18:03:48Z</time>
      </trkpt>
      <trkpt lat="48.84612" lon="2.35485">
        <ele>39</ele>
        <time>2014-02-23T18:03:51Z</time>
      </trkpt>
      <trkpt lat="48.84619" lon="2.35484">
        <ele>41</ele>
        <time>2014-02-23T18:03:53Z</time>
      </trkpt>
      <trkpt lat="48.84639" lon="2.35481">
        <ele>60</ele>
        <time>2014-02-23T18:03:58Z</time>
      </trkpt>
      <trkpt lat="48.84652" lon="2.35476">
        <ele>57</ele>
        <time>2014-02-23T18:04:02Z</time>
      </trkpt>
      <trkpt lat="48.84656" lon="2.35468">
        <ele>50</ele>
        <time>2014-02-23T18:04:04Z</time>
      </trkpt>
      <trkpt lat="48.84662" lon="2.35464">
        <ele>49</ele>
        <time>2014-02-23T18:04:06Z</time>
      </trkpt>
      <trkpt lat="48.84668" lon="2.35457">
        <ele>45</ele>
        <time>2014-02-23T18:04:08Z</time>
      </trkpt>
      <trkpt lat="48.84683" lon="2.35438">
        <ele>52</ele>
        <time>2014-02-23T18:04:19Z</time>
      </trkpt>
      <trkpt lat="48.8469" lon="2.35433">
        <ele>54</ele>
        <time>2014-02-23T18:04:23Z</time>
      </trkpt>
      <trkpt lat="48.84693" lon="2.35426">
        <ele>55</ele>
        <time>2014-02-23T18:04:25Z</time>
      </trkpt>
      <trkpt lat="48.84704" lon="2.35399">
        <ele>36</ele>
        <time>2014-02-23T18:04:30Z</time>
      </trkpt>
      <trkpt lat="48.84708" lon="2.35387">
        <ele>29</ele>
        <time>2014-02-23T18:04:32Z</time>
      </trkpt>
      <trkpt lat="48.84709" lon="2.3538">
        <ele>28</ele>
        <time>2014-02-23T18:04:34Z</time>
      </trkpt>
      <trkpt lat="48.84714" lon="2.35369">
        <ele>25</ele>
        <time>2014-02-23T18:04:36Z</time>
      </trkpt>
      <trkpt lat="48.84719" lon="2.35361">
        <ele>20</ele>
        <time>2014-02-23T18:04:38Z</time>
      </trkpt>
      <trkpt lat="48.84725" lon="2.35357">
        <ele>18</ele>
        <time>2014-02-23T18:04:41Z</time>
      </trkpt>
      <trkpt lat="48.84731" lon="2.35355">
        <ele>29</ele>
        <time>2014-02-23T18:04:45Z</time>
      </trkpt>
      <trkpt lat="48.84738" lon="2.35352">
        <ele>30</ele>
        <time>2014-02-23T18:04:49Z</time>
      </trkpt>
      <trkpt lat="48.8474" lon="2.35341">
        <ele>35</ele>
        <time>2014-02-23T18:04:57Z</time>
      </trkpt>
      <trkpt lat="48.84746" lon="2.35344">
        <ele>60</ele>
        <time>2014-02-23T18:05:18Z</time>
      </trkpt>
      <trkpt lat="48.84751" lon="2.35342">
        <ele>56</ele>
        <time>2014-02-23T18:05:24Z</time>
      </trkpt>
      <trkpt lat="48.84756" lon="2.35342">
        <ele>52</ele>
        <time>2014-02-23T18:05:26Z</time>
      </trkpt>
      <trkpt lat="48.8476" lon="2.35347">
        <ele>43</ele>
        <time>2014-02-23T18:05:30Z</time>
      </trkpt>
      <trkpt lat="48.84765" lon="2.35352">
        <ele>40</ele>
        <time>2014-02-23T18:05:33Z</time>
      </trkpt>
      <trkpt lat="48.84768" lon="2.35357">
        <ele>38</ele>
        <time>2014-02-23T18:05:35Z</time>
      </trkpt>
      <trkpt lat="48.84776" lon="2.35365">
        <ele>33</ele>
        <time>2014-02-23T18:05:40Z</time>
      </trkpt>
      <trkpt lat="48.84786" lon="2.3538">
        <ele>20</ele>
        <time>2014-02-23T18:05:46Z</time>
      </trkpt>
      <trkpt lat="48.8479" lon="2.35387">
        <ele>16</ele>
        <time>2014-02-23T18:05:49Z</time>
      </trkpt>
      <trkpt lat="48.84791" lon="2.35395">
        <ele>12</ele>
        <time>2014-02-23T18:05:53Z</time>
      </trkpt>
      <trkpt lat="48.84793" lon="2.35403">
        <ele>11</ele>
        <time>2014-02-23T18:05:55Z</time>
      </trkpt>
      <trkpt lat="48.84795" lon="2.35415">
        <ele>10</ele>
        <time>2014-02-23T18:05:57Z</time>
      </trkpt>
      <trkpt lat="48.84797" lon="2.35424">
        <ele>9</ele>
        <time>2014-02-23T18:05:58Z</time>
      </trkpt>
      <trkpt lat="48.84797" lon="2.35432">
        <ele>12</ele>
        <time>2014-02-23T18:05:59Z</time>
      </trkpt>
      <trkpt lat="48.84798" lon="2.35461">
        <ele>34.2</ele>
        <time>2014-02-23T18:06:05Z</time>
      </trkpt>
      <trkpt lat="48.84799" lon="2.3549">
        <ele>1</ele>
        <time>2014-02-23T18:06:13Z</time>
      </trkpt>
      <trkpt lat="48.84803" lon="2.35499">
        <ele>34.1</ele>
        <time>2014-02-23T18:06:16Z</time>
      </trkpt>
      <trkpt lat="48.84805" lon="2.35507">
        <ele>34</ele>
        <time>2014-02-23T18:06:18Z</time>
      </trkpt>
      <trkpt lat="48.84808" lon="2.35515">
        <ele>34</ele>
        <time>2014-02-23T18:06:20Z</time>
      </trkpt>
      <trkpt lat="48.84814" lon="2.35529">
        <ele>34</ele>
        <time>2014-02-23T18:06:24Z</time>
      </trkpt>
      <trkpt lat="48.84819" lon="2.35537">
        <ele>33.8</ele>
        <time>2014-02-23T18:06:27Z</time>
      </trkpt>
      <trkpt lat="48.84827" lon="2.35546">
        <ele>33.9</ele>
        <time>2014-02-23T18:06:32Z</time>
      </trkpt>
      <trkpt lat="48.84832" lon="2.35547">
        <ele>34</ele>
        <time>2014-02-23T18:06:35Z</time>
      </trkpt>
      <trkpt lat="48.8484" lon="2.35552">
        <ele>34</ele>
        <time>2014-02-23T18:06:39Z</time>
      </trkpt>
      <trkpt lat="48.84856" lon="2.35568">
        <ele>9</ele>
        <time>2014-02-23T18:06:51Z</time>
      </trkpt>
      <trkpt lat="48.84863" lon="2.35576">
        <ele>3</ele>
        <time>2014-02-23T18:06:54Z</time>
      </trkpt>
      <trkpt lat="48.84866" lon="2.35583">
        <ele>2</ele>
        <time>2014-02-23T18:06:56Z</time>
      </trkpt>
      <trkpt lat="48.84868" lon="2.35593">
        <ele>33.9</ele>
        <time>2014-02-23T18:06:59Z</time>
      </trkpt>
      <trkpt lat="48.84871" lon="2.356">
        <ele>1</ele>
        <time>2014-02-23T18:07:03Z</time>
      </trkpt>
      <trkpt lat="48.84876" lon="2.35603">
        <ele>15</ele>
        <time>2014-02-23T18:07:06Z</time>
      </trkpt>
      <trkpt lat="48.84894" lon="2.35613">
        <ele>26</ele>
        <time>2014-02-23T18:07:12Z</time>
      </trkpt>
      <trkpt lat="48.84902" lon="2.35611">
        <ele>26</ele>
        <time>2014-02-23T18:07:14Z</time>
      </trkpt>
      <trkpt lat="48.84915" lon="2.35606">
        <ele>41</ele>
        <time>2014-02-23T18:07:26Z</time>
      </trkpt>
      <trkpt lat="48.84921" lon="2.35611">
        <ele>47</ele>
        <time>2014-02-23T18:07:29Z</time>
      </trkpt>
      <trkpt lat="48.84935" lon="2.35618">
        <ele>44</ele>
        <time>2014-02-23T18:07:34Z</time>
      </trkpt>
      <trkpt lat="48.8494" lon="2.35617">
        <ele>41</ele>
        <time>2014-02-23T18:07:36Z</time>
      </trkpt>
      <trkpt lat="48.84947" lon="2.35616">
        <ele>42</ele>
        <time>2014-02-23T18:07:40Z</time>
      </trkpt>
      <trkpt lat="48.84956" lon="2.35613">
        <ele>44</ele>
        <time>2014-02-23T18:07:56Z</time>
      </trkpt>
      <trkpt lat="48.84961" lon="2.35614">
        <ele>34</ele>
        <time>2014-02-23T18:08:31Z</time>
      </trkpt>
      <trkpt lat="48.84961" lon="2.35623">
        <ele>34</ele>
        <time>2014-02-23T18:08:38Z</time>
      </trkpt>
      <trkpt lat="48.84958" lon="2.35638">
        <ele>31</ele>
        <time>2014-02-23T18:08:44Z</time>
      </trkpt>
      <trkpt lat="48.84956" lon="2.35648">
        <ele>29</ele>
        <time>2014-02-23T18:08:47Z</time>
      </trkpt>
      <trkpt lat="48.84953" lon="2.35654">
        <ele>23</ele>
        <time>2014-02-23T18:08:49Z</time>
      </trkpt>
      <trkpt lat="48.84951" lon="2.35663">
        <ele>34</ele>
        <time>2014-02-23T18:08:52Z</time>
      </trkpt>
      <trkpt lat="48.84949" lon="2.35674">
        <ele>38</ele>
        <time>2014-02-23T18:08:55Z</time>
      </trkpt>
      <trkpt lat="48.8495" lon="2.35684">
        <ele>35</ele>
        <time>2014-02-23T18:08:58Z</time>
      </trkpt>
      <trkpt lat="48.84953" lon="2.35693">
        <ele>36</ele>
        <time>2014-02-23T18:09:01Z</time>
      </trkpt>
      <trkpt lat="48.84958" lon="2.35712">
        <ele>31</ele>
        <time>2014-02-23T18:09:05Z</time>
      </trkpt>
      <trkpt lat="48.84964" lon="2.35743">
        <ele>33</ele>
        <time>2014-02-23T18:09:11Z</time>
      </trkpt>
      <trkpt lat="48.84971" lon="2.35767">
        <ele>34</ele>
        <time>2014-02-23T18:09:16Z</time>
      </trkpt>
      <trkpt lat="48.84989" lon="2.35824">
        <ele>36</ele>
        <time>2014-02-23T18:09:30Z</time>
      </trkpt>
      <trkpt lat="48.84993" lon="2.3583">
        <ele>34</ele>
        <time>2014-02-23T18:09:32Z</time>
      </trkpt>
      <trkpt lat="48.84999" lon="2.35844">
        <ele>34</ele>
        <time>2014-02-23T18:09:36Z</time>
      </trkpt>
      <trkpt lat="48.85001" lon="2.35851">
        <ele>35</ele>
        <time>2014-02-23T18:09:38Z</time>
      </trkpt>
      <trkpt lat="48.85006" lon="2.3586">
        <ele>29</ele>
        <time>2014-02-23T18:09:42Z</time>
      </trkpt>
      <trkpt lat="48.8501" lon="2.35866">
        <ele>28</ele>
        <time>2014-02-23T18:09:45Z</time>
      </trkpt>
      <trkpt lat="48.85009" lon="2.35878">
        <ele>27</ele>
        <time>2014-02-23T18:09:47Z</time>
      </trkpt>
      <trkpt lat="48.8501" lon="2.35888">
        <ele>27</ele>
        <time>2014-02-23T18:09:49Z</time>
      </trkpt>
      <trkpt lat="48.85011" lon="2.35894">
        <ele>27</ele>
        <time>2014-02-23T18:09:50Z</time>
      </trkpt>
      <trkpt lat="48.85013" lon="2.35898">
        <ele>26</ele>
        <time>2014-02-23T18:09:51Z</time>
      </trkpt>
      <trkpt lat="48.85014" lon="2.35901">
        <ele>25</ele>
        <time>2014-02-23T18:09:52Z</time>
      </trkpt>
      <trkpt lat="48.85016" lon="2.35904">
        <ele>26</ele>
        <time>2014-02-23T18:09:53Z</time>
      </trkpt>
      <trkpt lat="48.85026" lon="2.35921">
        <ele>29</ele>
        <time>2014-02-23T18:09:58Z</time>
      </trkpt>
      <trkpt lat="48.85035" lon="2.3594">
        <ele>32</ele>
        <time>2014-02-23T18:10:03Z</time>
      </trkpt>
      <trkpt lat="48.85037" lon="2.35948">
        <ele>30</ele>
        <time>2014-02-23T18:10:05Z</time>
      </trkpt>
      <trkpt lat="48.85039" lon="2.35956">
        <ele>27</ele>
        <time>2014-02-23T18:10:07Z</time>
      </trkpt>
      <trkpt lat="48.85048" lon="2.35983">
        <ele>24</ele>
        <time>2014-02-23T18:10:14Z</time>
      </trkpt>
      <trkpt lat="48.85052" lon="2.35991">
        <ele>24</ele>
        <time>2014-02-23T18:10:17Z</time>
      </trkpt>
      <trkpt lat="48.85053" lon="2.35999">
        <ele>25</ele>
        <time>2014-02-23T18:10:19Z</time>
      </trkpt>
      <trkpt lat="48.85053" lon="2.3601">
        <ele>27</ele>
        <time>2014-02-23T18:10:22Z</time>
      </trkpt>
      <trkpt lat="48.85056" lon="2.3602">
        <ele>28</ele>
        <time>2014-02-23T18:10:25Z</time>
      </trkpt>
      <trkpt lat="48.85069" lon="2.36076">
        <ele>28</ele>
        <time>2014-02-23T18:10:39Z</time>
      </trkpt>
      <trkpt lat="48.85071" lon="2.36086">
        <ele>26</ele>
        <time>2014-02-23T18:10:42Z</time>
      </trkpt>
      <trkpt lat="48.85073" lon="2.36096">
        <ele>24</ele>
        <time>2014-02-23T18:10:45Z</time>
      </trkpt>
      <trkpt lat="48.85077" lon="2.36106">
        <ele>26</ele>
        <time>2014-02-23T18:10:48Z</time>
      </trkpt>
      <trkpt lat="48.85079" lon="2.36115">
        <ele>24</ele>
        <time>2014-02-23T18:10:51Z</time>
      </trkpt>
      <trkpt lat="48.85083" lon="2.36123">
        <ele>27</ele>
        <time>2014-02-23T18:10:54Z</time>
      </trkpt>
      <trkpt lat="48.85085" lon="2.36133">
        <ele>28</ele>
        <time>2014-02-23T18:10:58Z</time>
      </trkpt>
      <trkpt lat="48.85089" lon="2.36141">
        <ele>26</ele>
        <time>2014-02-23T18:11:01Z</time>
      </trkpt>
      <trkpt lat="48.85089" lon="2.36151">
        <ele>24</ele>
        <time>2014-02-23T18:11:44Z</time>
      </trkpt>
      <trkpt lat="48.8509" lon="2.3616">
        <ele>23</ele>
        <time>2014-02-23T18:11:46Z</time>
      </trkpt>
      <trkpt lat="48.85094" lon="2.36168">
        <ele>19</ele>
        <time>2014-02-23T18:11:48Z</time>
      </trkpt>
      <trkpt lat="48.85098" lon="2.36178">
        <ele>18</ele>
        <time>2014-02-23T18:11:50Z</time>
      </trkpt>
      <trkpt lat="48.851" lon="2.36188">
        <ele>19</ele>
        <time>2014-02-23T18:11:52Z</time>
      </trkpt>
      <trkpt lat="48.85103" lon="2.36197">
        <ele>17</ele>
        <time>2014-02-23T18:11:54Z</time>
      </trkpt>
      <trkpt lat="48.85108" lon="2.36209">
        <ele>22</ele>
        <time>2014-02-23T18:11:57Z</time>
      </trkpt>
      <trkpt lat="48.85115" lon="2.36223">
        <ele>20</ele>
        <time>2014-02-23T18:12:02Z</time>
      </trkpt>
      <trkpt lat="48.85119" lon="2.36225">
        <ele>23</ele>
        <time>2014-02-23T18:12:04Z</time>
      </trkpt>
      <trkpt lat="48.85126" lon="2.3623">
        <ele>15</ele>
        <time>2014-02-23T18:12:08Z</time>
      </trkpt>
      <trkpt lat="48.85126" lon="2.36239">
        <ele>29</ele>
        <time>2014-02-23T18:12:11Z</time>
      </trkpt>
      <trkpt lat="48.85123" lon="2.36247">
        <ele>30</ele>
        <time>2014-02-23T18:12:14Z</time>
      </trkpt>
      <trkpt lat="48.85123" lon="2.36255">
        <ele>26</ele>
        <time>2014-02-23T18:12:16Z</time>
      </trkpt>
      <trkpt lat="48.85125" lon="2.36266">
        <ele>26</ele>
        <time>2014-02-23T18:12:18Z</time>
      </trkpt>
      <trkpt lat="48.85129" lon="2.36274">
        <ele>27</ele>
        <time>2014-02-23T18:12:20Z</time>
      </trkpt>
      <trkpt lat="48.85133" lon="2.36282">
        <ele>25</ele>
        <time>2014-02-23T18:12:23Z</time>
      </trkpt>
      <trkpt lat="48.85132" lon="2.3629">
        <ele>27</ele>
        <time>2014-02-23T18:12:25Z</time>
      </trkpt>
      <trkpt lat="48.85132" lon="2.36302">
        <ele>26</ele>
        <time>2014-02-23T18:12:28Z</time>
      </trkpt>
      <trkpt lat="48.85134" lon="2.3631">
        <ele>25</ele>
        <time>2014-02-23T18:12:31Z</time>
      </trkpt>
      <trkpt lat="48.85138" lon="2.36316">
        <ele>20</ele>
        <time>2014-02-23T18:12:34Z</time>
      </trkpt>
      <trkpt lat="48.85141" lon="2.36324">
        <ele>22</ele>
        <time>2014-02-23T18:12:37Z</time>
      </trkpt>
      <trkpt lat="48.85144" lon="2.3633">
        <ele>20</ele>
        <time>2014-02-23T18:12:39Z</time>
      </trkpt>
      <trkpt lat="48.85146" lon="2.36338">
        <ele>28</ele>
        <time>2014-02-23T18:12:41Z</time>
      </trkpt>
      <trkpt lat="48.85157" lon="2.36362">
        <ele>26</ele>
        <time>2014-02-23T18:12:47Z</time>
      </trkpt>
      <trkpt lat="48.85163" lon="2.36368">
        <ele>29</ele>
        <time>2014-02-23T18:12:50Z</time>
      </trkpt>
      <trkpt lat="48.85165" lon="2.36376">
        <ele>11</ele>
        <time>2014-02-23T18:12:52Z</time>
      </trkpt>
      <trkpt lat="48.85167" lon="2.36386">
        <ele>15</ele>
        <time>2014-02-23T18:12:54Z</time>
      </trkpt>
      <trkpt lat="48.85168" lon="2.36398">
        <ele>12</ele>
        <time>2014-02-23T18:12:56Z</time>
      </trkpt>
      <trkpt lat="48.85172" lon="2.36416">
        <ele>23</ele>
        <time>2014-02-23T18:12:59Z</time>
      </trkpt>
      <trkpt lat="48.85177" lon="2.36434">
        <ele>36</ele>
        <time>2014-02-23T18:13:02Z</time>
      </trkpt>
      <trkpt lat="48.85182" lon="2.36444">
        <ele>39</ele>
        <time>2014-02-23T18:13:04Z</time>
      </trkpt>
      <trkpt lat="48.85185" lon="2.36455">
        <ele>40</ele>
        <time>2014-02-23T18:13:06Z</time>
      </trkpt>
      <trkpt lat="48.85189" lon="2.36467">
        <ele>41</ele>
        <time>2014-02-23T18:13:08Z</time>
      </trkpt>
      <trkpt lat="48.85198" lon="2.36492">
        <ele>38</ele>
        <time>2014-02-23T18:13:12Z</time>
      </trkpt>
      <trkpt lat="48.852" lon="2.36501">
        <ele>40</ele>
        <time>2014-02-23T18:13:14Z</time>
      </trkpt>
      <trkpt lat="48.85213" lon="2.36559">
        <ele>46</ele>
        <time>2014-02-23T18:13:29Z</time>
      </trkpt>
      <trkpt lat="48.85217" lon="2.36572">
        <ele>45</ele>
        <time>2014-02-23T18:13:32Z</time>
      </trkpt>
      <trkpt lat="48.85223" lon="2.36596">
        <ele>45</ele>
        <time>2014-02-23T18:13:38Z</time>
      </trkpt>
      <trkpt lat="48.85231" lon="2.36623">
        <ele>42</ele>
        <time>2014-02-23T18:13:44Z</time>
      </trkpt>
      <trkpt lat="48.85235" lon="2.36632">
        <ele>41</ele>
        <time>2014-02-23T18:13:46Z</time>
      </trkpt>
      <trkpt lat="48.85238" lon="2.36642">
        <ele>40</ele>
        <time>2014-02-23T18:13:48Z</time>
      </trkpt>
      <trkpt lat="48.85245" lon="2.36659">
        <ele>45</ele>
        <time>2014-02-23T18:13:51Z</time>
      </trkpt>
      <trkpt lat="48.85255" lon="2.36685">
        <ele>34</ele>
        <time>2014-02-23T18:13:57Z</time>
      </trkpt>
      <trkpt lat="48.85258" lon="2.36696">
        <ele>33</ele>
        <time>2014-02-23T18:14:00Z</time>
      </trkpt>
      <trkpt lat="48.85263" lon="2.3671">
        <ele>29</ele>
        <time>2014-02-23T18:14:04Z</time>
      </trkpt>
      <trkpt lat="48.85267" lon="2.36716">
        <ele>29</ele>
        <time>2014-02-23T18:14:06Z</time>
      </trkpt>
      <trkpt lat="48.85271" lon="2.36726">
        <ele>26</ele>
        <time>2014-02-23T18:14:08Z</time>
      </trkpt>
      <trkpt lat="48.85272" lon="2.36734">
        <ele>23</ele>
        <time>2014-02-23T18:14:10Z</time>
      </trkpt>
      <trkpt lat="48.85274" lon="2.36743">
        <ele>16</ele>
        <time>2014-02-23T18:14:12Z</time>
      </trkpt>
      <trkpt lat="48.85275" lon="2.36751">
        <ele>19</ele>
        <time>2014-02-23T18:14:14Z</time>
      </trkpt>
      <trkpt lat="48.85278" lon="2.36768">
        <ele>29</ele>
        <time>2014-02-23T18:14:19Z</time>
      </trkpt>
      <trkpt lat="48.8528" lon="2.36777">
        <ele>24</ele>
        <time>2014-02-23T18:14:22Z</time>
      </trkpt>
      <trkpt lat="48.85282" lon="2.36787">
        <ele>34</ele>
        <time>2014-02-23T18:14:25Z</time>
      </trkpt>
      <trkpt lat="48.85289" lon="2.36804">
        <ele>32</ele>
        <time>2014-02-23T18:14:29Z</time>
      </trkpt>
      <trkpt lat="48.85292" lon="2.36812">
        <ele>32</ele>
        <time>2014-02-23T18:14:31Z</time>
      </trkpt>
      <trkpt lat="48.85299" lon="2.36817">
        <ele>35</ele>
        <time>2014-02-23T18:14:34Z</time>
      </trkpt>
      <trkpt lat="48.85305" lon="2.36821">
        <ele>36</ele>
        <time>2014-02-23T18:14:36Z</time>
      </trkpt>
      <trkpt lat="48.85311" lon="2.36823">
        <ele>32</ele>
        <time>2014-02-23T18:14:38Z</time>
      </trkpt>
      <trkpt lat="48.85317" lon="2.36824">
        <ele>43</ele>
        <time>2014-02-23T18:14:42Z</time>
      </trkpt>
      <trkpt lat="48.8532" lon="2.36818">
        <ele>38</ele>
        <time>2014-02-23T18:14:46Z</time>
      </trkpt>
      <trkpt lat="48.85325" lon="2.3683">
        <ele>36</ele>
        <time>2014-02-23T18:15:02Z</time>
      </trkpt>
      <trkpt lat="48.85326" lon="2.36822">
        <ele>34</ele>
        <time>2014-02-23T18:15:34Z</time>
      </trkpt>
      <trkpt lat="48.85331" lon="2.36823">
        <ele>32</ele>
        <time>2014-02-23T18:15:37Z</time>
      </trkpt>
      <trkpt lat="48.85336" lon="2.36827">
        <ele>30</ele>
        <time>2014-02-23T18:15:39Z</time>
      </trkpt>
      <trkpt lat="48.8537" lon="2.36858">
        <ele>34</ele>
        <time>2014-02-23T18:16:10Z</time>
      </trkpt>
      <trkpt lat="48.85368" lon="2.36851">
        <ele>38</ele>
        <time>2014-02-23T18:16:21Z</time>
      </trkpt>
      <trkpt lat="48.85375" lon="2.3685">
        <ele>31</ele>
        <time>2014-02-23T18:16:28Z</time>
      </trkpt>
      <trkpt lat="48.85379" lon="2.36854">
        <ele>33</ele>
        <time>2014-02-23T18:16:30Z</time>
      </trkpt>
      <trkpt lat="48.85382" lon="2.36861">
        <ele>29</ele>
        <time>2014-02-23T18:16:35Z</time>
      </trkpt>
      <trkpt lat="48.85374" lon="2.36863">
        <ele>41</ele>
        <time>2014-02-23T18:17:07Z</time>
      </trkpt>
      <trkpt lat="48.85371" lon="2.36869">
        <ele>42</ele>
        <time>2014-02-23T18:17:12Z</time>
      </trkpt>
      <trkpt lat="48.85373" lon="2.36877">
        <ele>36</ele>
        <time>2014-02-23T18:17:15Z</time>
      </trkpt>
      <trkpt lat="48.85377" lon="2.36888">
        <ele>40</ele>
        <time>2014-02-23T18:17:19Z</time>
      </trkpt>
      <trkpt lat="48.85382" lon="2.36894">
        <ele>37</ele>
        <time>2014-02-23T18:17:22Z</time>
      </trkpt>
      <trkpt lat="48.85384" lon="2.36896">
        <ele>38</ele>
        <time>2014-02-23T18:17:23Z</time>
      </trkpt>
      <trkpt lat="48.85382" lon="2.36904">
        <ele>36</ele>
        <time>2014-02-23T18:17:37Z</time>
      </trkpt>
      <trkpt lat="48.85386" lon="2.36915">
        <ele>35</ele>
        <time>2014-02-23T18:17:40Z</time>
      </trkpt>
      <trkpt lat="48.85392" lon="2.36924">
        <ele>38</ele>
        <time>2014-02-23T18:17:42Z</time>
      </trkpt>
      <trkpt lat="48.85398" lon="2.36928">
        <ele>40</ele>
        <time>2014-02-23T18:17:44Z</time>
      </trkpt>
      <trkpt lat="48.85403" lon="2.36933">
        <ele>39</ele>
        <time>2014-02-23T18:17:47Z</time>
      </trkpt>
      <trkpt lat="48.85404" lon="2.36942">
        <ele>38</ele>
        <time>2014-02-23T18:17:50Z</time>
      </trkpt>
      <trkpt lat="48.85404" lon="2.36951">
        <ele>35</ele>
        <time>2014-02-23T18:17:53Z</time>
      </trkpt>
      <trkpt lat="48.85405" lon="2.36961">
        <ele>39</ele>
        <time>2014-02-23T18:17:56Z</time>
      </trkpt>
      <trkpt lat="48.85409" lon="2.3697">
        <ele>45</ele>
        <time>2014-02-23T18:17:59Z</time>
      </trkpt>
      <trkpt lat="48.85415" lon="2.36976">
        <ele>39</ele>
        <time>2014-02-23T18:18:01Z</time>
      </trkpt>
      <trkpt lat="48.8542" lon="2.36983">
        <ele>36</ele>
        <time>2014-02-23T18:18:03Z</time>
      </trkpt>
      <trkpt lat="48.85427" lon="2.36987">
        <ele>28</ele>
        <time>2014-02-23T18:18:06Z</time>
      </trkpt>
      <trkpt lat="48.85435" lon="2.36988">
        <ele>24</ele>
        <time>2014-02-23T18:18:09Z</time>
      </trkpt>
      <trkpt lat="48.85452" lon="2.36991">
        <ele>29</ele>
        <time>2014-02-23T18:18:13Z</time>
      </trkpt>
      <trkpt lat="48.85459" lon="2.36995">
        <ele>30</ele>
        <time>2014-02-23T18:18:15Z</time>
      </trkpt>
      <trkpt lat="48.85469" lon="2.36998">
        <ele>28</ele>
        <time>2014-02-23T18:18:17Z</time>
      </trkpt>
      <trkpt lat="48.85476" lon="2.37001">
        <ele>32</ele>
        <time>2014-02-23T18:18:19Z</time>
      </trkpt>
      <trkpt lat="48.85482" lon="2.37005">
        <ele>31</ele>
        <time>2014-02-23T18:18:21Z</time>
      </trkpt>
      <trkpt lat="48.85489" lon="2.37007">
        <ele>31</ele>
        <time>2014-02-23T18:18:23Z</time>
      </trkpt>
      <trkpt lat="48.8551" lon="2.37015">
        <ele>30</ele>
        <time>2014-02-23T18:18:30Z</time>
      </trkpt>
      <trkpt lat="48.85517" lon="2.37019">
        <ele>29</ele>
        <time>2014-02-23T18:18:32Z</time>
      </trkpt>
      <trkpt lat="48.85521" lon="2.37025">
        <ele>34</ele>
        <time>2014-02-23T18:18:34Z</time>
      </trkpt>
      <trkpt lat="48.85526" lon="2.37028">
        <ele>44</ele>
        <time>2014-02-23T18:18:36Z</time>
      </trkpt>
      <trkpt lat="48.85546" lon="2.37037">
        <ele>41</ele>
        <time>2014-02-23T18:18:45Z</time>
      </trkpt>
      <trkpt lat="48.85551" lon="2.37038">
        <ele>41</ele>
        <time>2014-02-23T18:18:47Z</time>
      </trkpt>
      <trkpt lat="48.85557" lon="2.37041">
        <ele>38</ele>
        <time>2014-02-23T18:18:49Z</time>
      </trkpt>
      <trkpt lat="48.85566" lon="2.37046">
        <ele>46</ele>
        <time>2014-02-23T18:18:52Z</time>
      </trkpt>
      <trkpt lat="48.85585" lon="2.37055">
        <ele>50</ele>
        <time>2014-02-23T18:19:00Z</time>
      </trkpt>
      <trkpt lat="48.85593" lon="2.37062">
        <ele>45</ele>
        <time>2014-02-23T18:19:03Z</time>
      </trkpt>
      <trkpt lat="48.85613" lon="2.37075">
        <ele>59</ele>
        <time>2014-02-23T18:19:10Z</time>
      </trkpt>
      <trkpt lat="48.85632" lon="2.3709">
        <ele>47</ele>
        <time>2014-02-23T18:19:19Z</time>
      </trkpt>
      <trkpt lat="48.85645" lon="2.37097">
        <ele>46</ele>
        <time>2014-02-23T18:19:25Z</time>
      </trkpt>
      <trkpt lat="48.85681" lon="2.37119">
        <ele>45</ele>
        <time>2014-02-23T18:19:37Z</time>
      </trkpt>
      <trkpt lat="48.8569" lon="2.37125">
        <ele>44</ele>
        <time>2014-02-23T18:19:39Z</time>
      </trkpt>
      <trkpt lat="48.85707" lon="2.37135">
        <ele>49</ele>
        <time>2014-02-23T18:19:44Z</time>
      </trkpt>
      <trkpt lat="48.85713" lon="2.37138">
        <ele>44</ele>
        <time>2014-02-23T18:19:47Z</time>
      </trkpt>
      <trkpt lat="48.85719" lon="2.37137">
        <ele>42</ele>
        <time>2014-02-23T18:19:49Z</time>
      </trkpt>
      <trkpt lat="48.85738" lon="2.37136">
        <ele>50</ele>
        <time>2014-02-23T18:19:55Z</time>
      </trkpt>
      <trkpt lat="48.85745" lon="2.37137">
        <ele>54</ele>
        <time>2014-02-23T18:19:57Z</time>
      </trkpt>
      <trkpt lat="48.8576" lon="2.3714">
        <ele>51</ele>
        <time>2014-02-23T18:20:02Z</time>
      </trkpt>
      <trkpt lat="48.85765" lon="2.37143">
        <ele>49</ele>
        <time>2014-02-23T18:20:04Z</time>
      </trkpt>
      <trkpt lat="48.85783" lon="2.37155">
        <ele>52</ele>
        <time>2014-02-23T18:20:10Z</time>
      </trkpt>
      <trkpt lat="48.85787" lon="2.3716">
        <ele>48</ele>
        <time>2014-02-23T18:20:11Z</time>
      </trkpt>
      <trkpt lat="48.85802" lon="2.37173">
        <ele>49</ele>
        <time>2014-02-23T18:20:15Z</time>
      </trkpt>
      <trkpt lat="48.85808" lon="2.37175">
        <ele>51</ele>
        <time>2014-02-23T18:20:17Z</time>
      </trkpt>
      <trkpt lat="48.85815" lon="2.3718">
        <ele>52</ele>
        <time>2014-02-23T18:20:20Z</time>
      </trkpt>
      <trkpt lat="48.85823" lon="2.37181">
        <ele>51</ele>
        <time>2014-02-23T18:20:22Z</time>
      </trkpt>
      <trkpt lat="48.85833" lon="2.37178">
        <ele>42</ele>
        <time>2014-02-23T18:20:25Z</time>
      </trkpt>
      <trkpt lat="48.8584" lon="2.37179">
        <ele>42</ele>
        <time>2014-02-23T18:20:27Z</time>
      </trkpt>
      <trkpt lat="48.85856" lon="2.37185">
        <ele>46</ele>
        <time>2014-02-23T18:20:32Z</time>
      </trkpt>
      <trkpt lat="48.85865" lon="2.37192">
        <ele>47</ele>
        <time>2014-02-23T18:20:34Z</time>
      </trkpt>
      <trkpt lat="48.85883" lon="2.37204">
        <ele>39</ele>
        <time>2014-02-23T18:20:39Z</time>
      </trkpt>
      <trkpt lat="48.8589" lon="2.37207">
        <ele>44</ele>
        <time>2014-02-23T18:20:41Z</time>
      </trkpt>
      <trkpt lat="48.85907" lon="2.37214">
        <ele>47</ele>
        <time>2014-02-23T18:20:47Z</time>
      </trkpt>
      <trkpt lat="48.8592" lon="2.37217">
        <ele>52</ele>
        <time>2014-02-23T18:20:52Z</time>
      </trkpt>
      <trkpt lat="48.85962" lon="2.37227">
        <ele>57</ele>
        <time>2014-02-23T18:21:04Z</time>
      </trkpt>
      <trkpt lat="48.85984" lon="2.37239">
        <ele>57</ele>
        <time>2014-02-23T18:21:10Z</time>
      </trkpt>
      <trkpt lat="48.85989" lon="2.37245">
        <ele>58</ele>
        <time>2014-02-23T18:21:11Z</time>
      </trkpt>
      <trkpt lat="48.85994" lon="2.3725">
        <ele>55</ele>
        <time>2014-02-23T18:21:12Z</time>
      </trkpt>
      <trkpt lat="48.86013" lon="2.37265">
        <ele>52</ele>
        <time>2014-02-23T18:21:16Z</time>
      </trkpt>
      <trkpt lat="48.8602" lon="2.37269">
        <ele>49</ele>
        <time>2014-02-23T18:21:18Z</time>
      </trkpt>
      <trkpt lat="48.86028" lon="2.37269">
        <ele>46</ele>
        <time>2014-02-23T18:21:20Z</time>
      </trkpt>
      <trkpt lat="48.86034" lon="2.37266">
        <ele>49</ele>
        <time>2014-02-23T18:21:22Z</time>
      </trkpt>
      <trkpt lat="48.86055" lon="2.37257">
        <ele>57</ele>
        <time>2014-02-23T18:21:28Z</time>
      </trkpt>
      <trkpt lat="48.86063" lon="2.37257">
        <ele>58</ele>
        <time>2014-02-23T18:21:31Z</time>
      </trkpt>
      <trkpt lat="48.86069" lon="2.3726">
        <ele>52</ele>
        <time>2014-02-23T18:21:33Z</time>
      </trkpt>
      <trkpt lat="48.86074" lon="2.3726">
        <ele>57</ele>
        <time>2014-02-23T18:21:36Z</time>
      </trkpt>
      <trkpt lat="48.8608" lon="2.37258">
        <ele>60</ele>
        <time>2014-02-23T18:21:39Z</time>
      </trkpt>
      <trkpt lat="48.86098" lon="2.37256">
        <ele>67</ele>
        <time>2014-02-23T18:21:45Z</time>
      </trkpt>
      <trkpt lat="48.86117" lon="2.37253">
        <ele>67</ele>
        <time>2014-02-23T18:21:50Z</time>
      </trkpt>
      <trkpt lat="48.86125" lon="2.37253">
        <ele>60</ele>
        <time>2014-02-23T18:21:52Z</time>
      </trkpt>
      <trkpt lat="48.86144" lon="2.37258">
        <ele>53</ele>
        <time>2014-02-23T18:21:57Z</time>
      </trkpt>
      <trkpt lat="48.8615" lon="2.3726">
        <ele>59</ele>
        <time>2014-02-23T18:21:59Z</time>
      </trkpt>
      <trkpt lat="48.86156" lon="2.37262">
        <ele>50</ele>
        <time>2014-02-23T18:22:01Z</time>
      </trkpt>
      <trkpt lat="48.86162" lon="2.37262">
        <ele>57</ele>
        <time>2014-02-23T18:22:04Z</time>
      </trkpt>
      <trkpt lat="48.86171" lon="2.37271">
        <ele>48</ele>
        <time>2014-02-23T18:22:06Z</time>
      </trkpt>
      <trkpt lat="48.86176" lon="2.37275">
        <ele>47</ele>
        <time>2014-02-23T18:22:07Z</time>
      </trkpt>
      <trkpt lat="48.86182" lon="2.37278">
        <ele>44</ele>
        <time>2014-02-23T18:22:09Z</time>
      </trkpt>
      <trkpt lat="48.86188" lon="2.37278">
        <ele>43</ele>
        <time>2014-02-23T18:22:11Z</time>
      </trkpt>
      <trkpt lat="48.86209" lon="2.37278">
        <ele>40</ele>
        <time>2014-02-23T18:22:19Z</time>
      </trkpt>
      <trkpt lat="48.86215" lon="2.37275">
        <ele>37</ele>
        <time>2014-02-23T18:22:22Z</time>
      </trkpt>
      <trkpt lat="48.8622" lon="2.37271">
        <ele>43</ele>
        <time>2014-02-23T18:22:26Z</time>
      </trkpt>
      <trkpt lat="48.86225" lon="2.37267">
        <ele>41</ele>
        <time>2014-02-23T18:22:33Z</time>
      </trkpt>
      <trkpt lat="48.8623" lon="2.37265">
        <ele>41</ele>
        <time>2014-02-23T18:22:35Z</time>
      </trkpt>
      <trkpt lat="48.86237" lon="2.37261">
        <ele>34</ele>
        <time>2014-02-23T18:22:37Z</time>
      </trkpt>
      <trkpt lat="48.86245" lon="2.37253">
        <ele>22</ele>
        <time>2014-02-23T18:22:39Z</time>
      </trkpt>
      <trkpt lat="48.86248" lon="2.37247">
        <ele>17</ele>
        <time>2014-02-23T18:22:40Z</time>
      </trkpt>
      <trkpt lat="48.86251" lon="2.37238">
        <ele>17</ele>
        <time>2014-02-23T18:22:41Z</time>
      </trkpt>
      <trkpt lat="48.86253" lon="2.37229">
        <ele>22</ele>
        <time>2014-02-23T18:22:42Z</time>
      </trkpt>
      <trkpt lat="48.86255" lon="2.37219">
        <ele>15</ele>
        <time>2014-02-23T18:22:44Z</time>
      </trkpt>
      <trkpt lat="48.86257" lon="2.37207">
        <ele>38</ele>
        <time>2014-02-23T18:22:58Z</time>
      </trkpt>
      <trkpt lat="48.86253" lon="2.37199">
        <ele>39</ele>
        <time>2014-02-23T18:23:07Z</time>
      </trkpt>
      <trkpt lat="48.86249" lon="2.37194">
        <ele>49</ele>
        <time>2014-02-23T18:23:12Z</time>
      </trkpt>
      <trkpt lat="48.86253" lon="2.372">
        <ele>48</ele>
        <time>2014-02-23T18:23:26Z</time>
      </trkpt>
      <trkpt lat="48.86258" lon="2.37203">
        <ele>45</ele>
        <time>2014-02-23T18:23:28Z</time>
      </trkpt>
      <trkpt lat="48.86261" lon="2.3721">
        <ele>42</ele>
        <time>2014-02-23T18:23:30Z</time>
      </trkpt>
      <trkpt lat="48.86263" lon="2.37221">
        <ele>43</ele>
        <time>2014-02-23T18:23:32Z</time>
      </trkpt>
      <trkpt lat="48.86269" lon="2.37225">
        <ele>36</ele>
        <time>2014-02-23T18:23:35Z</time>
      </trkpt>
      <trkpt lat="48.86274" lon="2.37222">
        <ele>31</ele>
        <time>2014-02-23T18:23:37Z</time>
      </trkpt>
      <trkpt lat="48.86281" lon="2.37218">
        <ele>32</ele>
        <time>2014-02-23T18:23:40Z</time>
      </trkpt>
      <trkpt lat="48.86342" lon="2.37179">
        <ele>12</ele>
        <time>2014-02-23T18:24:00Z</time>
      </trkpt>
      <trkpt lat="48.86347" lon="2.37177">
        <ele>19</ele>
        <time>2014-02-23T18:24:01Z</time>
      </trkpt>
      <trkpt lat="48.86368" lon="2.37167">
        <ele>19</ele>
        <time>2014-02-23T18:24:06Z</time>
      </trkpt>
      <trkpt lat="48.86375" lon="2.3716">
        <ele>17</ele>
        <time>2014-02-23T18:24:08Z</time>
      </trkpt>
      <trkpt lat="48.86382" lon="2.37155">
        <ele>17</ele>
        <time>2014-02-23T18:24:10Z</time>
      </trkpt>
      <trkpt lat="48.86389" lon="2.37151">
        <ele>10</ele>
        <time>2014-02-23T18:24:12Z</time>
      </trkpt>
      <trkpt lat="48.86394" lon="2.37148">
        <ele>11</ele>
        <time>2014-02-23T18:24:14Z</time>
      </trkpt>
      <trkpt lat="48.86399" lon="2.37146">
        <ele>16</ele>
        <time>2014-02-23T18:24:17Z</time>
      </trkpt>
      <trkpt lat="48.864" lon="2.37137">
        <ele>39</ele>
        <time>2014-02-23T18:24:34Z</time>
      </trkpt>
      <trkpt lat="48.86398" lon="2.37128">
        <ele>44</ele>
        <time>2014-02-23T18:24:36Z</time>
      </trkpt>
      <trkpt lat="48.86398" lon="2.37128">
        <ele>45</ele>
        <time>2014-02-23T18:24:36Z</time>
      </trkpt>
      <trkpt lat="48.86396" lon="2.37123">
        <ele>38</ele>
        <time>2014-02-23T18:25:10Z</time>
      </trkpt>
      <trkpt lat="48.86395" lon="2.37114">
        <ele>38</ele>
        <time>2014-02-23T18:25:19Z</time>
      </trkpt>
      <trkpt lat="48.86404" lon="2.37117">
        <ele>56</ele>
        <time>2014-02-23T18:26:50Z</time>
      </trkpt>
      <trkpt lat="48.86417" lon="2.37132">
        <ele>32</ele>
        <time>2014-02-23T18:27:08Z</time>
      </trkpt>
      <trkpt lat="48.8641" lon="2.37139">
        <ele>27</ele>
        <time>2014-02-23T18:28:22Z</time>
      </trkpt>
      <trkpt lat="48.86415" lon="2.37134">
        <ele>27</ele>
        <time>2014-02-23T18:28:33Z</time>
      </trkpt>
      <trkpt lat="48.86414" lon="2.37127">
        <ele>73</ele>
        <time>2014-02-23T18:28:57Z</time>
      </trkpt>
      <trkpt lat="48.86418" lon="2.37135">
        <ele>54</ele>
        <time>2014-02-23T18:29:08Z</time>
      </trkpt>
      <trkpt lat="48.86422" lon="2.37142">
        <ele>50</ele>
        <time>2014-02-23T18:29:10Z</time>
      </trkpt>
      <trkpt lat="48.86426" lon="2.3715">
        <ele>41</ele>
        <time>2014-02-23T18:29:13Z</time>
      </trkpt>
      <trkpt lat="48.86427" lon="2.37158">
        <ele>39</ele>
        <time>2014-02-23T18:29:15Z</time>
      </trkpt>
      <trkpt lat="48.8643" lon="2.37167">
        <ele>46</ele>
        <time>2014-02-23T18:29:18Z</time>
      </trkpt>
      <trkpt lat="48.86439" lon="2.37186">
        <ele>45</ele>
        <time>2014-02-23T18:29:24Z</time>
      </trkpt>
      <trkpt lat="48.86449" lon="2.3721">
        <ele>42</ele>
        <time>2014-02-23T18:29:30Z</time>
      </trkpt>
      <trkpt lat="48.86452" lon="2.37219">
        <ele>41</ele>
        <time>2014-02-23T18:29:32Z</time>
      </trkpt>
      <trkpt lat="48.86456" lon="2.37228">
        <ele>43</ele>
        <time>2014-02-23T18:29:34Z</time>
      </trkpt>
      <trkpt lat="48.86459" lon="2.37236">
        <ele>44</ele>
        <time>2014-02-23T18:29:36Z</time>
      </trkpt>
      <trkpt lat="48.86465" lon="2.3725">
        <ele>42</ele>
        <time>2014-02-23T18:29:40Z</time>
      </trkpt>
      <trkpt lat="48.86471" lon="2.37257">
        <ele>44</ele>
        <time>2014-02-23T18:29:42Z</time>
      </trkpt>
      <trkpt lat="48.86476" lon="2.3726">
        <ele>46</ele>
        <time>2014-02-23T18:29:44Z</time>
      </trkpt>
      <trkpt lat="48.8648" lon="2.37265">
        <ele>44</ele>
        <time>2014-02-23T18:29:46Z</time>
      </trkpt>
      <trkpt lat="48.86484" lon="2.37272">
        <ele>43</ele>
        <time>2014-02-23T18:29:53Z</time>
      </trkpt>
      <trkpt lat="48.86486" lon="2.37282">
        <ele>46</ele>
        <time>2014-02-23T18:30:05Z</time>
      </trkpt>
      <trkpt lat="48.86483" lon="2.37291">
        <ele>50</ele>
        <time>2014-02-23T18:30:09Z</time>
      </trkpt>
      <trkpt lat="48.86484" lon="2.37299">
        <ele>47</ele>
        <time>2014-02-23T18:30:12Z</time>
      </trkpt>
      <trkpt lat="48.86486" lon="2.37307">
        <ele>43</ele>
        <time>2014-02-23T18:30:14Z</time>
      </trkpt>
      <trkpt lat="48.86487" lon="2.37314">
        <ele>46</ele>
        <time>2014-02-23T18:30:19Z</time>
      </trkpt>
      <trkpt lat="48.86487" lon="2.37326">
        <ele>45</ele>
        <time>2014-02-23T18:30:24Z</time>
      </trkpt>
      <trkpt lat="48.8649" lon="2.37336">
        <ele>46</ele>
        <time>2014-02-23T18:30:27Z</time>
      </trkpt>
      <trkpt lat="48.86491" lon="2.37346">
        <ele>50</ele>
        <time>2014-02-23T18:30:30Z</time>
      </trkpt>
      <trkpt lat="48.86489" lon="2.37358">
        <ele>39</ele>
        <time>2014-02-23T18:30:32Z</time>
      </trkpt>
      <trkpt lat="48.86485" lon="2.37367">
        <ele>43</ele>
        <time>2014-02-23T18:30:34Z</time>
      </trkpt>
      <trkpt lat="48.86484" lon="2.37374">
        <ele>44</ele>
        <time>2014-02-23T18:30:38Z</time>
      </trkpt>
      <trkpt lat="48.86483" lon="2.37385">
        <ele>43</ele>
        <time>2014-02-23T18:30:42Z</time>
      </trkpt>
      <trkpt lat="48.86484" lon="2.37393">
        <ele>50</ele>
        <time>2014-02-23T18:30:45Z</time>
      </trkpt>
      <trkpt lat="48.86484" lon="2.37402">
        <ele>50</ele>
        <time>2014-02-23T18:30:48Z</time>
      </trkpt>
      <trkpt lat="48.86486" lon="2.37409">
        <ele>50</ele>
        <time>2014-02-23T18:30:50Z</time>
      </trkpt>
      <trkpt lat="48.8649" lon="2.37421">
        <ele>53</ele>
        <time>2014-02-23T18:30:54Z</time>
      </trkpt>
      <trkpt lat="48.86492" lon="2.3743">
        <ele>54</ele>
        <time>2014-02-23T18:30:57Z</time>
      </trkpt>
      <trkpt lat="48.86494" lon="2.37454">
        <ele>47</ele>
        <time>2014-02-23T18:31:07Z</time>
      </trkpt>
      <trkpt lat="48.86495" lon="2.37466">
        <ele>44</ele>
        <time>2014-02-23T18:31:27Z</time>
      </trkpt>
      <trkpt lat="48.86503" lon="2.37476">
        <ele>44</ele>
        <time>2014-02-23T18:31:33Z</time>
      </trkpt>
      <trkpt lat="48.86505" lon="2.37484">
        <ele>23</ele>
        <time>2014-02-23T18:31:36Z</time>
      </trkpt>
      <trkpt lat="48.86505" lon="2.37493">
        <ele>33</ele>
        <time>2014-02-23T18:31:40Z</time>
      </trkpt>
      <trkpt lat="48.86507" lon="2.37501">
        <ele>32</ele>
        <time>2014-02-23T18:31:44Z</time>
      </trkpt>
      <trkpt lat="48.86508" lon="2.3751">
        <ele>30</ele>
        <time>2014-02-23T18:31:47Z</time>
      </trkpt>
      <trkpt lat="48.86511" lon="2.37516">
        <ele>43</ele>
        <time>2014-02-23T18:31:56Z</time>
      </trkpt>
      <trkpt lat="48.86515" lon="2.3751">
        <ele>49</ele>
        <time>2014-02-23T18:32:09Z</time>
      </trkpt>
      <trkpt lat="48.86515" lon="2.37519">
        <ele>41</ele>
        <time>2014-02-23T18:32:21Z</time>
      </trkpt>
      <trkpt lat="48.86517" lon="2.37527">
        <ele>50</ele>
        <time>2014-02-23T18:32:23Z</time>
      </trkpt>
      <trkpt lat="48.8652" lon="2.37536">
        <ele>54</ele>
        <time>2014-02-23T18:32:25Z</time>
      </trkpt>
      <trkpt lat="48.86521" lon="2.37543">
        <ele>54</ele>
        <time>2014-02-23T18:32:27Z</time>
      </trkpt>
      <trkpt lat="48.86526" lon="2.37571">
        <ele>51</ele>
        <time>2014-02-23T18:32:37Z</time>
      </trkpt>
      <trkpt lat="48.86529" lon="2.37581">
        <ele>49</ele>
        <time>2014-02-23T18:32:40Z</time>
      </trkpt>
      <trkpt lat="48.86534" lon="2.37599">
        <ele>45</ele>
        <time>2014-02-23T18:32:46Z</time>
      </trkpt>
      <trkpt lat="48.86543" lon="2.37625">
        <ele>45</ele>
        <time>2014-02-23T18:32:55Z</time>
      </trkpt>
      <trkpt lat="48.8655" lon="2.37638">
        <ele>47</ele>
        <time>2014-02-23T18:32:59Z</time>
      </trkpt>
      <trkpt lat="48.86561" lon="2.37673">
        <ele>46</ele>
        <time>2014-02-23T18:33:06Z</time>
      </trkpt>
      <trkpt lat="48.86574" lon="2.37704">
        <ele>46</ele>
        <time>2014-02-23T18:33:13Z</time>
      </trkpt>
      <trkpt lat="48.86578" lon="2.37722">
        <ele>39</ele>
        <time>2014-02-23T18:33:20Z</time>
      </trkpt>
      <trkpt lat="48.86576" lon="2.37728">
        <ele>38</ele>
        <time>2014-02-23T18:33:22Z</time>
      </trkpt>
      <trkpt lat="48.86576" lon="2.37738">
        <ele>35</ele>
        <time>2014-02-23T18:33:25Z</time>
      </trkpt>
      <trkpt lat="48.86579" lon="2.37745">
        <ele>34</ele>
        <time>2014-02-23T18:33:28Z</time>
      </trkpt>
      <trkpt lat="48.86582" lon="2.37756">
        <ele>40</ele>
        <time>2014-02-23T18:33:31Z</time>
      </trkpt>
      <trkpt lat="48.86581" lon="2.37766">
        <ele>44</ele>
        <time>2014-02-23T18:33:33Z</time>
      </trkpt>
      <trkpt lat="48.86581" lon="2.37795">
        <ele>50</ele>
        <time>2014-02-23T18:33:40Z</time>
      </trkpt>
      <trkpt lat="48.8658" lon="2.37806">
        <ele>48</ele>
        <time>2014-02-23T18:33:44Z</time>
      </trkpt>
      <trkpt lat="48.8658" lon="2.37815">
        <ele>42</ele>
        <time>2014-02-23T18:33:49Z</time>
      </trkpt>
      <trkpt lat="48.86585" lon="2.3782">
        <ele>35</ele>
        <time>2014-02-23T18:33:54Z</time>
      </trkpt>
      <trkpt lat="48.86597" lon="2.37835">
        <ele>48</ele>
        <time>2014-02-23T18:34:03Z</time>
      </trkpt>
      <trkpt lat="48.86599" lon="2.37845">
        <ele>61</ele>
        <time>2014-02-23T18:34:12Z</time>
      </trkpt>
      <trkpt lat="48.86599" lon="2.37853">
        <ele>58</ele>
        <time>2014-02-23T18:34:14Z</time>
      </trkpt>
      <trkpt lat="48.866" lon="2.37863">
        <ele>54</ele>
        <time>2014-02-23T18:34:16Z</time>
      </trkpt>
      <trkpt lat="48.86603" lon="2.37875">
        <ele>53</ele>
        <time>2014-02-23T18:34:18Z</time>
      </trkpt>
      <trkpt lat="48.86608" lon="2.3789">
        <ele>56</ele>
        <time>2014-02-23T18:34:20Z</time>
      </trkpt>
      <trkpt lat="48.86609" lon="2.37899">
        <ele>55</ele>
        <time>2014-02-23T18:34:21Z</time>
      </trkpt>
      <trkpt lat="48.86615" lon="2.37931">
        <ele>46</ele>
        <time>2014-02-23T18:34:26Z</time>
      </trkpt>
      <trkpt lat="48.86615" lon="2.37946">
        <ele>48</ele>
        <time>2014-02-23T18:34:28Z</time>
      </trkpt>
      <trkpt lat="48.86619" lon="2.37955">
        <ele>47</ele>
        <time>2014-02-23T18:34:30Z</time>
      </trkpt>
      <trkpt lat="48.86625" lon="2.37962">
        <ele>47</ele>
        <time>2014-02-23T18:34:32Z</time>
      </trkpt>
      <trkpt lat="48.8663" lon="2.37974">
        <ele>53</ele>
        <time>2014-02-23T18:34:34Z</time>
      </trkpt>
      <trkpt lat="48.86637" lon="2.37982">
        <ele>56</ele>
        <time>2014-02-23T18:34:36Z</time>
      </trkpt>
      <trkpt lat="48.8664" lon="2.37991">
        <ele>48</ele>
        <time>2014-02-23T18:34:38Z</time>
      </trkpt>
      <trkpt lat="48.86645" lon="2.38006">
        <ele>51</ele>
        <time>2014-02-23T18:34:42Z</time>
      </trkpt>
      <trkpt lat="48.86647" lon="2.38015">
        <ele>53</ele>
        <time>2014-02-23T18:34:44Z</time>
      </trkpt>
      <trkpt lat="48.86646" lon="2.38029">
        <ele>53</ele>
        <time>2014-02-23T18:34:46Z</time>
      </trkpt>
      <trkpt lat="48.86644" lon="2.3806">
        <ele>38</ele>
        <time>2014-02-23T18:34:52Z</time>
      </trkpt>
      <trkpt lat="48.86645" lon="2.38071">
        <ele>42</ele>
        <time>2014-02-23T18:34:54Z</time>
      </trkpt>
      <trkpt lat="48.86651" lon="2.38094">
        <ele>48</ele>
        <time>2014-02-23T18:34:59Z</time>
      </trkpt>
      <trkpt lat="48.86655" lon="2.38097">
        <ele>46</ele>
        <time>2014-02-23T18:35:00Z</time>
      </trkpt>
      <trkpt lat="48.8666" lon="2.38104">
        <ele>42</ele>
        <time>2014-02-23T18:35:02Z</time>
      </trkpt>
      <trkpt lat="48.86666" lon="2.38107">
        <ele>43</ele>
        <time>2014-02-23T18:35:04Z</time>
      </trkpt>
      <trkpt lat="48.86669" lon="2.38116">
        <ele>51</ele>
        <time>2014-02-23T18:35:08Z</time>
      </trkpt>
      <trkpt lat="48.86669" lon="2.38125">
        <ele>50</ele>
        <time>2014-02-23T18:35:10Z</time>
      </trkpt>
      <trkpt lat="48.86668" lon="2.38134">
        <ele>49</ele>
        <time>2014-02-23T18:35:12Z</time>
      </trkpt>
      <trkpt lat="48.86669" lon="2.38141">
        <ele>47</ele>
        <time>2014-02-23T18:35:14Z</time>
      </trkpt>
      <trkpt lat="48.86671" lon="2.38149">
        <ele>51</ele>
        <time>2014-02-23T18:35:16Z</time>
      </trkpt>
      <trkpt lat="48.86674" lon="2.38157">
        <ele>50</ele>
        <time>2014-02-23T18:35:18Z</time>
      </trkpt>
      <trkpt lat="48.86679" lon="2.38162">
        <ele>51</ele>
        <time>2014-02-23T18:35:20Z</time>
      </trkpt>
      <trkpt lat="48.86684" lon="2.38166">
        <ele>44</ele>
        <time>2014-02-23T18:35:23Z</time>
      </trkpt>
      <trkpt lat="48.86689" lon="2.38166">
        <ele>46</ele>
        <time>2014-02-23T18:35:26Z</time>
      </trkpt>
      <trkpt lat="48.86694" lon="2.38164">
        <ele>53</ele>
        <time>2014-02-23T18:35:29Z</time>
      </trkpt>
      <trkpt lat="48.86697" lon="2.38171">
        <ele>50</ele>
        <time>2014-02-23T18:35:43Z</time>
      </trkpt>
      <trkpt lat="48.86695" lon="2.38185">
        <ele>49</ele>
        <time>2014-02-23T18:35:45Z</time>
      </trkpt>
      <trkpt lat="48.86693" lon="2.38212">
        <ele>55</ele>
        <time>2014-02-23T18:35:50Z</time>
      </trkpt>
      <trkpt lat="48.86693" lon="2.38225">
        <ele>53</ele>
        <time>2014-02-23T18:35:53Z</time>
      </trkpt>
      <trkpt lat="48.86694" lon="2.38234">
        <ele>54</ele>
        <time>2014-02-23T18:35:56Z</time>
      </trkpt>
      <trkpt lat="48.86698" lon="2.38249">
        <ele>48</ele>
        <time>2014-02-23T18:36:02Z</time>
      </trkpt>
      <trkpt lat="48.86702" lon="2.38257">
        <ele>52</ele>
        <time>2014-02-23T18:36:05Z</time>
      </trkpt>
      <trkpt lat="48.86709" lon="2.38267">
        <ele>58</ele>
        <time>2014-02-23T18:36:10Z</time>
      </trkpt>
      <trkpt lat="48.86712" lon="2.38274">
        <ele>52</ele>
        <time>2014-02-23T18:36:13Z</time>
      </trkpt>
      <trkpt lat="48.86711" lon="2.38283">
        <ele>36</ele>
        <time>2014-02-23T18:36:27Z</time>
      </trkpt>
      <trkpt lat="48.86714" lon="2.3829">
        <ele>36</ele>
        <time>2014-02-23T18:36:31Z</time>
      </trkpt>
      <trkpt lat="48.8672" lon="2.38291">
        <ele>42</ele>
        <time>2014-02-23T18:36:34Z</time>
      </trkpt>
      <trkpt lat="48.86725" lon="2.3829">
        <ele>42</ele>
        <time>2014-02-23T18:36:37Z</time>
      </trkpt>
      <trkpt lat="48.86731" lon="2.38287">
        <ele>47</ele>
        <time>2014-02-23T18:36:40Z</time>
      </trkpt>
      <trkpt lat="48.86735" lon="2.38281">
        <ele>49</ele>
        <time>2014-02-23T18:36:43Z</time>
      </trkpt>
      <trkpt lat="48.86739" lon="2.38273">
        <ele>44</ele>
        <time>2014-02-23T18:36:46Z</time>
      </trkpt>
      <trkpt lat="48.86741" lon="2.38269">
        <ele>42</ele>
        <time>2014-02-23T18:36:48Z</time>
      </trkpt>
      <trkpt lat="48.86745" lon="2.38263">
        <ele>39</ele>
        <time>2014-02-23T18:36:51Z</time>
      </trkpt>
      <trkpt lat="48.86751" lon="2.38253">
        <ele>46</ele>
        <time>2014-02-23T18:36:56Z</time>
      </trkpt>
      <trkpt lat="48.86756" lon="2.38248">
        <ele>41</ele>
        <time>2014-02-23T18:36:59Z</time>
      </trkpt>
      <trkpt lat="48.86757" lon="2.38246">
        <ele>40</ele>
        <time>2014-02-23T18:37:00Z</time>
      </trkpt>
      <trkpt lat="48.86764" lon="2.38241">
        <ele>44</ele>
        <time>2014-02-23T18:37:05Z</time>
      </trkpt>
      <trkpt lat="48.86768" lon="2.38236">
        <ele>43</ele>
        <time>2014-02-23T18:37:09Z</time>
      </trkpt>
      <trkpt lat="48.86772" lon="2.38227">
        <ele>48</ele>
        <time>2014-02-23T18:37:13Z</time>
      </trkpt>
      <trkpt lat="48.86775" lon="2.38218">
        <ele>48</ele>
        <time>2014-02-23T18:37:16Z</time>
      </trkpt>
      <trkpt lat="48.86781" lon="2.38211">
        <ele>51</ele>
        <time>2014-02-23T18:37:19Z</time>
      </trkpt>
      <trkpt lat="48.86784" lon="2.38205">
        <ele>51</ele>
        <time>2014-02-23T18:37:21Z</time>
      </trkpt>
      <trkpt lat="48.86787" lon="2.38196">
        <ele>47</ele>
        <time>2014-02-23T18:37:24Z</time>
      </trkpt>
      <trkpt lat="48.86791" lon="2.38187">
        <ele>54</ele>
        <time>2014-02-23T18:37:27Z</time>
      </trkpt>
      <trkpt lat="48.86801" lon="2.3817">
        <ele>60</ele>
        <time>2014-02-23T18:37:33Z</time>
      </trkpt>
      <trkpt lat="48.86805" lon="2.38163">
        <ele>60</ele>
        <time>2014-02-23T18:37:36Z</time>
      </trkpt>
      <trkpt lat="48.86813" lon="2.38156">
        <ele>56</ele>
        <time>2014-02-23T18:37:42Z</time>
      </trkpt>
      <trkpt lat="48.86819" lon="2.38155">
        <ele>50</ele>
        <time>2014-02-23T18:37:45Z</time>
      </trkpt>
      <trkpt lat="48.8683" lon="2.38148">
        <ele>47</ele>
        <time>2014-02-23T18:37:50Z</time>
      </trkpt>
      <trkpt lat="48.86835" lon="2.38144">
        <ele>43</ele>
        <time>2014-02-23T18:37:52Z</time>
      </trkpt>
      <trkpt lat="48.86841" lon="2.38138">
        <ele>47</ele>
        <time>2014-02-23T18:37:55Z</time>
      </trkpt>
      <trkpt lat="48.86851" lon="2.38122">
        <ele>54</ele>
        <time>2014-02-23T18:38:06Z</time>
      </trkpt>
      <trkpt lat="48.86857" lon="2.38116">
        <ele>63</ele>
        <time>2014-02-23T18:38:15Z</time>
      </trkpt>
      <trkpt lat="48.86863" lon="2.38112">
        <ele>55</ele>
        <time>2014-02-23T18:38:18Z</time>
      </trkpt>
      <trkpt lat="48.86877" lon="2.38099">
        <ele>41</ele>
        <time>2014-02-23T18:38:24Z</time>
      </trkpt>
      <trkpt lat="48.86883" lon="2.3809">
        <ele>41</ele>
        <time>2014-02-23T18:38:26Z</time>
      </trkpt>
      <trkpt lat="48.86889" lon="2.38081">
        <ele>40</ele>
        <time>2014-02-23T18:38:28Z</time>
      </trkpt>
      <trkpt lat="48.86892" lon="2.38075">
        <ele>40</ele>
        <time>2014-02-23T18:38:30Z</time>
      </trkpt>
      <trkpt lat="48.86897" lon="2.38071">
        <ele>48</ele>
        <time>2014-02-23T18:38:34Z</time>
      </trkpt>
      <trkpt lat="48.86903" lon="2.3807">
        <ele>52</ele>
        <time>2014-02-23T18:38:38Z</time>
      </trkpt>
      <trkpt lat="48.86905" lon="2.38062">
        <ele>48</ele>
        <time>2014-02-23T18:38:41Z</time>
      </trkpt>
      <trkpt lat="48.8691" lon="2.38055">
        <ele>44</ele>
        <time>2014-02-23T18:38:44Z</time>
      </trkpt>
      <trkpt lat="48.86937" lon="2.38009">
        <ele>43</ele>
        <time>2014-02-23T18:39:04Z</time>
      </trkpt>
      <trkpt lat="48.86948" lon="2.37996">
        <ele>43</ele>
        <time>2014-02-23T18:39:09Z</time>
      </trkpt>
      <trkpt lat="48.86953" lon="2.37992">
        <ele>43</ele>
        <time>2014-02-23T18:39:11Z</time>
      </trkpt>
      <trkpt lat="48.86956" lon="2.37991">
        <ele>46</ele>
        <time>2014-02-23T18:39:13Z</time>
      </trkpt>
      <trkpt lat="48.86959" lon="2.37987">
        <ele>43</ele>
        <time>2014-02-23T18:39:15Z</time>
      </trkpt>
      <trkpt lat="48.86968" lon="2.37978">
        <ele>42</ele>
        <time>2014-02-23T18:39:22Z</time>
      </trkpt>
      <trkpt lat="48.86972" lon="2.37972">
        <ele>36</ele>
        <time>2014-02-23T18:39:24Z</time>
      </trkpt>
      <trkpt lat="48.86978" lon="2.37966">
        <ele>40</ele>
        <time>2014-02-23T18:39:27Z</time>
      </trkpt>
      <trkpt lat="48.86995" lon="2.37948">
        <ele>36</ele>
        <time>2014-02-23T18:39:35Z</time>
      </trkpt>
      <trkpt lat="48.87" lon="2.37942">
        <ele>39</ele>
        <time>2014-02-23T18:39:37Z</time>
      </trkpt>
      <trkpt lat="48.87004" lon="2.37936">
        <ele>39</ele>
        <time>2014-02-23T18:39:39Z</time>
      </trkpt>
      <trkpt lat="48.87014" lon="2.37928">
        <ele>46</ele>
        <time>2014-02-23T18:39:45Z</time>
      </trkpt>
      <trkpt lat="48.87016" lon="2.3792">
        <ele>45</ele>
        <time>2014-02-23T18:40:04Z</time>
      </trkpt>
      <trkpt lat="48.8702" lon="2.37912">
        <ele>50</ele>
        <time>2014-02-23T18:40:08Z</time>
      </trkpt>
      <trkpt lat="48.87025" lon="2.37905">
        <ele>49</ele>
        <time>2014-02-23T18:40:12Z</time>
      </trkpt>
      <trkpt lat="48.87034" lon="2.3789">
        <ele>45</ele>
        <time>2014-02-23T18:40:18Z</time>
      </trkpt>
      <trkpt lat="48.87047" lon="2.37868">
        <ele>46</ele>
        <time>2014-02-23T18:40:26Z</time>
      </trkpt>
      <trkpt lat="48.87052" lon="2.37863">
        <ele>50</ele>
        <time>2014-02-23T18:40:28Z</time>
      </trkpt>
      <trkpt lat="48.87056" lon="2.37857">
        <ele>49</ele>
        <time>2014-02-23T18:40:30Z</time>
      </trkpt>
      <trkpt lat="48.87071" lon="2.37839">
        <ele>40</ele>
        <time>2014-02-23T18:40:39Z</time>
      </trkpt>
      <trkpt lat="48.87075" lon="2.37831">
        <ele>37</ele>
        <time>2014-02-23T18:40:43Z</time>
      </trkpt>
      <trkpt lat="48.87079" lon="2.37824">
        <ele>41</ele>
        <time>2014-02-23T18:40:47Z</time>
      </trkpt>
      <trkpt lat="48.87084" lon="2.37822">
        <ele>43</ele>
        <time>2014-02-23T18:40:51Z</time>
      </trkpt>
      <trkpt lat="48.87085" lon="2.37821">
        <ele>45</ele>
        <time>2014-02-23T18:40:52Z</time>
      </trkpt>
      <trkpt lat="48.87091" lon="2.37818">
        <ele>40</ele>
        <time>2014-02-23T18:40:56Z</time>
      </trkpt>
      <trkpt lat="48.87094" lon="2.37811">
        <ele>38</ele>
        <time>2014-02-23T18:40:59Z</time>
      </trkpt>
      <trkpt lat="48.87099" lon="2.37806">
        <ele>39</ele>
        <time>2014-02-23T18:41:02Z</time>
      </trkpt>
      <trkpt lat="48.87106" lon="2.37796">
        <ele>43</ele>
        <time>2014-02-23T18:41:06Z</time>
      </trkpt>
      <trkpt lat="48.87111" lon="2.37792">
        <ele>41</ele>
        <time>2014-02-23T18:41:08Z</time>
      </trkpt>
      <trkpt lat="48.87128" lon="2.37776">
        <ele>48</ele>
        <time>2014-02-23T18:41:16Z</time>
      </trkpt>
      <trkpt lat="48.87132" lon="2.37771">
        <ele>50</ele>
        <time>2014-02-23T18:41:18Z</time>
      </trkpt>
      <trkpt lat="48.87138" lon="2.37765">
        <ele>46</ele>
        <time>2014-02-23T18:41:21Z</time>
      </trkpt>
      <trkpt lat="48.87143" lon="2.37762">
        <ele>46</ele>
        <time>2014-02-23T18:41:23Z</time>
      </trkpt>
      <trkpt lat="48.87156" lon="2.3775">
        <ele>52</ele>
        <time>2014-02-23T18:41:28Z</time>
      </trkpt>
      <trkpt lat="48.87157" lon="2.37746">
        <ele>50</ele>
        <time>2014-02-23T18:41:29Z</time>
      </trkpt>
      <trkpt lat="48.87159" lon="2.37743">
        <ele>48</ele>
        <time>2014-02-23T18:41:30Z</time>
      </trkpt>
      <trkpt lat="48.87164" lon="2.37737">
        <ele>51</ele>
        <time>2014-02-23T18:41:33Z</time>
      </trkpt>
      <trkpt lat="48.8717" lon="2.37733">
        <ele>53</ele>
        <time>2014-02-23T18:41:36Z</time>
      </trkpt>
      <trkpt lat="48.87176" lon="2.3773">
        <ele>52</ele>
        <time>2014-02-23T18:41:40Z</time>
      </trkpt>
      <trkpt lat="48.87182" lon="2.37722">
        <ele>62</ele>
        <time>2014-02-23T18:41:46Z</time>
      </trkpt>
      <trkpt lat="48.87189" lon="2.37716">
        <ele>52</ele>
        <time>2014-02-23T18:41:50Z</time>
      </trkpt>
      <trkpt lat="48.87201" lon="2.37708">
        <ele>49</ele>
        <time>2014-02-23T18:41:58Z</time>
      </trkpt>
      <trkpt lat="48.87206" lon="2.37707">
        <ele>38</ele>
        <time>2014-02-23T18:42:02Z</time>
      </trkpt>
      <trkpt lat="48.8721" lon="2.37703">
        <ele>49</ele>
        <time>2014-02-23T18:42:07Z</time>
      </trkpt>
      <trkpt lat="48.87216" lon="2.37703">
        <ele>55</ele>
        <time>2014-02-23T18:42:12Z</time>
      </trkpt>
      <trkpt lat="48.87221" lon="2.37699">
        <ele>64</ele>
        <time>2014-02-23T18:42:15Z</time>
      </trkpt>
      <trkpt lat="48.87226" lon="2.37697">
        <ele>67</ele>
        <time>2014-02-23T18:42:18Z</time>
      </trkpt>
      <trkpt lat="48.87233" lon="2.37692">
        <ele>71</ele>
        <time>2014-02-23T18:42:23Z</time>
      </trkpt>
      <trkpt lat="48.87246" lon="2.37681">
        <ele>79</ele>
        <time>2014-02-23T18:42:28Z</time>
      </trkpt>
      <trkpt lat="48.87262" lon="2.37668">
        <ele>72</ele>
        <time>2014-02-23T18:42:37Z</time>
      </trkpt>
      <trkpt lat="48.87277" lon="2.3765">
        <ele>70</ele>
        <time>2014-02-23T18:42:45Z</time>
      </trkpt>
      <trkpt lat="48.8728" lon="2.37642">
        <ele>70</ele>
        <time>2014-02-23T18:42:47Z</time>
      </trkpt>
      <trkpt lat="48.87284" lon="2.37635">
        <ele>83</ele>
        <time>2014-02-23T18:42:49Z</time>
      </trkpt>
      <trkpt lat="48.87288" lon="2.3763">
        <ele>83</ele>
        <time>2014-02-23T18:42:51Z</time>
      </trkpt>
      <trkpt lat="48.87304" lon="2.37609">
        <ele>80</ele>
        <time>2014-02-23T18:43:00Z</time>
      </trkpt>
      <trkpt lat="48.87309" lon="2.37604">
        <ele>89</ele>
        <time>2014-02-23T18:43:02Z</time>
      </trkpt>
      <trkpt lat="48.87313" lon="2.376">
        <ele>94</ele>
        <time>2014-02-23T18:43:04Z</time>
      </trkpt>
      <trkpt lat="48.87318" lon="2.37595">
        <ele>93</ele>
        <time>2014-02-23T18:43:06Z</time>
      </trkpt>
      <trkpt lat="48.87331" lon="2.37579">
        <ele>84</ele>
        <time>2014-02-23T18:43:12Z</time>
      </trkpt>
      <trkpt lat="48.87336" lon="2.37575">
        <ele>89</ele>
        <time>2014-02-23T18:43:14Z</time>
      </trkpt>
      <trkpt lat="48.87342" lon="2.37568">
        <ele>92</ele>
        <time>2014-02-23T18:43:16Z</time>
      </trkpt>
      <trkpt lat="48.87363" lon="2.37553">
        <ele>76</ele>
        <time>2014-02-23T18:43:23Z</time>
      </trkpt>
      <trkpt lat="48.87367" lon="2.37554">
        <ele>83</ele>
        <time>2014-02-23T18:43:26Z</time>
      </trkpt>
      <trkpt lat="48.87376" lon="2.3755">
        <ele>85</ele>
        <time>2014-02-23T18:43:32Z</time>
      </trkpt>
      <trkpt lat="48.87386" lon="2.37536">
        <ele>86</ele>
        <time>2014-02-23T18:43:38Z</time>
      </trkpt>
      <trkpt lat="48.87387" lon="2.37534">
        <ele>91</ele>
        <time>2014-02-23T18:43:39Z</time>
      </trkpt>
      <trkpt lat="48.874" lon="2.37523">
        <ele>106</ele>
        <time>2014-02-23T18:43:51Z</time>
      </trkpt>
      <trkpt lat="48.87404" lon="2.37516">
        <ele>103</ele>
        <time>2014-02-23T18:43:54Z</time>
      </trkpt>
      <trkpt lat="48.87409" lon="2.37507">
        <ele>63</ele>
        <time>2014-02-23T18:43:57Z</time>
      </trkpt>
      <trkpt lat="48.87436" lon="2.37465">
        <ele>45</ele>
        <time>2014-02-23T18:44:13Z</time>
      </trkpt>
      <trkpt lat="48.87441" lon="2.37458">
        <ele>50</ele>
        <time>2014-02-23T18:44:18Z</time>
      </trkpt>
      <trkpt lat="48.87445" lon="2.37454">
        <ele>43</ele>
        <time>2014-02-23T18:44:27Z</time>
      </trkpt>
      <trkpt lat="48.87455" lon="2.37455">
        <ele>38</ele>
        <time>2014-02-23T18:44:56Z</time>
      </trkpt>
      <trkpt lat="48.8746" lon="2.37454">
        <ele>36</ele>
        <time>2014-02-23T18:45:30Z</time>
      </trkpt>
      <trkpt lat="48.87481" lon="2.37451">
        <ele>46</ele>
        <time>2014-02-23T18:45:35Z</time>
      </trkpt>
      <trkpt lat="48.87486" lon="2.37453">
        <ele>47</ele>
        <time>2014-02-23T18:45:38Z</time>
      </trkpt>
      <trkpt lat="48.87492" lon="2.37457">
        <ele>47</ele>
        <time>2014-02-23T18:45:45Z</time>
      </trkpt>
      <trkpt lat="48.87497" lon="2.3745">
        <ele>50</ele>
        <time>2014-02-23T18:45:48Z</time>
      </trkpt>
      <trkpt lat="48.87501" lon="2.37442">
        <ele>56</ele>
        <time>2014-02-23T18:45:52Z</time>
      </trkpt>
      <trkpt lat="48.87504" lon="2.37435">
        <ele>58</ele>
        <time>2014-02-23T18:45:55Z</time>
      </trkpt>
      <trkpt lat="48.87515" lon="2.37418">
        <ele>42</ele>
        <time>2014-02-23T18:46:01Z</time>
      </trkpt>
      <trkpt lat="48.87521" lon="2.37412">
        <ele>29</ele>
        <time>2014-02-23T18:46:04Z</time>
      </trkpt>
      <trkpt lat="48.87525" lon="2.37404">
        <ele>40</ele>
        <time>2014-02-23T18:46:07Z</time>
      </trkpt>
      <trkpt lat="48.87531" lon="2.37398">
        <ele>37</ele>
        <time>2014-02-23T18:46:10Z</time>
      </trkpt>
      <trkpt lat="48.87545" lon="2.3738">
        <ele>41</ele>
        <time>2014-02-23T18:46:19Z</time>
      </trkpt>
      <trkpt lat="48.87552" lon="2.37371">
        <ele>41</ele>
        <time>2014-02-23T18:46:23Z</time>
      </trkpt>
      <trkpt lat="48.87557" lon="2.37366">
        <ele>46</ele>
        <time>2014-02-23T18:46:26Z</time>
      </trkpt>
      <trkpt lat="48.87574" lon="2.37346">
        <ele>44</ele>
        <time>2014-02-23T18:46:35Z</time>
      </trkpt>
      <trkpt lat="48.87578" lon="2.3734">
        <ele>46</ele>
        <time>2014-02-23T18:46:36Z</time>
      </trkpt>
      <trkpt lat="48.87587" lon="2.37322">
        <ele>49</ele>
        <time>2014-02-23T18:46:38Z</time>
      </trkpt>
      <trkpt lat="48.87595" lon="2.37304">
        <ele>49</ele>
        <time>2014-02-23T18:46:41Z</time>
      </trkpt>
      <trkpt lat="48.87607" lon="2.37284">
        <ele>47</ele>
        <time>2014-02-23T18:46:46Z</time>
      </trkpt>
      <trkpt lat="48.87612" lon="2.37279">
        <ele>47</ele>
        <time>2014-02-23T18:46:48Z</time>
      </trkpt>
      <trkpt lat="48.87625" lon="2.37268">
        <ele>56</ele>
        <time>2014-02-23T18:46:52Z</time>
      </trkpt>
      <trkpt lat="48.87642" lon="2.37251">
        <ele>61</ele>
        <time>2014-02-23T18:47:00Z</time>
      </trkpt>
      <trkpt lat="48.87645" lon="2.37242">
        <ele>62</ele>
        <time>2014-02-23T18:47:02Z</time>
      </trkpt>
      <trkpt lat="48.87649" lon="2.37235">
        <ele>66</ele>
        <time>2014-02-23T18:47:04Z</time>
      </trkpt>
      <trkpt lat="48.87653" lon="2.37227">
        <ele>67</ele>
        <time>2014-02-23T18:47:06Z</time>
      </trkpt>
      <trkpt lat="48.87657" lon="2.3722">
        <ele>57</ele>
        <time>2014-02-23T18:47:08Z</time>
      </trkpt>
      <trkpt lat="48.87688" lon="2.37174">
        <ele>60</ele>
        <time>2014-02-23T18:47:20Z</time>
      </trkpt>
      <trkpt lat="48.87693" lon="2.37165">
        <ele>58</ele>
        <time>2014-02-23T18:47:22Z</time>
      </trkpt>
      <trkpt lat="48.87706" lon="2.37142">
        <ele>49</ele>
        <time>2014-02-23T18:47:26Z</time>
      </trkpt>
      <trkpt lat="48.87711" lon="2.37135">
        <ele>53</ele>
        <time>2014-02-23T18:47:27Z</time>
      </trkpt>
      <trkpt lat="48.87728" lon="2.37111">
        <ele>46</ele>
        <time>2014-02-23T18:47:30Z</time>
      </trkpt>
      <trkpt lat="48.87745" lon="2.37092">
        <ele>39</ele>
        <time>2014-02-23T18:47:34Z</time>
      </trkpt>
      <trkpt lat="48.87759" lon="2.37073">
        <ele>44</ele>
        <time>2014-02-23T18:47:41Z</time>
      </trkpt>
      <trkpt lat="48.87764" lon="2.37073">
        <ele>47</ele>
        <time>2014-02-23T18:47:57Z</time>
      </trkpt>
      <trkpt lat="48.87767" lon="2.37079">
        <ele>46</ele>
        <time>2014-02-23T18:48:00Z</time>
      </trkpt>
      <trkpt lat="48.87772" lon="2.37089">
        <ele>45</ele>
        <time>2014-02-23T18:48:03Z</time>
      </trkpt>
      <trkpt lat="48.87776" lon="2.37092">
        <ele>46</ele>
        <time>2014-02-23T18:48:05Z</time>
      </trkpt>
      <trkpt lat="48.87781" lon="2.37098">
        <ele>50</ele>
        <time>2014-02-23T18:48:07Z</time>
      </trkpt>
      <trkpt lat="48.87786" lon="2.37106">
        <ele>48</ele>
        <time>2014-02-23T18:48:09Z</time>
      </trkpt>
      <trkpt lat="48.87792" lon="2.37108">
        <ele>47</ele>
        <time>2014-02-23T18:48:14Z</time>
      </trkpt>
      <trkpt lat="48.87793" lon="2.37108">
        <ele>36</ele>
        <time>2014-02-23T18:48:28Z</time>
      </trkpt>
      <trkpt lat="48.87807" lon="2.37105">
        <ele>37</ele>
        <time>2014-02-23T18:48:36Z</time>
      </trkpt>
      <trkpt lat="48.87815" lon="2.37098">
        <ele>66</ele>
        <time>2014-02-23T18:48:43Z</time>
      </trkpt>
      <trkpt lat="48.8782" lon="2.37104">
        <ele>55</ele>
        <time>2014-02-23T18:48:56Z</time>
      </trkpt>
      <trkpt lat="48.87826" lon="2.37102">
        <ele>56</ele>
        <time>2014-02-23T18:48:59Z</time>
      </trkpt>
      <trkpt lat="48.87831" lon="2.37098">
        <ele>57</ele>
        <time>2014-02-23T18:49:02Z</time>
      </trkpt>
      <trkpt lat="48.87835" lon="2.37093">
        <ele>49</ele>
        <time>2014-02-23T18:49:04Z</time>
      </trkpt>
      <trkpt lat="48.87842" lon="2.37088">
        <ele>43</ele>
        <time>2014-02-23T18:49:09Z</time>
      </trkpt>
      <trkpt lat="48.87847" lon="2.37081">
        <ele>45</ele>
        <time>2014-02-23T18:49:12Z</time>
      </trkpt>
      <trkpt lat="48.8785" lon="2.37073">
        <ele>49</ele>
        <time>2014-02-23T18:49:14Z</time>
      </trkpt>
      <trkpt lat="48.87854" lon="2.37066">
        <ele>50</ele>
        <time>2014-02-23T18:49:16Z</time>
      </trkpt>
      <trkpt lat="48.8786" lon="2.37062">
        <ele>49</ele>
        <time>2014-02-23T18:49:19Z</time>
      </trkpt>
      <trkpt lat="48.87869" lon="2.37062">
        <ele>45</ele>
        <time>2014-02-23T18:49:22Z</time>
      </trkpt>
      <trkpt lat="48.87908" lon="2.37062">
        <ele>46</ele>
        <time>2014-02-23T18:49:32Z</time>
      </trkpt>
      <trkpt lat="48.87921" lon="2.37064">
        <ele>46</ele>
        <time>2014-02-23T18:49:35Z</time>
      </trkpt>
      <trkpt lat="48.87927" lon="2.37062">
        <ele>45</ele>
        <time>2014-02-23T18:49:36Z</time>
      </trkpt>
      <trkpt lat="48.87933" lon="2.3706">
        <ele>44</ele>
        <time>2014-02-23T18:49:37Z</time>
      </trkpt>
      <trkpt lat="48.87939" lon="2.3706">
        <ele>44</ele>
        <time>2014-02-23T18:49:38Z</time>
      </trkpt>
      <trkpt lat="48.87945" lon="2.37058">
        <ele>45</ele>
        <time>2014-02-23T18:49:39Z</time>
      </trkpt>
      <trkpt lat="48.87969" lon="2.37054">
        <ele>44</ele>
        <time>2014-02-23T18:49:43Z</time>
      </trkpt>
      <trkpt lat="48.87975" lon="2.37051">
        <ele>45</ele>
        <time>2014-02-23T18:49:44Z</time>
      </trkpt>
      <trkpt lat="48.87982" lon="2.37051">
        <ele>47</ele>
        <time>2014-02-23T18:49:45Z</time>
      </trkpt>
      <trkpt lat="48.87995" lon="2.3706">
        <ele>45</ele>
        <time>2014-02-23T18:49:51Z</time>
      </trkpt>
      <trkpt lat="48.88024" lon="2.37074">
        <ele>47</ele>
        <time>2014-02-23T18:49:56Z</time>
      </trkpt>
      <trkpt lat="48.8804" lon="2.37073">
        <ele>49</ele>
        <time>2014-02-23T18:49:59Z</time>
      </trkpt>
      <trkpt lat="48.8805" lon="2.37066">
        <ele>51</ele>
        <time>2014-02-23T18:50:01Z</time>
      </trkpt>
      <trkpt lat="48.88056" lon="2.37062">
        <ele>51</ele>
        <time>2014-02-23T18:50:02Z</time>
      </trkpt>
      <trkpt lat="48.88077" lon="2.37049">
        <ele>51</ele>
        <time>2014-02-23T18:50:06Z</time>
      </trkpt>
      <trkpt lat="48.88083" lon="2.37048">
        <ele>47</ele>
        <time>2014-02-23T18:50:07Z</time>
      </trkpt>
      <trkpt lat="48.88105" lon="2.37062">
        <ele>53</ele>
        <time>2014-02-23T18:50:12Z</time>
      </trkpt>
      <trkpt lat="48.88113" lon="2.37064">
        <ele>55</ele>
        <time>2014-02-23T18:50:14Z</time>
      </trkpt>
      <trkpt lat="48.88122" lon="2.37065">
        <ele>48</ele>
        <time>2014-02-23T18:50:16Z</time>
      </trkpt>
      <trkpt lat="48.88128" lon="2.37065">
        <ele>48</ele>
        <time>2014-02-23T18:50:17Z</time>
      </trkpt>
      <trkpt lat="48.88147" lon="2.37067">
        <ele>49</ele>
        <time>2014-02-23T18:50:22Z</time>
      </trkpt>
      <trkpt lat="48.88157" lon="2.37069">
        <ele>52</ele>
        <time>2014-02-23T18:50:24Z</time>
      </trkpt>
      <trkpt lat="48.88163" lon="2.37069">
        <ele>52</ele>
        <time>2014-02-23T18:50:25Z</time>
      </trkpt>
      <trkpt lat="48.88174" lon="2.37068">
        <ele>51</ele>
        <time>2014-02-23T18:50:27Z</time>
      </trkpt>
      <trkpt lat="48.88185" lon="2.37065">
        <ele>47</ele>
        <time>2014-02-23T18:50:29Z</time>
      </trkpt>
      <trkpt lat="48.8819" lon="2.37063">
        <ele>45</ele>
        <time>2014-02-23T18:50:30Z</time>
      </trkpt>
      <trkpt lat="48.88199" lon="2.3706">
        <ele>50</ele>
        <time>2014-02-23T18:50:32Z</time>
      </trkpt>
      <trkpt lat="48.88212" lon="2.37058">
        <ele>47</ele>
        <time>2014-02-23T18:50:35Z</time>
      </trkpt>
      <trkpt lat="48.8822" lon="2.3706">
        <ele>45</ele>
        <time>2014-02-23T18:50:37Z</time>
      </trkpt>
      <trkpt lat="48.88241" lon="2.37063">
        <ele>49</ele>
        <time>2014-02-23T18:50:43Z</time>
      </trkpt>
      <trkpt lat="48.88251" lon="2.37062">
        <ele>50</ele>
        <time>2014-02-23T18:50:48Z</time>
      </trkpt>
      <trkpt lat="48.88257" lon="2.37063">
        <ele>56</ele>
        <time>2014-02-23T18:50:54Z</time>
      </trkpt>
      <trkpt lat="48.88263" lon="2.37062">
        <ele>52</ele>
        <time>2014-02-23T18:50:56Z</time>
      </trkpt>
      <trkpt lat="48.88269" lon="2.37063">
        <ele>52</ele>
        <time>2014-02-23T18:50:59Z</time>
      </trkpt>
      <trkpt lat="48.88275" lon="2.3706">
        <ele>58</ele>
        <time>2014-02-23T18:51:03Z</time>
      </trkpt>
      <trkpt lat="48.88282" lon="2.37063">
        <ele>62</ele>
        <time>2014-02-23T18:51:06Z</time>
      </trkpt>
      <trkpt lat="48.88288" lon="2.37062">
        <ele>55</ele>
        <time>2014-02-23T18:51:11Z</time>
      </trkpt>
      <trkpt lat="48.88293" lon="2.37059">
        <ele>50</ele>
        <time>2014-02-23T18:51:13Z</time>
      </trkpt>
      <trkpt lat="48.88303" lon="2.37052">
        <ele>53</ele>
        <time>2014-02-23T18:51:17Z</time>
      </trkpt>
      <trkpt lat="48.88307" lon="2.37044">
        <ele>49</ele>
        <time>2014-02-23T18:51:19Z</time>
      </trkpt>
      <trkpt lat="48.88313" lon="2.37031">
        <ele>48</ele>
        <time>2014-02-23T18:51:24Z</time>
      </trkpt>
      <trkpt lat="48.88314" lon="2.37027">
        <ele>49</ele>
        <time>2014-02-23T18:51:25Z</time>
      </trkpt>
      <trkpt lat="48.88318" lon="2.37022">
        <ele>51</ele>
        <time>2014-02-23T18:51:27Z</time>
      </trkpt>
      <trkpt lat="48.88321" lon="2.3702">
        <ele>50</ele>
        <time>2014-02-23T18:51:28Z</time>
      </trkpt>
      <trkpt lat="48.8833" lon="2.37015">
        <ele>46</ele>
        <time>2014-02-23T18:51:32Z</time>
      </trkpt>
      <trkpt lat="48.88336" lon="2.37015">
        <ele>48</ele>
        <time>2014-02-23T18:51:34Z</time>
      </trkpt>
      <trkpt lat="48.88343" lon="2.37016">
        <ele>46</ele>
        <time>2014-02-23T18:51:36Z</time>
      </trkpt>
      <trkpt lat="48.88351" lon="2.37019">
        <ele>50</ele>
        <time>2014-02-23T18:51:38Z</time>
      </trkpt>
      <trkpt lat="48.88359" lon="2.37017">
        <ele>53</ele>
        <time>2014-02-23T18:51:40Z</time>
      </trkpt>
      <trkpt lat="48.88364" lon="2.37013">
        <ele>53</ele>
        <time>2014-02-23T18:51:41Z</time>
      </trkpt>
      <trkpt lat="48.88368" lon="2.37007">
        <ele>50</ele>
        <time>2014-02-23T18:51:42Z</time>
      </trkpt>
      <trkpt lat="48.88375" lon="2.36994">
        <ele>51</ele>
        <time>2014-02-23T18:51:44Z</time>
      </trkpt>
      <trkpt lat="48.88388" lon="2.36969">
        <ele>53</ele>
        <time>2014-02-23T18:51:48Z</time>
      </trkpt>
      <trkpt lat="48.88392" lon="2.36956">
        <ele>53</ele>
        <time>2014-02-23T18:51:50Z</time>
      </trkpt>
      <trkpt lat="48.88394" lon="2.36945">
        <ele>53</ele>
        <time>2014-02-23T18:51:52Z</time>
      </trkpt>
      <trkpt lat="48.88397" lon="2.36938">
        <ele>50</ele>
        <time>2014-02-23T18:51:54Z</time>
      </trkpt>
      <trkpt lat="48.884" lon="2.36929">
        <ele>54</ele>
        <time>2014-02-23T18:51:57Z</time>
      </trkpt>
      <trkpt lat="48.88405" lon="2.36926">
        <ele>53</ele>
        <time>2014-02-23T18:52:00Z</time>
      </trkpt>
      <trkpt lat="48.88412" lon="2.36926">
        <ele>53</ele>
        <time>2014-02-23T18:52:04Z</time>
      </trkpt>
      <trkpt lat="48.88418" lon="2.36925">
        <ele>53</ele>
        <time>2014-02-23T18:52:07Z</time>
      </trkpt>
      <trkpt lat="48.88424" lon="2.36926">
        <ele>52</ele>
        <time>2014-02-23T18:52:10Z</time>
      </trkpt>
      <trkpt lat="48.88425" lon="2.36935">
        <ele>46</ele>
        <time>2014-02-23T18:52:14Z</time>
      </trkpt>
      <trkpt lat="48.88424" lon="2.36945">
        <ele>41</ele>
        <time>2014-02-23T18:52:17Z</time>
      </trkpt>
      <trkpt lat="48.88426" lon="2.36954">
        <ele>41</ele>
        <time>2014-02-23T18:52:19Z</time>
      </trkpt>
      <trkpt lat="48.88429" lon="2.36963">
        <ele>45</ele>
        <time>2014-02-23T18:52:21Z</time>
      </trkpt>
      <trkpt lat="48.88436" lon="2.3699">
        <ele>42</ele>
        <time>2014-02-23T18:52:30Z</time>
      </trkpt>
      <trkpt lat="48.88439" lon="2.37002">
        <ele>63</ele>
        <time>2014-02-23T18:52:42Z</time>
      </trkpt>
      <trkpt lat="48.88443" lon="2.37005">
        <ele>51</ele>
        <time>2014-02-23T18:54:19Z</time>
      </trkpt>
      <trkpt lat="48.88452" lon="2.37001">
        <ele>71</ele>
        <time>2014-02-23T18:55:21Z</time>
      </trkpt>
      <trkpt lat="48.88444" lon="2.37005">
        <ele>48</ele>
        <time>2014-02-23T18:56:41Z</time>
      </trkpt>
      <trkpt lat="48.88441" lon="2.37013">
        <ele>49</ele>
        <time>2014-02-23T18:56:48Z</time>
      </trkpt>
      <trkpt lat="48.88441" lon="2.37022">
        <ele>51</ele>
        <time>2014-02-23T18:56:54Z</time>
      </trkpt>
      <trkpt lat="48.88445" lon="2.37028">
        <ele>52</ele>
        <time>2014-02-23T18:56:58Z</time>
      </trkpt>
      <trkpt lat="48.88449" lon="2.37037">
        <ele>50</ele>
        <time>2014-02-23T18:57:01Z</time>
      </trkpt>
      <trkpt lat="48.88455" lon="2.37048">
        <ele>43</ele>
        <time>2014-02-23T18:57:06Z</time>
      </trkpt>
      <trkpt lat="48.8846" lon="2.37055">
        <ele>36</ele>
        <time>2014-02-23T18:57:10Z</time>
      </trkpt>
      <trkpt lat="48.88464" lon="2.37059">
        <ele>38</ele>
        <time>2014-02-23T18:57:12Z</time>
      </trkpt>
      <trkpt lat="48.88468" lon="2.37066">
        <ele>38</ele>
        <time>2014-02-23T18:57:15Z</time>
      </trkpt>
      <trkpt lat="48.88472" lon="2.37073">
        <ele>39</ele>
        <time>2014-02-23T18:57:17Z</time>
      </trkpt>
      <trkpt lat="48.88485" lon="2.37095">
        <ele>41</ele>
        <time>2014-02-23T18:57:23Z</time>
      </trkpt>
      <trkpt lat="48.88492" lon="2.37104">
        <ele>45</ele>
        <time>2014-02-23T18:57:27Z</time>
      </trkpt>
      <trkpt lat="48.88508" lon="2.37124">
        <ele>47</ele>
        <time>2014-02-23T18:57:34Z</time>
      </trkpt>
      <trkpt lat="48.88513" lon="2.37132">
        <ele>48</ele>
        <time>2014-02-23T18:57:36Z</time>
      </trkpt>
      <trkpt lat="48.88526" lon="2.37152">
        <ele>51</ele>
        <time>2014-02-23T18:57:41Z</time>
      </trkpt>
      <trkpt lat="48.88531" lon="2.37158">
        <ele>48</ele>
        <time>2014-02-23T18:57:43Z</time>
      </trkpt>
      <trkpt lat="48.88538" lon="2.37168">
        <ele>48</ele>
        <time>2014-02-23T18:57:46Z</time>
      </trkpt>
      <trkpt lat="48.88545" lon="2.37179">
        <ele>47</ele>
        <time>2014-02-23T18:57:49Z</time>
      </trkpt>
      <trkpt lat="48.88547" lon="2.3719">
        <ele>47</ele>
        <time>2014-02-23T18:57:51Z</time>
      </trkpt>
      <trkpt lat="48.88547" lon="2.37198">
        <ele>44</ele>
        <time>2014-02-23T18:57:53Z</time>
      </trkpt>
      <trkpt lat="48.8855" lon="2.37206">
        <ele>43</ele>
        <time>2014-02-23T18:57:55Z</time>
      </trkpt>
      <trkpt lat="48.88559" lon="2.37234">
        <ele>41</ele>
        <time>2014-02-23T18:58:02Z</time>
      </trkpt>
      <trkpt lat="48.88563" lon="2.37241">
        <ele>41</ele>
        <time>2014-02-23T18:58:04Z</time>
      </trkpt>
      <trkpt lat="48.88568" lon="2.37251">
        <ele>47</ele>
        <time>2014-02-23T18:58:06Z</time>
      </trkpt>
      <trkpt lat="48.886" lon="2.37326">
        <ele>36</ele>
        <time>2014-02-23T18:58:23Z</time>
      </trkpt>
      <trkpt lat="48.88605" lon="2.37335">
        <ele>34</ele>
        <time>2014-02-23T18:58:26Z</time>
      </trkpt>
      <trkpt lat="48.88631" lon="2.37383">
        <ele>35</ele>
        <time>2014-02-23T18:58:38Z</time>
      </trkpt>
      <trkpt lat="48.88635" lon="2.37388">
        <ele>37</ele>
        <time>2014-02-23T18:58:40Z</time>
      </trkpt>
      <trkpt lat="48.8864" lon="2.37396">
        <ele>35</ele>
        <time>2014-02-23T18:58:42Z</time>
      </trkpt>
      <trkpt lat="48.88652" lon="2.37421">
        <ele>38</ele>
        <time>2014-02-23T18:58:47Z</time>
      </trkpt>
      <trkpt lat="48.88662" lon="2.37442">
        <ele>40</ele>
        <time>2014-02-23T18:58:51Z</time>
      </trkpt>
      <trkpt lat="48.88667" lon="2.37449">
        <ele>35</ele>
        <time>2014-02-23T18:58:53Z</time>
      </trkpt>
      <trkpt lat="48.88671" lon="2.37458">
        <ele>34</ele>
        <time>2014-02-23T18:58:55Z</time>
      </trkpt>
      <trkpt lat="48.88684" lon="2.3748">
        <ele>30</ele>
        <time>2014-02-23T18:59:01Z</time>
      </trkpt>
      <trkpt lat="48.88688" lon="2.37491">
        <ele>33</ele>
        <time>2014-02-23T18:59:03Z</time>
      </trkpt>
      <trkpt lat="48.88692" lon="2.375">
        <ele>37</ele>
        <time>2014-02-23T18:59:05Z</time>
      </trkpt>
      <trkpt lat="48.88696" lon="2.37508">
        <ele>45</ele>
        <time>2014-02-23T18:59:07Z</time>
      </trkpt>
      <trkpt lat="48.8871" lon="2.37533">
        <ele>42</ele>
        <time>2014-02-23T18:59:13Z</time>
      </trkpt>
      <trkpt lat="48.88713" lon="2.37544">
        <ele>42</ele>
        <time>2014-02-23T18:59:15Z</time>
      </trkpt>
      <trkpt lat="48.88723" lon="2.3757">
        <ele>44</ele>
        <time>2014-02-23T18:59:20Z</time>
      </trkpt>
      <trkpt lat="48.88727" lon="2.37579">
        <ele>35</ele>
        <time>2014-02-23T18:59:22Z</time>
      </trkpt>
      <trkpt lat="48.88731" lon="2.37585">
        <ele>37</ele>
        <time>2014-02-23T18:59:24Z</time>
      </trkpt>
      <trkpt lat="48.88736" lon="2.37595">
        <ele>39</ele>
        <time>2014-02-23T18:59:26Z</time>
      </trkpt>
      <trkpt lat="48.8874" lon="2.37603">
        <ele>41</ele>
        <time>2014-02-23T18:59:28Z</time>
      </trkpt>
      <trkpt lat="48.88746" lon="2.37616">
        <ele>42</ele>
        <time>2014-02-23T18:59:31Z</time>
      </trkpt>
      <trkpt lat="48.88749" lon="2.37627">
        <ele>40</ele>
        <time>2014-02-23T18:59:33Z</time>
      </trkpt>
      <trkpt lat="48.88753" lon="2.37635">
        <ele>43</ele>
        <time>2014-02-23T18:59:35Z</time>
      </trkpt>
      <trkpt lat="48.88765" lon="2.37658">
        <ele>45</ele>
        <time>2014-02-23T18:59:40Z</time>
      </trkpt>
      <trkpt lat="48.8877" lon="2.3767">
        <ele>48</ele>
        <time>2014-02-23T18:59:43Z</time>
      </trkpt>
      <trkpt lat="48.88775" lon="2.37684">
        <ele>52</ele>
        <time>2014-02-23T18:59:46Z</time>
      </trkpt>
      <trkpt lat="48.8878" lon="2.37692">
        <ele>45</ele>
        <time>2014-02-23T18:59:48Z</time>
      </trkpt>
      <trkpt lat="48.88793" lon="2.37717">
        <ele>42</ele>
        <time>2014-02-23T18:59:53Z</time>
      </trkpt>
      <trkpt lat="48.88797" lon="2.37726">
        <ele>45</ele>
        <time>2014-02-23T18:59:55Z</time>
      </trkpt>
      <trkpt lat="48.88804" lon="2.37739">
        <ele>37</ele>
        <time>2014-02-23T18:59:58Z</time>
      </trkpt>
      <trkpt lat="48.88809" lon="2.37746">
        <ele>42</ele>
        <time>2014-02-23T19:00:00Z</time>
      </trkpt>
      <trkpt lat="48.88812" lon="2.37754">
        <ele>45</ele>
        <time>2014-02-23T19:00:02Z</time>
      </trkpt>
      <trkpt lat="48.88815" lon="2.37762">
        <ele>33</ele>
        <time>2014-02-23T19:00:04Z</time>
      </trkpt>
      <trkpt lat="48.88836" lon="2.3781">
        <ele>22</ele>
        <time>2014-02-23T19:00:14Z</time>
      </trkpt>
      <trkpt lat="48.88839" lon="2.3782">
        <ele>29</ele>
        <time>2014-02-23T19:00:16Z</time>
      </trkpt>
      <trkpt lat="48.88842" lon="2.37828">
        <ele>38</ele>
        <time>2014-02-23T19:00:18Z</time>
      </trkpt>
      <trkpt lat="48.88846" lon="2.37834">
        <ele>34</ele>
        <time>2014-02-23T19:00:20Z</time>
      </trkpt>
      <trkpt lat="48.88852" lon="2.3784">
        <ele>32</ele>
        <time>2014-02-23T19:00:23Z</time>
      </trkpt>
      <trkpt lat="48.88857" lon="2.37845">
        <ele>30</ele>
        <time>2014-02-23T19:00:25Z</time>
      </trkpt>
      <trkpt lat="48.88861" lon="2.37856">
        <ele>36</ele>
        <time>2014-02-23T19:00:27Z</time>
      </trkpt>
      <trkpt lat="48.88863" lon="2.37868">
        <ele>36</ele>
        <time>2014-02-23T19:00:29Z</time>
      </trkpt>
      <trkpt lat="48.88868" lon="2.37882">
        <ele>34</ele>
        <time>2014-02-23T19:00:32Z</time>
      </trkpt>
      <trkpt lat="48.88871" lon="2.37888">
        <ele>38</ele>
        <time>2014-02-23T19:00:35Z</time>
      </trkpt>
      <trkpt lat="48.88878" lon="2.37907">
        <ele>48</ele>
        <time>2014-02-23T19:00:44Z</time>
      </trkpt>
      <trkpt lat="48.88873" lon="2.37913">
        <ele>47</ele>
        <time>2014-02-23T19:00:47Z</time>
      </trkpt>
      <trkpt lat="48.88868" lon="2.37917">
        <ele>53</ele>
        <time>2014-02-23T19:00:50Z</time>
      </trkpt>
      <trkpt lat="48.88852" lon="2.37924">
        <ele>50</ele>
        <time>2014-02-23T19:00:55Z</time>
      </trkpt>
      <trkpt lat="48.88857" lon="2.37931">
        <ele>63</ele>
        <time>2014-02-23T19:01:09Z</time>
      </trkpt>
      <trkpt lat="48.88862" lon="2.37943">
        <ele>58</ele>
        <time>2014-02-23T19:01:10Z</time>
      </trkpt>
      <trkpt lat="48.88871" lon="2.37959">
        <ele>59</ele>
        <time>2014-02-23T19:01:11Z</time>
      </trkpt>
      <trkpt lat="48.88883" lon="2.37983">
        <ele>50</ele>
        <time>2014-02-23T19:01:14Z</time>
      </trkpt>
      <trkpt lat="48.88886" lon="2.37992">
        <ele>50</ele>
        <time>2014-02-23T19:01:15Z</time>
      </trkpt>
      <trkpt lat="48.88889" lon="2.38003">
        <ele>52</ele>
        <time>2014-02-23T19:01:16Z</time>
      </trkpt>
      <trkpt lat="48.88891" lon="2.3801">
        <ele>53</ele>
        <time>2014-02-23T19:01:17Z</time>
      </trkpt>
      <trkpt lat="48.88896" lon="2.38021">
        <ele>52</ele>
        <time>2014-02-23T19:01:19Z</time>
      </trkpt>
      <trkpt lat="48.88898" lon="2.38028">
        <ele>51</ele>
        <time>2014-02-23T19:01:21Z</time>
      </trkpt>
      <trkpt lat="48.88902" lon="2.38037">
        <ele>53</ele>
        <time>2014-02-23T19:01:23Z</time>
      </trkpt>
      <trkpt lat="48.88907" lon="2.38047">
        <ele>50</ele>
        <time>2014-02-23T19:01:25Z</time>
      </trkpt>
      <trkpt lat="48.88921" lon="2.3807">
        <ele>50</ele>
        <time>2014-02-23T19:01:31Z</time>
      </trkpt>
      <trkpt lat="48.88925" lon="2.3808">
        <ele>46</ele>
        <time>2014-02-23T19:01:33Z</time>
      </trkpt>
      <trkpt lat="48.8893" lon="2.38087">
        <ele>49</ele>
        <time>2014-02-23T19:01:35Z</time>
      </trkpt>
      <trkpt lat="48.88942" lon="2.38108">
        <ele>38</ele>
        <time>2014-02-23T19:01:40Z</time>
      </trkpt>
      <trkpt lat="48.88947" lon="2.38117">
        <ele>39</ele>
        <time>2014-02-23T19:01:42Z</time>
      </trkpt>
      <trkpt lat="48.88984" lon="2.38191">
        <ele>45</ele>
        <time>2014-02-23T19:01:59Z</time>
      </trkpt>
      <trkpt lat="48.88993" lon="2.38213">
        <ele>44</ele>
        <time>2014-02-23T19:02:03Z</time>
      </trkpt>
      <trkpt lat="48.89" lon="2.38226">
        <ele>43</ele>
        <time>2014-02-23T19:02:06Z</time>
      </trkpt>
      <trkpt lat="48.89005" lon="2.38233">
        <ele>43</ele>
        <time>2014-02-23T19:02:08Z</time>
      </trkpt>
      <trkpt lat="48.89019" lon="2.38255">
        <ele>39</ele>
        <time>2014-02-23T19:02:14Z</time>
      </trkpt>
      <trkpt lat="48.89023" lon="2.38262">
        <ele>48</ele>
        <time>2014-02-23T19:02:16Z</time>
      </trkpt>
      <trkpt lat="48.89035" lon="2.38286">
        <ele>47</ele>
        <time>2014-02-23T19:02:22Z</time>
      </trkpt>
      <trkpt lat="48.89038" lon="2.38294">
        <ele>47</ele>
        <time>2014-02-23T19:02:24Z</time>
      </trkpt>
      <trkpt lat="48.89043" lon="2.38301">
        <ele>49</ele>
        <time>2014-02-23T19:02:26Z</time>
      </trkpt>
      <trkpt lat="48.89055" lon="2.38326">
        <ele>47</ele>
        <time>2014-02-23T19:02:33Z</time>
      </trkpt>
      <trkpt lat="48.89059" lon="2.38334">
        <ele>47</ele>
        <time>2014-02-23T19:02:35Z</time>
      </trkpt>
      <trkpt lat="48.89069" lon="2.38358">
        <ele>47</ele>
        <time>2014-02-23T19:02:40Z</time>
      </trkpt>
      <trkpt lat="48.89076" lon="2.38371">
        <ele>44</ele>
        <time>2014-02-23T19:02:43Z</time>
      </trkpt>
      <trkpt lat="48.89079" lon="2.38379">
        <ele>47</ele>
        <time>2014-02-23T19:02:45Z</time>
      </trkpt>
      <trkpt lat="48.89084" lon="2.38386">
        <ele>44</ele>
        <time>2014-02-23T19:02:47Z</time>
      </trkpt>
      <trkpt lat="48.89087" lon="2.38395">
        <ele>41</ele>
        <time>2014-02-23T19:02:49Z</time>
      </trkpt>
      <trkpt lat="48.89091" lon="2.38402">
        <ele>44</ele>
        <time>2014-02-23T19:02:51Z</time>
      </trkpt>
      <trkpt lat="48.89101" lon="2.38427">
        <ele>47</ele>
        <time>2014-02-23T19:02:57Z</time>
      </trkpt>
      <trkpt lat="48.89115" lon="2.3845">
        <ele>47</ele>
        <time>2014-02-23T19:03:03Z</time>
      </trkpt>
      <trkpt lat="48.89122" lon="2.3846">
        <ele>47</ele>
        <time>2014-02-23T19:03:07Z</time>
      </trkpt>
      <trkpt lat="48.89128" lon="2.38463">
        <ele>47</ele>
        <time>2014-02-23T19:03:10Z</time>
      </trkpt>
      <trkpt lat="48.89134" lon="2.38468">
        <ele>49</ele>
        <time>2014-02-23T19:03:13Z</time>
      </trkpt>
      <trkpt lat="48.89139" lon="2.38478">
        <ele>48</ele>
        <time>2014-02-23T19:03:16Z</time>
      </trkpt>
      <trkpt lat="48.89143" lon="2.38484">
        <ele>49</ele>
        <time>2014-02-23T19:03:18Z</time>
      </trkpt>
      <trkpt lat="48.8915" lon="2.38498">
        <ele>49</ele>
        <time>2014-02-23T19:03:22Z</time>
      </trkpt>
      <trkpt lat="48.89152" lon="2.38508">
        <ele>49</ele>
        <time>2014-02-23T19:03:24Z</time>
      </trkpt>
      <trkpt lat="48.89156" lon="2.38516">
        <ele>49</ele>
        <time>2014-02-23T19:03:26Z</time>
      </trkpt>
      <trkpt lat="48.8916" lon="2.38524">
        <ele>53</ele>
        <time>2014-02-23T19:03:28Z</time>
      </trkpt>
      <trkpt lat="48.89169" lon="2.38535">
        <ele>49</ele>
        <time>2014-02-23T19:03:32Z</time>
      </trkpt>
      <trkpt lat="48.89177" lon="2.38532">
        <ele>46</ele>
        <time>2014-02-23T19:03:34Z</time>
      </trkpt>
      <trkpt lat="48.89184" lon="2.38534">
        <ele>46</ele>
        <time>2014-02-23T19:03:37Z</time>
      </trkpt>
      <trkpt lat="48.89191" lon="2.38533">
        <ele>47</ele>
        <time>2014-02-23T19:03:39Z</time>
      </trkpt>
      <trkpt lat="48.89198" lon="2.38535">
        <ele>45</ele>
        <time>2014-02-23T19:03:41Z</time>
      </trkpt>
      <trkpt lat="48.89218" lon="2.38543">
        <ele>45</ele>
        <time>2014-02-23T19:03:47Z</time>
      </trkpt>
      <trkpt lat="48.89223" lon="2.38548">
        <ele>45</ele>
        <time>2014-02-23T19:03:49Z</time>
      </trkpt>
      <trkpt lat="48.89228" lon="2.38552">
        <ele>45</ele>
        <time>2014-02-23T19:03:51Z</time>
      </trkpt>
      <trkpt lat="48.89237" lon="2.38563">
        <ele>45</ele>
        <time>2014-02-23T19:03:56Z</time>
      </trkpt>
      <trkpt lat="48.89241" lon="2.38569">
        <ele>43</ele>
        <time>2014-02-23T19:03:58Z</time>
      </trkpt>
      <trkpt lat="48.89245" lon="2.38573">
        <ele>44</ele>
        <time>2014-02-23T19:04:00Z</time>
      </trkpt>
      <trkpt lat="48.89251" lon="2.38578">
        <ele>47</ele>
        <time>2014-02-23T19:04:03Z</time>
      </trkpt>
      <trkpt lat="48.89258" lon="2.38575">
        <ele>45</ele>
        <time>2014-02-23T19:04:05Z</time>
      </trkpt>
      <trkpt lat="48.89265" lon="2.3857">
        <ele>46</ele>
        <time>2014-02-23T19:04:07Z</time>
      </trkpt>
      <trkpt lat="48.89275" lon="2.38566">
        <ele>43</ele>
        <time>2014-02-23T19:04:09Z</time>
      </trkpt>
      <trkpt lat="48.8928" lon="2.38563">
        <ele>43</ele>
        <time>2014-02-23T19:04:10Z</time>
      </trkpt>
      <trkpt lat="48.89356" lon="2.38512">
        <ele>49</ele>
        <time>2014-02-23T19:04:26Z</time>
      </trkpt>
      <trkpt lat="48.89389" lon="2.38485">
        <ele>48</ele>
        <time>2014-02-23T19:04:34Z</time>
      </trkpt>
      <trkpt lat="48.89407" lon="2.3847">
        <ele>48</ele>
        <time>2014-02-23T19:04:37Z</time>
      </trkpt>
      <trkpt lat="48.89414" lon="2.38466">
        <ele>49</ele>
        <time>2014-02-23T19:04:38Z</time>
      </trkpt>
      <trkpt lat="48.89473" lon="2.38434">
        <ele>44</ele>
        <time>2014-02-23T19:04:48Z</time>
      </trkpt>
      <trkpt lat="48.89481" lon="2.38431">
        <ele>45</ele>
        <time>2014-02-23T19:04:50Z</time>
      </trkpt>
      <trkpt lat="48.895" lon="2.38422">
        <ele>45</ele>
        <time>2014-02-23T19:04:54Z</time>
      </trkpt>
      <trkpt lat="48.89509" lon="2.38417">
        <ele>45</ele>
        <time>2014-02-23T19:04:56Z</time>
      </trkpt>
      <trkpt lat="48.89546" lon="2.38393">
        <ele>48</ele>
        <time>2014-02-23T19:05:04Z</time>
      </trkpt>
      <trkpt lat="48.89555" lon="2.38386">
        <ele>50</ele>
        <time>2014-02-23T19:05:06Z</time>
      </trkpt>
      <trkpt lat="48.89574" lon="2.38372">
        <ele>45</ele>
        <time>2014-02-23T19:05:11Z</time>
      </trkpt>
      <trkpt lat="48.89581" lon="2.3837">
        <ele>45</ele>
        <time>2014-02-23T19:05:13Z</time>
      </trkpt>
      <trkpt lat="48.89586" lon="2.38375">
        <ele>43</ele>
        <time>2014-02-23T19:05:15Z</time>
      </trkpt>
      <trkpt lat="48.89589" lon="2.38383">
        <ele>42</ele>
        <time>2014-02-23T19:05:18Z</time>
      </trkpt>
      <trkpt lat="48.89594" lon="2.38391">
        <ele>46</ele>
        <time>2014-02-23T19:05:20Z</time>
      </trkpt>
      <trkpt lat="48.89608" lon="2.38413">
        <ele>40</ele>
        <time>2014-02-23T19:05:27Z</time>
      </trkpt>
      <trkpt lat="48.89614" lon="2.38425">
        <ele>45</ele>
        <time>2014-02-23T19:05:31Z</time>
      </trkpt>
      <trkpt lat="48.89624" lon="2.38441">
        <ele>43</ele>
        <time>2014-02-23T19:05:36Z</time>
      </trkpt>
      <trkpt lat="48.8963" lon="2.38447">
        <ele>36</ele>
        <time>2014-02-23T19:05:39Z</time>
      </trkpt>
      <trkpt lat="48.89634" lon="2.38451">
        <ele>35</ele>
        <time>2014-02-23T19:05:41Z</time>
      </trkpt>
      <trkpt lat="48.89652" lon="2.38463">
        <ele>30</ele>
        <time>2014-02-23T19:05:48Z</time>
      </trkpt>
      <trkpt lat="48.89657" lon="2.38464">
        <ele>42</ele>
        <time>2014-02-23T19:05:50Z</time>
      </trkpt>
      <trkpt lat="48.89669" lon="2.38476">
        <ele>49</ele>
        <time>2014-02-23T19:05:54Z</time>
      </trkpt>
      <trkpt lat="48.89681" lon="2.38492">
        <ele>52</ele>
        <time>2014-02-23T19:05:59Z</time>
      </trkpt>
      <trkpt lat="48.89709" lon="2.38528">
        <ele>47</ele>
        <time>2014-02-23T19:06:11Z</time>
      </trkpt>
      <trkpt lat="48.89714" lon="2.38536">
        <ele>40</ele>
        <time>2014-02-23T19:06:13Z</time>
      </trkpt>
      <trkpt lat="48.8972" lon="2.38543">
        <ele>42</ele>
        <time>2014-02-23T19:06:15Z</time>
      </trkpt>
      <trkpt lat="48.89724" lon="2.38551">
        <ele>41</ele>
        <time>2014-02-23T19:06:17Z</time>
      </trkpt>
      <trkpt lat="48.89723" lon="2.38558">
        <ele>47</ele>
        <time>2014-02-23T19:06:24Z</time>
      </trkpt>
      <trkpt lat="48.89728" lon="2.38562">
        <ele>49</ele>
        <time>2014-02-23T19:06:29Z</time>
      </trkpt>
      <trkpt lat="48.89735" lon="2.38563">
        <ele>43</ele>
        <time>2014-02-23T19:06:32Z</time>
      </trkpt>
      <trkpt lat="48.89742" lon="2.38566">
        <ele>47</ele>
        <time>2014-02-23T19:06:34Z</time>
      </trkpt>
      <trkpt lat="48.8975" lon="2.38568">
        <ele>49</ele>
        <time>2014-02-23T19:06:36Z</time>
      </trkpt>
      <trkpt lat="48.89804" lon="2.38603">
        <ele>48</ele>
        <time>2014-02-23T19:06:55Z</time>
      </trkpt>
      <trkpt lat="48.89846" lon="2.38571">
        <ele>48</ele>
        <time>2014-02-23T19:07:06Z</time>
      </trkpt>
      <trkpt lat="48.89868" lon="2.38531">
        <ele>50</ele>
        <time>2014-02-23T19:07:17Z</time>
      </trkpt>
      <trkpt lat="48.89875" lon="2.38478">
        <ele>54</ele>
        <time>2014-02-23T19:07:28Z</time>
      </trkpt>
      <trkpt lat="48.89871" lon="2.38443">
        <ele>37</ele>
        <time>2014-02-23T19:07:32Z</time>
      </trkpt>
      <trkpt lat="48.89869" lon="2.38433">
        <ele>36</ele>
        <time>2014-02-23T19:07:33Z</time>
      </trkpt>
      <trkpt lat="48.89868" lon="2.38418">
        <ele>37</ele>
        <time>2014-02-23T19:07:35Z</time>
      </trkpt>
      <trkpt lat="48.89867" lon="2.38399">
        <ele>44</ele>
        <time>2014-02-23T19:07:39Z</time>
      </trkpt>
      <trkpt lat="48.89868" lon="2.38378">
        <ele>27</ele>
        <time>2014-02-23T19:07:44Z</time>
      </trkpt>
      <trkpt lat="48.8987" lon="2.38369">
        <ele>39</ele>
        <time>2014-02-23T19:07:46Z</time>
      </trkpt>
      <trkpt lat="48.89873" lon="2.38361">
        <ele>38</ele>
        <time>2014-02-23T19:07:48Z</time>
      </trkpt>
      <trkpt lat="48.89875" lon="2.38352">
        <ele>40</ele>
        <time>2014-02-23T19:07:50Z</time>
      </trkpt>
      <trkpt lat="48.89877" lon="2.38342">
        <ele>45</ele>
        <time>2014-02-23T19:07:53Z</time>
      </trkpt>
      <trkpt lat="48.89881" lon="2.38315">
        <ele>48</ele>
        <time>2014-02-23T19:08:01Z</time>
      </trkpt>
      <trkpt lat="48.89883" lon="2.38307">
        <ele>57</ele>
        <time>2014-02-23T19:08:03Z</time>
      </trkpt>
      <trkpt lat="48.89884" lon="2.38298">
        <ele>58</ele>
        <time>2014-02-23T19:08:05Z</time>
      </trkpt>
      <trkpt lat="48.89885" lon="2.38295">
        <ele>55</ele>
        <time>2014-02-23T19:08:06Z</time>
      </trkpt>
      <trkpt lat="48.89885" lon="2.38289">
        <ele>57</ele>
        <time>2014-02-23T19:08:08Z</time>
      </trkpt>
      <trkpt lat="48.89885" lon="2.38281">
        <ele>52</ele>
        <time>2014-02-23T19:08:11Z</time>
      </trkpt>
      <trkpt lat="48.89887" lon="2.38263">
        <ele>50</ele>
        <time>2014-02-23T19:08:21Z</time>
      </trkpt>
      <trkpt lat="48.89889" lon="2.38255">
        <ele>54</ele>
        <time>2014-02-23T19:08:24Z</time>
      </trkpt>
      <trkpt lat="48.89889" lon="2.38245">
        <ele>59</ele>
        <time>2014-02-23T19:08:28Z</time>
      </trkpt>
      <trkpt lat="48.89889" lon="2.38229">
        <ele>58</ele>
        <time>2014-02-23T19:08:32Z</time>
      </trkpt>
      <trkpt lat="48.89889" lon="2.38224">
        <ele>56</ele>
        <time>2014-02-23T19:08:33Z</time>
      </trkpt>
      <trkpt lat="48.89886" lon="2.38211">
        <ele>56</ele>
        <time>2014-02-23T19:08:37Z</time>
      </trkpt>
      <trkpt lat="48.89886" lon="2.38205">
        <ele>55</ele>
        <time>2014-02-23T19:08:39Z</time>
      </trkpt>
      <trkpt lat="48.89885" lon="2.38197">
        <ele>52</ele>
        <time>2014-02-23T19:08:44Z</time>
      </trkpt>
      <trkpt lat="48.89884" lon="2.38194">
        <ele>59</ele>
        <time>2014-02-23T19:08:58Z</time>
      </trkpt>
      <trkpt lat="48.89884" lon="2.38183">
        <ele>52</ele>
        <time>2014-02-23T19:09:16Z</time>
      </trkpt>
      <trkpt lat="48.89885" lon="2.38174">
        <ele>52</ele>
        <time>2014-02-23T19:09:19Z</time>
      </trkpt>
      <trkpt lat="48.89887" lon="2.38151">
        <ele>50</ele>
        <time>2014-02-23T19:09:25Z</time>
      </trkpt>
      <trkpt lat="48.89887" lon="2.38131">
        <ele>44</ele>
        <time>2014-02-23T19:09:29Z</time>
      </trkpt>
      <trkpt lat="48.89886" lon="2.3807">
        <ele>39</ele>
        <time>2014-02-23T19:09:40Z</time>
      </trkpt>
      <trkpt lat="48.89885" lon="2.38056">
        <ele>32</ele>
        <time>2014-02-23T19:09:42Z</time>
      </trkpt>
      <trkpt lat="48.89882" lon="2.37988">
        <ele>33</ele>
        <time>2014-02-23T19:09:52Z</time>
      </trkpt>
      <trkpt lat="48.89881" lon="2.37965">
        <ele>34</ele>
        <time>2014-02-23T19:09:55Z</time>
      </trkpt>
      <trkpt lat="48.8988" lon="2.37957">
        <ele>34</ele>
        <time>2014-02-23T19:09:56Z</time>
      </trkpt>
      <trkpt lat="48.89879" lon="2.37941">
        <ele>37</ele>
        <time>2014-02-23T19:09:58Z</time>
      </trkpt>
      <trkpt lat="48.89877" lon="2.3791">
        <ele>35</ele>
        <time>2014-02-23T19:10:02Z</time>
      </trkpt>
      <trkpt lat="48.89879" lon="2.37896">
        <ele>35</ele>
        <time>2014-02-23T19:10:04Z</time>
      </trkpt>
      <trkpt lat="48.89879" lon="2.37872">
        <ele>31</ele>
        <time>2014-02-23T19:10:07Z</time>
      </trkpt>
      <trkpt lat="48.89877" lon="2.37861">
        <ele>31</ele>
        <time>2014-02-23T19:10:08Z</time>
      </trkpt>
      <trkpt lat="48.89877" lon="2.37852">
        <ele>36</ele>
        <time>2014-02-23T19:10:09Z</time>
      </trkpt>
      <trkpt lat="48.89879" lon="2.37788">
        <ele>29</ele>
        <time>2014-02-23T19:10:17Z</time>
      </trkpt>
      <trkpt lat="48.89877" lon="2.37774">
        <ele>35</ele>
        <time>2014-02-23T19:10:19Z</time>
      </trkpt>
      <trkpt lat="48.89876" lon="2.37762">
        <ele>35</ele>
        <time>2014-02-23T19:10:21Z</time>
      </trkpt>
      <trkpt lat="48.89876" lon="2.37728">
        <ele>33</ele>
        <time>2014-02-23T19:10:26Z</time>
      </trkpt>
      <trkpt lat="48.89873" lon="2.377">
        <ele>28</ele>
        <time>2014-02-23T19:10:31Z</time>
      </trkpt>
      <trkpt lat="48.8987" lon="2.37683">
        <ele>29</ele>
        <time>2014-02-23T19:10:35Z</time>
      </trkpt>
      <trkpt lat="48.8987" lon="2.37673">
        <ele>40</ele>
        <time>2014-02-23T19:10:37Z</time>
      </trkpt>
      <trkpt lat="48.89871" lon="2.37664">
        <ele>40</ele>
        <time>2014-02-23T19:10:39Z</time>
      </trkpt>
      <trkpt lat="48.89871" lon="2.37656">
        <ele>39</ele>
        <time>2014-02-23T19:10:41Z</time>
      </trkpt>
      <trkpt lat="48.89872" lon="2.37646">
        <ele>43</ele>
        <time>2014-02-23T19:10:43Z</time>
      </trkpt>
      <trkpt lat="48.89873" lon="2.37589">
        <ele>38</ele>
        <time>2014-02-23T19:10:55Z</time>
      </trkpt>
      <trkpt lat="48.89873" lon="2.37574">
        <ele>39</ele>
        <time>2014-02-23T19:11:00Z</time>
      </trkpt>
      <trkpt lat="48.89871" lon="2.37562">
        <ele>36</ele>
        <time>2014-02-23T19:11:03Z</time>
      </trkpt>
      <trkpt lat="48.89871" lon="2.37553">
        <ele>36</ele>
        <time>2014-02-23T19:11:05Z</time>
      </trkpt>
      <trkpt lat="48.89872" lon="2.3752">
        <ele>33</ele>
        <time>2014-02-23T19:11:11Z</time>
      </trkpt>
      <trkpt lat="48.89873" lon="2.37504">
        <ele>34</ele>
        <time>2014-02-23T19:11:14Z</time>
      </trkpt>
      <trkpt lat="48.89873" lon="2.37495">
        <ele>35</ele>
        <time>2014-02-23T19:11:16Z</time>
      </trkpt>
      <trkpt lat="48.89871" lon="2.37431">
        <ele>37</ele>
        <time>2014-02-23T19:11:29Z</time>
      </trkpt>
      <trkpt lat="48.89872" lon="2.37415">
        <ele>38</ele>
        <time>2014-02-23T19:11:33Z</time>
      </trkpt>
      <trkpt lat="48.89872" lon="2.37392">
        <ele>32</ele>
        <time>2014-02-23T19:11:39Z</time>
      </trkpt>
      <trkpt lat="48.89872" lon="2.37388">
        <ele>32</ele>
        <time>2014-02-23T19:11:40Z</time>
      </trkpt>
      <trkpt lat="48.89872" lon="2.37381">
        <ele>33</ele>
        <time>2014-02-23T19:11:42Z</time>
      </trkpt>
      <trkpt lat="48.89871" lon="2.37373">
        <ele>36</ele>
        <time>2014-02-23T19:11:44Z</time>
      </trkpt>
      <trkpt lat="48.8987" lon="2.3735">
        <ele>41</ele>
        <time>2014-02-23T19:11:50Z</time>
      </trkpt>
      <trkpt lat="48.89871" lon="2.37335">
        <ele>35</ele>
        <time>2014-02-23T19:11:54Z</time>
      </trkpt>
      <trkpt lat="48.8987" lon="2.37326">
        <ele>36</ele>
        <time>2014-02-23T19:11:56Z</time>
      </trkpt>
      <trkpt lat="48.89867" lon="2.37297">
        <ele>34</ele>
        <time>2014-02-23T19:12:02Z</time>
      </trkpt>
      <trkpt lat="48.89867" lon="2.37285">
        <ele>33</ele>
        <time>2014-02-23T19:12:04Z</time>
      </trkpt>
      <trkpt lat="48.89868" lon="2.37254">
        <ele>41</ele>
        <time>2014-02-23T19:12:10Z</time>
      </trkpt>
      <trkpt lat="48.89867" lon="2.37227">
        <ele>37</ele>
        <time>2014-02-23T19:12:15Z</time>
      </trkpt>
      <trkpt lat="48.89865" lon="2.37217">
        <ele>37</ele>
        <time>2014-02-23T19:12:17Z</time>
      </trkpt>
      <trkpt lat="48.89865" lon="2.37207">
        <ele>38</ele>
        <time>2014-02-23T19:12:19Z</time>
      </trkpt>
      <trkpt lat="48.89864" lon="2.37177">
        <ele>39</ele>
        <time>2014-02-23T19:12:25Z</time>
      </trkpt>
      <trkpt lat="48.89865" lon="2.3717">
        <ele>38</ele>
        <time>2014-02-23T19:12:27Z</time>
      </trkpt>
      <trkpt lat="48.89866" lon="2.37154">
        <ele>32</ele>
        <time>2014-02-23T19:12:32Z</time>
      </trkpt>
      <trkpt lat="48.89867" lon="2.3715">
        <ele>31</ele>
        <time>2014-02-23T19:12:33Z</time>
      </trkpt>
      <trkpt lat="48.89866" lon="2.37141">
        <ele>30</ele>
        <time>2014-02-23T19:12:37Z</time>
      </trkpt>
      <trkpt lat="48.89867" lon="2.37132">
        <ele>41</ele>
        <time>2014-02-23T19:12:48Z</time>
      </trkpt>
      <trkpt lat="48.89876" lon="2.37131">
        <ele>43</ele>
        <time>2014-02-23T19:12:51Z</time>
      </trkpt>
      <trkpt lat="48.89885" lon="2.37132">
        <ele>42</ele>
        <time>2014-02-23T19:12:54Z</time>
      </trkpt>
      <trkpt lat="48.89892" lon="2.37129">
        <ele>47</ele>
        <time>2014-02-23T19:12:57Z</time>
      </trkpt>
      <trkpt lat="48.89911" lon="2.37123">
        <ele>36</ele>
        <time>2014-02-23T19:13:04Z</time>
      </trkpt>
      <trkpt lat="48.89926" lon="2.37119">
        <ele>34</ele>
        <time>2014-02-23T19:13:09Z</time>
      </trkpt>
      <trkpt lat="48.89935" lon="2.37119">
        <ele>36</ele>
        <time>2014-02-23T19:13:12Z</time>
      </trkpt>
      <trkpt lat="48.89954" lon="2.37119">
        <ele>36</ele>
        <time>2014-02-23T19:13:18Z</time>
      </trkpt>
      <trkpt lat="48.89963" lon="2.37127">
        <ele>31</ele>
        <time>2014-02-23T19:13:24Z</time>
      </trkpt>
      <trkpt lat="48.89968" lon="2.37135">
        <ele>34</ele>
        <time>2014-02-23T19:13:27Z</time>
      </trkpt>
      <trkpt lat="48.89978" lon="2.37143">
        <ele>37</ele>
        <time>2014-02-23T19:13:30Z</time>
      </trkpt>
      <trkpt lat="48.89985" lon="2.37147">
        <ele>34</ele>
        <time>2014-02-23T19:13:32Z</time>
      </trkpt>
      <trkpt lat="48.89992" lon="2.37149">
        <ele>33</ele>
        <time>2014-02-23T19:13:34Z</time>
      </trkpt>
      <trkpt lat="48.90008" lon="2.37158">
        <ele>32</ele>
        <time>2014-02-23T19:13:41Z</time>
      </trkpt>
      <trkpt lat="48.90012" lon="2.37167">
        <ele>29</ele>
        <time>2014-02-23T19:13:44Z</time>
      </trkpt>
      <trkpt lat="48.90021" lon="2.37174">
        <ele>31</ele>
        <time>2014-02-23T19:14:06Z</time>
      </trkpt>
      <trkpt lat="48.90028" lon="2.37176">
        <ele>37</ele>
        <time>2014-02-23T19:14:17Z</time>
      </trkpt>
      <trkpt lat="48.90033" lon="2.37179">
        <ele>44</ele>
        <time>2014-02-23T19:14:19Z</time>
      </trkpt>
      <trkpt lat="48.90036" lon="2.37184">
        <ele>48</ele>
        <time>2014-02-23T19:14:21Z</time>
      </trkpt>
      <trkpt lat="48.90043" lon="2.37188">
        <ele>50</ele>
        <time>2014-02-23T19:14:25Z</time>
      </trkpt>
      <trkpt lat="48.9005" lon="2.37191">
        <ele>48</ele>
        <time>2014-02-23T19:14:28Z</time>
      </trkpt>
      <trkpt lat="48.90067" lon="2.37195">
        <ele>46</ele>
        <time>2014-02-23T19:14:34Z</time>
      </trkpt>
      <trkpt lat="48.90072" lon="2.37194">
        <ele>48</ele>
        <time>2014-02-23T19:14:36Z</time>
      </trkpt>
      <trkpt lat="48.90078" lon="2.37193">
        <ele>49</ele>
        <time>2014-02-23T19:14:38Z</time>
      </trkpt>
      <trkpt lat="48.90089" lon="2.37193">
        <ele>48</ele>
        <time>2014-02-23T19:14:43Z</time>
      </trkpt>
      <trkpt lat="48.90097" lon="2.37196">
        <ele>49</ele>
        <time>2014-02-23T19:14:56Z</time>
      </trkpt>
      <trkpt lat="48.90102" lon="2.37201">
        <ele>39</ele>
        <time>2014-02-23T19:14:59Z</time>
      </trkpt>
      <trkpt lat="48.90115" lon="2.37211">
        <ele>39</ele>
        <time>2014-02-23T19:15:05Z</time>
      </trkpt>
      <trkpt lat="48.90121" lon="2.37213">
        <ele>28</ele>
        <time>2014-02-23T19:15:07Z</time>
      </trkpt>
      <trkpt lat="48.90129" lon="2.37219">
        <ele>29</ele>
        <time>2014-02-23T19:15:09Z</time>
      </trkpt>
      <trkpt lat="48.90135" lon="2.37226">
        <ele>31</ele>
        <time>2014-02-23T19:15:11Z</time>
      </trkpt>
      <trkpt lat="48.90141" lon="2.37233">
        <ele>32</ele>
        <time>2014-02-23T19:15:13Z</time>
      </trkpt>
      <trkpt lat="48.90147" lon="2.37244">
        <ele>32</ele>
        <time>2014-02-23T19:15:16Z</time>
      </trkpt>
      <trkpt lat="48.9015" lon="2.37251">
        <ele>32</ele>
        <time>2014-02-23T19:15:18Z</time>
      </trkpt>
      <trkpt lat="48.90159" lon="2.37276">
        <ele>27</ele>
        <time>2014-02-23T19:15:23Z</time>
      </trkpt>
      <trkpt lat="48.90165" lon="2.37285">
        <ele>27</ele>
        <time>2014-02-23T19:15:25Z</time>
      </trkpt>
      <trkpt lat="48.90179" lon="2.37305">
        <ele>33</ele>
        <time>2014-02-23T19:15:31Z</time>
      </trkpt>
      <trkpt lat="48.90184" lon="2.37309">
        <ele>33</ele>
        <time>2014-02-23T19:15:33Z</time>
      </trkpt>
      <trkpt lat="48.90189" lon="2.37312">
        <ele>35</ele>
        <time>2014-02-23T19:15:36Z</time>
      </trkpt>
      <trkpt lat="48.90188" lon="2.37321">
        <ele>36</ele>
        <time>2014-02-23T19:15:43Z</time>
      </trkpt>
      <trkpt lat="48.9019" lon="2.37329">
        <ele>39</ele>
        <time>2014-02-23T19:15:46Z</time>
      </trkpt>
      <trkpt lat="48.90194" lon="2.37335">
        <ele>39</ele>
        <time>2014-02-23T19:15:48Z</time>
      </trkpt>
      <trkpt lat="48.90197" lon="2.37344">
        <ele>37</ele>
        <time>2014-02-23T19:15:50Z</time>
      </trkpt>
      <trkpt lat="48.90203" lon="2.37356">
        <ele>37</ele>
        <time>2014-02-23T19:15:52Z</time>
      </trkpt>
      <trkpt lat="48.90208" lon="2.37367">
        <ele>37</ele>
        <time>2014-02-23T19:15:54Z</time>
      </trkpt>
      <trkpt lat="48.90214" lon="2.37373">
        <ele>35</ele>
        <time>2014-02-23T19:15:56Z</time>
      </trkpt>
      <trkpt lat="48.90221" lon="2.37379">
        <ele>31</ele>
        <time>2014-02-23T19:15:58Z</time>
      </trkpt>
      <trkpt lat="48.90239" lon="2.37394">
        <ele>34</ele>
        <time>2014-02-23T19:16:04Z</time>
      </trkpt>
      <trkpt lat="48.90241" lon="2.37401">
        <ele>38</ele>
        <time>2014-02-23T19:16:06Z</time>
      </trkpt>
      <trkpt lat="48.9024" lon="2.37409">
        <ele>30</ele>
        <time>2014-02-23T19:16:08Z</time>
      </trkpt>
      <trkpt lat="48.9024" lon="2.37417">
        <ele>32</ele>
        <time>2014-02-23T19:16:10Z</time>
      </trkpt>
      <trkpt lat="48.90247" lon="2.37427">
        <ele>32</ele>
        <time>2014-02-23T19:16:12Z</time>
      </trkpt>
      <trkpt lat="48.90253" lon="2.37432">
        <ele>39</ele>
        <time>2014-02-23T19:16:13Z</time>
      </trkpt>
      <trkpt lat="48.90257" lon="2.37435">
        <ele>40</ele>
        <time>2014-02-23T19:16:14Z</time>
      </trkpt>
      <trkpt lat="48.90263" lon="2.37438">
        <ele>43</ele>
        <time>2014-02-23T19:16:15Z</time>
      </trkpt>
      <trkpt lat="48.90269" lon="2.37439">
        <ele>47</ele>
        <time>2014-02-23T19:16:16Z</time>
      </trkpt>
      <trkpt lat="48.90293" lon="2.37439">
        <ele>49</ele>
        <time>2014-02-23T19:16:20Z</time>
      </trkpt>
      <trkpt lat="48.90299" lon="2.37437">
        <ele>55</ele>
        <time>2014-02-23T19:16:21Z</time>
      </trkpt>
      <trkpt lat="48.90314" lon="2.3744">
        <ele>51</ele>
        <time>2014-02-23T19:16:24Z</time>
      </trkpt>
      <trkpt lat="48.90328" lon="2.37445">
        <ele>57</ele>
        <time>2014-02-23T19:16:27Z</time>
      </trkpt>
      <trkpt lat="48.90341" lon="2.37454">
        <ele>43</ele>
        <time>2014-02-23T19:16:30Z</time>
      </trkpt>
      <trkpt lat="48.90382" lon="2.37495">
        <ele>45</ele>
        <time>2014-02-23T19:16:41Z</time>
      </trkpt>
      <trkpt lat="48.90387" lon="2.37505">
        <ele>43</ele>
        <time>2014-02-23T19:16:42Z</time>
      </trkpt>
      <trkpt lat="48.90402" lon="2.37526">
        <ele>35</ele>
        <time>2014-02-23T19:16:47Z</time>
      </trkpt>
      <trkpt lat="48.90406" lon="2.37531">
        <ele>35</ele>
        <time>2014-02-23T19:16:49Z</time>
      </trkpt>
      <trkpt lat="48.9041" lon="2.37536">
        <ele>40</ele>
        <time>2014-02-23T19:16:51Z</time>
      </trkpt>
      <trkpt lat="48.90413" lon="2.37542">
        <ele>38</ele>
        <time>2014-02-23T19:16:53Z</time>
      </trkpt>
      <trkpt lat="48.90422" lon="2.37554">
        <ele>35</ele>
        <time>2014-02-23T19:16:58Z</time>
      </trkpt>
      <trkpt lat="48.90427" lon="2.37558">
        <ele>34</ele>
        <time>2014-02-23T19:17:00Z</time>
      </trkpt>
      <trkpt lat="48.90447" lon="2.3757">
        <ele>32</ele>
        <time>2014-02-23T19:17:07Z</time>
      </trkpt>
      <trkpt lat="48.90459" lon="2.37582">
        <ele>34</ele>
        <time>2014-02-23T19:17:12Z</time>
      </trkpt>
      <trkpt lat="48.90476" lon="2.37597">
        <ele>44</ele>
        <time>2014-02-23T19:17:18Z</time>
      </trkpt>
      <trkpt lat="48.90482" lon="2.37602">
        <ele>49</ele>
        <time>2014-02-23T19:17:20Z</time>
      </trkpt>
      <trkpt lat="48.90488" lon="2.37608">
        <ele>47</ele>
        <time>2014-02-23T19:17:22Z</time>
      </trkpt>
      <trkpt lat="48.9049" lon="2.37618">
        <ele>43</ele>
        <time>2014-02-23T19:17:25Z</time>
      </trkpt>
      <trkpt lat="48.90492" lon="2.37628">
        <ele>43</ele>
        <time>2014-02-23T19:17:28Z</time>
      </trkpt>
      <trkpt lat="48.90497" lon="2.37634">
        <ele>47</ele>
        <time>2014-02-23T19:17:31Z</time>
      </trkpt>
      <trkpt lat="48.90503" lon="2.37637">
        <ele>49</ele>
        <time>2014-02-23T19:17:33Z</time>
      </trkpt>
      <trkpt lat="48.90522" lon="2.37645">
        <ele>46</ele>
        <time>2014-02-23T19:17:40Z</time>
      </trkpt>
      <trkpt lat="48.90579" lon="2.37669">
        <ele>30</ele>
        <time>2014-02-23T19:17:57Z</time>
      </trkpt>
      <trkpt lat="48.90583" lon="2.37675">
        <ele>29</ele>
        <time>2014-02-23T19:18:05Z</time>
      </trkpt>
      <trkpt lat="48.90588" lon="2.37678">
        <ele>34</ele>
        <time>2014-02-23T19:18:09Z</time>
      </trkpt>
      <trkpt lat="48.90607" lon="2.37684">
        <ele>42</ele>
        <time>2014-02-23T19:18:16Z</time>
      </trkpt>
      <trkpt lat="48.90628" lon="2.37689">
        <ele>45</ele>
        <time>2014-02-23T19:18:22Z</time>
      </trkpt>
      <trkpt lat="48.90636" lon="2.37686">
        <ele>46</ele>
        <time>2014-02-23T19:18:24Z</time>
      </trkpt>
      <trkpt lat="48.90643" lon="2.3768">
        <ele>40</ele>
        <time>2014-02-23T19:18:26Z</time>
      </trkpt>
      <trkpt lat="48.90661" lon="2.37668">
        <ele>43</ele>
        <time>2014-02-23T19:18:32Z</time>
      </trkpt>
      <trkpt lat="48.90679" lon="2.37656">
        <ele>40</ele>
        <time>2014-02-23T19:18:39Z</time>
      </trkpt>
      <trkpt lat="48.90685" lon="2.37653">
        <ele>40</ele>
        <time>2014-02-23T19:18:41Z</time>
      </trkpt>
      <trkpt lat="48.9069" lon="2.37651">
        <ele>41</ele>
        <time>2014-02-23T19:18:43Z</time>
      </trkpt>
      <trkpt lat="48.90706" lon="2.37648">
        <ele>43</ele>
        <time>2014-02-23T19:18:54Z</time>
      </trkpt>
      <trkpt lat="48.90711" lon="2.37651">
        <ele>38</ele>
        <time>2014-02-23T19:18:58Z</time>
      </trkpt>
      <trkpt lat="48.90725" lon="2.37662">
        <ele>46</ele>
        <time>2014-02-23T19:19:06Z</time>
      </trkpt>
      <trkpt lat="48.90726" lon="2.37663">
        <ele>45</ele>
        <time>2014-02-23T19:19:07Z</time>
      </trkpt>
      <trkpt lat="48.9073" lon="2.37669">
        <ele>42</ele>
        <time>2014-02-23T19:19:17Z</time>
      </trkpt>
      <trkpt lat="48.90735" lon="2.37674">
        <ele>41</ele>
        <time>2014-02-23T19:19:21Z</time>
      </trkpt>
      <trkpt lat="48.90739" lon="2.3768">
        <ele>42</ele>
        <time>2014-02-23T19:19:25Z</time>
      </trkpt>
      <trkpt lat="48.90744" lon="2.37684">
        <ele>37</ele>
        <time>2014-02-23T19:19:30Z</time>
      </trkpt>
      <trkpt lat="48.90747" lon="2.37686">
        <ele>37</ele>
        <time>2014-02-23T19:19:32Z</time>
      </trkpt>
      <trkpt lat="48.90751" lon="2.37692">
        <ele>44</ele>
        <time>2014-02-23T19:19:38Z</time>
      </trkpt>
      <trkpt lat="48.90758" lon="2.37695">
        <ele>40</ele>
        <time>2014-02-23T19:19:59Z</time>
      </trkpt>
      <trkpt lat="48.90763" lon="2.37703">
        <ele>48</ele>
        <time>2014-02-23T19:20:02Z</time>
      </trkpt>
      <trkpt lat="48.90769" lon="2.37709">
        <ele>49</ele>
        <time>2014-02-23T19:20:04Z</time>
      </trkpt>
      <trkpt lat="48.90781" lon="2.37719">
        <ele>47</ele>
        <time>2014-02-23T19:20:07Z</time>
      </trkpt>
      <trkpt lat="48.90815" lon="2.37749">
        <ele>44</ele>
        <time>2014-02-23T19:20:16Z</time>
      </trkpt>
      <trkpt lat="48.90822" lon="2.37758">
        <ele>43</ele>
        <time>2014-02-23T19:20:18Z</time>
      </trkpt>
      <trkpt lat="48.90827" lon="2.37767">
        <ele>40</ele>
        <time>2014-02-23T19:20:20Z</time>
      </trkpt>
      <trkpt lat="48.9084" lon="2.3779">
        <ele>38</ele>
        <time>2014-02-23T19:20:25Z</time>
      </trkpt>
      <trkpt lat="48.9084" lon="2.378">
        <ele>31</ele>
        <time>2014-02-23T19:20:28Z</time>
      </trkpt>
      <trkpt lat="48.90843" lon="2.37811">
        <ele>31</ele>
        <time>2014-02-23T19:20:31Z</time>
      </trkpt>
      <trkpt lat="48.90846" lon="2.37819">
        <ele>36</ele>
        <time>2014-02-23T19:20:44Z</time>
      </trkpt>
      <trkpt lat="48.90852" lon="2.37822">
        <ele>31</ele>
        <time>2014-02-23T19:20:47Z</time>
      </trkpt>
      <trkpt lat="48.90858" lon="2.37827">
        <ele>37</ele>
        <time>2014-02-23T19:20:51Z</time>
      </trkpt>
      <trkpt lat="48.90871" lon="2.37842">
        <ele>39</ele>
        <time>2014-02-23T19:20:57Z</time>
      </trkpt>
      <trkpt lat="48.90879" lon="2.37849">
        <ele>35</ele>
        <time>2014-02-23T19:20:59Z</time>
      </trkpt>
      <trkpt lat="48.90888" lon="2.37855">
        <ele>42</ele>
        <time>2014-02-23T19:21:01Z</time>
      </trkpt>
      <trkpt lat="48.90906" lon="2.37869">
        <ele>38</ele>
        <time>2014-02-23T19:21:05Z</time>
      </trkpt>
      <trkpt lat="48.90924" lon="2.37885">
        <ele>35</ele>
        <time>2014-02-23T19:21:10Z</time>
      </trkpt>
      <trkpt lat="48.90931" lon="2.37893">
        <ele>35</ele>
        <time>2014-02-23T19:21:12Z</time>
      </trkpt>
      <trkpt lat="48.90938" lon="2.379">
        <ele>31</ele>
        <time>2014-02-23T19:21:14Z</time>
      </trkpt>
      <trkpt lat="48.90945" lon="2.37909">
        <ele>33</ele>
        <time>2014-02-23T19:21:16Z</time>
      </trkpt>
      <trkpt lat="48.90976" lon="2.37951">
        <ele>32</ele>
        <time>2014-02-23T19:21:26Z</time>
      </trkpt>
      <trkpt lat="48.90983" lon="2.37957">
        <ele>33</ele>
        <time>2014-02-23T19:21:28Z</time>
      </trkpt>
      <trkpt lat="48.90989" lon="2.37965">
        <ele>38</ele>
        <time>2014-02-23T19:21:30Z</time>
      </trkpt>
      <trkpt lat="48.91005" lon="2.37982">
        <ele>39</ele>
        <time>2014-02-23T19:21:35Z</time>
      </trkpt>
      <trkpt lat="48.91014" lon="2.37988">
        <ele>36</ele>
        <time>2014-02-23T19:21:37Z</time>
      </trkpt>
      <trkpt lat="48.91026" lon="2.37999">
        <ele>35</ele>
        <time>2014-02-23T19:21:40Z</time>
      </trkpt>
      <trkpt lat="48.91045" lon="2.38015">
        <ele>34</ele>
        <time>2014-02-23T19:21:45Z</time>
      </trkpt>
      <trkpt lat="48.91054" lon="2.38025">
        <ele>36</ele>
        <time>2014-02-23T19:21:48Z</time>
      </trkpt>
      <trkpt lat="48.91068" lon="2.38037">
        <ele>39</ele>
        <time>2014-02-23T19:21:54Z</time>
      </trkpt>
      <trkpt lat="48.91072" lon="2.38041">
        <ele>39</ele>
        <time>2014-02-23T19:21:56Z</time>
      </trkpt>
      <trkpt lat="48.91077" lon="2.38043">
        <ele>46</ele>
        <time>2014-02-23T19:21:58Z</time>
      </trkpt>
      <trkpt lat="48.91097" lon="2.38054">
        <ele>38</ele>
        <time>2014-02-23T19:22:05Z</time>
      </trkpt>
      <trkpt lat="48.91102" lon="2.38062">
        <ele>39</ele>
        <time>2014-02-23T19:22:07Z</time>
      </trkpt>
      <trkpt lat="48.91105" lon="2.38071">
        <ele>23</ele>
        <time>2014-02-23T19:22:10Z</time>
      </trkpt>
      <trkpt lat="48.91105" lon="2.38078">
        <ele>25</ele>
        <time>2014-02-23T19:22:13Z</time>
      </trkpt>
      <trkpt lat="48.91103" lon="2.38089">
        <ele>32</ele>
        <time>2014-02-23T19:22:16Z</time>
      </trkpt>
      <trkpt lat="48.91101" lon="2.381">
        <ele>37</ele>
        <time>2014-02-23T19:22:18Z</time>
      </trkpt>
      <trkpt lat="48.91099" lon="2.38117">
        <ele>43</ele>
        <time>2014-02-23T19:22:22Z</time>
      </trkpt>
      <trkpt lat="48.91098" lon="2.38127">
        <ele>42</ele>
        <time>2014-02-23T19:22:25Z</time>
      </trkpt>
      <trkpt lat="48.91096" lon="2.38139">
        <ele>45</ele>
        <time>2014-02-23T19:22:28Z</time>
      </trkpt>
      <trkpt lat="48.91093" lon="2.38157">
        <ele>39</ele>
        <time>2014-02-23T19:22:31Z</time>
      </trkpt>
      <trkpt lat="48.91087" lon="2.38187">
        <ele>34</ele>
        <time>2014-02-23T19:22:38Z</time>
      </trkpt>
      <trkpt lat="48.91085" lon="2.38196">
        <ele>39</ele>
        <time>2014-02-23T19:22:41Z</time>
      </trkpt>
      <trkpt lat="48.91083" lon="2.38204">
        <ele>36</ele>
        <time>2014-02-23T19:22:43Z</time>
      </trkpt>
      <trkpt lat="48.91079" lon="2.38233">
        <ele>34</ele>
        <time>2014-02-23T19:22:49Z</time>
      </trkpt>
      <trkpt lat="48.91078" lon="2.38245">
        <ele>34</ele>
        <time>2014-02-23T19:22:54Z</time>
      </trkpt>
      <trkpt lat="48.91078" lon="2.38254">
        <ele>35</ele>
        <time>2014-02-23T19:22:57Z</time>
      </trkpt>
      <trkpt lat="48.91076" lon="2.38265">
        <ele>36</ele>
        <time>2014-02-23T19:23:00Z</time>
      </trkpt>
      <trkpt lat="48.91076" lon="2.38274">
        <ele>43</ele>
        <time>2014-02-23T19:23:02Z</time>
      </trkpt>
      <trkpt lat="48.91074" lon="2.38292">
        <ele>41</ele>
        <time>2014-02-23T19:23:06Z</time>
      </trkpt>
      <trkpt lat="48.91071" lon="2.383">
        <ele>38</ele>
        <time>2014-02-23T19:23:08Z</time>
      </trkpt>
      <trkpt lat="48.91067" lon="2.38315">
        <ele>39</ele>
        <time>2014-02-23T19:23:11Z</time>
      </trkpt>
      <trkpt lat="48.91064" lon="2.38326">
        <ele>36</ele>
        <time>2014-02-23T19:23:13Z</time>
      </trkpt>
      <trkpt lat="48.91061" lon="2.38337">
        <ele>36</ele>
        <time>2014-02-23T19:23:15Z</time>
      </trkpt>
      <trkpt lat="48.9106" lon="2.38345">
        <ele>36</ele>
        <time>2014-02-23T19:23:17Z</time>
      </trkpt>
      <trkpt lat="48.91059" lon="2.38375">
        <ele>39</ele>
        <time>2014-02-23T19:23:23Z</time>
      </trkpt>
      <trkpt lat="48.91057" lon="2.38386">
        <ele>41</ele>
        <time>2014-02-23T19:23:25Z</time>
      </trkpt>
      <trkpt lat="48.91053" lon="2.38395">
        <ele>41</ele>
        <time>2014-02-23T19:23:27Z</time>
      </trkpt>
      <trkpt lat="48.91047" lon="2.3842">
        <ele>27</ele>
        <time>2014-02-23T19:23:34Z</time>
      </trkpt>
      <trkpt lat="48.91047" lon="2.38432">
        <ele>27</ele>
        <time>2014-02-23T19:23:36Z</time>
      </trkpt>
      <trkpt lat="48.91046" lon="2.38441">
        <ele>27</ele>
        <time>2014-02-23T19:23:38Z</time>
      </trkpt>
      <trkpt lat="48.91045" lon="2.38449">
        <ele>28</ele>
        <time>2014-02-23T19:23:40Z</time>
      </trkpt>
      <trkpt lat="48.91041" lon="2.38477">
        <ele>30</ele>
        <time>2014-02-23T19:23:48Z</time>
      </trkpt>
      <trkpt lat="48.91042" lon="2.38486">
        <ele>30</ele>
        <time>2014-02-23T19:23:52Z</time>
      </trkpt>
      <trkpt lat="48.91041" lon="2.38496">
        <ele>37</ele>
        <time>2014-02-23T19:23:58Z</time>
      </trkpt>
      <trkpt lat="48.91039" lon="2.38505">
        <ele>43</ele>
        <time>2014-02-23T19:24:05Z</time>
      </trkpt>
      <trkpt lat="48.91042" lon="2.38515">
        <ele>39</ele>
        <time>2014-02-23T19:24:14Z</time>
      </trkpt>
      <trkpt lat="48.91046" lon="2.38522">
        <ele>25</ele>
        <time>2014-02-23T19:24:20Z</time>
      </trkpt>
      <trkpt lat="48.91041" lon="2.38531">
        <ele>26</ele>
        <time>2014-02-23T19:24:24Z</time>
      </trkpt>
      <trkpt lat="48.91034" lon="2.3854">
        <ele>33</ele>
        <time>2014-02-23T19:24:28Z</time>
      </trkpt>
      <trkpt lat="48.91029" lon="2.38546">
        <ele>35</ele>
        <time>2014-02-23T19:24:30Z</time>
      </trkpt>
      <trkpt lat="48.91011" lon="2.38562">
        <ele>36</ele>
        <time>2014-02-23T19:24:39Z</time>
      </trkpt>
      <trkpt lat="48.91004" lon="2.38568">
        <ele>37</ele>
        <time>2014-02-23T19:24:42Z</time>
      </trkpt>
      <trkpt lat="48.90996" lon="2.38577">
        <ele>35</ele>
        <time>2014-02-23T19:24:44Z</time>
      </trkpt>
      <trkpt lat="48.90978" lon="2.38595">
        <ele>35</ele>
        <time>2014-02-23T19:24:50Z</time>
      </trkpt>
      <trkpt lat="48.90972" lon="2.386">
        <ele>38</ele>
        <time>2014-02-23T19:24:52Z</time>
      </trkpt>
      <trkpt lat="48.90955" lon="2.38611">
        <ele>37</ele>
        <time>2014-02-23T19:24:58Z</time>
      </trkpt>
      <trkpt lat="48.90947" lon="2.38619">
        <ele>34</ele>
        <time>2014-02-23T19:25:01Z</time>
      </trkpt>
      <trkpt lat="48.90894" lon="2.38663">
        <ele>51</ele>
        <time>2014-02-23T19:25:22Z</time>
      </trkpt>
      <trkpt lat="48.90886" lon="2.38668">
        <ele>45</ele>
        <time>2014-02-23T19:25:24Z</time>
      </trkpt>
      <trkpt lat="48.90867" lon="2.38676">
        <ele>32</ele>
        <time>2014-02-23T19:25:29Z</time>
      </trkpt>
      <trkpt lat="48.90858" lon="2.38678">
        <ele>35</ele>
        <time>2014-02-23T19:25:34Z</time>
      </trkpt>
      <trkpt lat="48.90853" lon="2.38683">
        <ele>36</ele>
        <time>2014-02-23T19:25:40Z</time>
      </trkpt>
      <trkpt lat="48.90847" lon="2.38693">
        <ele>35</ele>
        <time>2014-02-23T19:25:44Z</time>
      </trkpt>
      <trkpt lat="48.90882" lon="2.38724">
        <ele>47</ele>
        <time>2014-02-23T19:26:21Z</time>
      </trkpt>
      <trkpt lat="48.90785" lon="2.38797">
        <ele>45</ele>
        <time>2014-02-23T19:27:13Z</time>
      </trkpt>
      <trkpt lat="48.9075" lon="2.38815">
        <ele>41</ele>
        <time>2014-02-23T19:27:37Z</time>
      </trkpt>
      <trkpt lat="48.90753" lon="2.38816">
        <ele>41</ele>
        <time>2014-02-23T19:27:54Z</time>
      </trkpt>
      <trkpt lat="48.90768" lon="2.38815">
        <ele>18</ele>
        <time>2014-02-23T19:28:00Z</time>
      </trkpt>
      <trkpt lat="48.90792" lon="2.38807">
        <ele>20</ele>
        <time>2014-02-23T19:28:05Z</time>
      </trkpt>
      <trkpt lat="48.90799" lon="2.38797">
        <ele>22</ele>
        <time>2014-02-23T19:28:09Z</time>
      </trkpt>
      <trkpt lat="48.90804" lon="2.38799">
        <ele>32</ele>
        <time>2014-02-23T19:28:14Z</time>
      </trkpt>
      <trkpt lat="48.90808" lon="2.38796">
        <ele>35</ele>
        <time>2014-02-23T19:28:17Z</time>
      </trkpt>
      <trkpt lat="48.90814" lon="2.38795">
        <ele>31</ele>
        <time>2014-02-23T19:28:22Z</time>
      </trkpt>
      <trkpt lat="48.90819" lon="2.38797">
        <ele>29</ele>
        <time>2014-02-23T19:28:25Z</time>
      </trkpt>
      <trkpt lat="48.90827" lon="2.38801">
        <ele>36</ele>
        <time>2014-02-23T19:28:28Z</time>
      </trkpt>
      <trkpt lat="48.90841" lon="2.38807">
        <ele>42</ele>
        <time>2014-02-23T19:28:35Z</time>
      </trkpt>
      <trkpt lat="48.90849" lon="2.38812">
        <ele>34</ele>
        <time>2014-02-23T19:28:39Z</time>
      </trkpt>
      <trkpt lat="48.90856" lon="2.38813">
        <ele>42</ele>
        <time>2014-02-23T19:28:42Z</time>
      </trkpt>
      <trkpt lat="48.90897" lon="2.38813">
        <ele>41</ele>
        <time>2014-02-23T19:29:01Z</time>
      </trkpt>
      <trkpt lat="48.90903" lon="2.38808">
        <ele>42</ele>
        <time>2014-02-23T19:29:27Z</time>
      </trkpt>
      <trkpt lat="48.90911" lon="2.38805">
        <ele>38</ele>
        <time>2014-02-23T19:29:33Z</time>
      </trkpt>
      <trkpt lat="48.90911" lon="2.38805">
        <ele>39</ele>
        <time>2014-02-23T19:29:33Z</time>
      </trkpt>
    </trkseg>
  </trk>
</gpx>